# Wetter Temperatur Luftdruck Luftfeuchtigkeit Sichtweite Windgeschwindigkeit Windrichtung Zeit
1 Clear 26 1013 26 10000 1 160 20:21 02.04.2020
2 Clear 27 1012 24 10000 2.86 0 19:44 02.04.2020
3 Clear 27 1012 24 10000 2.86 0 19:21 02.04.2020
4 Clear 31 1012 18 10000 2.1 270 18:58 02.04.2020
5 Clear 31 1012 18 10000 2.1 270 18:39 02.04.2020
6 Clear 31 1012 18 10000 2.1 270 18:20 02.04.2020
7 Clear 33 1011 10 10000 2.6 280 17:56 02.04.2020
8 Clear 33 1011 10 10000 2.6 280 17:38 02.04.2020
9 Clear 33 1011 10 10000 2.6 280 17:18 02.04.2020
10 Clear 34 1011 10 10000 3.1 280 16:55 02.04.2020
11 Clear 34 1011 10 10000 3.1 280 16:36 02.04.2020
12 Clear 34 1011 10 10000 3.1 280 16:18 02.04.2020
13 Clear 34 1011 12 10000 3.6 270 15:44 02.04.2020
14 Clear 34 1011 12 10000 3.6 270 15:44 02.04.2020
15 Clear 34 1011 12 10000 3.6 270 15:43 02.04.2020
16 Clear 34 1011 12 10000 3.6 270 15:21 02.04.2020
17 Clear 35 1011 10 10000 4.6 270 14:58 02.04.2020
18 Clear 35 1011 10 10000 4.6 270 14:39 02.04.2020
19 Clear 35 1011 10 10000 4.6 270 14:19 02.04.2020
20 Clear 34 1011 9 10000 4.1 290 13:56 02.04.2020
21 Clear 34 1011 9 10000 4.1 290 13:38 02.04.2020
22 Clear 34 1011 9 10000 4.1 290 13:19 02.04.2020
23 Clear 35 1012 11 10000 3.1 300 12:47 02.04.2020
24 Clear 35 1012 11 10000 3.1 300 12:21 02.04.2020
25 Clear 34 1013 9 10000 3.1 290 11:58 02.04.2020
26 Clear 34 1013 9 10000 3.1 290 11:39 02.04.2020
27 Clear 34 1013 9 10000 3.1 290 11:21 02.04.2020
28 Clear 32 1014 9 10000 4.1 250 10:57 02.04.2020
29 Clear 32 1014 9 10000 4.1 250 10:39 02.04.2020
30 Clear 32 1014 9 10000 4.1 250 10:21 02.04.2020
31 Clear 31 1015 15 10000 2.1 240 09:59 02.04.2020
32 Clear 31 1015 15 10000 2.1 240 09:59 02.04.2020
33 Clear 31 1015 15 10000 2.1 240 09:41 02.04.2020
34 Clear 31 1015 15 10000 2.1 240 09:23 02.04.2020
35 Clouds 28 1015 23 10000 2.1 260 08:58 02.04.2020
36 Clouds 28 1015 23 10000 2.1 260 08:39 02.04.2020
37 Clouds 28 1015 23 10000 2.1 260 08:19 02.04.2020
38 Clouds 26 1014 26 10000 2.1 160 07:42 02.04.2020
39 Clouds 26 1014 26 10000 2.1 160 07:19 02.04.2020
40 Clouds 23 1014 28 10000 2.1 160 06:46 02.04.2020
41 Clouds 23 1014 28 10000 2.1 160 06:20 02.04.2020
42 Clouds 22 1013 30 8000 4.38 219 05:41 02.04.2020
43 Clouds 25 1012 22 10000 2.6 160 02:59 02.04.2020
44 Clouds 26 1012 19 10000 4.1 180 01:30 02.04.2020
45 Clouds 27 1012 15 10000 6.7 180 00:42 02.04.2020
46 Clouds 27 1012 15 10000 6.7 180 00:24 02.04.2020
47 Clouds 27 1013 15 10000 5.7 180 23:41 01.04.2020
48 Clouds 27 1013 15 10000 5.7 180 23:20 01.04.2020
49 Clouds 27 1013 15 10000 6.7 170 22:58 01.04.2020
50 Clouds 27 1013 15 10000 6.7 170 22:58 01.04.2020
51 Clouds 27 1013 15 10000 6.7 170 22:39 01.04.2020
52 Clouds 27 1013 15 10000 6.7 170 22:21 01.04.2020
53 Clouds 27 1013 15 10000 6.7 170 22:21 01.04.2020
54 Clouds 28 1014 15 10000 6.2 170 21:42 01.04.2020
55 Clouds 28 1014 15 10000 6.2 170 21:42 01.04.2020
56 -273 0 0 0 0 0 21:22 01.04.2020
57 Clouds 28 1014 15 10000 6.2 170 21:22 01.04.2020
58 Clouds 28 1014 15 10000 6.2 170 21:22 01.04.2020
59 Clouds 28 1014 19 9000 5.1 170 20:57 01.04.2020
60 Clouds 28 1014 19 9000 5.1 170 20:39 01.04.2020
61 Clouds 28 1014 19 9000 5.1 170 20:20 01.04.2020
62 Clouds 28 1014 19 9000 5.1 170 20:20 01.04.2020
63 Clouds 29 1014 16 8000 4.6 170 19:59 01.04.2020
64 Clouds 29 1014 16 8000 4.6 170 19:41 01.04.2020
65 -273 0 0 0 0 0 19:20 01.04.2020
66 Clouds 30 1013 17 8000 3.6 170 18:44 01.04.2020
67 Clouds 30 1013 17 8000 3.6 170 18:25 01.04.2020
68 Clouds 31 1013 16 6000 3.6 190 17:58 01.04.2020
69 Clouds 31 1013 16 6000 3.6 190 17:38 01.04.2020
70 Clouds 31 1013 16 6000 3.6 190 17:19 01.04.2020
71 Clouds 32 1013 13 6000 6.2 190 16:59 01.04.2020
72 Clouds 32 1013 13 6000 6.2 190 16:39 01.04.2020
73 Clouds 32 1013 13 6000 6.2 190 16:21 01.04.2020
74 Clouds 32 1013 14 6000 6.2 180 15:57 01.04.2020
75 Clouds 32 1013 14 6000 6.2 180 15:38 01.04.2020
76 Clouds 32 1013 14 6000 6.2 180 15:19 01.04.2020
77 Clouds 32 1014 14 6000 6.2 180 14:55 01.04.2020
78 Clouds 32 1014 14 6000 6.2 180 14:55 01.04.2020
79 Clouds 32 1014 14 6000 6.2 180 14:37 01.04.2020
80 Clouds 32 1014 14 6000 6.2 180 14:19 01.04.2020
81 Clouds 32 1015 13 6000 6.2 190 13:56 01.04.2020
82 Clouds 32 1015 13 6000 6.2 190 13:37 01.04.2020
83 Clouds 32 1015 13 6000 6.2 190 13:18 01.04.2020
84 Clouds 30 1016 15 6000 6.2 170 12:42 01.04.2020
85 Clouds 30 1016 15 6000 6.2 170 12:24 01.04.2020
86 Clear 28 1017 15 6000 7.7 180 11:59 01.04.2020
87 Clear 28 1017 15 6000 7.7 180 11:39 01.04.2020
88 Clear 28 1017 15 6000 7.7 180 11:20 01.04.2020
89 Clear 27 1017 15 7000 6.2 170 10:56 01.04.2020
90 Clear 27 1017 15 7000 6.2 170 10:37 01.04.2020
91 Clear 27 1017 15 7000 6.2 170 10:37 01.04.2020
92 Clear 27 1017 15 7000 6.2 170 10:18 01.04.2020
93 Clear 26 1018 14 8000 7.2 170 09:40 01.04.2020
94 Clear 26 1018 14 8000 7.2 170 09:40 01.04.2020
95 Clear 26 1018 14 8000 7.2 170 09:21 01.04.2020
96 Clear 24 1018 17 8000 7.7 170 08:59 01.04.2020
97 Clear 24 1018 17 8000 7.7 170 08:40 01.04.2020
98 Clear 24 1018 17 8000 7.7 170 08:18 01.04.2020
99 Clear 23 1018 18 9000 6.7 170 07:42 01.04.2020
100 Clear 23 1018 18 9000 6.7 170 07:19 01.04.2020
101 Clear 21 1017 22 10000 4.6 160 06:47 01.04.2020
102 Clear 21 1017 22 10000 4.6 160 06:21 01.04.2020
103 Clear 20 1017 24 10000 4.1 160 05:53 01.04.2020
104 Clear 21 1017 21 10000 4.6 170 04:29 01.04.2020
105 Clear 21 1016 22 10000 4.1 170 03:21 01.04.2020
106 Clear 21 1016 22 10000 3.1 150 02:41 01.04.2020
107 Clear 22 1017 22 10000 3.6 150 01:53 01.04.2020
108 Clear 22 1017 22 10000 3.6 150 01:27 01.04.2020
109 Clear 22 1017 22 10000 2.6 150 00:47 01.04.2020
110 Clear 22 1017 22 10000 2.6 150 00:24 01.04.2020
111 Clear 23 1017 23 10000 3.1 150 23:59 31.03.2020
112 Clear 23 1017 23 10000 3.1 150 23:41 31.03.2020
113 Clear 23 1017 25 10000 3.1 130 23:22 31.03.2020
114 Clear 23 1017 25 10000 3.1 130 22:41 31.03.2020
115 Clear 23 1017 25 10000 3.1 130 22:22 31.03.2020
116 Clear 24 1018 25 10000 2.1 130 21:58 31.03.2020
117 Clear 24 1018 25 10000 2.1 130 21:40 31.03.2020
118 Clear 24 1018 25 10000 2.1 130 21:21 31.03.2020
119 Clear 24 1018 31 10000 2.1 130 20:58 31.03.2020
120 Clear 24 1018 31 10000 2.1 130 20:37 31.03.2020
121 Clear 24 1018 31 10000 2.1 130 20:19 31.03.2020
122 Clear 26 1017 21 10000 3.1 140 19:57 31.03.2020
123 Clear 26 1017 21 10000 3.1 140 19:38 31.03.2020
124 Clear 26 1017 21 10000 3.1 140 19:19 31.03.2020
125 Clear 26 1017 24 10000 2.1 140 18:44 31.03.2020
126 Clear 27 1017 22 10000 2.6 150 18:21 31.03.2020
127 Clear 27 1017 22 10000 2.6 150 17:57 31.03.2020
128 Clear 27 1017 22 10000 2.6 150 17:57 31.03.2020
129 Clear 27 1017 22 10000 2.6 150 17:39 31.03.2020
130 Clear 27 1017 22 10000 2.6 150 17:21 31.03.2020
131 Clear 28 1017 21 10000 3.1 130 16:56 31.03.2020
132 Clear 28 1017 21 10000 3.1 130 16:37 31.03.2020
133 Clear 28 1017 21 10000 3.1 130 16:18 31.03.2020
134 Clear 28 1017 20 10000 2.1 120 15:56 31.03.2020
135 Clear 28 1017 20 10000 2.1 120 15:37 31.03.2020
136 Clear 28 1017 20 10000 2.1 120 15:37 31.03.2020
137 Clear 28 1017 20 10000 2.1 120 15:18 31.03.2020
138 Clear 29 1017 20 10000 2.1 140 14:42 31.03.2020
139 Clear 29 1017 20 10000 2.1 140 14:23 31.03.2020
140 Clear 29 1017 18 10000 3.1 170 13:59 31.03.2020
141 Clear 29 1017 18 10000 3.1 170 13:40 31.03.2020
142 Clear 29 1017 18 10000 3.1 170 13:19 31.03.2020
143 Clear 29 1017 18 10000 3.1 170 13:19 31.03.2020
144 Clear 28 1018 18 10000 3.1 130 12:46 31.03.2020
145 Clear 28 1018 18 10000 3.1 130 12:21 31.03.2020
146 Clear 28 1018 18 10000 3.1 130 12:21 31.03.2020
147 Clear 27 1019 19 10000 2.6 110 11:59 31.03.2020
148 Clear 27 1019 19 10000 2.6 110 11:38 31.03.2020
149 Clear 27 1019 19 10000 2.6 110 11:19 31.03.2020
150 Clear 26 1020 19 10000 2.6 130 10:56 31.03.2020
151 Clear 26 1020 19 10000 2.6 130 10:38 31.03.2020
152 Clear 26 1020 19 10000 2.6 130 10:20 31.03.2020
153 Clear 24 1021 19 10000 3.1 110 09:45 31.03.2020
154 Clear 24 1021 19 10000 3.1 110 09:26 31.03.2020
155 Clear 23 1021 15 10000 3.1 120 08:59 31.03.2020
156 Clear 23 1021 15 10000 3.1 120 08:41 31.03.2020
157 Clear 23 1021 15 10000 3.1 120 08:21 31.03.2020
158 Clear 21 1021 30 10000 1.5 150 07:59 31.03.2020
159 Clear 21 1021 30 10000 1.5 150 07:41 31.03.2020
160 Clear 21 1021 30 10000 1.5 150 07:22 31.03.2020
161 Clear 19 1020 37 10000 1 140 06:55 31.03.2020
162 Clear 19 1020 37 10000 1 140 06:36 31.03.2020
163 Clear 15 1019 41 10000 2.67 92 05:42 31.03.2020
164 Clear 15 1019 41 10000 2.67 92 05:20 31.03.2020
165 Clear 18 1017 34 10000 1.5 310 02:40 31.03.2020
166 Clear 18 1017 36 10000 1 340 01:47 31.03.2020
167 Clear 18 1017 36 10000 1 340 01:19 31.03.2020
168 Clear 18 1017 34 10000 1 360 00:42 31.03.2020
169 Clear 18 1017 34 10000 1 360 00:19 31.03.2020
170 Clear 19 1018 34 10000 1.5 360 23:39 30.03.2020
171 Clear 19 1018 34 10000 1.5 360 23:20 30.03.2020
172 Clear 21 1018 30 10000 1.5 30 22:57 30.03.2020
173 Clear 21 1018 30 10000 1.5 30 22:38 30.03.2020
174 Clear 21 1018 30 10000 1.5 30 22:18 30.03.2020
175 Clear 22 1018 24 10000 2.6 20 21:57 30.03.2020
176 Clear 22 1018 24 10000 2.6 20 21:37 30.03.2020
177 Clear 22 1018 24 10000 2.6 20 21:19 30.03.2020
178 Clear 23 1017 25 10000 3.6 20 20:56 30.03.2020
179 Clear 23 1017 25 10000 3.6 20 20:37 30.03.2020
180 Clear 23 1017 25 10000 3.6 20 20:19 30.03.2020
181 Clear 24 1017 23 10000 4.1 10 19:41 30.03.2020
182 Clear 24 1017 23 10000 4.1 10 19:22 30.03.2020
183 Clear 25 1016 25 10000 3.6 20 18:57 30.03.2020
184 Clear 25 1016 25 10000 3.6 20 18:39 30.03.2020
185 Clear 25 1016 25 10000 3.6 20 18:20 30.03.2020
186 Clear 26 1015 24 10000 3.1 360 17:57 30.03.2020
187 Clear 26 1015 24 10000 3.1 360 17:38 30.03.2020
188 Clear 26 1015 24 10000 3.1 360 17:19 30.03.2020
189 Clear 27 1015 24 10000 2.6 10 16:55 30.03.2020
190 Clear 27 1015 24 10000 2.6 10 16:37 30.03.2020
191 Clear 27 1015 24 10000 2.6 10 16:19 30.03.2020
192 Clear 29 1015 23 10000 2.6 340 15:54 30.03.2020
193 Clear 29 1015 23 10000 2.6 340 15:36 30.03.2020
194 Clear 29 1015 23 10000 2.6 340 15:18 30.03.2020
195 Clear 28 1015 20 10000 4.1 360 14:39 30.03.2020
196 Clear 28 1015 20 10000 4.1 360 14:19 30.03.2020
197 Clear 27 1015 22 10000 2.6 340 13:59 30.03.2020
198 Clear 27 1015 22 10000 2.6 340 13:40 30.03.2020
199 Clear 27 1015 22 10000 2.6 340 13:21 30.03.2020
200 Clear 28 1016 23 10000 3.6 340 12:56 30.03.2020
201 Clear 28 1016 23 10000 3.6 340 12:37 30.03.2020
202 Clear 28 1016 23 10000 3.6 340 12:19 30.03.2020
203 Clear 27 1017 26 10000 2.6 350 11:56 30.03.2020
204 Clear 27 1017 26 10000 2.6 350 11:38 30.03.2020
205 Clear 27 1017 26 10000 2.6 350 11:20 30.03.2020
206 Clear 24 1017 29 10000 3.6 20 10:39 30.03.2020
207 Clear 24 1017 29 10000 3.6 20 10:21 30.03.2020
208 Clear 24 1017 31 10000 3.1 360 09:55 30.03.2020
209 Clear 24 1017 31 10000 3.1 360 09:37 30.03.2020
210 Clear 24 1017 31 10000 3.1 360 09:18 30.03.2020
211 Clear 22 1017 33 10000 4.1 360 08:40 30.03.2020
212 Clear 22 1017 33 10000 4.1 360 08:22 30.03.2020
213 Clear 21 1017 37 10000 3.6 340 07:49 30.03.2020
214 Clear 21 1017 37 10000 3.6 340 07:26 30.03.2020
215 Clear 17 1016 51 8000 3.1 300 06:52 30.03.2020
216 Clear 17 1016 51 8000 3.1 300 06:30 30.03.2020
217 Clear 17 1015 51 7000 3.1 320 05:47 30.03.2020
218 Clear 17 1015 51 7000 3.1 320 05:18 30.03.2020
219 Clear 17 1015 51 10000 1.5 290 04:21 30.03.2020
220 Clear 17 1013 48 10000 2.1 310 03:19 30.03.2020
221 Clear 19 1013 39 10000 3.6 360 01:59 30.03.2020
222 Clear 19 1013 39 10000 3.6 360 01:24 30.03.2020
223 Clear 20 1013 34 10000 4.1 350 00:30 30.03.2020
224 Clear 21 1013 32 10000 3.6 30 23:59 29.03.2020
225 Clear 21 1013 32 10000 3.6 30 23:40 29.03.2020
226 Clear 21 1013 32 10000 3.6 30 23:21 29.03.2020
227 Clear 22 1013 28 9000 4.6 30 22:55 29.03.2020
228 Clear 22 1013 28 9000 4.6 30 22:37 29.03.2020
229 Clear 22 1013 28 9000 4.6 30 22:18 29.03.2020
230 Clear 23 1012 28 8000 5.1 20 21:39 29.03.2020
231 Clear 23 1012 28 8000 5.1 20 21:20 29.03.2020
232 Clear 24 1012 27 8000 5.7 10 20:56 29.03.2020
233 Clear 24 1012 27 8000 5.7 10 20:37 29.03.2020
234 Clear 24 1012 27 8000 5.7 10 20:19 29.03.2020
235 Clear 24 1011 27 6000 7.2 20 19:58 29.03.2020
236 Clear 24 1011 27 6000 7.2 20 19:40 29.03.2020
237 Clear 24 1011 27 6000 7.2 20 19:22 29.03.2020
238 Clear 25 1010 25 6000 7.2 20 18:57 29.03.2020
239 Clear 25 1010 25 6000 7.2 20 18:38 29.03.2020
240 Clear 25 1010 25 6000 7.2 20 18:19 29.03.2020
241 Clear 26 1010 24 6000 7.2 30 17:56 29.03.2020
242 Clear 26 1010 24 6000 7.2 30 17:38 29.03.2020
243 Clear 26 1010 24 6000 7.2 30 17:19 29.03.2020
244 Clouds 28 1010 20 6000 5.7 330 16:56 29.03.2020
245 Clouds 28 1010 20 6000 5.7 330 16:38 29.03.2020
246 Clouds 28 1010 20 6000 5.7 330 16:19 29.03.2020
247 Clear 29 1009 18 6000 6.2 360 15:41 29.03.2020
248 Clear 29 1009 18 6000 6.2 360 15:41 29.03.2020
249 Clear 29 1009 18 6000 6.2 360 15:23 29.03.2020
250 Clear 29 1009 21 8000 4.6 340 14:58 29.03.2020
251 Clear 29 1009 21 8000 4.6 340 14:40 29.03.2020
252 Clear 29 1009 21 8000 4.6 340 14:20 29.03.2020
253 Clear 29 1009 23 8000 5.1 10 13:58 29.03.2020
254 Clear 29 1009 23 8000 5.1 10 13:39 29.03.2020
255 Clear 29 1009 23 8000 5.1 10 13:20 29.03.2020
256 Clear 29 1009 21 8000 6.7 350 12:56 29.03.2020
257 Clear 29 1009 21 8000 6.7 350 12:37 29.03.2020
258 Clear 29 1009 21 8000 6.7 350 12:19 29.03.2020
259 Clear 29 1010 23 7000 5.1 340 11:55 29.03.2020
260 Clear 29 1010 23 7000 5.1 340 11:37 29.03.2020
261 Clear 29 1010 23 7000 5.1 340 11:18 29.03.2020
262 Clear 29 1010 23 7000 5.1 340 11:18 29.03.2020
263 Clear 27 1011 28 7000 6.2 360 10:38 29.03.2020
264 Clear 27 1011 28 7000 6.2 360 10:19 29.03.2020
265 Clear 25 1011 36 7000 6.7 10 09:41 29.03.2020
266 Clear 25 1011 36 7000 6.7 10 09:22 29.03.2020
267 Clear 24 1011 44 7000 6.2 360 08:54 29.03.2020
268 Clear 24 1011 44 7000 6.2 360 08:36 29.03.2020
269 Clear 24 1011 44 7000 6.2 360 08:18 29.03.2020
270 Dust 22 1011 53 5000 3.6 350 07:42 29.03.2020
271 Dust 22 1011 53 5000 3.6 350 07:21 29.03.2020
272 Dust 20 1010 42 5000 3.1 320 05:46 29.03.2020
273 Dust 22 1009 35 5000 4.1 330 04:27 29.03.2020
274 Dust 23 1009 31 5000 5.1 320 03:31 29.03.2020
275 Dust 24 1008 27 5000 5.7 340 01:51 29.03.2020
276 Dust 24 1008 27 5000 5.7 340 01:23 29.03.2020
277 Dust 25 1009 23 3000 5.7 330 00:56 29.03.2020
278 Dust 25 1009 23 3000 5.7 330 00:33 29.03.2020
279 Dust 25 1009 25 3000 4.6 320 23:56 28.03.2020
280 Dust 25 1009 25 3000 4.6 320 23:38 28.03.2020
281 Dust 25 1009 25 3000 4.6 320 23:18 28.03.2020
282 Dust 27 1009 19 3000 5.1 330 22:39 28.03.2020
283 Dust 27 1009 19 3000 5.1 330 22:21 28.03.2020
284 Dust 28 1008 28 3000 3.6 330 21:55 28.03.2020
285 Dust 28 1008 28 3000 3.6 330 21:37 28.03.2020
286 Dust 28 1008 28 3000 3.6 330 21:18 28.03.2020
287 Dust 28 1008 34 3000 3.6 310 20:42 28.03.2020
288 Dust 28 1008 34 3000 3.6 310 20:23 28.03.2020
289 Dust 31 1007 25 3000 2.6 270 19:57 28.03.2020
290 Dust 31 1007 25 3000 2.6 270 19:39 28.03.2020
291 Dust 31 1007 25 3000 2.6 270 19:20 28.03.2020
292 Dust 31 1006 29 3000 2.1 240 18:58 28.03.2020
293 Dust 31 1006 29 3000 2.1 240 18:39 28.03.2020
294 Dust 31 1006 29 3000 2.1 240 18:19 28.03.2020
295 Dust 31 1006 29 3000 2.1 240 18:19 28.03.2020
296 Dust 30 1006 28 3000 2.6 270 17:39 28.03.2020
297 Dust 30 1006 28 3000 2.6 270 17:20 28.03.2020
298 Dust 30 1006 33 3000 3.6 270 16:43 28.03.2020
299 Thunderstorm 31 1006 31 4000 4.1 290 16:20 28.03.2020
300 Thunderstorm 31 1006 31 4000 4.1 290 16:20 28.03.2020
301 Thunderstorm 31 1006 31 4000 4.1 290 16:20 28.03.2020
302 Dust 35 1005 13 3000 6.7 260 15:59 28.03.2020
303 Dust 35 1005 13 3000 6.7 260 15:39 28.03.2020
304 Dust 35 1005 13 5000 6.2 240 15:19 28.03.2020
305 Dust 35 1005 12 5000 8.7 240 14:55 28.03.2020
306 Dust 35 1005 12 5000 8.7 240 14:37 28.03.2020
307 Dust 35 1005 12 5000 8.7 240 14:18 28.03.2020
308 Clouds 36 1006 12 8000 4.6 240 13:39 28.03.2020
309 Clouds 36 1006 12 8000 4.6 240 13:21 28.03.2020
310 Clouds 35 1007 13 10000 4.6 220 12:40 28.03.2020
311 Clouds 35 1007 13 10000 4.6 220 12:22 28.03.2020
312 Clouds 34 1008 14 10000 4.1 210 11:43 28.03.2020
313 Clouds 34 1008 14 10000 4.1 210 11:23 28.03.2020
314 Clouds 35 1009 14 10000 3.1 160 10:57 28.03.2020
315 Clouds 35 1009 14 10000 3.1 160 10:38 28.03.2020
316 Clouds 35 1009 14 10000 3.1 160 10:18 28.03.2020
317 Clouds 33 1021 16 9000 3.6 150 09:42 28.03.2020
318 Clouds 33 1021 16 9000 3.6 150 09:23 28.03.2020
319 Clouds 31 1012 16 8000 3.6 170 08:47 28.03.2020
320 Clouds 31 1012 16 8000 3.6 170 08:28 28.03.2020
321 Clouds 29 1012 28 8000 1 240 07:59 28.03.2020
322 Clouds 29 1012 28 8000 1 240 07:41 28.03.2020
323 Clouds 27 1011 32 7000 1 50 06:56 28.03.2020
324 Clouds 27 1011 32 7000 1 50 06:34 28.03.2020
325 Clouds 23 1011 38 8000 1 340 05:41 28.03.2020
326 Clouds 23 1011 38 8000 1 340 05:21 28.03.2020
327 Clouds 23 1010 35 8000 1 250 04:40 28.03.2020
328 Clouds 23 1010 33 10000 1.5 110 03:21 28.03.2020
329 Clouds 23 1011 33 10000 1.5 200 01:49 28.03.2020
330 Clouds 23 1011 33 10000 1.5 200 01:24 28.03.2020
331 Clouds 24 1011 33 10000 2.55 84 00:55 28.03.2020
332 Clouds 24 1011 33 10000 2.55 84 00:33 28.03.2020
333 Clouds 25 1011 29 10000 1 270 23:45 27.03.2020
334 Clouds 25 1011 29 10000 1 270 23:26 27.03.2020
335 Clouds 24 1011 36 10000 1 330 22:58 27.03.2020
336 Clouds 24 1011 36 10000 1 330 22:40 27.03.2020
337 Clouds 24 1011 36 10000 1 330 22:21 27.03.2020
338 Clouds 25 1011 33 10000 1 50 22:00 27.03.2020
339 Clouds 25 1011 33 10000 1 50 21:41 27.03.2020
340 Clouds 24 1011 36 10000 4.29 16 21:23 27.03.2020
341 Clouds 24 1011 36 10000 4.29 16 20:57 27.03.2020
342 Clouds 24 1011 36 10000 4.29 16 20:39 27.03.2020
343 Clouds 24 1011 36 10000 3.69 354 20:19 27.03.2020
344 Clouds 24 1011 36 10000 2.93 356 20:19 27.03.2020
345 Clouds 27 1011 32 10000 1 230 19:56 27.03.2020
346 Clouds 27 1011 32 10000 1 230 19:38 27.03.2020
347 Clouds 27 1011 32 10000 1 230 19:19 27.03.2020
348 Clouds 30 1011 19 8000 2.1 270 18:43 27.03.2020
349 Clouds 30 1011 19 8000 2.1 270 18:23 27.03.2020
350 Clouds 30 1010 17 8000 3.6 290 17:55 27.03.2020
351 Clouds 30 1010 17 8000 3.6 290 17:36 27.03.2020
352 Clouds 30 1010 17 8000 3.6 290 17:18 27.03.2020
353 Clouds 32 1010 13 8000 6.2 290 16:43 27.03.2020
354 Clouds 32 1010 13 8000 6.2 290 16:24 27.03.2020
355 Clouds 33 1010 13 10000 6.2 290 15:44 27.03.2020
356 Clouds 30 1007 11 0 2.82 304 15:26 27.03.2020
357 Clouds 30 1007 11 0 2.82 304 14:56 27.03.2020
358 Clouds 30 1007 11 0 2.82 304 14:36 27.03.2020
359 Clouds 34 1006 9 0 5.35 271 14:18 27.03.2020
360 Clouds 34 1006 9 0 5.35 271 13:42 27.03.2020
361 Clouds 34 1006 9 0 5.35 271 13:21 27.03.2020
362 Clouds 34 1005 9 0 5.11 271 12:58 27.03.2020
363 Clouds 34 1005 9 0 5.11 271 12:39 27.03.2020
364 Clouds 34 1005 9 0 5.11 271 12:19 27.03.2020
365 Clouds 34 1005 9 0 5.11 271 11:42 27.03.2020
366 Clouds 34 1005 9 0 5.11 271 11:24 27.03.2020
367 Clouds 33 1009 9 0 5.47 230 10:55 27.03.2020
368 Clouds 33 1009 9 0 5.47 230 10:37 27.03.2020
369 Clouds 33 1009 9 0 5.47 230 10:19 27.03.2020
370 Clouds 33 1009 9 0 5.47 230 09:57 27.03.2020
371 Clouds 33 1009 9 0 5.47 230 09:38 27.03.2020
372 Clouds 33 1009 9 0 5.47 230 09:19 27.03.2020
373 Clouds 33 1009 9 0 5.47 230 08:56 27.03.2020
374 Clouds 33 1009 9 0 5.47 230 08:38 27.03.2020
375 Clouds 27 1011 16 0 8.24 186 08:20 27.03.2020
376 Clouds 27 1011 14 0 6.75 182 07:52 27.03.2020
377 Clouds 27 1011 14 0 6.75 182 07:25 27.03.2020
378 Clouds 27 1011 14 0 6.75 182 06:53 27.03.2020
379 Clouds 27 1011 14 0 6.75 182 06:35 27.03.2020
380 Clouds 20 1010 23 0 4.78 145 04:59 27.03.2020
381 Clouds 20 1010 23 0 4.78 145 02:36 27.03.2020
382 Clouds 20 1008 20 0 5.03 130 01:23 27.03.2020
383 Clouds 20 1008 20 0 5.89 130 00:50 27.03.2020
384 Clouds 20 1008 20 0 5.89 130 00:24 27.03.2020
385 Clouds 20 1008 20 0 5.89 130 23:44 26.03.2020
386 Clouds 22 1009 17 0 4.11 117 23:22 26.03.2020
387 Clouds 22 1009 17 0 4.11 117 22:59 26.03.2020
388 Clouds 22 1009 17 0 4.11 117 22:38 26.03.2020
389 Clouds 22 1009 17 0 4.11 117 22:19 26.03.2020
390 Clouds 22 1009 17 0 4.11 117 21:56 26.03.2020
391 Clouds 22 1009 17 0 4.11 117 21:37 26.03.2020
392 Clouds 22 1009 17 0 4.11 117 21:18 26.03.2020
393 Clouds 22 1009 17 0 4.11 117 20:56 26.03.2020
394 Clouds 22 1009 17 0 4.11 117 20:37 26.03.2020
395 Clouds 24 1008 14 0 2.06 217 20:19 26.03.2020
396 Clouds 24 1008 15 0 1.21 7 19:54 26.03.2020
397 Clouds 24 1008 15 0 1.21 7 19:36 26.03.2020
398 Clouds 24 1008 15 0 1.21 7 19:18 26.03.2020
399 Clouds 24 1008 15 0 1.21 7 18:41 26.03.2020
400 Clouds 24 1008 15 0 1.21 7 18:23 26.03.2020
401 Clouds 24 1008 15 0 1.21 7 17:55 26.03.2020
402 Clouds 24 1008 15 0 1.21 7 17:37 26.03.2020
403 Clouds 29 1006 11 0 2.04 203 17:18 26.03.2020
404 Clouds 29 1006 11 0 2.04 203 16:40 26.03.2020
405 Clouds 29 1006 11 0 2.04 203 16:21 26.03.2020
406 Clouds 29 1006 11 0 2.04 203 15:57 26.03.2020
407 Clouds 29 1006 11 0 2.04 203 15:38 26.03.2020
408 Clouds 29 1006 11 0 2.04 203 15:38 26.03.2020
409 Clouds 29 1006 11 0 2.04 203 15:20 26.03.2020
410 Clouds 29 1006 11 0 2.04 203 14:44 26.03.2020
411 Clouds 29 1006 11 0 2.04 203 14:26 26.03.2020
412 Clouds 33 1005 9 0 6.58 229 13:59 26.03.2020
413 Clouds 33 1005 9 0 6.58 229 13:40 26.03.2020
414 Clouds 33 1005 9 0 6.37 227 13:21 26.03.2020
415 Clouds 33 1005 9 0 6.37 227 13:21 26.03.2020
416 Clouds 33 1005 9 0 6.37 227 12:39 26.03.2020
417 Clouds 33 1005 9 0 6.37 227 12:21 26.03.2020
418 Clouds 33 1005 9 0 6.37 227 11:56 26.03.2020
419 Clouds 33 1005 9 0 6.37 227 11:56 26.03.2020
420 Clouds 33 1005 9 0 6.37 227 11:37 26.03.2020
421 Clear 31 1009 10 0 7.3 199 11:19 26.03.2020
422 Clear 31 1009 10 0 7.3 199 10:42 26.03.2020
423 Clear 31 1009 10 0 7.3 199 10:20 26.03.2020
424 Clear 31 1009 10 0 7.3 199 09:46 26.03.2020
425 Clear 31 1009 10 0 7.3 199 09:24 26.03.2020
426 Clear 31 1009 10 0 7.3 199 08:58 26.03.2020
427 Clear 31 1008 10 0 7.32 198 08:40 26.03.2020
428 Clouds 26 1010 13 0 6.21 162 08:22 26.03.2020
429 Clouds 25 1010 13 0 6.35 163 07:56 26.03.2020
430 Clouds 25 1010 13 0 6.35 163 07:38 26.03.2020
431 Clouds 25 1010 13 0 6.35 163 07:19 26.03.2020
432 Clouds 25 1010 13 0 6.35 163 06:33 26.03.2020
433 Clouds 25 1010 13 0 6.35 163 05:47 26.03.2020
434 Clouds 19 1011 20 0 4.28 126 03:46 26.03.2020
435 Clouds 19 1011 20 0 4.28 126 02:58 26.03.2020
436 Clouds 21 1009 19 0 5.49 154 01:51 26.03.2020
437 Clouds 21 1009 19 0 5.49 154 01:18 26.03.2020
438 Clouds 21 1009 19 0 4.86 162 00:32 26.03.2020
439 Clouds 21 1009 19 0 4.86 162 23:44 25.03.2020
440 Clouds 21 1009 19 0 4.86 162 23:24 25.03.2020
441 Clouds 21 1010 18 0 5.32 140 22:42 25.03.2020
442 Clouds 21 1010 18 0 5.32 140 22:22 25.03.2020
443 Clouds 21 1010 18 0 5.32 140 21:59 25.03.2020
444 Clouds 21 1010 18 0 5.32 140 21:41 25.03.2020
445 Clouds 21 1010 18 0 5.32 140 21:23 25.03.2020
446 Clouds 21 1010 18 0 5.32 140 20:57 25.03.2020
447 Clouds 21 1010 18 0 5.32 140 20:38 25.03.2020
448 Clouds 21 1010 18 0 5.32 140 20:38 25.03.2020
449 Clouds 23 1009 17 0 6.23 112 20:18 25.03.2020
450 Clouds 24 1008 16 0 6.13 141 19:43 25.03.2020
451 Rain 23 1009 19 0 7.56 133 19:24 25.03.2020
452 Clouds 24 1008 16 0 6.13 141 18:59 25.03.2020
453 Clouds 24 1008 16 0 6.13 141 18:41 25.03.2020
454 Clouds 24 1008 16 0 6.13 141 18:23 25.03.2020
455 Clouds 24 1008 16 0 6.13 141 17:58 25.03.2020
456 Rain 23 1009 19 0 7.56 133 17:58 25.03.2020
457 Rain 23 1009 19 0 7.56 133 17:39 25.03.2020
458 Clouds 27 1007 13 0 1.82 109 17:21 25.03.2020
459 -273 0 0 0 0 0 16:55 25.03.2020
460 Clouds 27 1007 13 0 1.82 109 16:37 25.03.2020
461 Clouds 27 1007 13 0 1.82 109 16:18 25.03.2020
462 Clouds 27 1007 13 0 1.82 109 15:41 25.03.2020
463 Clouds 27 1007 13 0 1.82 109 15:20 25.03.2020
464 Clouds 26 1007 14 0 1.45 82 14:56 25.03.2020
465 Clouds 27 1007 13 0 1.82 109 14:37 25.03.2020
466 Clouds 30 1006 10 0 4.91 240 14:19 25.03.2020
467 Clouds 30 1006 10 0 4.91 240 13:42 25.03.2020
468 Clouds 30 1006 10 0 4.91 240 13:22 25.03.2020
469 Clouds 30 1006 10 0 4.91 240 12:38 25.03.2020
470 Clouds 30 1006 10 0 4.16 221 12:20 25.03.2020
471 Clouds 30 1006 10 0 4.16 221 11:57 25.03.2020
472 Clouds 30 1006 10 0 4.16 221 11:39 25.03.2020
473 Clouds 29 1010 11 0 5.49 224 11:20 25.03.2020
474 Clouds 29 1010 11 0 5.49 224 10:57 25.03.2020
475 Clouds 29 1010 11 0 5.49 224 10:39 25.03.2020
476 Clouds 29 1010 11 0 5.49 224 10:18 25.03.2020
477 Clouds 29 1010 11 0 5.49 224 09:43 25.03.2020
478 Clouds 29 1010 11 0 5.49 224 09:25 25.03.2020
479 Clouds 29 1010 11 0 5.49 224 08:57 25.03.2020
480 Clouds 29 1010 11 0 5.49 224 08:39 25.03.2020
481 Clouds 24 1012 14 0 6.41 198 08:19 25.03.2020
482 Clouds 24 1012 14 0 6.41 198 08:19 25.03.2020
483 Clouds 24 1012 14 0 6.41 198 07:41 25.03.2020
484 Clouds 24 1012 14 0 6.41 198 07:23 25.03.2020
485 Clouds 24 1012 14 0 6.41 198 06:50 25.03.2020
486 Clouds 24 1012 14 0 6.41 198 06:28 25.03.2020
487 Clouds 24 1012 14 0 6.41 198 05:57 25.03.2020
488 Clouds 24 1012 14 0 6.41 198 05:37 25.03.2020
489 Clouds 16 1013 22 0 2.08 188 04:40 25.03.2020
490 Clouds 16 1013 22 0 2.08 188 03:49 25.03.2020
491 Clouds 16 1013 22 0 2.08 188 03:29 25.03.2020
492 Clear 17 1011 21 0 3.36 149 01:25 25.03.2020
493 Clear 17 1011 21 0 3.22 150 00:49 25.03.2020
494 Clear 17 1011 21 0 3.22 150 00:25 25.03.2020
495 Clear 17 1011 21 0 3.22 150 23:46 24.03.2020
496 Clear 17 1011 21 0 3.22 150 23:28 24.03.2020
497 Clear 18 1012 19 0 2.82 123 22:57 24.03.2020
498 Clear 18 1012 19 0 2.82 123 22:38 24.03.2020
499 Clear 18 1012 19 0 2.82 123 22:19 24.03.2020
500 Clear 18 1012 19 0 2.82 123 21:56 24.03.2020
501 Clear 18 1012 19 0 2.82 123 21:37 24.03.2020
502 Clear 18 1012 19 0 2.82 123 21:18 24.03.2020
503 Clear 18 1012 19 0 2.82 123 20:56 24.03.2020
504 Clear 18 1012 19 0 2.82 123 20:38 24.03.2020
505 Clouds 20 1012 17 0 2.58 71 20:20 24.03.2020
506 Clouds 21 1012 16 0 3.43 89 19:44 24.03.2020
507 Clouds 21 1012 16 0 3.43 89 19:19 24.03.2020
508 Clouds 21 1012 16 0 3.43 89 18:56 24.03.2020
509 Clouds 21 1012 16 0 3.43 89 18:37 24.03.2020
510 Clouds 21 1012 16 0 3.43 89 18:18 24.03.2020
511 Clouds 21 1012 16 0 3.43 89 18:18 24.03.2020
512 Clouds 21 1012 16 0 3.43 89 17:42 24.03.2020
513 Clouds 21 1012 16 0 3.43 89 17:23 24.03.2020
514 Clouds 26 1013 15 10000 2.6 340 16:58 24.03.2020
515 Clouds 26 1013 15 10000 2.6 340 16:40 24.03.2020
516 Clouds 26 1013 15 10000 2.6 340 16:22 24.03.2020
517 Clouds 27 1012 14 10000 2.1 270 15:58 24.03.2020
518 Clouds 27 1012 14 10000 2.1 270 15:38 24.03.2020
519 Clouds 27 1012 14 10000 2.1 270 15:20 24.03.2020
520 Clouds 28 1012 14 10000 2.6 300 14:43 24.03.2020
521 Clouds 27 1010 11 0 2.43 272 14:20 24.03.2020
522 Clouds 27 1010 11 0 2.43 272 13:44 24.03.2020
523 Clouds 27 1010 11 0 2.43 272 13:24 24.03.2020
524 Clouds 27 1010 11 0 2.5 272 12:58 24.03.2020
525 Clouds 27 1010 11 0 2.5 272 12:38 24.03.2020
526 Clouds 27 1010 11 0 2.5 272 12:38 24.03.2020
527 Clouds 27 1010 11 0 2.5 272 12:20 24.03.2020
528 Clouds 26 1014 21 10000 2.1 280 11:40 24.03.2020
529 Clouds 26 1014 21 10000 2.1 280 11:20 24.03.2020
530 Clouds 25 1015 16 10000 3.1 200 10:54 24.03.2020
531 Clouds 25 1015 16 10000 3.1 200 10:36 24.03.2020
532 Clouds 25 1015 16 10000 3.1 200 10:18 24.03.2020
533 Clouds 23 1017 18 10000 3.1 180 09:42 24.03.2020
534 Clouds 23 1017 18 10000 3.1 180 09:24 24.03.2020
535 Clouds 22 1017 21 10000 3.6 170 08:40 24.03.2020
536 Clear 22 1017 21 10000 3.6 170 08:21 24.03.2020
537 Clear 22 1017 21 10000 3.6 170 08:21 24.03.2020
538 Clear 20 1018 24 10000 4.1 170 07:51 24.03.2020
539 Clear 20 1018 24 10000 4.1 170 07:25 24.03.2020
540 Clear 16 1018 36 10000 1.5 120 06:59 24.03.2020
541 Clear 16 1018 36 10000 1.5 120 06:33 24.03.2020
542 Clear 13 1017 43 10000 1 140 05:30 24.03.2020
543 Clear 11 1017 43 10000 1.84 105 04:49 24.03.2020
544 Clear 11 1016 37 10000 1.84 105 03:19 24.03.2020
545 Clear 12 1016 40 10000 1 100 01:59 24.03.2020
546 Clear 13 1016 37 10000 1 250 00:52 24.03.2020
547 Clear 13 1016 37 10000 1 250 00:26 24.03.2020
548 Clear 13 1016 37 10000 0.71 87 23:50 23.03.2020
549 Clear 13 1016 37 10000 0.71 87 23:29 23.03.2020
550 Clear 14 1017 35 10000 1 160 22:59 23.03.2020
551 Clear 14 1017 35 10000 1 160 22:40 23.03.2020
552 Clear 14 1017 35 10000 1 160 22:22 23.03.2020
553 Clear 16 1017 16 10000 2.8 7 21:44 23.03.2020
554 Clear 16 1017 16 10000 2.8 7 21:21 23.03.2020
555 Clear 16 1017 29 10000 1.5 350 20:59 23.03.2020
556 Clear 16 1017 29 10000 1.5 350 20:41 23.03.2020
557 Clear 16 1017 29 10000 1.5 350 20:23 23.03.2020
558 Clear 18 1017 20 10000 2.1 310 19:55 23.03.2020
559 Clear 18 1017 20 10000 2.1 310 19:37 23.03.2020
560 Clear 18 1017 20 10000 2.1 310 19:18 23.03.2020
561 Clear 20 1017 19 10000 2.1 340 18:43 23.03.2020
562 Clear 20 1017 19 10000 2.1 340 18:24 23.03.2020
563 Clear 22 1016 17 10000 3.1 350 17:57 23.03.2020
564 Clear 22 1016 17 10000 3.1 350 17:57 23.03.2020
565 Clear 22 1016 17 10000 3.1 350 17:38 23.03.2020
566 Clear 22 1016 17 10000 3.1 350 17:19 23.03.2020
567 Clear 24 1016 16 10000 2.6 310 16:43 23.03.2020
568 Clear 24 1016 16 10000 2.6 310 16:25 23.03.2020
569 Clear 25 1015 13 10000 3.1 300 15:44 23.03.2020
570 Clear 25 1015 13 10000 3.1 300 15:21 23.03.2020
571 Clear 25 1015 14 10000 3.1 310 14:57 23.03.2020
572 Clear 25 1015 14 10000 3.1 310 14:37 23.03.2020
573 Clear 25 1015 14 10000 3.1 310 14:18 23.03.2020
574 Clear 25 1015 14 10000 3.1 310 14:18 23.03.2020
575 Clear 24 1016 15 10000 3.1 280 13:41 23.03.2020
576 Clear 24 1016 15 10000 3.1 280 13:41 23.03.2020
577 Clear 24 1016 15 10000 3.1 280 13:22 23.03.2020
578 Clear 24 1016 13 10000 4.6 270 12:58 23.03.2020
579 Clear 24 1016 13 10000 4.6 270 12:40 23.03.2020
580 Clear 24 1016 13 10000 4.6 270 12:22 23.03.2020
581 Clear 23 1017 15 10000 6.2 320 11:42 23.03.2020
582 Clear 23 1017 15 10000 6.2 320 11:21 23.03.2020
583 Clear 22 1018 18 10000 3.1 290 10:58 23.03.2020
584 Clear 22 1018 18 10000 3.1 290 10:40 23.03.2020
585 Clear 22 1018 18 10000 3.1 290 10:21 23.03.2020
586 Clear 20 1019 19 10000 5.7 300 09:57 23.03.2020
587 Clear 20 1019 19 10000 5.7 300 09:39 23.03.2020
588 Clear 20 1019 19 10000 5.7 300 09:18 23.03.2020
589 Clear 20 1019 22 10000 3.6 330 08:37 23.03.2020
590 Clear 20 1019 22 10000 3.6 330 08:19 23.03.2020
591 Clear 18 1019 25 10000 5.1 330 07:50 23.03.2020
592 Clear 18 1019 25 10000 5.1 330 07:50 23.03.2020
593 Clear 18 1019 25 10000 5.1 330 07:31 23.03.2020
594 Clear 15 1019 33 10000 3.6 300 06:53 23.03.2020
595 Clear 15 1019 33 10000 3.6 300 06:25 23.03.2020
596 Clear 12 1018 22 10000 2.1 280 05:42 23.03.2020
597 Clear 11 1017 40 10000 2.6 290 03:45 23.03.2020
598 Clear 12 1017 37 7000 2.1 290 02:40 23.03.2020
599 Clear 12 1016 34 7000 2.6 290 01:34 23.03.2020
600 Clear 13 1016 37 7000 1.5 260 00:43 23.03.2020
601 Clear 14 1016 35 10000 2.1 310 23:54 22.03.2020
602 Clear 14 1016 35 10000 2.1 310 23:27 22.03.2020
603 Clear 15 1016 26 10000 2.6 320 22:59 22.03.2020
604 Clear 15 1016 26 10000 2.6 320 22:39 22.03.2020
605 Clear 15 1016 26 10000 2.6 320 22:18 22.03.2020
606 Clear 16 1016 23 10000 3.1 330 21:40 22.03.2020
607 Clear 16 1016 23 10000 3.1 330 21:20 22.03.2020
608 Clear 18 1017 18 10000 4.6 330 20:58 22.03.2020
609 Clear 18 1017 18 10000 4.6 330 20:39 22.03.2020
610 Clear 18 1017 18 10000 4.6 330 20:21 22.03.2020
611 Clear 18 1016 22 10000 4.6 330 19:55 22.03.2020
612 Clear 18 1016 22 10000 4.6 330 19:37 22.03.2020
613 Clear 18 1016 22 10000 4.6 330 19:18 22.03.2020
614 Clear 19 1016 19 10000 4.1 330 18:56 22.03.2020
615 Clear 19 1016 19 10000 4.1 330 18:37 22.03.2020
616 Clear 19 1016 19 10000 4.1 330 18:18 22.03.2020
617 Clear 20 1015 18 9000 5.1 340 17:56 22.03.2020
618 Clear 20 1015 18 9000 5.1 340 17:36 22.03.2020
619 Clear 20 1015 18 9000 5.1 340 17:36 22.03.2020
620 Clear 20 1015 18 9000 5.1 340 17:36 22.03.2020
621 Clear 20 1015 18 9000 5.1 340 17:18 22.03.2020
622 Clear 21 1014 15 9000 5.7 330 16:54 22.03.2020
623 Clear 21 1014 15 9000 5.7 330 16:36 22.03.2020
624 Clear 21 1014 15 9000 5.7 330 16:18 22.03.2020
625 Clear 23 1014 15 7000 5.7 320 15:39 22.03.2020
626 Clear 24 1013 13 7000 5.1 330 14:48 22.03.2020
627 Clear 24 1013 13 7000 5.1 330 14:20 22.03.2020
628 Clear 23 1013 15 7000 8.2 310 13:58 22.03.2020
629 Clear 23 1013 15 7000 8.2 310 13:58 22.03.2020
630 Clear 23 1013 15 7000 8.2 310 13:40 22.03.2020
631 Clear 23 1013 15 7000 8.2 310 13:19 22.03.2020
632 Clear 23 1013 18 9000 6.2 320 12:47 22.03.2020
633 Clear 23 1013 18 9000 6.2 320 12:23 22.03.2020
634 Clear 23 1014 20 9000 6.2 340 11:58 22.03.2020
635 Clear 23 1014 20 9000 6.2 340 11:39 22.03.2020
636 Clear 23 1014 20 9000 6.2 340 11:21 22.03.2020
637 Clear 22 1014 21 7000 4.6 300 10:44 22.03.2020
638 Clear 22 1014 21 7000 4.6 300 10:24 22.03.2020
639 Clear 22 1014 21 7000 4.6 300 10:24 22.03.2020
640 Dust 22 1015 10 5000 4.6 360 10:00 22.03.2020
641 Dust 22 1015 10 5000 4.6 360 09:40 22.03.2020
642 Dust 22 1015 10 5000 4.6 360 09:19 22.03.2020
643 Dust 21 1015 26 3000 5.1 340 08:42 22.03.2020
644 Dust 21 1015 26 3000 5.1 340 08:23 22.03.2020
645 Dust 19 1014 29 1500 6.2 350 07:50 22.03.2020
646 Dust 19 1014 29 1500 6.2 350 07:22 22.03.2020
647 Dust 18 1012 31 700 5.1 340 05:57 22.03.2020
648 Dust 18 1012 15 1500 3.1 310 05:21 22.03.2020
649 Dust 22 1009 19 1000 4.6 320 02:58 22.03.2020
650 Dust 24 1009 17 1500 3.6 260 01:22 22.03.2020
651 Dust 24 1009 17 1500 4.1 270 00:41 22.03.2020
652 Dust 25 1009 16 3000 4.6 270 00:23 22.03.2020
653 Dust 25 1009 16 3000 4.1 270 23:42 21.03.2020
654 Dust 25 1009 16 3000 4.1 270 23:19 21.03.2020
655 Dust 25 1009 15 5000 2.6 260 22:39 21.03.2020
656 Clear 25 1009 15 7000 3.1 260 22:21 21.03.2020
657 Clear 22 1008 30 7000 1 190 21:59 21.03.2020
658 Clear 22 1008 30 7000 1 190 21:41 21.03.2020
659 Clear 22 1008 30 7000 1 190 21:22 21.03.2020
660 Clear 22 1008 30 7000 1 190 21:22 21.03.2020
661 Clear 23 1008 27 10000 1.5 150 20:56 21.03.2020
662 Clear 23 1008 27 10000 1.5 150 20:38 21.03.2020
663 Clear 23 1008 27 10000 1.5 150 20:18 21.03.2020
664 Clear 23 1009 25 10000 1.5 150 19:43 21.03.2020
665 Clear 23 1009 25 10000 1.5 150 19:23 21.03.2020
666 Clear 24 1008 25 10000 1 140 18:55 21.03.2020
667 Clear 24 1008 25 10000 1 140 18:37 21.03.2020
668 Clear 24 1008 25 10000 1 140 18:19 21.03.2020
669 Clear 27 1009 22 10000 1 220 17:43 21.03.2020
670 Clear 27 1009 22 10000 1 220 17:43 21.03.2020
671 Clear 27 1009 22 10000 1 220 17:43 21.03.2020
672 Clear 27 1009 22 10000 1 220 17:24 21.03.2020
673 Clear 28 1008 12 10000 2.6 270 16:57 21.03.2020
674 Clear 28 1008 12 10000 2.6 270 16:39 21.03.2020
675 Clear 28 1008 12 10000 2.6 270 16:18 21.03.2020
676 Clear 29 1008 13 10000 4.1 290 15:43 21.03.2020
677 Clear 29 1008 13 10000 4.1 290 15:23 21.03.2020
678 Clear 29 1008 13 10000 4.1 270 14:59 21.03.2020
679 Clear 29 1008 13 10000 4.1 270 14:40 21.03.2020
680 Clear 29 1008 13 10000 4.1 270 14:20 21.03.2020
681 Clear 29 1008 13 10000 4.1 270 14:20 21.03.2020
682 Clear 29 1008 11 10000 5.1 300 13:59 21.03.2020
683 Clear 29 1008 11 10000 5.1 300 13:40 21.03.2020
684 Clear 29 1008 11 10000 5.1 300 13:22 21.03.2020
685 Clear 30 1008 10 10000 4.6 290 12:59 21.03.2020
686 Clear 30 1008 10 10000 4.6 290 12:38 21.03.2020
687 Clear 30 1008 10 10000 4.6 290 12:19 21.03.2020
688 Clear 30 1009 11 10000 5.1 300 11:56 21.03.2020
689 Clear 30 1009 11 10000 5.1 300 11:38 21.03.2020
690 Clear 30 1009 11 10000 5.1 300 11:19 21.03.2020
691 Clear 30 1010 10 10000 5.7 310 10:57 21.03.2020
692 Clear 30 1010 10 10000 5.7 310 10:38 21.03.2020
693 Clear 30 1010 10 10000 5.7 310 10:19 21.03.2020
694 Clear 30 1010 10 10000 6.2 310 09:56 21.03.2020
695 Clear 30 1010 10 10000 6.2 310 09:37 21.03.2020
696 Clear 30 1010 10 10000 6.2 310 09:19 21.03.2020
697 Clear 28 1011 20 10000 1.5 290 08:43 21.03.2020
698 Clear 28 1011 20 10000 1.5 290 08:24 21.03.2020
699 Clouds 24 1011 25 10000 1.5 230 07:45 21.03.2020
700 Clouds 24 1011 25 10000 1.5 230 07:27 21.03.2020
701 Clouds 22 1011 49 10000 3.1 280 06:48 21.03.2020
702 Clouds 22 1011 49 10000 3.1 280 06:28 21.03.2020
703 Clouds 20 1010 68 10000 1.5 180 05:48 21.03.2020
704 Clouds 20 1010 64 10000 2.1 180 04:47 21.03.2020
705 Clouds 20 1009 60 10000 2.1 150 02:55 21.03.2020
706 Clouds 20 1009 60 10000 2.1 150 02:33 21.03.2020
707 Clouds 21 1009 60 10000 3.1 140 01:33 21.03.2020
708 Clouds 22 1010 60 10000 2.1 120 00:56 21.03.2020
709 Clouds 22 1010 60 10000 2.1 120 00:37 21.03.2020
710 Clouds 23 1010 56 10000 1.5 150 23:58 20.03.2020
711 Clouds 23 1010 56 10000 1.5 150 23:40 20.03.2020
712 Clouds 23 1010 56 10000 1.5 150 23:18 20.03.2020
713 Clouds 23 1010 53 10000 2.1 130 22:41 20.03.2020
714 Clouds 23 1010 53 10000 2.1 130 22:22 20.03.2020
715 Clouds 25 1011 44 10000 3.6 140 21:56 20.03.2020
716 Clouds 25 1011 44 10000 3.6 140 21:38 20.03.2020
717 Clouds 25 1011 44 10000 3.6 140 21:18 20.03.2020
718 Clouds 26 1010 41 10000 3.1 140 20:57 20.03.2020
719 Clouds 26 1010 41 10000 3.1 140 20:38 20.03.2020
720 Clouds 26 1010 41 10000 3.1 140 20:18 20.03.2020
721 Clouds 26 1011 44 10000 1 90 19:45 20.03.2020
722 Clouds 26 1011 44 10000 1 90 19:19 20.03.2020
723 Clouds 26 1011 44 10000 1 90 19:19 20.03.2020
724 Clouds 26 1010 41 10000 1.5 100 18:55 20.03.2020
725 Clouds 26 1010 41 10000 1.5 100 18:37 20.03.2020
726 Clouds 26 1010 41 10000 1.5 100 18:19 20.03.2020
727 Clouds 27 1010 39 10000 2.1 130 17:39 20.03.2020
728 Clouds 27 1010 39 10000 2.1 130 17:21 20.03.2020
729 Clouds 28 1009 30 10000 3.1 150 16:58 20.03.2020
730 Clouds 28 1009 30 10000 3.1 150 16:58 20.03.2020
731 Clouds 28 1009 30 10000 3.1 150 16:40 20.03.2020
732 Clouds 28 1009 30 10000 3.1 150 16:19 20.03.2020
733 Clouds 28 1009 32 10000 3.1 140 15:43 20.03.2020
734 Clouds 28 1009 32 10000 3.1 140 15:22 20.03.2020
735 Clouds 29 1009 30 10000 3.6 130 14:56 20.03.2020
736 Clouds 29 1009 30 10000 3.6 130 14:37 20.03.2020
737 Clouds 29 1009 30 10000 3.6 130 14:19 20.03.2020
738 Clouds 29 1010 30 10000 3.1 160 13:45 20.03.2020
739 Clouds 29 1010 30 10000 3.1 160 13:19 20.03.2020
740 Clouds 29 1011 28 10000 4.1 160 12:41 20.03.2020
741 Clouds 29 1011 28 10000 4.1 160 12:23 20.03.2020
742 Clouds 28 1012 30 10000 4.1 150 11:59 20.03.2020
743 Clouds 28 1012 30 10000 4.1 150 11:38 20.03.2020
744 Clouds 28 1012 30 10000 4.1 150 11:19 20.03.2020
745 Clouds 26 1014 29 10000 4.6 170 10:42 20.03.2020
746 Clouds 26 1014 29 10000 4.6 170 10:21 20.03.2020
747 Clouds 25 1015 27 10000 3.1 150 09:59 20.03.2020
748 Clouds 25 1015 27 10000 3.1 150 09:59 20.03.2020
749 Clouds 25 1015 27 10000 3.1 150 09:41 20.03.2020
750 Clouds 25 1015 27 10000 3.1 150 09:19 20.03.2020
751 Clouds 22 1015 30 10000 2.6 130 08:43 20.03.2020
752 Clouds 22 1015 30 10000 2.6 130 08:22 20.03.2020
753 Clouds 22 1015 30 10000 2.6 130 08:22 20.03.2020
754 Clouds 21 1016 30 10000 2.6 130 07:55 20.03.2020
755 Clouds 21 1016 30 10000 2.6 130 07:37 20.03.2020
756 Clouds 21 1016 30 10000 2.6 130 07:18 20.03.2020
757 Clouds 19 1015 32 10000 1.5 130 06:41 20.03.2020
758 Clear 15 1015 38 10000 1.5 70 04:54 20.03.2020
759 Clear 16 1014 38 10000 1 70 03:50 20.03.2020
760 Clear 17 1014 36 10000 3.76 100 02:21 20.03.2020
761 Clear 17 1014 33 10000 1.5 70 01:33 20.03.2020
762 Clear 18 1014 39 10000 3.73 105 00:33 20.03.2020
763 Clear 18 1015 36 10000 1.5 80 23:49 19.03.2020
764 Clear 18 1015 36 10000 1.5 80 23:30 19.03.2020
765 Clear 19 1015 32 10000 2.6 80 22:57 19.03.2020
766 Clear 19 1015 32 10000 2.6 80 22:38 19.03.2020
767 Clear 19 1015 32 10000 2.6 80 22:20 19.03.2020
768 Clear 20 1015 28 10000 3.6 70 21:55 19.03.2020
769 Clear 20 1015 28 10000 3.6 70 21:37 19.03.2020
770 Clear 20 1015 28 10000 3.6 70 21:18 19.03.2020
771 Clear 21 1015 37 9000 4.6 80 20:42 19.03.2020
772 Clear 21 1015 27 9000 4.6 80 20:23 19.03.2020
773 Clear 22 1015 24 6000 6.2 80 19:56 19.03.2020
774 Clear 22 1015 24 6000 6.2 80 19:38 19.03.2020
775 Clear 22 1015 24 6000 6.2 80 19:19 19.03.2020
776 Clear 24 1014 23 6000 5.7 70 18:56 19.03.2020
777 Clear 24 1014 23 6000 5.7 70 18:38 19.03.2020
778 Clear 24 1014 23 6000 5.7 60 18:19 19.03.2020
779 Dust 25 1014 25 4000 5.1 60 17:41 19.03.2020
780 Dust 25 1014 25 4000 5.1 60 17:19 19.03.2020
781 Dust 26 1013 26 4000 4.6 60 16:45 19.03.2020
782 Dust 26 1013 26 4000 4.6 60 16:24 19.03.2020
783 Dust 26 1013 26 4000 4.6 60 16:24 19.03.2020
784 Dust 27 1013 24 5000 4.6 50 15:54 19.03.2020
785 Clear 28 1013 23 10000 3.1 50 15:36 19.03.2020
786 Clear 28 1013 23 10000 3.1 50 15:18 19.03.2020
787 Clear 28 1013 28 10000 1.5 70 14:42 19.03.2020
788 Clear 28 1013 28 10000 1.5 70 14:20 19.03.2020
789 Clear 28 1013 30 10000 2.1 70 13:41 19.03.2020
790 Clear 28 1013 30 10000 2.1 70 13:19 19.03.2020
791 Clear 28 1013 26 10000 3.1 90 12:56 19.03.2020
792 Clear 28 1013 26 10000 3.1 90 12:56 19.03.2020
793 Clear 28 1013 26 10000 3.1 90 12:38 19.03.2020
794 Clear 27 1014 30 10000 3.6 40 12:19 19.03.2020
795 Clear 27 1014 30 10000 3.6 40 11:42 19.03.2020
796 Clear 26 1015 31 10000 3.1 30 11:23 19.03.2020
797 Clear 26 1015 31 10000 3.1 30 10:57 19.03.2020
798 Clear 26 1015 31 10000 3.1 30 10:37 19.03.2020
799 Clear 26 1015 31 10000 3.1 30 10:18 19.03.2020
800 Clear 24 1016 36 10000 3.6 60 09:44 19.03.2020
801 Clear 24 1016 36 10000 3.6 60 09:26 19.03.2020
802 Clear 23 1016 38 10000 4.1 40 08:57 19.03.2020
803 Clear 23 1016 38 10000 4.1 40 08:38 19.03.2020
804 Clear 23 1016 38 10000 4.1 40 08:18 19.03.2020
805 Clear 22 1016 37 10000 5.1 30 07:43 19.03.2020
806 Clear 22 1016 37 10000 5.1 30 07:22 19.03.2020
807 Clear 19 1016 48 10000 3.6 20 06:29 19.03.2020
808 Clear 18 1015 45 10000 2.6 350 05:46 19.03.2020
809 Clear 17 1014 48 10000 2.1 310 04:51 19.03.2020
810 Clear 17 1014 48 10000 2.1 310 04:24 19.03.2020
811 Clear 18 1013 45 10000 1.5 10 02:34 19.03.2020
812 Clouds 20 1014 37 10000 3.6 30 00:55 19.03.2020
813 Clear 20 1014 37 8000 4.6 30 00:20 19.03.2020
814 Clear 20 1014 37 8000 4.6 30 23:45 18.03.2020
815 Clear 20 1014 37 8000 4.6 30 23:26 18.03.2020
816 Clear 22 1015 33 7000 6.2 20 22:43 18.03.2020
817 Clear 22 1015 33 7000 6.2 20 22:24 18.03.2020
818 Clouds 23 1014 28 10000 5.1 10 21:59 18.03.2020
819 Clouds 23 1014 28 10000 5.1 10 21:40 18.03.2020
820 Clouds 23 1014 28 10000 5.1 10 21:21 18.03.2020
821 Clouds 23 1014 28 10000 5.1 10 21:21 18.03.2020
822 Clouds 25 1013 25 10000 3.6 320 20:56 18.03.2020
823 Clouds 25 1013 25 10000 3.6 320 20:38 18.03.2020
824 Clouds 25 1013 25 10000 3.6 320 20:19 18.03.2020
825 Clouds 26 1013 27 10000 2.6 330 19:42 18.03.2020
826 Clouds 26 1013 27 10000 2.6 330 19:21 18.03.2020
827 Clouds 27 1012 26 10000 3.1 310 18:59 18.03.2020
828 Clouds 27 1012 26 10000 3.1 310 18:40 18.03.2020
829 Clouds 27 1012 26 10000 3.1 310 18:19 18.03.2020
830 Clouds 29 1011 25 10000 4.1 300 17:57 18.03.2020
831 Clouds 29 1011 25 10000 4.1 300 17:39 18.03.2020
832 Clouds 31 1010 27 10000 3.6 280 17:19 18.03.2020
833 Clouds 31 1010 27 10000 3.6 280 16:43 18.03.2020
834 Clouds 31 1010 27 10000 3.6 280 16:22 18.03.2020
835 Clouds 32 1010 24 9000 3.6 220 15:59 18.03.2020
836 Clouds 32 1010 24 9000 3.6 220 15:39 18.03.2020
837 Clouds 32 1010 24 9000 3.6 220 15:20 18.03.2020
838 Clouds 32 1009 24 7000 5.1 210 14:44 18.03.2020
839 Clouds 32 1009 24 7000 5.1 210 14:21 18.03.2020
840 Clouds 32 1010 22 7000 5.7 220 13:42 18.03.2020
841 Clouds 32 1010 22 7000 5.7 220 13:20 18.03.2020
842 Clouds 31 1011 23 6000 6.7 220 12:58 18.03.2020
843 Clouds 31 1011 23 6000 6.7 220 12:39 18.03.2020
844 Clouds 30 1012 25 10000 4.1 220 12:19 18.03.2020
845 Clouds 30 1012 25 10000 4.1 220 11:39 18.03.2020
846 Clouds 30 1012 25 10000 4.1 220 11:19 18.03.2020
847 Clouds 30 1012 25 10000 4.1 230 10:58 18.03.2020
848 Clouds 30 1012 25 10000 4.1 230 10:38 18.03.2020
849 Clouds 30 1012 25 10000 4.1 230 10:19 18.03.2020
850 Clouds 29 1013 26 10000 5.7 190 09:43 18.03.2020
851 Clouds 29 1013 26 10000 5.7 190 09:24 18.03.2020
852 Clouds 28 1014 30 10000 4.6 200 08:56 18.03.2020
853 Clouds 28 1014 30 10000 4.6 200 08:38 18.03.2020
854 Clouds 28 1014 30 10000 4.6 200 08:38 18.03.2020
855 Clouds 28 1014 30 10000 4.6 200 08:20 18.03.2020
856 Clouds 26 1015 31 10000 4.6 180 07:44 18.03.2020
857 Clouds 26 1015 31 10000 4.6 180 07:25 18.03.2020
858 Clouds 24 1014 36 10000 2.6 160 06:44 18.03.2020
859 Clouds 21 1013 40 10000 2.1 130 06:18 18.03.2020
860 Clouds 21 1013 40 10000 2.1 130 05:34 18.03.2020
861 Clouds 21 1013 37 10000 2.1 140 04:24 18.03.2020
862 Clouds 23 1011 33 10000 4.1 150 02:42 18.03.2020
863 Clouds 24 1011 33 10000 3.6 150 01:47 18.03.2020
864 Thunderstorm 23 1012 46 8000 2.1 90 01:21 18.03.2020
865 Thunderstorm 23 1012 46 8000 2.1 90 00:23 18.03.2020
866 Thunderstorm 24 1012 36 8000 4.1 150 23:47 17.03.2020
867 Thunderstorm 24 1012 36 8000 4.1 150 23:26 17.03.2020
868 Clouds 25 1012 31 8000 4.6 150 22:47 17.03.2020
869 Clouds 25 1012 31 8000 4.6 150 22:29 17.03.2020
870 Rain 25 1012 31 10000 4.6 140 21:59 17.03.2020
871 Clouds 25 1012 31 10000 4.6 140 21:37 17.03.2020
872 Rain 25 1012 31 10000 4.6 140 21:19 17.03.2020
873 Clouds 27 1013 28 10000 4.6 140 20:38 17.03.2020
874 Clouds 27 1013 28 10000 4.6 140 20:20 17.03.2020
875 Clouds 26 1013 29 10000 4.1 130 19:54 17.03.2020
876 Clouds 26 1013 29 10000 4.1 130 19:36 17.03.2020
877 Clouds 26 1013 29 10000 4.1 130 19:18 17.03.2020
878 Clouds 27 1014 30 10000 2.6 150 18:54 17.03.2020
879 Clouds 27 1014 30 10000 2.6 150 18:36 17.03.2020
880 Clouds 27 1014 30 10000 2.6 150 18:36 17.03.2020
881 Clouds 27 1014 30 10000 2.6 150 18:18 17.03.2020
882 Clouds 27 1014 30 10000 2.6 150 18:18 17.03.2020
883 Clouds 27 1014 30 10000 2.6 150 18:18 17.03.2020
884 Clouds 28 1013 28 8000 2.6 150 17:39 17.03.2020
885 Clouds 28 1013 26 8000 3.6 160 17:20 17.03.2020
886 Clouds 28 1013 26 8000 3.6 160 16:44 17.03.2020
887 Clouds 28 1013 26 8000 3.6 160 16:20 17.03.2020
888 Clouds 29 1013 23 8000 4.6 160 15:56 17.03.2020
889 Clouds 29 1013 23 8000 4.6 160 15:38 17.03.2020
890 Clouds 29 1013 23 8000 4.6 160 15:18 17.03.2020
891 Clouds 29 1013 25 8000 4.6 150 14:41 17.03.2020
892 Clear 29 1013 25 8000 4.6 150 14:18 17.03.2020
893 Clear 29 1013 25 8000 4.6 150 13:41 17.03.2020
894 Clear 29 1013 25 8000 4.6 150 13:22 17.03.2020
895 Clear 29 1014 25 8000 5.1 160 12:48 17.03.2020
896 Clear 29 1014 25 8000 5.1 160 12:26 17.03.2020
897 Clear 28 1015 26 10000 4.6 140 11:59 17.03.2020
898 Clear 28 1015 26 10000 4.6 140 11:39 17.03.2020
899 Clear 28 1015 26 10000 4.6 140 11:39 17.03.2020
900 Clear 28 1015 26 10000 4.6 140 11:21 17.03.2020
901 Clear 27 1017 26 10000 4.6 170 10:55 17.03.2020
902 Clear 27 1017 26 10000 4.6 170 10:36 17.03.2020
903 Clear 27 1017 26 10000 4.6 170 10:18 17.03.2020
904 Clear 25 1017 29 10000 4.6 140 09:45 17.03.2020
905 Clear 25 1017 29 10000 4.6 140 09:20 17.03.2020
906 Clear 23 1018 35 10000 4.1 120 08:58 17.03.2020
907 Clear 23 1018 35 10000 4.1 120 08:58 17.03.2020
908 Clear 23 1018 35 10000 4.1 120 08:40 17.03.2020
909 Clear 23 1018 35 10000 4.1 120 08:18 17.03.2020
910 Clear 22 1019 40 10000 3.6 130 07:49 17.03.2020
911 Clear 22 1019 40 10000 3.6 130 07:20 17.03.2020
912 Clear 20 1018 42 10000 2.1 130 06:45 17.03.2020
913 Clear 17 1018 55 10000 5.55 114 06:25 17.03.2020
914 Clear 17 1018 55 10000 2.29 81 05:20 17.03.2020
915 Clear 16 1017 55 10000 1 160 03:31 17.03.2020
916 Clear 17 1016 55 10000 2.84 80 01:50 17.03.2020
917 Clear 17 1016 55 10000 2.9 83 01:31 17.03.2020
918 Clear 18 1016 52 10000 2.9 83 00:52 17.03.2020
919 Clear 19 1017 48 10000 1 70 23:53 16.03.2020
920 Clear 19 1017 48 10000 1 70 23:34 16.03.2020
921 Clear 19 1017 45 10000 1 80 22:55 16.03.2020
922 Clear 19 1017 45 10000 1 80 22:37 16.03.2020
923 Clear 19 1017 45 10000 1 80 22:19 16.03.2020
924 Clear 20 1018 45 10000 1.5 80 21:44 16.03.2020
925 Clear 20 1018 45 10000 1.5 80 21:25 16.03.2020
926 Clear 21 1018 37 10000 2.1 40 20:58 16.03.2020
927 Clear 21 1018 37 10000 2.1 40 20:38 16.03.2020
928 Clear 21 1018 37 10000 2.1 40 20:38 16.03.2020
929 Clear 21 1018 37 10000 2.1 40 20:20 16.03.2020
930 Clear 22 1017 33 10000 3.1 30 19:44 16.03.2020
931 Clear 22 1017 33 10000 3.1 30 19:23 16.03.2020
932 Clear 23 1017 33 10000 2.6 40 18:57 16.03.2020
933 Clear 23 1017 33 10000 2.6 40 18:38 16.03.2020
934 Clear 23 1017 33 10000 2.6 40 18:18 16.03.2020
935 Clear 25 1016 27 10000 2.6 20 17:45 16.03.2020
936 Clear 25 1016 27 10000 2.6 20 17:24 16.03.2020
937 Clear 26 1016 29 10000 2.1 30 16:49 16.03.2020
938 Clear 26 1016 29 10000 2.1 30 16:31 16.03.2020
939 Clear 28 1015 23 10000 2.6 340 15:58 16.03.2020
940 Clear 28 1015 23 10000 2.6 340 15:40 16.03.2020
941 Clear 28 1015 23 10000 2.6 340 15:20 16.03.2020
942 Clear 28 1015 24 10000 2.6 340 14:44 16.03.2020
943 Clear 28 1015 24 10000 2.6 340 14:20 16.03.2020
944 Clear 27 1015 26 10000 5.7 350 13:43 16.03.2020
945 Clear 27 1015 26 10000 5.7 350 13:25 16.03.2020
946 Clouds 27 1016 24 10000 3.6 20 12:55 16.03.2020
947 Clouds 27 1016 24 10000 3.6 20 12:36 16.03.2020
948 Clouds 27 1016 24 10000 3.6 20 12:18 16.03.2020
949 Clouds 26 1017 27 10000 3.6 290 11:41 16.03.2020
950 Clouds 26 1017 27 10000 3.6 290 11:19 16.03.2020
951 Clear 25 1017 31 10000 2.6 350 10:43 16.03.2020
952 Clear 25 1017 31 10000 2.6 350 10:24 16.03.2020
953 Clear 24 1018 38 10000 1.5 270 09:46 16.03.2020
954 Clear 24 1018 38 10000 1.5 270 09:28 16.03.2020
955 Clear 23 1018 43 10000 2.1 40 08:58 16.03.2020
956 Clear 23 1018 43 10000 2.1 40 08:26 16.03.2020
957 Clear 22 1018 43 10000 1.5 330 07:54 16.03.2020
958 Clear 22 1018 43 10000 1.5 330 07:28 16.03.2020
959 Clear 18 1018 48 10000 1 270 06:54 16.03.2020
960 Clear 18 1018 48 10000 1 270 06:54 16.03.2020
961 Clear 18 1018 48 10000 1 270 06:27 16.03.2020
962 Clear 16 1017 59 10000 4.75 51 05:54 16.03.2020
963 Clear 17 1015 45 10000 2.6 350 02:46 16.03.2020
964 Clear 17 1015 45 10000 3.1 340 01:20 16.03.2020
965 Clear 18 1015 42 10000 2.6 360 00:42 16.03.2020
966 Clear 20 1015 37 10000 4.1 340 23:49 15.03.2020
967 Clear 20 1015 37 10000 4.1 340 23:21 15.03.2020
968 Clear 20 1016 37 10000 4.1 340 22:56 15.03.2020
969 Clear 20 1016 37 10000 4.1 340 22:37 15.03.2020
970 Clear 20 1016 37 10000 4.1 340 22:19 15.03.2020
971 Clear 21 1016 37 10000 3.6 360 21:39 15.03.2020
972 Clear 21 1016 37 10000 3.6 360 21:19 15.03.2020
973 Clear 22 1016 35 10000 4.1 20 20:43 15.03.2020
974 Clear 22 1016 35 10000 4.1 20 20:22 15.03.2020
975 Clear 22 1016 35 10000 4.6 20 19:58 15.03.2020
976 Clear 22 1016 35 10000 4.6 20 19:40 15.03.2020
977 Clear 22 1016 35 10000 4.6 20 19:22 15.03.2020
978 Clear 23 1015 33 10000 5.1 20 18:57 15.03.2020
979 Clear 23 1015 33 10000 5.1 20 18:38 15.03.2020
980 Clear 23 1015 33 10000 5.1 20 18:20 15.03.2020
981 Clear 24 1014 31 7000 5.1 20 17:42 15.03.2020
982 Clear 24 1014 31 7000 5.1 20 17:22 15.03.2020
983 Clear 25 1013 29 6000 4.6 350 16:59 15.03.2020
984 Clear 25 1013 29 6000 4.6 350 16:40 15.03.2020
985 Clear 25 1013 29 6000 4.6 350 16:22 15.03.2020
986 Clear 27 1013 26 6000 4.1 330 15:56 15.03.2020
987 Clear 27 1013 26 6000 4.1 330 15:38 15.03.2020
988 Clear 27 1013 26 6000 4.1 330 15:19 15.03.2020
989 Clear 28 1012 23 7000 4.6 320 14:40 15.03.2020
990 Clear 28 1012 23 7000 4.6 320 14:22 15.03.2020
991 Dust 28 1012 26 5000 4.1 350 13:56 15.03.2020
992 Dust 28 1012 26 5000 4.1 350 13:38 15.03.2020
993 Dust 28 1012 26 5000 4.1 350 13:38 15.03.2020
994 Dust 28 1012 26 5000 4.1 350 13:19 15.03.2020
995 Dust 27 1012 28 4000 2.6 350 12:40 15.03.2020
996 Dust 27 1012 28 4000 2.6 350 12:22 15.03.2020
997 Dust 26 1013 27 4000 6.2 360 11:45 15.03.2020
998 Dust 26 1013 27 4000 6.2 360 11:26 15.03.2020
999 Dust 26 1014 27 4000 6.2 360 10:59 15.03.2020
1000 Dust 26 1014 27 4000 6.2 360 10:41 15.03.2020
1001 Dust 26 1014 27 4000 6.2 360 10:22 15.03.2020
1002 Dust 26 1014 27 4000 6.2 360 10:22 15.03.2020
1003 Dust 24 1014 31 4000 6.2 360 09:59 15.03.2020
1004 Dust 24 1014 31 4000 6.2 360 09:39 15.03.2020
1005 Dust 24 1014 31 4000 6.2 360 09:20 15.03.2020
1006 Dust 24 1015 33 4000 5.1 340 08:41 15.03.2020
1007 Dust 24 1015 33 4000 5.1 340 08:20 15.03.2020
1008 Dust 22 1014 40 4000 3.6 350 07:50 15.03.2020
1009 Dust 22 1014 40 4000 3.6 350 07:23 15.03.2020
1010 Haze 19 1014 48 4000 2.6 330 06:44 15.03.2020
1011 Haze 17 1013 51 4000 2.1 360 05:49 15.03.2020
1012 Haze 17 1012 51 4000 2.1 310 04:57 15.03.2020
1013 Haze 17 1012 51 4000 2.1 310 04:39 15.03.2020
1014 Haze 17 1012 51 4000 2.1 310 04:20 15.03.2020
1015 Haze 18 1011 48 5000 2.1 290 03:19 15.03.2020
1016 Haze 18 1011 48 5000 2.6 290 02:23 15.03.2020
1017 Haze 19 1011 48 5000 2.1 80 00:59 15.03.2020
1018 Haze 19 1011 48 5000 2.1 80 00:40 15.03.2020
1019 Haze 19 1011 48 5000 2.1 80 00:19 15.03.2020
1020 Haze 19 1012 42 5000 2.1 70 23:39 14.03.2020
1021 Haze 19 1012 42 5000 2.1 70 23:20 14.03.2020
1022 Clouds 20 1013 45 6000 1.5 360 22:56 14.03.2020
1023 Clouds 20 1013 45 6000 1.5 360 22:37 14.03.2020
1024 Clouds 20 1013 45 6000 1.5 360 22:37 14.03.2020
1025 Clouds 20 1013 45 6000 1.5 360 22:19 14.03.2020
1026 Haze 21 1013 43 5000 1.5 310 21:55 14.03.2020
1027 Haze 21 1013 43 5000 1.5 310 21:36 14.03.2020
1028 Haze 21 1013 43 5000 1.5 310 21:18 14.03.2020
1029 Dust 21 1013 43 5000 2.1 310 20:56 14.03.2020
1030 Dust 21 1013 43 5000 2.1 310 20:56 14.03.2020
1031 Dust 21 1013 43 5000 2.1 310 20:38 14.03.2020
1032 Dust 21 1013 43 5000 2.1 310 20:18 14.03.2020
1033 Dust 23 1013 40 5000 1 230 19:41 14.03.2020
1034 Dust 23 1013 40 5000 1 230 19:20 14.03.2020
1035 Dust 25 1013 33 5000 1.5 210 18:40 14.03.2020
1036 Dust 25 1013 33 5000 1.5 210 18:20 14.03.2020
1037 Dust 25 1012 29 5000 3.6 310 17:43 14.03.2020
1038 Dust 26 1011 24 4000 4.6 170 17:24 14.03.2020
1039 Dust 26 1011 24 4000 4.6 170 16:59 14.03.2020
1040 Dust 26 1011 24 4000 4.6 170 16:38 14.03.2020
1041 Dust 26 1011 24 4000 4.6 170 16:19 14.03.2020
1042 Dust 27 1012 21 3000 6.2 170 15:46 14.03.2020
1043 Dust 27 1012 21 3000 6.2 170 15:22 14.03.2020
1044 Clouds 28 1012 21 6000 4.1 160 14:43 14.03.2020
1045 Clouds 28 1012 21 6000 4.1 160 14:21 14.03.2020
1046 Clouds 27 1012 21 8000 4.1 180 13:57 14.03.2020
1047 Clouds 27 1012 21 8000 4.1 180 13:38 14.03.2020
1048 Clouds 27 1012 21 8000 4.1 180 13:20 14.03.2020
1049 Clouds 27 1012 21 8000 5.1 170 12:44 14.03.2020
1050 Clouds 27 1012 21 8000 5.1 170 12:26 14.03.2020
1051 Clouds 26 1013 21 7000 6.7 180 11:46 14.03.2020
1052 Clouds 26 1013 21 7000 6.7 180 11:26 14.03.2020
1053 Clouds 26 1013 22 7000 6.2 180 10:57 14.03.2020
1054 Clouds 26 1013 22 7000 6.2 180 10:39 14.03.2020
1055 Clouds 26 1013 22 7000 6.2 180 10:20 14.03.2020
1056 Clouds 25 1014 25 6000 8.2 180 09:41 14.03.2020
1057 Clouds 25 1014 25 6000 8.2 180 09:22 14.03.2020
1058 Clouds 25 1014 25 10000 6.2 170 08:47 14.03.2020
1059 Clouds 25 1014 25 10000 6.2 170 08:28 14.03.2020
1060 Clouds 24 1014 25 7000 7.2 180 07:51 14.03.2020
1061 Clouds 24 1014 25 7000 7.2 180 07:23 14.03.2020
1062 Clouds 24 1014 22 6000 7.2 170 06:59 14.03.2020
1063 Clouds 24 1014 22 6000 7.2 170 06:39 14.03.2020
1064 Clouds 23 1013 23 6000 6.7 170 05:19 14.03.2020
1065 Clouds 24 1015 23 10000 3.1 170 03:42 14.03.2020
1066 Clouds 24 1015 23 10000 3.1 170 03:23 14.03.2020
1067 Clouds 24 1015 19 10000 4.6 170 02:20 14.03.2020
1068 Clouds 24 1015 14 10000 5.1 180 00:42 14.03.2020
1069 Clouds 24 1015 17 10000 4.1 180 23:45 13.03.2020
1070 Clouds 24 1015 17 10000 4.1 180 23:26 13.03.2020
1071 Clouds 25 1015 14 10000 3.1 160 22:47 13.03.2020
1072 Clouds 25 1015 14 10000 3.1 160 22:25 13.03.2020
1073 Clouds 25 1016 15 10000 3.6 170 21:43 13.03.2020
1074 Clouds 25 1016 15 10000 3.6 170 21:21 13.03.2020
1075 Clouds 25 1016 15 10000 4.1 170 20:57 13.03.2020
1076 Clouds 25 1016 15 10000 4.1 170 20:38 13.03.2020
1077 Clouds 25 1016 15 10000 4.1 170 20:19 13.03.2020
1078 Clouds 25 1016 17 10000 2.6 150 19:45 13.03.2020
1079 Clouds 25 1016 17 10000 2.6 150 19:27 13.03.2020
1080 Clouds 25 1015 17 8000 2.6 140 18:47 13.03.2020
1081 Clouds 25 1015 17 8000 2.6 140 18:28 13.03.2020
1082 Clouds 26 1015 16 8000 2.1 150 17:57 13.03.2020
1083 Clouds 26 1015 16 8000 2.1 150 17:37 13.03.2020
1084 Clouds 27 1013 12 6000 5.7 160 17:18 13.03.2020
1085 Clouds 27 1013 12 6000 5.7 160 16:41 13.03.2020
1086 Clouds 27 1013 12 6000 5.7 160 16:23 13.03.2020
1087 Clouds 27 1013 12 6000 5.7 160 15:55 13.03.2020
1088 Clouds 27 1013 12 6000 5.7 160 15:37 13.03.2020
1089 Clouds 27 1013 12 6000 5.7 160 15:18 13.03.2020
1090 Clouds 27 1013 14 7000 4.6 150 14:41 13.03.2020
1091 Clouds 27 1013 14 7000 4.6 150 14:22 13.03.2020
1092 Clouds 28 1013 12 6000 6.2 160 13:56 13.03.2020
1093 Clouds 28 1013 12 6000 6.2 160 13:37 13.03.2020
1094 Clouds 28 1013 12 6000 6.2 160 13:18 13.03.2020
1095 Clouds 28 1014 12 6000 6.7 170 12:40 13.03.2020
1096 Clouds 27 1015 11 6000 7.2 170 12:21 13.03.2020
1097 Clouds 27 1015 11 6000 7.2 170 11:57 13.03.2020
1098 Clouds 27 1015 11 6000 7.2 170 11:38 13.03.2020
1099 Clouds 27 1015 11 6000 7.2 170 11:19 13.03.2020
1100 Dust 26 1016 11 5000 7.7 170 10:47 13.03.2020
1101 Dust 26 1016 11 5000 7.7 170 10:27 13.03.2020
1102 Dust 25 1017 11 5000 8.2 170 09:57 13.03.2020
1103 Dust 25 1017 11 5000 8.2 170 09:38 13.03.2020
1104 Dust 25 1017 11 5000 8.2 170 09:20 13.03.2020
1105 Clouds 23 1018 13 10000 5.1 160 08:44 13.03.2020
1106 Clouds 23 1018 13 10000 5.1 160 08:22 13.03.2020
1107 Clouds 21 1018 15 10000 4.6 160 07:47 13.03.2020
1108 Clouds 21 1018 15 10000 4.6 160 07:28 13.03.2020
1109 Clouds 19 1017 20 10000 3.6 160 06:47 13.03.2020
1110 Clouds 19 1017 20 10000 3.6 160 06:26 13.03.2020
1111 Clouds 17 1016 25 10000 2.6 160 05:49 13.03.2020
1112 Clouds 17 1016 25 10000 2.6 160 05:20 13.03.2020
1113 Clouds 17 1016 25 10000 2.1 160 04:37 13.03.2020
1114 Clouds 19 1015 22 10000 4.1 180 02:58 13.03.2020
1115 Clouds 19 1015 22 10000 3.1 170 01:45 13.03.2020
1116 Clouds 19 1015 22 10000 3.1 170 01:18 13.03.2020
1117 Clouds 19 1015 22 10000 3.1 170 01:18 13.03.2020
1118 Clouds 20 1016 22 10000 3.6 170 00:46 13.03.2020
1119 Clouds 20 1016 22 10000 3.6 170 00:23 13.03.2020
1120 Clouds 20 1017 24 10000 2.6 170 23:47 12.03.2020
1121 Clouds 20 1017 24 10000 2.6 170 23:26 12.03.2020
1122 Clouds 21 1017 22 10000 2.6 150 22:55 12.03.2020
1123 Clouds 21 1017 22 10000 2.6 150 22:37 12.03.2020
1124 Clouds 21 1017 22 10000 2.6 150 22:19 12.03.2020
1125 Clouds 21 1017 22 10000 2.6 150 21:42 12.03.2020
1126 Clouds 21 1017 22 10000 2.6 150 21:24 12.03.2020
1127 Clouds 22 1017 19 10000 2.6 150 20:55 12.03.2020
1128 Clouds 22 1017 19 10000 2.6 150 20:37 12.03.2020
1129 Clouds 22 1017 19 10000 2.6 150 20:18 12.03.2020
1130 Clouds 23 1017 20 10000 2.6 140 19:39 12.03.2020
1131 Clouds 23 1017 20 10000 2.6 140 19:20 12.03.2020
1132 Clouds 24 1017 17 10000 3.1 140 18:43 12.03.2020
1133 Clouds 24 1017 17 10000 3.1 140 18:23 12.03.2020
1134 Clouds 25 1016 22 10000 2.1 140 17:56 12.03.2020
1135 Clouds 25 1016 22 10000 2.1 140 17:37 12.03.2020
1136 Clouds 25 1016 22 10000 2.1 140 17:18 12.03.2020
1137 Clouds 26 1016 15 10000 3.6 150 16:43 12.03.2020
1138 Clouds 26 1016 15 10000 3.6 150 16:24 12.03.2020
1139 Clouds 27 1016 15 10000 4.1 140 15:59 12.03.2020
1140 Clouds 27 1016 15 10000 4.1 140 15:39 12.03.2020
1141 Clouds 27 1016 15 10000 4.1 140 15:21 12.03.2020
1142 Clouds 28 1016 15 10000 3.6 140 14:38 12.03.2020
1143 Clouds 28 1016 15 10000 3.6 140 14:19 12.03.2020
1144 Clouds 28 1016 14 10000 4.1 160 13:40 12.03.2020
1145 Clouds 28 1016 14 10000 4.1 160 13:22 12.03.2020
1146 Clouds 28 1017 14 10000 4.1 130 12:55 12.03.2020
1147 Clouds 28 1017 14 10000 4.1 130 12:37 12.03.2020
1148 Clouds 28 1017 14 10000 4.1 130 12:18 12.03.2020
1149 Clouds 28 1018 10 10000 3.1 150 11:56 12.03.2020
1150 Clouds 28 1018 10 10000 3.1 150 11:37 12.03.2020
1151 Clear 27 1019 12 10000 3.6 170 11:19 12.03.2020
1152 Clear 27 1019 12 10000 3.6 170 10:55 12.03.2020
1153 Clear 27 1019 12 10000 3.6 170 10:55 12.03.2020
1154 Clear 27 1019 12 10000 3.6 170 10:37 12.03.2020
1155 Clear 27 1019 12 10000 3.6 170 10:18 12.03.2020
1156 Clear 26 1020 16 10000 4.6 170 09:42 12.03.2020
1157 Clear 26 1020 16 10000 4.6 170 09:23 12.03.2020
1158 Clear 25 1020 12 10000 3.6 160 08:40 12.03.2020
1159 Clouds 25 1020 19 10000 3.6 160 08:19 12.03.2020
1160 Clouds 22 1019 24 10000 2.1 130 07:52 12.03.2020
1161 Clouds 22 1019 24 10000 2.1 130 07:23 12.03.2020
1162 Clouds 19 1019 37 10000 1 130 06:38 12.03.2020
1163 Clouds 16 1019 38 10000 1 120 05:40 12.03.2020
1164 Clear 14 1018 44 10000 2.57 129 04:27 12.03.2020
1165 Clear 14 1017 41 10000 1 150 02:34 12.03.2020
1166 Clouds 15 1018 41 10000 2.58 130 01:30 12.03.2020
1167 Clouds 17 1018 36 10000 1 130 00:42 12.03.2020
1168 Clouds 17 1019 33 10000 1 110 23:59 11.03.2020
1169 Clouds 17 1019 33 10000 1 110 23:37 11.03.2020
1170 Clouds 20 1019 30 10000 2.1 170 23:18 11.03.2020
1171 Clouds 20 1019 30 10000 2.1 170 22:42 11.03.2020
1172 Clouds 20 1019 30 10000 2.1 170 22:23 11.03.2020
1173 Clouds 19 1019 32 10000 1.5 150 21:58 11.03.2020
1174 Clouds 19 1019 32 10000 1.5 150 21:40 11.03.2020
1175 Clouds 19 1019 32 10000 1.5 150 21:22 11.03.2020
1176 Clouds 20 1019 28 10000 1 130 20:57 11.03.2020
1177 Clouds 20 1019 28 10000 1 130 20:37 11.03.2020
1178 Clouds 20 1019 28 10000 1 130 20:19 11.03.2020
1179 Clouds 22 1018 16 10000 2.1 110 19:42 11.03.2020
1180 Clouds 22 1018 16 10000 2.1 110 19:24 11.03.2020
1181 Clouds 23 1018 27 10000 1.5 130 18:57 11.03.2020
1182 Clouds 23 1018 27 10000 1.5 130 18:38 11.03.2020
1183 Clouds 23 1018 27 10000 1.5 130 18:38 11.03.2020
1184 Clouds 23 1018 27 10000 1.5 130 18:19 11.03.2020
1185 Clouds 24 1017 16 10000 2.1 130 17:55 11.03.2020
1186 Clouds 24 1017 16 10000 2.1 130 17:55 11.03.2020
1187 Clouds 24 1017 16 10000 2.1 130 17:37 11.03.2020
1188 Clouds 24 1017 12 10000 2.1 130 17:19 11.03.2020
1189 Clouds 26 1017 22 10000 1.5 130 16:44 11.03.2020
1190 Clouds 26 1017 22 10000 1.5 130 16:20 11.03.2020
1191 Clouds 27 1017 22 10000 2.1 140 15:43 11.03.2020
1192 Clouds 27 1017 22 10000 2.1 140 15:23 11.03.2020
1193 Clouds 28 1017 21 10000 2.1 120 14:56 11.03.2020
1194 Clouds 28 1017 21 10000 2.1 120 14:37 11.03.2020
1195 Clouds 28 1017 21 10000 2.1 120 14:18 11.03.2020
1196 Clouds 28 1017 17 10000 1 210 13:42 11.03.2020
1197 Clouds 28 1017 17 10000 1 210 13:24 11.03.2020
1198 Clouds 27 1018 22 10000 1.5 240 12:56 11.03.2020
1199 Clouds 27 1018 22 10000 1.5 240 12:38 11.03.2020
1200 Clouds 27 1018 22 10000 1.5 240 12:19 11.03.2020
1201 Clouds 27 1018 24 10000 2.1 180 11:41 11.03.2020
1202 Clear 27 1018 24 10000 2.1 180 11:21 11.03.2020
1203 Clear 27 1019 18 10000 3.1 160 10:47 11.03.2020
1204 Clear 27 1019 18 10000 3.1 160 10:21 11.03.2020
1205 Clear 27 1019 18 10000 3.1 160 10:21 11.03.2020
1206 Clear 27 1019 18 10000 3.1 160 10:21 11.03.2020
1207 Clear 25 1020 12 10000 4.6 180 09:59 11.03.2020
1208 Clear 25 1020 12 10000 4.6 180 09:40 11.03.2020
1209 Clear 25 1020 12 10000 4.6 180 09:21 11.03.2020
1210 Clear 24 1021 22 10000 2.6 140 08:43 11.03.2020
1211 Clear 24 1021 22 10000 2.6 140 08:25 11.03.2020
1212 Clear 22 1021 24 10000 2.6 120 07:47 11.03.2020
1213 Clear 22 1021 24 10000 2.6 120 07:21 11.03.2020
1214 Clear 17 1020 36 10000 1 160 06:50 11.03.2020
1215 Clear 17 1020 36 10000 1 160 06:31 11.03.2020
1216 Clear 15 1020 38 10000 1 130 05:32 11.03.2020
1217 Clear 14 1019 44 10000 2.28 116 03:26 11.03.2020
1218 Clear 14 1019 44 10000 2.28 116 03:26 11.03.2020
1219 Clear 14 1018 47 10000 1.94 137 01:53 11.03.2020
1220 Clear 14 1018 47 10000 1.97 139 01:23 11.03.2020
1221 Clear 15 1019 38 10000 1 160 00:37 11.03.2020
1222 Clear 15 1019 44 10000 1.97 139 23:50 10.03.2020
1223 Clear 15 1019 44 10000 1.97 139 23:28 10.03.2020
1224 Clear 18 1020 34 10000 1 150 22:58 10.03.2020
1225 Clear 18 1020 34 10000 1 150 22:37 10.03.2020
1226 Clear 18 1020 34 10000 1 150 22:19 10.03.2020
1227 Clear 18 1020 34 10000 1.5 190 21:56 10.03.2020
1228 Clear 18 1020 34 10000 1.5 190 21:38 10.03.2020
1229 Clear 18 1020 34 10000 1.5 190 21:19 10.03.2020
1230 Clear 19 1020 34 10000 1 130 20:43 10.03.2020
1231 Clear 19 1020 34 10000 1 130 20:21 10.03.2020
1232 Clear 20 1019 30 10000 1 140 19:59 10.03.2020
1233 Clear 20 1019 30 10000 1 140 19:40 10.03.2020
1234 Clear 20 1019 30 10000 1 140 19:40 10.03.2020
1235 Clear 20 1019 30 10000 1 140 19:22 10.03.2020
1236 Clear 22 1019 28 10000 1.5 100 18:56 10.03.2020
1237 Clear 22 1019 28 10000 1.5 100 18:37 10.03.2020
1238 Clear 22 1019 28 10000 1.5 100 18:19 10.03.2020
1239 Clear 23 1018 27 10000 2.1 70 17:55 10.03.2020
1240 Clear 23 1018 27 10000 2.1 70 17:37 10.03.2020
1241 Clear 23 1018 27 10000 2.1 70 17:18 10.03.2020
1242 Clear 25 1018 23 10000 1.5 100 16:37 10.03.2020
1243 Clear 25 1018 23 10000 1.5 100 16:18 10.03.2020
1244 Clear 25 1018 23 10000 1.5 100 16:18 10.03.2020
1245 Clear 26 1018 24 10000 1.5 130 15:42 10.03.2020
1246 Clear 26 1018 24 10000 1.5 130 15:20 10.03.2020
1247 Clear 28 1017 21 10000 1 150 14:59 10.03.2020
1248 Clear 28 1017 21 10000 1 150 14:40 10.03.2020
1249 Clear 28 1017 21 10000 1 150 14:19 10.03.2020
1250 Clear 26 1017 19 10000 3.1 140 13:44 10.03.2020
1251 Clear 26 1017 19 10000 3.1 140 13:26 10.03.2020
1252 Clear 26 1018 19 10000 3.1 110 12:56 10.03.2020
1253 Clear 26 1018 19 10000 3.1 110 12:37 10.03.2020
1254 Clear 26 1018 19 10000 3.1 110 12:18 10.03.2020
1255 Clear 25 1014 13 0 3.15 108 11:42 10.03.2020
1256 Clear 25 1020 23 10000 4.1 70 11:24 10.03.2020
1257 Clear 25 1020 23 10000 4.1 70 10:57 10.03.2020
1258 Clear 25 1020 23 10000 4.1 70 10:39 10.03.2020
1259 Clear 25 1020 23 10000 4.1 70 10:19 10.03.2020
1260 Clear 24 1021 25 10000 2.6 110 09:45 10.03.2020
1261 Clear 24 1021 25 10000 2.6 110 09:21 10.03.2020
1262 Clear 23 1021 33 10000 1 90 08:58 10.03.2020
1263 Clear 23 1021 33 10000 1 90 08:40 10.03.2020
1264 Clear 23 1021 33 10000 1 90 08:20 10.03.2020
1265 Clear 19 1021 42 10000 1 70 07:42 10.03.2020
1266 Clear 19 1021 42 10000 1 70 07:23 10.03.2020
1267 Clear 17 1021 48 10000 1.55 95 06:38 10.03.2020
1268 Clear 13 1020 54 10000 1.55 95 05:55 10.03.2020
1269 Clear 13 1020 54 10000 1.55 95 05:35 10.03.2020
1270 Clear 11 1019 57 10000 1.08 78 04:31 10.03.2020
1271 Clear 13 1019 50 10000 1 290 02:58 10.03.2020
1272 Clear 14 1019 47 10000 1 280 01:33 10.03.2020
1273 Clear 15 1019 44 10000 1.5 280 00:51 10.03.2020
1274 Clear 15 1019 44 10000 1.5 280 00:28 10.03.2020
1275 Clear 14 1019 50 10000 1.21 57 23:43 09.03.2020
1276 Clear 14 1019 50 10000 1.21 57 23:22 09.03.2020
1277 Clear 16 1019 48 10000 1.42 62 22:57 09.03.2020
1278 Clear 16 1019 48 10000 1.42 62 22:38 09.03.2020
1279 Clear 16 1019 48 10000 1.42 62 22:20 09.03.2020
1280 Clear 16 1019 48 10000 1.42 62 21:45 09.03.2020
1281 Clear 16 1019 48 10000 1.42 62 21:22 09.03.2020
1282 Clear 16 1019 48 10000 1.42 62 21:22 09.03.2020
1283 Clear 18 1019 42 10000 1.42 62 20:58 09.03.2020
1284 Clear 18 1019 42 10000 2.01 78 20:40 09.03.2020
1285 Clear 18 1019 42 10000 3.94 41 20:22 09.03.2020
1286 Clear 19 1019 39 10000 1.5 20 19:59 09.03.2020
1287 Clear 19 1019 39 10000 1.5 20 19:59 09.03.2020
1288 Clear 19 1019 39 10000 1.5 20 19:41 09.03.2020
1289 Clear 19 1019 39 10000 1.5 20 19:18 09.03.2020
1290 Clear 20 1018 37 10000 2.1 40 18:55 09.03.2020
1291 Clear 20 1018 37 10000 2.1 40 18:37 09.03.2020
1292 Clear 20 1018 37 10000 2.1 40 18:18 09.03.2020
1293 Clear 21 1017 30 10000 3.1 40 17:55 09.03.2020
1294 Clear 21 1017 30 10000 3.1 40 17:37 09.03.2020
1295 Clear 21 1017 30 10000 3.1 40 17:19 09.03.2020
1296 Clear 23 1017 25 10000 4.1 360 16:55 09.03.2020
1297 Clear 21 1016 20 0 3.48 19 16:36 09.03.2020
1298 Clear 24 1017 25 10000 3.6 10 16:18 09.03.2020
1299 Clear 24 1017 25 10000 3.6 10 15:55 09.03.2020
1300 Clear 24 1017 25 10000 3.6 10 15:55 09.03.2020
1301 Clear 24 1017 25 10000 3.6 10 15:36 09.03.2020
1302 Clear 24 1017 25 10000 3.6 10 15:18 09.03.2020
1303 Clear 24 1017 23 10000 6.2 10 14:39 09.03.2020
1304 Clear 24 1017 23 10000 6.2 10 14:20 09.03.2020
1305 Clear 26 1017 21 10000 3.1 300 13:58 09.03.2020
1306 Clear 26 1017 21 10000 3.1 300 13:39 09.03.2020
1307 Clear 26 1017 21 10000 3.1 300 13:20 09.03.2020
1308 Clear 25 1017 25 9000 3.6 340 12:44 09.03.2020
1309 Clear 25 1017 25 9000 3.6 340 12:24 09.03.2020
1310 Clear 24 1018 27 9000 2.6 340 11:58 09.03.2020
1311 Clear 24 1018 27 9000 2.6 340 11:40 09.03.2020
1312 Clear 24 1018 27 9000 2.6 340 11:20 09.03.2020
1313 Clear 22 1019 30 9000 3.1 360 10:55 09.03.2020
1314 Clear 22 1019 30 9000 3.1 360 10:37 09.03.2020
1315 Clear 22 1019 30 9000 3.1 360 10:18 09.03.2020
1316 Clear 21 1020 32 9000 5.1 350 09:41 09.03.2020
1317 Clear 21 1020 32 9000 5.1 350 09:23 09.03.2020
1318 Clear 20 1020 34 8000 5.7 350 08:45 09.03.2020
1319 Clear 20 1020 34 8000 5.7 350 08:27 09.03.2020
1320 Clear 19 1020 37 8000 4.1 330 07:43 09.03.2020
1321 Clear 19 1020 37 8000 4.1 330 07:22 09.03.2020
1322 Clear 16 1020 41 8000 4.6 320 06:46 09.03.2020
1323 Clear 16 1020 41 8000 4.6 320 06:28 09.03.2020
1324 Clear 13 1019 50 6000 2.6 310 05:58 09.03.2020
1325 Clear 13 1019 50 6000 2.6 310 05:40 09.03.2020
1326 Clear 13 1018 47 6000 3.1 300 04:46 09.03.2020
1327 Clear 13 1018 47 6000 3.1 300 04:23 09.03.2020
1328 Clear 13 1018 50 7000 2.6 300 03:29 09.03.2020
1329 Dust 14 1017 44 5000 3.1 310 02:37 09.03.2020
1330 Dust 15 1018 38 5000 4.1 310 00:42 09.03.2020
1331 Dust 15 1018 38 5000 4.1 310 00:24 09.03.2020
1332 Dust 16 1019 38 5000 2.6 300 23:55 08.03.2020
1333 Dust 16 1019 38 5000 2.6 300 23:28 08.03.2020
1334 Dust 17 1019 36 5000 3.1 300 22:58 08.03.2020
1335 Dust 17 1019 36 5000 3.1 300 22:39 08.03.2020
1336 Dust 17 1019 36 5000 3.1 300 22:21 08.03.2020
1337 Dust 17 1019 36 5000 3.1 300 22:21 08.03.2020
1338 Dust 18 1019 31 5000 4.1 320 21:57 08.03.2020
1339 Dust 18 1019 31 5000 4.1 320 21:38 08.03.2020
1340 Dust 18 1019 31 5000 4.1 320 21:19 08.03.2020
1341 Clear 20 1019 37 6000 5.1 350 20:56 08.03.2020
1342 Clear 20 1019 37 6000 5.1 350 20:37 08.03.2020
1343 Clear 20 1019 28 6000 5.1 350 20:18 08.03.2020
1344 Dust 20 1018 26 5000 6.2 350 19:37 08.03.2020
1345 Dust 20 1018 26 5000 6.2 350 19:19 08.03.2020
1346 Dust 21 1017 26 5000 6.2 350 18:42 08.03.2020
1347 Dust 21 1017 26 5000 6.2 350 18:24 08.03.2020
1348 Clear 19 1017 26 0 6.04 346 17:57 08.03.2020
1349 Clear 19 1017 26 0 6.04 346 17:38 08.03.2020
1350 Dust 24 1016 18 5000 6.7 330 17:19 08.03.2020
1351 Dust 24 1016 18 5000 6.7 330 16:47 08.03.2020
1352 Dust 24 1016 18 5000 6.7 330 16:28 08.03.2020
1353 Clear 25 1015 18 8000 6.2 340 15:58 08.03.2020
1354 Clear 25 1015 18 8000 6.2 340 15:40 08.03.2020
1355 Clear 25 1015 18 8000 6.2 340 15:20 08.03.2020
1356 Clear 26 1015 18 9000 6.7 310 14:42 08.03.2020
1357 Clear 26 1015 15 9000 6.7 310 14:22 08.03.2020
1358 Clear 26 1015 15 8000 6.7 310 13:59 08.03.2020
1359 Clear 26 1015 15 8000 6.7 310 13:39 08.03.2020
1360 Clear 26 1015 15 8000 6.7 310 13:19 08.03.2020
1361 Clear 26 1016 19 8000 6.2 300 12:43 08.03.2020
1362 Clear 26 1016 19 8000 6.2 300 12:43 08.03.2020
1363 Clear 26 1016 19 8000 6.2 300 12:24 08.03.2020
1364 Clear 26 1017 19 7000 6.2 320 11:56 08.03.2020
1365 Clear 26 1017 19 7000 6.2 320 11:38 08.03.2020
1366 Clear 24 1018 23 7000 6.7 320 11:19 08.03.2020
1367 Clear 24 1018 23 7000 6.7 320 10:41 08.03.2020
1368 Clear 24 1018 23 7000 6.7 320 10:23 08.03.2020
1369 Clear 23 1019 27 7000 5.7 330 09:43 08.03.2020
1370 Clear 23 1019 27 7000 5.7 330 09:25 08.03.2020
1371 Clear 22 1019 28 7000 6.2 330 08:57 08.03.2020
1372 Clear 22 1019 28 7000 6.2 330 08:39 08.03.2020
1373 Clear 22 1019 28 7000 6.2 330 08:19 08.03.2020
1374 Clear 20 1020 30 6000 4.1 330 07:42 08.03.2020
1375 Clear 20 1020 30 6000 4.1 330 07:23 08.03.2020
1376 Dust 17 1019 26 5000 2.6 320 06:42 08.03.2020
1377 Dust 17 1019 26 5000 2.6 320 06:22 08.03.2020
1378 Clear 19 1018 26 0 5.27 360 05:35 08.03.2020
1379 Dust 16 1017 29 3000 3.1 320 03:52 08.03.2020
1380 Dust 17 1017 29 3000 2.6 310 02:29 08.03.2020
1381 Dust 18 1017 34 3000 1.5 350 01:23 08.03.2020
1382 Dust 18 1017 34 3000 1.5 350 00:49 08.03.2020
1383 Dust 18 1017 39 3000 3.37 24 00:26 08.03.2020
1384 Dust 18 1017 39 3000 3.37 24 23:44 07.03.2020
1385 Dust 18 1017 39 3000 3.37 24 23:23 07.03.2020
1386 Dust 19 1017 32 3000 1 10 22:41 07.03.2020
1387 Dust 19 1017 32 3000 1 10 22:22 07.03.2020
1388 Dust 20 1018 32 3000 1 40 21:50 07.03.2020
1389 Dust 20 1018 32 3000 1 40 21:29 07.03.2020
1390 Dust 21 1017 25 3000 2.6 20 20:57 07.03.2020
1391 Dust 21 1017 25 3000 2.6 20 20:57 07.03.2020
1392 Dust 21 1017 25 3000 2.6 20 20:38 07.03.2020
1393 Dust 21 1017 15 3000 2.6 20 20:19 07.03.2020
1394 Dust 21 1017 30 2000 1.5 30 19:41 07.03.2020
1395 Dust 22 1017 15 1000 3.1 30 19:22 07.03.2020
1396 Dust 23 1016 20 1000 3.6 30 18:46 07.03.2020
1397 Dust 23 1016 20 1000 3.6 30 18:27 07.03.2020
1398 Dust 25 1015 15 700 4.1 20 17:57 07.03.2020
1399 Dust 25 1015 15 700 4.1 20 17:39 07.03.2020
1400 Dust 25 1015 10 700 4.1 20 17:19 07.03.2020
1401 Dust 26 1014 15 7000 5.1 350 16:43 07.03.2020
1402 Dust 26 1014 15 7000 5.1 350 16:24 07.03.2020
1403 Dust 27 1014 14 700 6.2 360 15:59 07.03.2020
1404 Dust 27 1014 14 700 6.2 360 15:41 07.03.2020
1405 Dust 27 1014 14 700 6.2 360 15:41 07.03.2020
1406 Dust 27 1014 14 700 6.2 360 15:21 07.03.2020
1407 Dust 29 1013 10 700 4.1 350 14:58 07.03.2020
1408 Dust 29 1013 10 700 4.1 350 14:40 07.03.2020
1409 Dust 29 1013 7 700 4.1 350 14:21 07.03.2020
1410 Dust 29 1014 7 700 4.1 340 13:41 07.03.2020
1411 Dust 29 1014 8 700 4.1 340 13:21 07.03.2020
1412 Dust 30 1014 8 600 5.7 330 12:45 07.03.2020
1413 Dust 30 1014 8 600 5.7 330 12:23 07.03.2020
1414 Dust 29 1015 8 700 6.2 330 11:59 07.03.2020
1415 Dust 29 1015 8 700 6.2 330 11:41 07.03.2020
1416 Dust 29 1015 12 700 6.2 330 11:23 07.03.2020
1417 Dust 29 1015 14 800 6.7 320 10:56 07.03.2020
1418 Dust 29 1015 14 1500 6.7 330 10:36 07.03.2020
1419 Dust 29 1015 14 1500 6.7 330 10:18 07.03.2020
1420 Dust 29 1015 13 3000 7.2 330 09:40 07.03.2020
1421 Dust 29 1015 13 3000 7.2 330 09:19 07.03.2020
1422 Dust 29 1015 13 3000 7.7 320 08:56 07.03.2020
1423 Dust 27 1015 14 5000 4.6 250 08:38 07.03.2020
1424 Dust 27 1015 14 5000 4.6 250 08:19 07.03.2020
1425 Dust 26 1015 14 4000 5.1 240 07:44 07.03.2020
1426 Clear 24 1014 15 0 7.15 251 07:21 07.03.2020
1427 Clear 24 1014 15 0 7.15 251 06:39 07.03.2020
1428 Clear 24 1014 15 0 7.15 251 05:59 07.03.2020
1429 Clear 24 1014 15 0 7.15 251 05:38 07.03.2020
1430 Clear 18 1014 20 0 4.19 227 03:35 07.03.2020
1431 Clear 18 1014 20 0 4.19 227 02:42 07.03.2020
1432 Clear 20 1013 30 10000 2.1 180 01:51 07.03.2020
1433 Clear 20 1013 22 10000 3.1 160 00:43 07.03.2020
1434 Clear 20 1013 22 10000 3.1 160 00:23 07.03.2020
1435 Clear 20 1013 22 10000 3.1 160 00:23 07.03.2020
1436 Clear 21 1013 21 10000 3.6 170 23:58 06.03.2020
1437 Clear 21 1013 21 10000 3.6 170 23:38 06.03.2020
1438 Clear 21 1013 21 10000 3.6 170 23:38 06.03.2020
1439 Clear 22 1014 16 10000 3.1 160 23:20 06.03.2020
1440 Clear 22 1014 16 10000 3.1 160 22:44 06.03.2020
1441 Clear 22 1014 16 10000 3.1 160 22:19 06.03.2020
1442 Clear 21 1014 22 10000 2.1 150 21:46 06.03.2020
1443 Clear 21 1014 22 10000 2.1 150 21:20 06.03.2020
1444 Clear 22 1015 21 10000 2.6 160 20:43 06.03.2020
1445 Clear 22 1015 21 10000 2.6 160 20:21 06.03.2020
1446 Clear 22 1015 21 10000 2.6 160 20:21 06.03.2020
1447 Clear 23 1015 25 10000 1.5 150 19:55 06.03.2020
1448 Clear 23 1015 25 10000 1.5 150 19:36 06.03.2020
1449 Clear 23 1015 25 10000 1.5 150 19:18 06.03.2020
1450 Clear 24 1014 25 10000 1.5 150 18:42 06.03.2020
1451 Clear 24 1014 25 10000 1.5 150 18:20 06.03.2020
1452 Clear 26 1014 16 8000 2.6 130 17:56 06.03.2020
1453 Clear 26 1014 16 8000 2.6 130 17:38 06.03.2020
1454 Clear 28 1013 17 8000 2.6 130 17:19 06.03.2020
1455 Clear 28 1013 17 8000 2.6 130 16:42 06.03.2020
1456 Clear 28 1013 17 8000 2.6 130 16:21 06.03.2020
1457 Clear 30 1013 16 8000 2.6 130 15:58 06.03.2020
1458 Clear 30 1013 16 8000 2.6 130 15:40 06.03.2020
1459 Clear 30 1013 16 8000 2.6 130 15:20 06.03.2020
1460 Clear 30 1013 16 10000 2.6 130 14:39 06.03.2020
1461 Clear 30 1013 16 10000 2.6 130 14:21 06.03.2020
1462 Clear 31 1013 15 10000 2.1 150 13:43 06.03.2020
1463 Clear 31 1013 15 10000 2.1 150 13:23 06.03.2020
1464 Clear 30 1014 16 10000 2.6 170 12:58 06.03.2020
1465 Clear 30 1014 16 10000 2.6 170 12:38 06.03.2020
1466 Clear 30 1014 16 10000 2.6 170 12:20 06.03.2020
1467 Clear 29 1015 16 10000 3.6 200 11:58 06.03.2020
1468 Clear 29 1015 16 10000 3.6 200 11:40 06.03.2020
1469 Clear 29 1015 16 10000 3.6 200 11:20 06.03.2020
1470 Clear 27 1017 12 10000 3.1 190 10:40 06.03.2020
1471 Clear 27 1017 12 10000 3.1 190 10:21 06.03.2020
1472 Clear 25 1018 12 10000 3.1 190 09:55 06.03.2020
1473 Clear 25 1018 12 10000 3.1 190 09:37 06.03.2020
1474 Clear 25 1018 12 10000 3.1 190 09:19 06.03.2020
1475 Clear 23 1019 20 10000 4.1 170 08:45 06.03.2020
1476 Clear 23 1019 20 10000 4.1 170 08:27 06.03.2020
1477 Clear 21 1018 16 10000 3.1 160 07:57 06.03.2020
1478 Clear 21 1018 16 10000 3.1 160 07:39 06.03.2020
1479 Clear 17 1018 36 10000 1 150 06:59 06.03.2020
1480 Clear 17 1018 36 10000 1 150 06:40 06.03.2020
1481 Clear 13 1018 43 10000 1 140 05:46 06.03.2020
1482 Clear 13 1018 43 10000 1 140 05:27 06.03.2020
1483 Clear 14 1017 41 10000 1 150 04:57 06.03.2020
1484 Clear 13 1017 47 10000 2.12 127 02:55 06.03.2020
1485 Clear 14 1017 44 10000 3.05 129 01:40 06.03.2020
1486 Clear 14 1017 44 10000 3.39 129 01:22 06.03.2020
1487 Clear 16 1017 38 10000 1 150 00:33 06.03.2020
1488 Clear 17 1018 36 10000 1 150 23:57 05.03.2020
1489 Clear 17 1018 36 10000 1 150 23:39 05.03.2020
1490 Clear 17 1018 36 10000 1 150 23:19 05.03.2020
1491 Clear 17 1018 39 10000 1 130 22:40 05.03.2020
1492 Clear 17 1018 39 10000 1 130 22:21 05.03.2020
1493 Clear 17 1018 39 10000 1 140 21:57 05.03.2020
1494 Clear 17 1018 39 10000 1 140 21:38 05.03.2020
1495 Clear 17 1018 39 10000 1 140 21:20 05.03.2020
1496 Clear 18 1019 36 10000 1 130 20:57 05.03.2020
1497 Clear 18 1019 36 10000 1 130 20:39 05.03.2020
1498 Clear 18 1019 36 10000 1 130 20:19 05.03.2020
1499 Clear 20 1019 32 10000 1.5 80 19:56 05.03.2020
1500 Clear 20 1019 32 10000 1.5 80 19:38 05.03.2020
1501 Clear 20 1019 32 10000 1.5 80 19:18 05.03.2020
1502 Clear 22 1018 24 10000 2.1 70 18:54 05.03.2020
1503 Clear 22 1018 24 10000 2.1 70 18:36 05.03.2020
1504 Clear 23 1018 27 10000 1.5 90 18:18 05.03.2020
1505 Clear 23 1018 27 10000 1.5 90 17:41 05.03.2020
1506 Clear 23 1018 27 10000 1.5 90 17:22 05.03.2020
1507 Clear 25 1017 23 10000 1.5 30 16:55 05.03.2020
1508 Clear 25 1017 23 10000 1.5 30 16:37 05.03.2020
1509 Clear 25 1017 23 10000 1.5 30 16:19 05.03.2020
1510 Clear 27 1017 22 10000 1.5 30 15:44 05.03.2020
1511 Clear 27 1017 22 10000 1.5 30 15:22 05.03.2020
1512 Clear 28 1017 23 10000 1.5 360 14:58 05.03.2020
1513 Clear 28 1017 23 10000 1.5 360 14:39 05.03.2020
1514 Clear 28 1017 23 10000 1.5 360 14:21 05.03.2020
1515 Clear 28 1017 17 10000 2.6 330 13:55 05.03.2020
1516 Clear 28 1017 17 10000 2.6 330 13:36 05.03.2020
1517 Clear 28 1017 17 10000 2.6 330 13:36 05.03.2020
1518 Clear 28 1017 17 10000 2.6 330 13:18 05.03.2020
1519 Clear 26 1017 24 10000 1.36 115 12:40 05.03.2020
1520 Clear 26 1017 24 10000 1.36 115 12:40 05.03.2020
1521 Clear 26 1017 24 10000 1.36 115 12:20 05.03.2020
1522 Clear 27 1018 24 10000 1 320 11:57 05.03.2020
1523 Clear 27 1018 24 10000 1 320 11:37 05.03.2020
1524 Clear 23 1020 33 10000 1 210 11:19 05.03.2020
1525 Clear 23 1020 33 10000 1 210 10:57 05.03.2020
1526 Clear 23 1020 33 10000 1 210 10:39 05.03.2020
1527 Clear 23 1020 33 10000 1 210 10:20 05.03.2020
1528 Clear 22 1020 30 10000 1.5 140 09:45 05.03.2020
1529 Clear 22 1020 30 10000 1.5 140 09:27 05.03.2020
1530 Clear 19 1021 37 10000 1 50 08:47 05.03.2020
1531 Clear 19 1021 37 10000 1 50 08:29 05.03.2020
1532 Clear 18 1021 36 10000 1 50 07:49 05.03.2020
1533 Clear 18 1021 36 10000 1 50 07:23 05.03.2020
1534 Clear 17 1020 39 8000 2.6 86 06:50 05.03.2020
1535 Clear 17 1020 39 8000 2.6 86 06:24 05.03.2020
1536 Clear 12 1020 46 10000 2.6 86 05:57 05.03.2020
1537 Clear 12 1020 46 10000 2.6 86 05:32 05.03.2020
1538 Clear 11 1019 50 10000 1 230 04:23 05.03.2020
1539 Clear 11 1019 32 10000 1.49 68 03:58 05.03.2020
1540 Clear 12 1019 32 10000 1 300 02:25 05.03.2020
1541 Clear 13 1019 43 10000 1.25 66 01:24 05.03.2020
1542 Clear 13 1018 31 10000 1 340 00:43 05.03.2020
1543 Clear 15 1019 41 10000 1.25 66 23:56 04.03.2020
1544 Clear 15 1019 41 10000 1.25 66 23:38 04.03.2020
1545 Clear 15 1019 41 10000 1.71 63 23:19 04.03.2020
1546 Clear 16 1019 36 10000 1.5 20 22:40 04.03.2020
1547 Clear 16 1019 36 10000 1.5 20 22:19 04.03.2020
1548 Clear 16 1019 41 10000 1.71 63 21:59 04.03.2020
1549 Clear 16 1019 41 10000 1.71 63 21:41 04.03.2020
1550 Clear 16 1019 41 10000 1.71 63 21:21 04.03.2020
1551 Clear 18 1019 34 10000 2.1 10 20:57 04.03.2020
1552 Clear 18 1019 34 10000 2.1 10 20:39 04.03.2020
1553 Clear 18 1019 34 10000 2.1 10 20:21 04.03.2020
1554 Clear 19 1020 32 10000 1 30 19:42 04.03.2020
1555 Clear 19 1020 32 10000 1 30 19:24 04.03.2020
1556 Clear 20 1019 20 10000 2.6 20 18:58 04.03.2020
1557 Clear 20 1019 20 10000 2.6 20 18:40 04.03.2020
1558 Clear 20 1019 20 10000 2.6 20 18:22 04.03.2020
1559 Clear 22 1019 20 10000 3.1 20 17:56 04.03.2020
1560 Clear 22 1019 20 10000 3.1 20 17:38 04.03.2020
1561 Clear 22 1019 14 10000 3.1 20 17:19 04.03.2020
1562 Clear 23 1018 14 10000 2.1 10 16:44 04.03.2020
1563 Clear 23 1018 14 10000 2.1 10 16:26 04.03.2020
1564 Clear 25 1018 23 10000 1.5 10 15:59 04.03.2020
1565 Clear 25 1018 23 10000 1.5 10 15:41 04.03.2020
1566 Clear 25 1018 23 10000 1.5 10 15:23 04.03.2020
1567 Clear 26 1018 16 10000 3.6 350 14:56 04.03.2020
1568 Clear 26 1018 16 10000 3.6 350 14:37 04.03.2020
1569 Clear 26 1018 16 10000 3.6 350 14:19 04.03.2020
1570 Clear 25 1018 10 10000 2.6 310 13:56 04.03.2020
1571 Clear 25 1018 10 10000 2.6 310 13:38 04.03.2020
1572 Clear 25 1018 10 10000 2.6 310 13:19 04.03.2020
1573 Clear 25 1019 25 10000 1.5 20 12:45 04.03.2020
1574 Clear 25 1019 25 10000 1.5 20 12:27 04.03.2020
1575 Clear 23 1022 28 10000 1.93 318 11:59 04.03.2020
1576 Clear 23 1022 28 10000 1.93 318 11:41 04.03.2020
1577 Clear 23 1022 28 10000 1.93 318 11:22 04.03.2020
1578 Clear 23 1020 12 10000 1.08 331 10:56 04.03.2020
1579 Clear 23 1020 12 10000 1.08 331 10:38 04.03.2020
1580 Clear 23 1020 12 10000 1.08 331 10:18 04.03.2020
1581 Clear 22 1022 30 10000 1.5 340 09:42 04.03.2020
1582 Clear 22 1022 30 10000 1.5 340 09:21 04.03.2020
1583 Clear 21 1022 21 10000 2.1 340 08:44 04.03.2020
1584 Clear 21 1022 21 10000 2.1 340 08:26 04.03.2020
1585 Clear 17 1022 36 10000 1.28 68 07:54 04.03.2020
1586 Clear 17 1022 36 10000 1.28 68 07:35 04.03.2020
1587 Clear 15 1022 41 10000 1 340 06:58 04.03.2020
1588 Clear 15 1022 41 10000 1 340 06:40 04.03.2020
1589 Clear 15 1022 41 10000 1 340 06:20 04.03.2020
1590 Clear 10 1021 53 10000 1.28 68 05:45 04.03.2020
1591 Clear 10 1021 46 10000 1 290 04:21 04.03.2020
1592 Clear 11 1020 33 10000 1.5 290 03:38 04.03.2020
1593 Clear 10 1020 53 10000 0.45 99 03:00 04.03.2020
1594 Clear 10 1020 53 10000 0.45 99 02:37 04.03.2020
1595 Clear 10 1020 53 10000 0.62 126 02:18 04.03.2020
1596 Clear 11 1020 50 10000 0.62 126 01:50 04.03.2020
1597 Clear 12 1020 46 10000 1 280 00:44 04.03.2020
1598 Clear 12 1020 46 10000 1 280 00:24 04.03.2020
1599 Clear 13 1021 43 10000 1 300 23:45 03.03.2020
1600 Clear 13 1021 43 10000 1 300 23:27 03.03.2020
1601 Clear 15 1021 38 10000 1 340 22:57 03.03.2020
1602 Clear 15 1021 38 10000 1 340 22:39 03.03.2020
1603 Clear 15 1021 38 10000 1 340 22:19 03.03.2020
1604 Clear 15 1021 41 10000 1.82 62 21:56 03.03.2020
1605 Clear 15 1021 41 10000 1.82 62 21:36 03.03.2020
1606 Clear 15 1021 41 10000 1.82 62 21:18 03.03.2020
1607 Clear 16 1022 36 10000 1.5 10 20:40 03.03.2020
1608 Clear 16 1022 36 10000 1.5 10 20:20 03.03.2020
1609 Clear 16 1022 36 10000 1.5 10 20:20 03.03.2020
1610 Clear 17 1022 29 10000 2.6 30 19:59 03.03.2020
1611 Clear 17 1022 29 10000 2.6 30 19:37 03.03.2020
1612 Clear 17 1022 29 10000 2.6 30 19:19 03.03.2020
1613 Clear 19 1021 25 10000 2.6 30 18:58 03.03.2020
1614 Clear 19 1021 25 10000 2.6 30 18:40 03.03.2020
1615 Clear 19 1021 25 10000 2.6 30 18:20 03.03.2020
1616 Clear 20 1021 22 10000 2.1 40 17:56 03.03.2020
1617 Clear 20 1021 22 10000 2.1 40 17:37 03.03.2020
1618 Clear 20 1021 22 10000 2.1 40 17:19 03.03.2020
1619 Clear 22 1020 19 10000 3.1 40 16:56 03.03.2020
1620 Clear 22 1020 19 10000 3.1 40 16:37 03.03.2020
1621 Clear 22 1020 19 10000 3.1 40 16:18 03.03.2020
1622 Clear 22 1020 19 10000 3.1 40 16:18 03.03.2020
1623 Clear 23 1020 20 10000 2.6 40 15:43 03.03.2020
1624 Clear 23 1020 20 10000 2.6 40 15:21 03.03.2020
1625 Clear 25 1020 14 10000 2.31 32 14:56 03.03.2020
1626 Clear 25 1020 14 10000 2.31 32 14:37 03.03.2020
1627 Clear 25 1020 14 10000 2.78 25 14:19 03.03.2020
1628 Clear 23 1020 18 10000 3.6 350 13:43 03.03.2020
1629 Clear 23 1020 18 10000 3.6 350 13:24 03.03.2020
1630 Clear 23 1021 20 10000 2.1 360 12:55 03.03.2020
1631 Clear 23 1021 20 10000 2.1 360 12:37 03.03.2020
1632 Clear 23 1021 20 10000 2.1 360 12:19 03.03.2020
1633 Clear 22 1022 17 10000 3.1 330 11:55 03.03.2020
1634 Clear 22 1022 17 10000 3.1 330 11:36 03.03.2020
1635 Clear 22 1022 17 10000 3.1 330 11:18 03.03.2020
1636 Clear 21 1023 21 10000 2.6 340 10:54 03.03.2020
1637 Clear 21 1023 21 10000 2.6 340 10:36 03.03.2020
1638 Clear 21 1023 21 10000 2.6 340 10:36 03.03.2020
1639 Clear 21 1023 21 10000 2.6 340 10:18 03.03.2020
1640 Clear 21 1023 21 10000 2.6 340 10:18 03.03.2020
1641 Clear 20 1024 20 10000 3.46 41 09:41 03.03.2020
1642 Clear 20 1024 20 10000 3.46 41 09:20 03.03.2020
1643 Clear 19 1024 24 10000 3.46 41 08:42 03.03.2020
1644 Clear 19 1024 24 10000 3.23 42 08:22 03.03.2020
1645 Clear 18 1024 23 10000 1.5 350 07:56 03.03.2020
1646 Clear 18 1024 23 10000 1.5 350 07:38 03.03.2020
1647 Clear 18 1024 23 10000 1.5 350 07:18 03.03.2020
1648 Clear 16 1023 26 10000 1.5 310 06:40 03.03.2020
1649 Clear 16 1023 26 10000 1.5 310 06:21 03.03.2020
1650 Clear 10 1022 26 10000 1.5 310 05:43 03.03.2020
1651 Clear 10 1022 38 9000 2.1 290 04:54 03.03.2020
1652 Clear 11 1021 40 9000 2.1 310 02:38 03.03.2020
1653 Clear 12 1021 37 9000 2.6 310 01:29 03.03.2020
1654 Clear 12 1021 30 8000 1.5 290 00:42 03.03.2020
1655 Clear 12 1021 30 8000 1.5 290 00:23 03.03.2020
1656 Clear 14 1021 33 8000 2.6 340 23:48 02.03.2020
1657 Clear 14 1021 33 8000 2.6 340 23:23 02.03.2020
1658 Clear 13 1022 26 7000 1 330 22:57 02.03.2020
1659 Clear 13 1022 26 7000 1 330 22:57 02.03.2020
1660 Clear 13 1022 26 7000 1 330 22:38 02.03.2020
1661 Clear 13 1022 26 7000 1 330 22:19 02.03.2020
1662 Clear 15 1022 41 7000 4.08 25 21:56 02.03.2020
1663 Clear 15 1022 41 7000 4.08 25 21:37 02.03.2020
1664 Clear 15 1022 41 7000 4.08 25 21:19 02.03.2020
1665 Clear 16 1021 31 6000 2.6 10 20:54 02.03.2020
1666 Clear 16 1021 31 6000 2.6 10 20:36 02.03.2020
1667 Clear 16 1021 31 6000 2.6 10 20:18 02.03.2020
1668 Dust 17 1021 29 5000 2.6 10 19:40 02.03.2020
1669 Dust 17 1021 27 4000 3.1 20 19:21 02.03.2020
1670 Dust 19 1021 25 4000 3.1 30 18:57 02.03.2020
1671 Dust 19 1021 25 4000 3.1 30 18:38 02.03.2020
1672 Dust 19 1021 25 4000 3.1 30 18:18 02.03.2020
1673 Dust 20 1020 22 4000 4.1 30 17:56 02.03.2020
1674 Dust 20 1020 22 4000 4.1 30 17:38 02.03.2020
1675 Dust 20 1020 22 4000 4.1 30 17:20 02.03.2020
1676 Dust 21 1020 21 4000 4.6 20 16:43 02.03.2020
1677 Dust 21 1020 21 4000 4.6 20 16:24 02.03.2020
1678 Dust 23 1019 20 4000 3.6 20 15:58 02.03.2020
1679 Dust 23 1019 20 4000 3.6 20 15:40 02.03.2020
1680 Dust 23 1019 20 4000 3.6 20 15:18 02.03.2020
1681 Dust 24 1018 17 3000 4.1 360 14:39 02.03.2020
1682 Dust 24 1018 17 3000 4.1 360 14:19 02.03.2020
1683 Dust 23 1018 18 3000 5.1 10 13:55 02.03.2020
1684 Dust 23 1018 18 3000 5.1 10 13:36 02.03.2020
1685 Dust 23 1018 18 3000 5.1 10 13:18 02.03.2020
1686 Dust 23 1019 20 3000 4.6 360 12:41 02.03.2020
1687 Dust 23 1019 20 3000 4.6 360 12:19 02.03.2020
1688 Dust 22 1020 19 2300 5.7 360 11:39 02.03.2020
1689 Dust 22 1020 19 2300 5.7 360 11:21 02.03.2020
1690 Dust 21 1021 22 2000 5.7 10 10:58 02.03.2020
1691 Dust 21 1021 22 2000 5.7 10 10:40 02.03.2020
1692 Dust 21 1021 22 2000 5.7 10 10:19 02.03.2020
1693 Dust 19 1022 25 1800 5.7 360 09:51 02.03.2020
1694 Dust 19 1022 25 1800 5.7 360 09:31 02.03.2020
1695 Dust 18 1022 18 2000 6.7 360 08:49 02.03.2020
1696 Dust 18 1022 27 2000 6.7 360 08:24 02.03.2020
1697 Dust 17 1022 27 2000 6.7 360 07:54 02.03.2020
1698 Dust 17 1022 27 2000 6.7 360 07:36 02.03.2020
1699 Dust 15 1021 27 2000 6.7 350 06:56 02.03.2020
1700 Dust 15 1021 27 2000 6.7 350 06:28 02.03.2020
1701 Dust 14 1020 27 1500 4.6 350 05:27 02.03.2020
1702 Clear 15 1018 33 8000 6.2 350 03:59 02.03.2020
1703 Clear 15 1018 33 8000 6.2 350 03:19 02.03.2020
1704 Clear 16 1018 37 9000 7.2 10 02:30 02.03.2020
1705 Clear 17 1018 32 10000 5.1 360 01:37 02.03.2020
1706 Clear 17 1018 32 10000 5.1 360 01:19 02.03.2020
1707 Clear 18 1018 31 10000 5.1 10 00:22 02.03.2020
1708 Clear 19 1017 32 8000 7.7 10 23:43 01.03.2020
1709 Clear 19 1017 32 8000 7.7 10 23:24 01.03.2020
1710 Clear 20 1017 24 7000 5.7 360 22:55 01.03.2020
1711 Clear 20 1017 24 7000 5.7 360 22:36 01.03.2020
1712 Clear 21 1016 22 10000 3.1 360 22:18 01.03.2020
1713 Clear 21 1016 22 10000 3.1 360 21:41 01.03.2020
1714 Clear 21 1016 22 10000 3.1 360 21:23 01.03.2020
1715 Clear 20 1016 34 10000 1 360 20:56 01.03.2020
1716 Clear 20 1016 34 10000 1 360 20:37 01.03.2020
1717 Clear 20 1016 34 10000 1 360 20:19 01.03.2020
1718 Clear 22 1015 28 10000 1.5 340 19:42 01.03.2020
1719 Clear 22 1015 28 10000 1.5 340 19:22 01.03.2020
1720 Clear 24 1014 25 10000 1.5 350 18:58 01.03.2020
1721 Clear 24 1014 25 10000 1.5 350 18:39 01.03.2020
1722 Clear 24 1014 25 10000 1.5 350 18:19 01.03.2020
1723 Clear 26 1013 13 10000 2.1 360 17:55 01.03.2020
1724 Clear 26 1013 13 10000 2.1 360 17:37 01.03.2020
1725 Clear 26 1013 14 10000 2.1 360 17:19 01.03.2020
1726 Clear 28 1013 14 10000 4.1 350 16:54 01.03.2020
1727 Clear 28 1013 14 10000 4.1 350 16:36 01.03.2020
1728 Clear 28 1013 14 10000 4.1 350 16:18 01.03.2020
1729 Clear 28 1013 14 10000 4.1 350 16:18 01.03.2020
1730 Clear 30 1012 15 10000 4.6 350 15:55 01.03.2020
1731 Clear 30 1012 15 10000 4.6 350 15:36 01.03.2020
1732 Clear 30 1012 15 10000 4.6 350 15:18 01.03.2020
1733 Clear 31 1011 15 10000 4.1 330 14:55 01.03.2020
1734 Clear 31 1011 15 10000 4.1 330 14:36 01.03.2020
1735 Clear 31 1011 15 10000 4.1 330 14:36 01.03.2020
1736 Clear 31 1011 15 10000 4.1 330 14:18 01.03.2020
1737 Clear 31 1011 15 9000 4.6 350 13:43 01.03.2020
1738 Clear 31 1011 15 9000 4.6 350 13:21 01.03.2020
1739 Clear 31 1012 14 8000 4.6 340 12:59 01.03.2020
1740 Clear 31 1012 14 8000 4.6 340 12:40 01.03.2020
1741 Clear 31 1012 14 8000 4.6 340 12:20 01.03.2020
1742 Clear 30 1012 15 8000 5.1 320 11:41 01.03.2020
1743 Clear 30 1012 15 8000 5.1 320 11:22 01.03.2020
1744 Clear 29 1013 16 8000 4.6 320 10:57 01.03.2020
1745 Clear 29 1013 16 8000 4.6 320 10:37 01.03.2020
1746 Clear 29 1013 16 8000 4.6 320 10:19 01.03.2020
1747 Clear 27 1014 19 7000 3.6 300 09:46 01.03.2020
1748 Clear 27 1014 19 7000 3.6 300 09:27 01.03.2020
1749 Clear 26 1014 19 8000 4.1 320 08:57 01.03.2020
1750 Clear 26 1014 19 8000 4.1 320 08:38 01.03.2020
1751 Clear 26 1014 19 8000 4.1 320 08:18 01.03.2020
1752 Clear 23 1014 25 8000 2.1 10 07:41 01.03.2020
1753 Clear 23 1014 25 8000 2.1 10 07:23 01.03.2020
1754 Clear 20 1013 37 9000 1.5 130 06:47 01.03.2020
1755 Clear 20 1013 37 9000 1.5 130 06:28 01.03.2020
1756 Clear 19 1011 29 10000 2.1 110 03:54 01.03.2020
1757 Clear 20 1011 28 10000 2.1 160 02:23 01.03.2020
1758 Clear 20 1011 25 10000 3.6 160 01:48 01.03.2020
1759 Clear 20 1011 24 10000 3.6 160 01:21 01.03.2020
1760 Clear 21 1011 26 10000 3.1 150 00:42 01.03.2020
1761 Clear 21 1011 26 10000 3.1 150 00:21 01.03.2020
1762 Clear 21 1012 26 10000 2.6 150 23:46 29.02.2020
1763 Clear 21 1012 26 10000 2.6 150 23:28 29.02.2020
1764 Clear 22 1012 24 10000 2.1 150 22:42 29.02.2020
1765 Clear 22 1012 24 10000 2.1 150 22:23 29.02.2020
1766 Clear 22 1012 24 8000 3.1 150 21:42 29.02.2020
1767 Clear 22 1012 24 8000 3.1 150 21:22 29.02.2020
1768 Clear 24 1013 22 6000 3.1 130 20:43 29.02.2020
1769 Clear 24 1013 22 6000 3.1 130 20:43 29.02.2020
1770 Clear 24 1013 22 6000 3.1 130 20:21 29.02.2020
1771 Dust 24 1013 22 5000 3.6 130 19:56 29.02.2020
1772 Dust 24 1013 22 5000 3.6 130 19:38 29.02.2020
1773 Dust 24 1013 22 5000 3.6 130 19:19 29.02.2020
1774 Dust 25 1013 23 4000 2.6 140 18:43 29.02.2020
1775 Dust 25 1013 23 4000 2.6 140 18:24 29.02.2020
1776 Dust 26 1012 22 4000 2.1 130 17:57 29.02.2020
1777 -273 0 0 0 0 0 17:39 29.02.2020
1778 Dust 26 1012 22 4000 2.1 130 17:20 29.02.2020
1779 Dust 26 1012 22 4000 2.1 130 17:20 29.02.2020
1780 Dust 27 1012 24 4000 1.5 160 16:45 29.02.2020
1781 Dust 27 1012 24 4000 1.5 160 16:22 29.02.2020
1782 Dust 29 1011 18 5000 2.1 150 15:58 29.02.2020
1783 Dust 29 1011 18 5000 2.1 150 15:40 29.02.2020
1784 Dust 29 1011 18 5000 2.1 150 15:40 29.02.2020
1785 Dust 29 1011 18 5000 2.1 150 15:21 29.02.2020
1786 Clear 29 1011 20 6000 2.1 150 14:41 29.02.2020
1787 Clear 29 1011 20 6000 2.1 150 14:22 29.02.2020
1788 Clear 29 1011 20 6000 2.6 180 13:47 29.02.2020
1789 Clear 29 1011 20 6000 2.6 180 13:28 29.02.2020
1790 Clear 29 1012 17 7000 3.1 180 12:59 29.02.2020
1791 Clear 29 1012 17 7000 3.1 180 12:41 29.02.2020
1792 Clear 29 1012 17 7000 3.1 180 12:21 29.02.2020
1793 Clear 27 1013 19 8000 3.6 190 11:56 29.02.2020
1794 Clear 27 1013 19 8000 3.6 190 11:38 29.02.2020
1795 Clear 27 1013 19 8000 3.6 190 11:20 29.02.2020
1796 Clear 26 1015 21 8000 3.6 190 10:44 29.02.2020
1797 Clear 26 1015 21 8000 3.6 190 10:26 29.02.2020
1798 Clear 24 1015 22 10000 2.6 160 09:47 29.02.2020
1799 Clear 24 1015 22 10000 2.6 160 09:23 29.02.2020
1800 Clear 22 1016 24 10000 2.6 160 08:42 29.02.2020
1801 Clear 22 1016 24 10000 2.6 160 08:22 29.02.2020
1802 Clear 20 1016 20 10000 3.1 160 07:57 29.02.2020
1803 Clear 20 1016 20 10000 3.1 160 07:39 29.02.2020
1804 Clear 20 1016 20 10000 3.1 160 07:18 29.02.2020
1805 Clear 17 1016 36 10000 1.5 140 06:42 29.02.2020
1806 Clear 17 1016 36 10000 1.5 140 06:22 29.02.2020
1807 Clear 14 1016 41 10000 2.1 140 05:46 29.02.2020
1808 Clear 14 1015 41 10000 1 130 04:45 29.02.2020
1809 Clear 14 1015 41 10000 1.5 160 03:40 29.02.2020
1810 Clear 14 1015 41 10000 1.5 160 03:21 29.02.2020
1811 Clear 14 1015 27 10000 1 150 02:37 29.02.2020
1812 Clear 14 1015 27 10000 1 150 02:37 29.02.2020
1813 Clear 15 1016 38 10000 1 130 00:58 29.02.2020
1814 Clear 15 1016 38 10000 1 130 00:36 29.02.2020
1815 Clear 17 1016 33 10000 1.5 130 23:43 28.02.2020
1816 Clear 17 1016 33 10000 1.5 130 23:25 28.02.2020
1817 Clear 17 1017 33 10000 1.5 140 22:54 28.02.2020
1818 Clear 17 1017 33 10000 1.5 140 22:36 28.02.2020
1819 Clear 17 1017 33 10000 1.5 140 22:18 28.02.2020
1820 Clear 18 1017 34 10000 1 150 21:41 28.02.2020
1821 Clear 18 1017 34 10000 1 150 21:41 28.02.2020
1822 Clear 18 1017 34 10000 1 150 21:20 28.02.2020
1823 Clear 19 1017 32 10000 1.5 140 20:41 28.02.2020
1824 Clear 19 1017 32 10000 1.5 140 20:22 28.02.2020
1825 Clear 20 1017 32 10000 1 50 19:59 28.02.2020
1826 Clear 20 1017 32 10000 1 50 19:39 28.02.2020
1827 Clear 20 1017 32 10000 1 50 19:21 28.02.2020
1828 Clear 21 1017 30 10000 1.5 20 18:57 28.02.2020
1829 Clear 21 1017 30 10000 1.5 20 18:38 28.02.2020
1830 Clear 21 1017 30 10000 1.5 20 18:20 28.02.2020
1831 Clear 23 1017 28 10000 1.5 30 17:41 28.02.2020
1832 Clear 23 1017 28 10000 1.5 30 17:22 28.02.2020
1833 Clear 25 1016 22 10000 2.6 40 16:46 28.02.2020
1834 Clear 25 1016 22 10000 2.6 40 16:20 28.02.2020
1835 Clear 26 1016 26 10000 1 10 15:58 28.02.2020
1836 Clear 26 1016 26 10000 1 10 15:40 28.02.2020
1837 Clear 26 1016 26 10000 1 10 15:20 28.02.2020
1838 Clear 26 1016 26 10000 1 10 15:20 28.02.2020
1839 Clear 27 1016 24 10000 1 250 14:57 28.02.2020
1840 Clear 27 1016 24 10000 1 250 14:39 28.02.2020
1841 Clear 27 1016 24 10000 1 250 14:18 28.02.2020
1842 Clear 26 1017 21 10000 2.1 270 13:42 28.02.2020
1843 Clear 26 1017 21 10000 2.1 270 13:21 28.02.2020
1844 Clear 26 1018 22 10000 2.1 360 12:59 28.02.2020
1845 Clear 26 1018 22 10000 2.1 360 12:40 28.02.2020
1846 Clear 26 1018 22 10000 2.1 360 12:22 28.02.2020
1847 Clear 25 1019 27 10000 2.6 310 11:42 28.02.2020
1848 Clear 25 1019 27 10000 2.6 310 11:23 28.02.2020
1849 Clear 22 1020 26 10000 2.1 270 10:57 28.02.2020
1850 Clear 22 1020 26 10000 2.1 270 10:37 28.02.2020
1851 Clear 22 1020 26 10000 2.1 270 10:19 28.02.2020
1852 Clear 23 1021 31 10000 1.69 279 09:44 28.02.2020
1853 Clear 23 1021 31 10000 1.69 279 09:21 28.02.2020
1854 Clear 21 1021 37 10000 1.69 279 08:55 28.02.2020
1855 Clear 21 1021 37 10000 1.69 279 08:36 28.02.2020
1856 Clear 21 1021 37 10000 0.66 86 08:18 28.02.2020
1857 Clear 19 1021 39 10000 0.66 86 07:39 28.02.2020
1858 Clear 19 1021 39 10000 0.66 86 07:19 28.02.2020
1859 Clear 15 1021 44 10000 0.66 86 06:41 28.02.2020
1860 Clear 11 1021 53 10000 0.66 86 05:37 28.02.2020
1861 Clear 9 1020 57 10000 0.49 54 04:33 28.02.2020
1862 Clear 11 1020 50 10000 0.49 54 03:39 28.02.2020
1863 Clear 12 1019 46 10000 1 280 02:42 28.02.2020
1864 Clear 12 1019 46 10000 1 280 02:18 28.02.2020
1865 Clear 13 1020 47 10000 1.5 270 00:35 28.02.2020
1866 Clear 14 1021 36 10000 2.1 280 23:57 27.02.2020
1867 Clear 14 1021 36 10000 2.1 280 23:38 27.02.2020
1868 Clear 14 1021 30 10000 2.1 280 23:18 27.02.2020
1869 Clear 15 1021 41 10000 1.95 31 22:40 27.02.2020
1870 Clear 15 1021 41 10000 1.95 31 22:22 27.02.2020
1871 Clear 15 1021 44 10000 1.95 31 21:54 27.02.2020
1872 Clear 15 1021 44 10000 1.95 31 21:36 27.02.2020
1873 Clear 15 1021 44 10000 1.95 31 21:18 27.02.2020
1874 Clear 16 1021 44 10000 1.95 31 20:42 27.02.2020
1875 Clear 16 1021 44 10000 4.11 26 20:23 27.02.2020
1876 Clear 18 1021 36 10000 2.1 30 19:58 27.02.2020
1877 Clear 18 1021 36 10000 2.1 30 19:39 27.02.2020
1878 Clear 18 1021 36 10000 2.1 30 19:21 27.02.2020
1879 Clear 19 1021 29 10000 3.1 20 18:57 27.02.2020
1880 Clear 19 1021 29 10000 3.1 20 18:39 27.02.2020
1881 Clear 19 1021 29 10000 3.1 20 18:19 27.02.2020
1882 Clear 21 1021 26 10000 3.6 350 17:55 27.02.2020
1883 Clear 21 1021 26 10000 3.6 350 17:36 27.02.2020
1884 Clear 21 1021 26 10000 3.6 350 17:18 27.02.2020
1885 Clear 21 1021 26 10000 3.6 350 17:18 27.02.2020
1886 Clear 22 1021 19 10000 5.7 350 16:41 27.02.2020
1887 Clear 22 1021 19 10000 5.7 350 16:20 27.02.2020
1888 Clear 24 1020 22 10000 4.6 340 15:59 27.02.2020
1889 Clear 24 1020 22 10000 4.6 340 15:38 27.02.2020
1890 Clear 24 1020 22 9000 3.6 320 15:20 27.02.2020
1891 Clear 24 1020 22 9000 3.6 320 14:58 27.02.2020
1892 Clear 24 1020 22 9000 3.6 320 14:37 27.02.2020
1893 Clear 24 1020 22 9000 3.6 320 14:19 27.02.2020
1894 Clear 24 1021 19 8000 5.1 330 13:42 27.02.2020
1895 Clear 24 1021 19 8000 5.1 330 13:21 27.02.2020
1896 Clear 24 1021 23 8000 5.1 330 12:56 27.02.2020
1897 Clear 24 1021 23 8000 5.1 330 12:38 27.02.2020
1898 Clear 24 1021 23 8000 5.1 330 12:18 27.02.2020
1899 Clear 23 1022 27 7000 3.6 330 11:41 27.02.2020
1900 Clear 23 1022 27 7000 3.6 330 11:22 27.02.2020
1901 Clear 20 1023 32 7000 4.6 310 10:44 27.02.2020
1902 Clear 20 1023 32 7000 4.6 310 10:24 27.02.2020
1903 Clear 20 1024 30 8000 2.6 310 09:49 27.02.2020
1904 Clear 20 1024 30 8000 2.6 310 09:30 27.02.2020
1905 Clear 18 1024 36 8000 4.1 360 08:58 27.02.2020
1906 Clear 18 1024 36 8000 4.1 360 08:40 27.02.2020
1907 Clear 18 1024 36 8000 4.1 360 08:22 27.02.2020
1908 Clear 18 1025 39 8000 3.1 340 07:44 27.02.2020
1909 Clear 18 1025 39 8000 3.1 340 07:25 27.02.2020
1910 Clear 15 1024 44 8000 3.1 330 06:46 27.02.2020
1911 Clear 12 1023 54 6000 2.6 310 05:48 27.02.2020
1912 Clear 12 1022 54 8000 2.6 300 03:42 27.02.2020
1913 Clear 13 1022 54 8000 1.5 300 02:22 27.02.2020
1914 Clear 14 1022 47 8000 2.1 310 00:45 27.02.2020
1915 Clear 14 1022 47 8000 2.1 310 00:26 27.02.2020
1916 Clear 15 1022 44 8000 2.6 350 23:40 26.02.2020
1917 Clear 15 1022 44 8000 2.6 350 23:19 26.02.2020
1918 Clear 16 1022 44 8000 2.1 350 22:57 26.02.2020
1919 Clear 16 1022 44 8000 2.1 350 22:39 26.02.2020
1920 Clear 16 1022 44 8000 2.1 350 22:39 26.02.2020
1921 Clear 16 1022 44 8000 2.1 350 22:20 26.02.2020
1922 Clear 17 1022 36 8000 3.1 10 21:56 26.02.2020
1923 Clear 17 1022 36 8000 3.1 10 21:36 26.02.2020
1924 Clear 17 1022 36 8000 3.1 10 21:18 26.02.2020
1925 Clear 18 1022 34 8000 2.6 10 20:54 26.02.2020
1926 Clear 18 1022 34 8000 2.6 10 20:36 26.02.2020
1927 Clear 18 1022 34 8000 2.6 10 20:18 26.02.2020
1928 Clear 18 1022 36 10000 3.1 20 19:45 26.02.2020
1929 Clear 18 1022 36 10000 3.1 20 19:20 26.02.2020
1930 Clear 20 1021 30 10000 4.1 360 18:58 26.02.2020
1931 Clear 20 1021 30 10000 4.1 360 18:58 26.02.2020
1932 Clear 20 1021 30 10000 4.1 360 18:40 26.02.2020
1933 Clear 20 1021 30 10000 4.1 360 18:22 26.02.2020
1934 Clear 20 1021 30 10000 4.1 360 18:22 26.02.2020
1935 Clear 20 1020 28 10000 4.6 350 17:42 26.02.2020
1936 Clear 20 1020 28 10000 4.6 350 17:42 26.02.2020
1937 Clear 20 1020 28 10000 4.6 350 17:24 26.02.2020
1938 Clear 21 1020 26 10000 5.1 350 16:57 26.02.2020
1939 Clear 21 1020 26 10000 5.1 350 16:39 26.02.2020
1940 Clear 21 1020 26 10000 5.1 350 16:21 26.02.2020
1941 Clear 23 1019 23 10000 4.6 330 15:48 26.02.2020
1942 Clear 23 1019 23 10000 4.6 330 15:29 26.02.2020
1943 Clear 24 1018 22 10000 4.6 340 14:59 26.02.2020
1944 Clear 24 1018 22 10000 4.6 340 14:41 26.02.2020
1945 Clear 24 1018 22 10000 4.6 340 14:22 26.02.2020
1946 Clear 23 1018 16 10000 6.7 310 13:43 26.02.2020
1947 Clear 23 1018 17 10000 6.7 310 13:22 26.02.2020
1948 Clear 24 1018 17 10000 6.2 330 12:40 26.02.2020
1949 Clear 24 1018 17 10000 6.2 330 12:22 26.02.2020
1950 Clear 22 1019 24 10000 6.2 340 11:58 26.02.2020
1951 Clear 22 1019 24 10000 6.2 340 11:40 26.02.2020
1952 Clear 22 1019 24 10000 6.2 340 11:21 26.02.2020
1953 Clear 20 1020 28 10000 5.7 310 10:43 26.02.2020
1954 Clear 20 1020 28 10000 5.7 310 10:43 26.02.2020
1955 Clear 20 1020 28 10000 5.7 310 10:23 26.02.2020
1956 Clear 20 1021 28 10000 6.2 320 09:57 26.02.2020
1957 Clear 20 1021 28 10000 6.2 320 09:39 26.02.2020
1958 Clear 20 1021 28 10000 6.2 320 09:20 26.02.2020
1959 Clear 18 1021 23 9000 7.7 320 08:39 26.02.2020
1960 Clear 18 1021 36 9000 7.7 320 08:20 26.02.2020
1961 Clear 17 1021 36 8000 8.2 310 07:51 26.02.2020
1962 Clear 17 1021 36 8000 8.2 310 07:30 26.02.2020
1963 Clear 15 1020 33 6000 6.2 310 06:58 26.02.2020
1964 Clear 15 1020 33 6000 6.2 310 06:39 26.02.2020
1965 Clear 15 1020 33 6000 6.2 310 06:18 26.02.2020
1966 Dust 14 1020 35 5000 6.7 310 05:47 26.02.2020
1967 Dust 14 1018 33 2000 6.2 310 04:52 26.02.2020
1968 Dust 16 1017 25 1500 6.7 310 02:56 26.02.2020
1969 Dust 19 1016 19 800 8.2 300 01:56 26.02.2020
1970 Dust 19 1016 19 800 8.2 300 01:24 26.02.2020
1971 Dust 20 1015 15 700 7.2 290 00:29 26.02.2020
1972 Dust 20 1015 14 500 8.2 300 23:59 25.02.2020
1973 Dust 21 1016 12 300 9.3 290 23:41 25.02.2020
1974 Dust 21 1016 12 300 9.3 290 23:21 25.02.2020
1975 Dust 23 1015 16 300 8.2 280 22:43 25.02.2020
1976 Dust 23 1015 16 300 8.2 280 22:20 25.02.2020
1977 Dust 25 1014 27 300 7.7 280 21:59 25.02.2020
1978 Dust 25 1014 27 300 7.7 280 21:38 25.02.2020
1979 Dust 25 1014 27 300 7.7 280 21:20 25.02.2020
1980 Dust 25 1014 27 300 8.7 280 20:56 25.02.2020
1981 Dust 25 1014 27 300 8.7 280 20:56 25.02.2020
1982 Dust 25 1013 33 1200 4.1 300 20:37 25.02.2020
1983 Dust 25 1013 33 1200 4.1 300 20:19 25.02.2020
1984 Dust 25 1012 33 700 7.2 320 19:44 25.02.2020
1985 Dust 25 1012 33 700 7.2 320 19:23 25.02.2020
1986 Dust 27 1011 34 500 8.2 300 18:59 25.02.2020
1987 Dust 27 1011 34 500 8.2 300 18:39 25.02.2020
1988 Dust 27 1011 34 500 8.2 300 18:20 25.02.2020
1989 Dust 27 1011 32 500 8.7 300 17:55 25.02.2020
1990 Dust 31 1009 23 5000 2.1 340 17:36 25.02.2020
1991 Dust 31 1009 23 5000 2.1 340 17:18 25.02.2020
1992 Dust 32 1008 14 5000 3.1 230 16:55 25.02.2020
1993 Dust 32 1008 14 5000 3.1 230 16:36 25.02.2020
1994 Dust 32 1008 14 5000 3.1 230 16:18 25.02.2020
1995 Clouds 33 1008 13 6000 5.1 210 15:44 25.02.2020
1996 Clouds 33 1008 13 6000 5.1 210 15:20 25.02.2020
1997 Clouds 33 1008 13 7000 5.1 220 14:59 25.02.2020
1998 Clouds 33 1008 13 7000 5.1 220 14:39 25.02.2020
1999 Clouds 33 1008 6 7000 5.1 220 14:18 25.02.2020
2000 Clouds 32 1009 15 7000 3.1 170 13:58 25.02.2020
2001 Clouds 32 1009 15 7000 3.1 170 13:39 25.02.2020
2002 Clouds 32 1009 15 7000 3.1 170 13:20 25.02.2020
2003 Clouds 33 1009 14 7000 3.6 170 12:55 25.02.2020
2004 Clouds 33 1009 14 7000 3.6 170 12:37 25.02.2020
2005 Clouds 33 1009 14 7000 3.6 170 12:18 25.02.2020
2006 Clouds 31 1010 14 7000 4.1 190 11:42 25.02.2020
2007 Clouds 31 1010 14 7000 4.1 190 11:20 25.02.2020
2008 Clouds 31 1012 16 8000 3.6 190 10:59 25.02.2020
2009 Clouds 31 1012 16 8000 3.6 190 10:41 25.02.2020
2010 Clouds 31 1012 16 8000 3.6 190 10:22 25.02.2020
2011 Clouds 30 1013 19 8000 2.1 150 09:42 25.02.2020
2012 Clouds 30 1013 19 8000 2.1 150 09:23 25.02.2020
2013 Clouds 30 1013 19 8000 2.1 150 09:23 25.02.2020
2014 Clouds 26 1014 29 10000 1.5 110 08:56 25.02.2020
2015 Clouds 26 1014 29 10000 1.5 110 08:37 25.02.2020
2016 Clouds 26 1014 29 10000 1.5 110 08:19 25.02.2020
2017 Clouds 25 1015 33 10000 6.27 223 07:41 25.02.2020
2018 Clouds 25 1015 33 10000 6.27 223 07:20 25.02.2020
2019 Clouds 20 1015 37 10000 1.5 150 06:41 25.02.2020
2020 Clouds 17 1015 48 10000 6.27 223 05:39 25.02.2020
2021 Clouds 18 1013 42 10000 3.43 271 03:44 25.02.2020
2022 Clouds 23 1013 25 10000 3.6 180 02:00 25.02.2020
2023 Clouds 23 1012 27 10000 3.1 170 00:48 25.02.2020
2024 Clouds 23 1012 27 10000 3.1 170 00:48 25.02.2020
2025 Clouds 23 1012 27 10000 3.1 170 00:29 25.02.2020
2026 Clouds 23 1012 31 10000 2.6 150 23:44 24.02.2020
2027 Clouds 23 1012 31 10000 2.6 150 23:21 24.02.2020
2028 Clouds 24 1013 27 10000 3.6 160 22:43 24.02.2020
2029 Clouds 24 1013 27 10000 3.6 160 22:21 24.02.2020
2030 Clouds 25 1013 27 10000 4.6 170 21:57 24.02.2020
2031 Clouds 25 1013 27 10000 4.6 170 21:57 24.02.2020
2032 Clouds 25 1013 27 10000 4.6 170 21:39 24.02.2020
2033 Clouds 25 1013 27 10000 4.6 170 21:20 24.02.2020
2034 Clouds 26 1013 26 10000 3.6 160 20:58 24.02.2020
2035 Clouds 26 1013 26 10000 3.6 160 20:40 24.02.2020
2036 Clouds 26 1013 26 10000 3.6 160 20:19 24.02.2020
2037 Clouds 26 1013 29 10000 2.6 150 19:57 24.02.2020
2038 Clouds 26 1013 29 10000 2.6 150 19:39 24.02.2020
2039 Clouds 26 1013 29 10000 2.6 150 19:20 24.02.2020
2040 Clouds 27 1013 26 10000 3.1 160 18:55 24.02.2020
2041 Clouds 27 1013 26 10000 3.1 160 18:37 24.02.2020
2042 Clouds 27 1013 26 10000 3.1 160 18:18 24.02.2020
2043 Clouds 28 1013 24 8000 3.6 150 17:40 24.02.2020
2044 Clouds 28 1013 24 8000 3.6 150 17:20 24.02.2020
2045 Clouds 28 1013 24 8000 3.6 150 17:20 24.02.2020
2046 Dust 29 1012 21 5000 5.1 160 16:58 24.02.2020
2047 Dust 29 1012 21 5000 5.1 160 16:39 24.02.2020
2048 Dust 29 1012 21 5000 5.1 160 16:20 24.02.2020
2049 Dust 31 1013 20 5000 6.7 170 15:58 24.02.2020
2050 Dust 31 1013 20 5000 6.7 170 15:40 24.02.2020
2051 Dust 31 1013 20 5000 6.7 170 15:40 24.02.2020
2052 Dust 31 1013 20 5000 6.7 170 15:21 24.02.2020
2053 Dust 31 1012 22 5000 7.7 170 14:58 24.02.2020
2054 Dust 31 1012 22 5000 7.7 170 14:58 24.02.2020
2055 Dust 31 1012 22 5000 7.7 170 14:39 24.02.2020
2056 Dust 31 1012 22 5000 7.7 170 14:19 24.02.2020
2057 Dust 30 1013 27 4000 7.7 160 13:56 24.02.2020
2058 Dust 30 1013 27 4000 7.7 160 13:36 24.02.2020
2059 Dust 30 1013 27 4000 7.7 160 13:18 24.02.2020
2060 Dust 29 1014 30 4000 7.7 160 12:54 24.02.2020
2061 Dust 29 1014 30 4000 7.7 160 12:36 24.02.2020
2062 Dust 28 1015 32 4000 8.7 180 12:18 24.02.2020
2063 Dust 28 1015 32 4000 8.7 180 11:41 24.02.2020
2064 Dust 28 1015 32 4000 8.7 180 11:23 24.02.2020
2065 Clouds 28 1017 34 6000 7.2 170 10:43 24.02.2020
2066 Clouds 28 1017 34 6000 7.2 170 10:24 24.02.2020
2067 Clouds 25 1018 47 7000 6.7 170 09:41 24.02.2020
2068 Clouds 25 1018 47 7000 6.7 170 09:19 24.02.2020
2069 Clouds 24 1018 50 10000 6.2 160 08:53 24.02.2020
2070 Clouds 24 1018 50 10000 6.2 160 08:30 24.02.2020
2071 Clouds 22 1018 56 10000 5.1 160 07:59 24.02.2020
2072 Clouds 22 1018 56 10000 5.1 160 07:40 24.02.2020
2073 Clouds 22 1018 56 10000 5.1 160 07:22 24.02.2020
2074 Clouds 21 1018 64 10000 5.1 160 06:33 24.02.2020
2075 Clouds 19 1017 72 10000 1.5 140 05:47 24.02.2020
2076 Clouds 19 1017 72 10000 1.5 140 05:27 24.02.2020
2077 Clouds 20 1017 68 10000 2.6 160 03:18 24.02.2020
2078 Clouds 20 1017 68 10000 2.6 150 02:45 24.02.2020
2079 Clouds 20 1017 68 10000 1.5 150 01:40 24.02.2020
2080 Clouds 20 1017 64 10000 2.1 140 00:51 24.02.2020
2081 Clouds 20 1017 64 10000 2.1 140 00:21 24.02.2020
2082 Clouds 20 1018 64 10000 1 130 23:58 23.02.2020
2083 Clouds 20 1018 64 10000 1 130 23:38 23.02.2020
2084 Clouds 20 1018 64 10000 1 130 23:18 23.02.2020
2085 Clouds 21 1018 60 10000 1.5 130 22:43 23.02.2020
2086 Clouds 21 1018 60 10000 1.5 130 22:22 23.02.2020
2087 Clouds 22 1018 53 10000 2.6 130 21:58 23.02.2020
2088 Clouds 22 1018 53 10000 2.6 130 21:39 23.02.2020
2089 Clouds 22 1018 53 10000 2.6 130 21:19 23.02.2020
2090 Clouds 23 1018 49 10000 2.6 130 20:55 23.02.2020
2091 Clouds 23 1018 49 10000 2.6 130 20:37 23.02.2020
2092 Clouds 23 1018 49 10000 2.6 130 20:18 23.02.2020
2093 Clouds 24 1018 47 10000 2.6 130 19:54 23.02.2020
2094 Clouds 24 1018 47 10000 2.6 130 19:36 23.02.2020
2095 Clouds 24 1018 47 10000 2.6 130 19:36 23.02.2020
2096 Clouds 24 1018 47 10000 2.6 130 19:18 23.02.2020
2097 Clouds 25 1018 44 10000 2.6 130 18:41 23.02.2020
2098 Clouds 25 1018 44 10000 2.6 130 18:21 23.02.2020
2099 Clouds 26 1017 39 10000 2.6 140 17:58 23.02.2020
2100 Clouds 26 1017 39 10000 2.6 140 17:40 23.02.2020
2101 Clouds 26 1017 39 10000 2.6 140 17:21 23.02.2020
2102 Clouds 27 1017 36 8000 2.6 140 16:56 23.02.2020
2103 Clouds 27 1017 36 8000 2.6 140 16:38 23.02.2020
2104 Clouds 27 1017 36 8000 2.6 140 16:19 23.02.2020
2105 Clouds 28 1017 30 8000 4.1 160 15:54 23.02.2020
2106 Clouds 28 1017 30 8000 4.1 160 15:36 23.02.2020
2107 Clouds 28 1017 30 8000 4.1 160 15:18 23.02.2020
2108 Clouds 29 1017 30 10000 4.1 160 14:55 23.02.2020
2109 Clouds 29 1017 30 10000 4.1 160 14:55 23.02.2020
2110 Clouds 29 1017 30 10000 4.1 160 14:37 23.02.2020
2111 Clear 29 1017 30 10000 4.1 160 14:18 23.02.2020
2112 Clear 28 1017 30 10000 4.6 160 13:42 23.02.2020
2113 Clear 28 1017 30 10000 4.6 160 13:22 23.02.2020
2114 Clear 28 1017 28 10000 4.6 170 12:59 23.02.2020
2115 Clear 28 1017 28 10000 4.6 170 12:39 23.02.2020
2116 Clear 28 1017 28 10000 4.6 170 12:39 23.02.2020
2117 Clear 28 1017 28 10000 4.6 170 12:20 23.02.2020
2118 Clear 27 1018 28 10000 4.6 160 11:38 23.02.2020
2119 Clear 27 1018 28 10000 4.6 160 11:20 23.02.2020
2120 Clear 27 1018 28 10000 4.6 160 11:20 23.02.2020
2121 Clear 26 1020 27 10000 5.1 160 10:57 23.02.2020
2122 Clear 26 1020 27 10000 5.1 160 10:39 23.02.2020
2123 Clear 26 1020 27 10000 5.1 160 10:21 23.02.2020
2124 Clear 25 1020 29 10000 4.6 170 09:56 23.02.2020
2125 Clear 25 1020 29 10000 4.6 170 09:37 23.02.2020
2126 Clear 25 1020 29 10000 4.6 170 09:18 23.02.2020
2127 Clear 23 1021 33 9000 4.1 160 08:43 23.02.2020
2128 Clouds 23 1021 33 9000 4.1 160 08:24 23.02.2020
2129 Clouds 20 1021 42 8000 3.1 160 07:43 23.02.2020
2130 Clouds 20 1021 42 8000 3.1 160 07:25 23.02.2020
2131 Clouds 18 1020 52 7000 1.5 130 06:20 23.02.2020
2132 Clouds 16 1019 55 10000 2.6 160 04:51 23.02.2020
2133 Clouds 16 1019 51 10000 2.1 160 03:52 23.02.2020
2134 Clouds 16 1019 51 10000 2.6 160 02:40 23.02.2020
2135 Clouds 17 1019 48 10000 2.1 140 01:27 23.02.2020
2136 Clouds 17 1019 48 10000 2.1 140 01:27 23.02.2020
2137 Clouds 18 1019 45 10000 2.6 150 00:58 23.02.2020
2138 Clouds 18 1019 45 10000 2.6 150 00:37 23.02.2020
2139 Clouds 18 1019 45 10000 2.6 150 00:18 23.02.2020
2140 Clouds 18 1019 42 10000 3.1 150 23:42 22.02.2020
2141 Clear 18 1019 42 10000 3.1 150 23:20 22.02.2020
2142 Clear 20 1020 34 10000 4.6 150 22:44 22.02.2020
2143 Clear 20 1020 34 10000 4.6 150 22:19 22.02.2020
2144 Clear 20 1020 34 10000 3.1 150 21:43 22.02.2020
2145 Clear 20 1020 34 10000 3.1 150 21:24 22.02.2020
2146 Clear 20 1020 34 10000 3.6 140 20:57 22.02.2020
2147 Clear 20 1020 34 10000 3.6 140 20:38 22.02.2020
2148 Clear 20 1020 34 10000 3.6 140 20:20 22.02.2020
2149 Clear 21 1020 35 10000 2.6 150 19:42 22.02.2020
2150 Clear 21 1020 35 10000 2.6 150 19:22 22.02.2020
2151 Clear 22 1019 28 10000 4.1 130 18:54 22.02.2020
2152 Clear 22 1019 28 10000 4.1 130 18:54 22.02.2020
2153 Clear 22 1019 28 10000 4.1 130 18:36 22.02.2020
2154 Clear 23 1019 28 10000 3.1 130 18:18 22.02.2020
2155 Clear 23 1019 28 10000 3.1 130 17:43 22.02.2020
2156 Clear 23 1019 28 10000 3.1 130 17:25 22.02.2020
2157 Clear 25 1018 29 10000 2.1 140 16:58 22.02.2020
2158 Clear 25 1018 29 10000 2.1 140 16:39 22.02.2020
2159 Clear 25 1018 29 10000 2.1 140 16:20 22.02.2020
2160 Clear 25 1018 29 10000 2.1 140 16:20 22.02.2020
2161 Clear 26 1018 24 10000 3.1 150 15:45 22.02.2020
2162 Clear 26 1018 24 10000 3.1 150 15:45 22.02.2020
2163 Clear 26 1018 24 10000 3.1 150 15:27 22.02.2020
2164 Clear 26 1017 24 10000 3.1 140 14:57 22.02.2020
2165 Clear 26 1017 24 10000 3.1 140 14:39 22.02.2020
2166 Clear 26 1017 24 10000 3.1 140 14:19 22.02.2020
2167 Clear 26 1018 19 10000 3.6 160 13:41 22.02.2020
2168 Clear 26 1018 19 10000 3.6 160 13:20 22.02.2020
2169 Clear 26 1018 15 10000 3.6 160 12:48 22.02.2020
2170 Clear 26 1018 15 10000 3.6 160 12:24 22.02.2020
2171 Clear 25 1019 17 10000 4.1 160 11:56 22.02.2020
2172 Clear 25 1019 17 10000 4.1 160 11:37 22.02.2020
2173 Clear 25 1019 17 10000 4.1 160 11:18 22.02.2020
2174 Clear 24 1020 20 10000 3.1 150 10:41 22.02.2020
2175 Clear 24 1020 20 10000 3.1 150 10:21 22.02.2020
2176 Clear 22 1021 21 10000 4.1 160 09:59 22.02.2020
2177 Clear 22 1021 21 10000 4.1 160 09:39 22.02.2020
2178 Clear 21 1021 20 10000 3.1 150 09:21 22.02.2020
2179 Clear 21 1021 20 10000 3.1 150 08:51 22.02.2020
2180 Clouds 21 1021 19 10000 3.1 150 08:28 22.02.2020
2181 Clear 19 1021 24 10000 3.1 150 07:52 22.02.2020
2182 Clear 19 1021 24 10000 3.1 150 07:20 22.02.2020
2183 Clear 15 1019 44 10000 1 130 06:50 22.02.2020
2184 Clear 15 1019 44 10000 1 130 06:32 22.02.2020
2185 Clear 15 1019 44 10000 1 130 04:38 22.02.2020
2186 Clear 15 1019 44 10000 1 130 03:33 22.02.2020
2187 Clear 15 1019 44 10000 1 130 02:33 22.02.2020
2188 Clear 15 1019 44 10000 1 130 01:46 22.02.2020
2189 Clear 15 1019 44 10000 1 130 01:27 22.02.2020
2190 Clear 15 1019 47 10000 1.5 140 00:45 22.02.2020
2191 Clear 15 1019 47 10000 1.5 140 00:27 22.02.2020
2192 Clear 15 1019 47 10000 1 160 23:47 21.02.2020
2193 Clear 15 1019 47 10000 1 160 23:24 21.02.2020
2194 Clear 15 1019 51 10000 2.92 106 22:56 21.02.2020
2195 Clear 15 1019 51 10000 2.92 106 22:38 21.02.2020
2196 Clear 15 1019 51 10000 2.92 106 22:18 21.02.2020
2197 Clear 16 1020 44 10000 1.5 80 21:42 21.02.2020
2198 Clear 16 1020 44 10000 1.5 80 21:23 21.02.2020
2199 Clear 17 1020 42 10000 2.1 70 20:49 21.02.2020
2200 Clear 17 1020 42 10000 2.1 70 20:29 21.02.2020
2201 Clear 19 1020 37 10000 2.1 60 19:57 21.02.2020
2202 Clear 19 1020 37 10000 2.1 60 19:37 21.02.2020
2203 Clear 19 1020 37 10000 2.1 60 19:18 21.02.2020
2204 Clear 20 1019 34 10000 2.1 80 18:40 21.02.2020
2205 Clear 20 1019 34 10000 2.1 80 18:22 21.02.2020
2206 Clear 21 1018 32 10000 2.1 70 17:42 21.02.2020
2207 Clear 21 1018 32 10000 2.1 70 17:23 21.02.2020
2208 Clouds 21 1017 32 10000 1 30 16:58 21.02.2020
2209 Clouds 21 1017 32 10000 1 30 16:40 21.02.2020
2210 Clouds 21 1017 32 10000 1 30 16:21 21.02.2020
2211 Clouds 22 1017 33 10000 1.4 26 15:47 21.02.2020
2212 Clouds 22 1017 33 10000 1.4 26 15:19 21.02.2020
2213 Clear 22 1017 26 10000 2.6 30 14:59 21.02.2020
2214 Clear 22 1017 26 10000 2.6 30 14:41 21.02.2020
2215 Clear 22 1017 26 10000 2.6 30 14:19 21.02.2020
2216 Clear 23 1017 28 10000 1.5 30 13:44 21.02.2020
2217 Clouds 23 1017 28 10000 1.5 30 13:24 21.02.2020
2218 Clouds 22 1017 21 10000 2.1 80 12:55 21.02.2020
2219 Clouds 22 1017 21 10000 2.1 80 12:36 21.02.2020
2220 Clouds 22 1017 21 10000 2.1 80 12:18 21.02.2020
2221 Clouds 21 1018 21 10000 2.1 320 11:42 21.02.2020
2222 Clear 21 1018 21 10000 2.1 320 11:21 21.02.2020
2223 Clear 21 1020 22 10000 1.5 360 10:57 21.02.2020
2224 Clear 21 1020 22 10000 1.5 360 10:38 21.02.2020
2225 Clear 21 1020 22 10000 1.5 360 10:19 21.02.2020
2226 Clear 19 1020 21 10000 3.1 10 09:57 21.02.2020
2227 Clear 19 1020 21 10000 3.1 10 09:37 21.02.2020
2228 Clear 19 1020 21 10000 3.1 10 09:19 21.02.2020
2229 Clear 18 1021 31 10000 4.1 360 08:42 21.02.2020
2230 Clear 18 1021 31 10000 4.1 360 08:22 21.02.2020
2231 Clear 17 1021 38 10000 2.6 350 07:59 21.02.2020
2232 Clear 17 1021 38 10000 2.6 350 07:40 21.02.2020
2233 Clear 17 1021 38 10000 2.6 350 07:19 21.02.2020
2234 Clear 13 1020 54 8000 1.5 300 06:50 21.02.2020
2235 Clear 13 1020 54 8000 1.5 300 06:30 21.02.2020
2236 Clear 11 1020 57 7000 1 320 05:42 21.02.2020
2237 Clear 11 1019 57 8000 1.5 300 04:33 21.02.2020
2238 Clear 12 1019 54 8000 1.5 300 03:58 21.02.2020
2239 Clear 12 1019 54 8000 1.5 300 03:24 21.02.2020
2240 Clouds 13 1018 54 8000 1.5 340 01:51 21.02.2020
2241 Clouds 13 1018 54 8000 1.5 340 01:23 21.02.2020
2242 Clouds 14 1019 47 8000 2.6 350 00:45 21.02.2020
2243 Clouds 14 1019 47 8000 2.6 350 00:22 21.02.2020
2244 Clouds 14 1019 47 8000 3.6 350 23:43 20.02.2020
2245 Clouds 14 1019 47 8000 3.6 350 23:43 20.02.2020
2246 Clouds 14 1019 47 8000 3.6 350 23:23 20.02.2020
2247 Clouds 15 1019 41 10000 4.1 360 22:56 20.02.2020
2248 Clouds 15 1019 41 10000 4.1 360 22:37 20.02.2020
2249 Clouds 15 1019 41 10000 4.1 360 22:18 20.02.2020
2250 Clouds 16 1019 36 10000 4.6 360 21:55 20.02.2020
2251 Clouds 16 1019 36 10000 4.6 360 21:36 20.02.2020
2252 Clouds 16 1019 36 10000 4.6 360 21:18 20.02.2020
2253 Clouds 16 1019 36 10000 4.6 10 20:54 20.02.2020
2254 Clouds 16 1019 36 10000 4.6 10 20:36 20.02.2020
2255 Clouds 16 1019 36 10000 4.6 10 20:18 20.02.2020
2256 Clouds 16 1019 36 10000 4.6 10 20:18 20.02.2020
2257 Clouds 16 1019 36 10000 4.6 10 20:18 20.02.2020
2258 Clouds 17 1019 33 10000 3.6 10 19:42 20.02.2020
2259 Clouds 17 1019 33 10000 3.6 10 19:24 20.02.2020
2260 Clouds 18 1018 24 10000 5.1 350 18:59 20.02.2020
2261 Clouds 18 1018 24 10000 5.1 350 18:38 20.02.2020
2262 Clouds 18 1018 24 10000 5.1 350 18:19 20.02.2020
2263 Clouds 19 1017 24 10000 5.7 350 18:19 20.02.2020
2264 Clouds 19 1017 24 10000 5.7 350 17:41 20.02.2020
2265 -273 0 0 0 0 0 17:22 20.02.2020
2266 Clouds 21 1016 26 10000 5.7 350 16:59 20.02.2020
2267 Clouds 21 1016 26 10000 5.7 350 16:40 20.02.2020
2268 Clouds 21 1016 26 10000 5.7 350 16:21 20.02.2020
2269 Clouds 23 1015 23 10000 6.2 360 15:59 20.02.2020
2270 Clouds 23 1015 23 10000 6.2 360 15:41 20.02.2020
2271 Clouds 23 1015 23 10000 6.2 360 15:20 20.02.2020
2272 Clouds 23 1015 25 10000 6.2 340 14:55 20.02.2020
2273 Clouds 23 1015 25 10000 6.2 340 14:36 20.02.2020
2274 Clouds 23 1015 25 10000 6.2 340 14:18 20.02.2020
2275 Clouds 23 1014 28 10000 5.7 330 13:44 20.02.2020
2276 Clouds 23 1014 28 10000 5.7 330 13:20 20.02.2020
2277 Clouds 23 1015 27 10000 6.2 330 12:57 20.02.2020
2278 Clouds 23 1015 27 10000 6.2 330 12:37 20.02.2020
2279 Clouds 23 1015 27 10000 6.2 330 12:19 20.02.2020
2280 Clouds 23 1016 28 10000 6.2 340 11:43 20.02.2020
2281 Clouds 23 1016 28 10000 6.2 340 11:23 20.02.2020
2282 Clouds 21 1016 32 10000 7.2 330 10:57 20.02.2020
2283 Clouds 21 1016 32 10000 7.2 330 10:39 20.02.2020
2284 Clouds 21 1016 32 10000 7.2 330 10:21 20.02.2020
2285 Clouds 20 1017 37 6000 6.7 340 09:46 20.02.2020
2286 Clouds 20 1017 37 6000 6.7 340 09:25 20.02.2020
2287 Dust 19 1017 39 5000 7.7 340 08:59 20.02.2020
2288 Dust 19 1017 39 5000 7.7 340 08:38 20.02.2020
2289 Dust 19 1017 39 5000 7.7 340 08:20 20.02.2020
2290 Dust 18 1017 42 5000 8.7 330 07:45 20.02.2020
2291 Dust 18 1017 42 5000 8.7 330 07:23 20.02.2020
2292 Dust 19 1016 59 4000 8.2 320 06:53 20.02.2020
2293 Dust 19 1016 59 4000 8.2 320 06:26 20.02.2020
2294 Dust 20 1015 56 5000 8.2 330 05:46 20.02.2020
2295 Dust 22 1013 37 4000 4.6 280 04:55 20.02.2020
2296 Dust 22 1013 37 4000 4.6 280 04:19 20.02.2020
2297 Haze 22 1012 49 3000 2.6 270 03:29 20.02.2020
2298 Haze 23 1012 49 4000 4.1 270 02:26 20.02.2020
2299 Clouds 22 1012 33 10000 1.5 190 01:18 20.02.2020
2300 Clouds 23 1012 27 10000 2.1 200 00:33 20.02.2020
2301 Clouds 24 1011 23 10000 5.1 170 23:52 19.02.2020
2302 Clouds 24 1011 23 10000 5.1 170 23:23 19.02.2020
2303 Clouds 25 1012 20 10000 5.7 170 22:54 19.02.2020
2304 Clouds 25 1012 20 10000 5.7 170 22:36 19.02.2020
2305 Clouds 25 1012 20 10000 5.7 170 22:18 19.02.2020
2306 Clouds 25 1011 15 10000 6.2 170 21:41 19.02.2020
2307 Clouds 25 1011 15 10000 6.2 170 21:19 19.02.2020
2308 Clouds 26 1011 19 10000 5.7 160 20:58 19.02.2020
2309 Clouds 26 1011 19 10000 5.7 160 20:58 19.02.2020
2310 Clouds 26 1011 19 10000 5.7 160 20:40 19.02.2020
2311 Clouds 26 1011 19 10000 5.7 160 20:20 19.02.2020
2312 Clouds 27 1011 18 8000 4.1 160 19:59 19.02.2020
2313 Clouds 27 1011 18 8000 4.1 160 19:39 19.02.2020
2314 -273 0 0 0 0 0 19:21 19.02.2020
2315 Clouds 27 1011 14 7000 4.1 160 18:59 19.02.2020
2316 Clouds 27 1011 14 7000 4.1 160 18:40 19.02.2020
2317 Clouds 27 1011 14 7000 4.1 160 18:22 19.02.2020
2318 Clouds 28 1011 15 6000 5.1 170 17:59 19.02.2020
2319 Clouds 28 1011 15 6000 5.1 170 17:41 19.02.2020
2320 Clouds 28 1011 15 6000 5.1 170 17:19 19.02.2020
2321 Dust 29 1010 14 5000 5.1 160 16:43 19.02.2020
2322 Dust 29 1010 14 5000 5.1 160 16:19 19.02.2020
2323 Dust 30 1010 13 5000 6.2 160 15:57 19.02.2020
2324 Dust 30 1010 13 5000 6.2 160 15:57 19.02.2020
2325 Dust 30 1010 13 5000 6.2 160 15:38 19.02.2020
2326 Dust 30 1010 13 5000 6.2 160 15:19 19.02.2020
2327 Dust 30 1010 13 5000 7.2 170 14:41 19.02.2020
2328 Dust 30 1010 13 5000 7.2 170 14:23 19.02.2020
2329 Dust 31 1011 10 5000 6.7 170 13:55 19.02.2020
2330 Dust 31 1011 10 5000 6.7 170 13:37 19.02.2020
2331 Dust 31 1011 10 5000 6.7 170 13:18 19.02.2020
2332 Dust 30 1011 15 5000 6.7 160 12:39 19.02.2020
2333 Dust 30 1011 15 5000 6.7 160 12:39 19.02.2020
2334 Dust 30 1011 15 5000 6.7 160 12:19 19.02.2020
2335 Dust 29 1013 10 5000 6.7 170 11:55 19.02.2020
2336 Dust 29 1013 10 5000 6.7 170 11:37 19.02.2020
2337 Dust 29 1013 12 5000 6.7 170 11:18 19.02.2020
2338 Clouds 28 1014 17 8000 6.7 170 10:55 19.02.2020
2339 Clouds 28 1014 17 8000 6.7 170 10:36 19.02.2020
2340 Clouds 28 1014 17 8000 6.7 170 10:18 19.02.2020
2341 Clouds 27 1015 19 9000 6.7 170 09:41 19.02.2020
2342 Clouds 27 1015 19 9000 6.7 170 09:20 19.02.2020
2343 Clear 25 1016 20 9000 7.7 170 08:55 19.02.2020
2344 Clear 25 1016 20 9000 7.7 170 08:37 19.02.2020
2345 Clouds 25 1016 20 9000 7.7 170 08:18 19.02.2020
2346 Clouds 23 1016 25 10000 4.6 150 07:40 19.02.2020
2347 Clouds 23 1016 25 10000 4.6 150 07:20 19.02.2020
2348 Clouds 20 1016 30 10000 3.1 150 06:45 19.02.2020
2349 Clouds 18 1016 34 10000 2.6 150 05:32 19.02.2020
2350 Clouds 18 1015 31 10000 2.1 150 03:53 19.02.2020
2351 Clouds 19 1015 29 10000 2.6 150 02:36 19.02.2020
2352 Clouds 19 1015 25 10000 3.1 160 01:44 19.02.2020
2353 Clear 19 1015 24 10000 3.1 160 01:23 19.02.2020
2354 Clear 20 1016 24 10000 2.6 160 00:41 19.02.2020
2355 Clear 20 1016 24 10000 2.6 160 00:41 19.02.2020
2356 Clear 20 1016 24 10000 2.6 160 00:19 19.02.2020
2357 Clear 20 1016 28 10000 2.1 150 23:40 18.02.2020
2358 Clear 20 1016 28 10000 2.1 150 23:20 18.02.2020
2359 Clear 21 1016 26 10000 2.1 140 22:55 18.02.2020
2360 Clear 21 1016 26 10000 2.1 140 22:37 18.02.2020
2361 Clear 21 1016 26 10000 2.1 140 22:19 18.02.2020
2362 Clear 21 1016 26 10000 2.1 140 22:19 18.02.2020
2363 Clear 22 1017 24 10000 2.1 150 21:54 18.02.2020
2364 Clear 22 1017 24 10000 2.1 150 21:36 18.02.2020
2365 Clear 22 1017 24 10000 2.1 150 21:18 18.02.2020
2366 Clear 23 1017 23 10000 2.6 140 20:40 18.02.2020
2367 Clouds 23 1017 23 10000 2.6 140 20:22 18.02.2020
2368 Clouds 23 1017 20 10000 2.6 140 19:59 18.02.2020
2369 Clouds 23 1017 20 10000 2.6 140 19:41 18.02.2020
2370 Clouds 23 1017 20 10000 2.6 140 19:19 18.02.2020
2371 Clouds 24 1017 19 10000 2.6 150 18:56 18.02.2020
2372 Clouds 24 1017 19 10000 2.6 150 18:38 18.02.2020
2373 Clouds 24 1017 19 10000 2.6 150 18:18 18.02.2020
2374 Clouds 26 1016 16 10000 3.1 150 17:40 18.02.2020
2375 Clouds 26 1016 12 10000 3.1 150 17:19 18.02.2020
2376 Clouds 27 1016 13 7000 4.6 160 16:40 18.02.2020
2377 Clouds 27 1016 13 7000 4.6 160 16:22 18.02.2020
2378 Clouds 28 1015 12 7000 6.2 170 15:55 18.02.2020
2379 Clouds 28 1015 12 7000 6.2 170 15:37 18.02.2020
2380 Clouds 28 1015 12 7000 6.2 170 15:18 18.02.2020
2381 Clouds 29 1015 11 7000 6.7 170 14:55 18.02.2020
2382 Clouds 29 1015 11 7000 6.7 170 14:37 18.02.2020
2383 Clouds 29 1015 11 7000 6.7 170 14:18 18.02.2020
2384 Clouds 29 1015 12 7000 6.2 170 13:41 18.02.2020
2385 Clouds 29 1015 12 7000 6.2 170 13:21 18.02.2020
2386 Clouds 28 1016 12 8000 6.2 160 12:49 18.02.2020
2387 Clouds 28 1016 12 8000 6.2 160 12:30 18.02.2020
2388 Clouds 27 1017 12 8000 6.2 160 11:59 18.02.2020
2389 Clouds 27 1017 12 8000 6.2 160 11:41 18.02.2020
2390 Clouds 27 1017 12 8000 6.2 160 11:22 18.02.2020
2391 Clouds 25 1018 14 10000 6.2 160 10:45 18.02.2020
2392 Clouds 25 1018 14 10000 6.2 160 10:24 18.02.2020
2393 Clouds 23 1019 15 10000 6.2 160 09:57 18.02.2020
2394 Clouds 23 1019 15 10000 6.2 160 09:39 18.02.2020
2395 Clouds 23 1019 15 10000 6.2 160 09:39 18.02.2020
2396 Clouds 23 1019 15 10000 6.2 160 09:39 18.02.2020
2397 Clouds 23 1019 15 10000 6.2 160 09:20 18.02.2020
2398 Clouds 22 1020 17 10000 4.1 150 08:58 18.02.2020
2399 Clouds 22 1020 17 10000 4.1 150 08:40 18.02.2020
2400 Clouds 22 1020 17 10000 4.1 150 08:19 18.02.2020
2401 Clouds 20 1020 20 10000 2.6 150 07:52 18.02.2020
2402 Clouds 20 1020 20 10000 2.6 150 07:29 18.02.2020
2403 Clouds 16 1019 11 10000 1 130 06:55 18.02.2020
2404 Clouds 16 1019 11 10000 1 130 06:29 18.02.2020
2405 Clouds 16 1019 25 10000 2.1 140 05:53 18.02.2020
2406 Clouds 16 1019 25 10000 2.1 140 05:22 18.02.2020
2407 Clouds 16 1017 31 10000 1.5 120 03:55 18.02.2020
2408 Clouds 16 1017 25 10000 2.1 130 02:58 18.02.2020
2409 Clouds 17 1017 23 10000 2.1 140 01:27 18.02.2020
2410 Clouds 18 1017 22 10000 2.6 140 00:43 18.02.2020
2411 Clouds 18 1017 22 10000 2.6 140 00:18 18.02.2020
2412 Clouds 18 1017 22 10000 2.1 140 23:40 17.02.2020
2413 Clouds 18 1017 22 10000 2.1 140 23:21 17.02.2020
2414 Clouds 18 1017 22 10000 2.1 110 22:58 17.02.2020
2415 Clouds 18 1017 22 10000 2.1 110 22:58 17.02.2020
2416 Clouds 18 1017 22 10000 2.1 110 22:40 17.02.2020
2417 Clouds 18 1017 22 10000 2.1 110 22:19 17.02.2020
2418 Clouds 19 1017 25 10000 1.5 150 21:39 17.02.2020
2419 Clouds 19 1017 25 10000 1.5 150 21:19 17.02.2020
2420 Clouds 20 1017 24 10000 1.5 140 20:57 17.02.2020
2421 Clouds 20 1017 24 10000 1.5 140 20:38 17.02.2020
2422 Clouds 20 1017 24 10000 1.5 140 20:19 17.02.2020
2423 Clouds 23 1017 17 10000 2.6 170 19:43 17.02.2020
2424 Clouds 23 1017 17 10000 2.6 170 19:22 17.02.2020
2425 Clouds 23 1017 17 10000 2.6 170 19:22 17.02.2020
2426 Clouds 23 1017 23 10000 2.1 160 18:58 17.02.2020
2427 Clouds 23 1017 23 10000 2.1 160 18:36 17.02.2020
2428 Clouds 23 1017 23 10000 2.1 160 18:18 17.02.2020
2429 Clouds 24 1016 17 10000 2.1 150 17:38 17.02.2020
2430 Clear 24 1016 17 10000 2.1 150 17:20 17.02.2020
2431 Clear 26 1016 16 10000 2.6 140 16:59 17.02.2020
2432 Clear 26 1016 16 10000 2.6 140 16:41 17.02.2020
2433 Clear 26 1016 16 10000 2.6 140 16:22 17.02.2020
2434 Clear 28 1015 13 10000 2.1 110 15:56 17.02.2020
2435 Clear 28 1015 13 10000 2.1 110 15:37 17.02.2020
2436 Clear 28 1015 13 10000 2.1 110 15:37 17.02.2020
2437 Clear 28 1015 13 10000 2.1 110 15:19 17.02.2020
2438 Clear 28 1015 13 10000 2.6 120 14:42 17.02.2020
2439 Clear 28 1015 13 10000 2.6 120 14:42 17.02.2020
2440 Clouds 28 1015 9 10000 2.6 120 14:24 17.02.2020
2441 Clouds 28 1015 15 10000 2.1 140 13:58 17.02.2020
2442 Clouds 28 1015 15 10000 2.1 140 13:38 17.02.2020
2443 Clouds 28 1015 15 10000 2.1 140 13:19 17.02.2020
2444 Clouds 28 1015 13 10000 4.1 170 12:43 17.02.2020
2445 Clouds 28 1015 13 10000 4.1 170 12:25 17.02.2020
2446 Clouds 27 1016 13 10000 3.6 180 11:58 17.02.2020
2447 Clouds 27 1016 13 10000 3.6 180 11:39 17.02.2020
2448 Clouds 27 1016 13 10000 3.6 180 11:39 17.02.2020
2449 Clouds 27 1016 13 10000 3.6 180 11:20 17.02.2020
2450 Clouds 25 1017 14 10000 3.6 180 10:55 17.02.2020
2451 Clouds 25 1017 14 10000 3.6 180 10:37 17.02.2020
2452 Clouds 24 1017 15 10000 3.6 180 10:18 17.02.2020
2453 Clouds 24 1017 15 10000 3.6 180 09:41 17.02.2020
2454 Clouds 24 1017 15 10000 3.6 180 09:21 17.02.2020
2455 Clouds 24 1017 15 10000 3.6 180 09:21 17.02.2020
2456 Clouds 22 1018 15 10000 4.1 170 08:58 17.02.2020
2457 Clouds 22 1018 15 10000 4.1 170 08:39 17.02.2020
2458 Clouds 22 1018 15 10000 4.1 170 08:19 17.02.2020
2459 Clouds 20 1018 18 10000 3.6 180 07:44 17.02.2020
2460 Clouds 20 1018 18 10000 3.6 180 07:23 17.02.2020
2461 Clouds 18 1017 18 10000 3.1 170 06:52 17.02.2020
2462 Clouds 18 1017 18 10000 3.1 170 06:32 17.02.2020
2463 Clouds 16 1017 23 10000 2.1 160 05:56 17.02.2020
2464 Clouds 16 1017 23 10000 2.1 160 05:37 17.02.2020
2465 Clouds 16 1015 31 10000 1.5 160 03:21 17.02.2020
2466 Clouds 18 1015 17 10000 4.6 170 01:47 17.02.2020
2467 Clouds 18 1015 17 10000 4.6 170 01:47 17.02.2020
2468 Clouds 18 1015 18 10000 4.6 160 00:42 17.02.2020
2469 Clouds 18 1015 18 10000 4.6 160 00:21 17.02.2020
2470 Clouds 18 1015 17 10000 5.1 160 23:53 16.02.2020
2471 Clouds 18 1015 17 10000 5.1 160 23:30 16.02.2020
2472 Clouds 19 1016 16 10000 4.6 160 22:57 16.02.2020
2473 Clouds 19 1016 16 10000 4.6 160 22:39 16.02.2020
2474 Clouds 19 1016 16 10000 4.6 160 22:20 16.02.2020
2475 Clouds 19 1016 16 10000 4.1 160 21:57 16.02.2020
2476 Clouds 19 1016 16 10000 4.1 160 21:39 16.02.2020
2477 Clouds 19 1016 16 10000 4.1 160 21:20 16.02.2020
2478 Clouds 20 1016 14 10000 5.7 170 20:57 16.02.2020
2479 Clouds 20 1016 14 10000 5.7 170 20:57 16.02.2020
2480 Clouds 20 1016 14 10000 5.7 170 20:38 16.02.2020
2481 Clouds 20 1016 14 10000 5.7 170 20:20 16.02.2020
2482 Clouds 21 1016 14 10000 4.6 160 19:57 16.02.2020
2483 Clouds 21 1016 14 10000 4.6 160 19:37 16.02.2020
2484 Clouds 21 1016 14 10000 4.6 160 19:18 16.02.2020
2485 Clouds 22 1016 13 8000 4.6 160 18:42 16.02.2020
2486 Clouds 22 1016 13 8000 4.6 160 18:23 16.02.2020
2487 Clouds 22 1015 13 8000 4.1 150 17:47 16.02.2020
2488 Clouds 22 1015 13 8000 4.1 150 17:22 16.02.2020
2489 Clouds 24 1015 14 7000 3.1 150 16:59 16.02.2020
2490 Clouds 24 1015 14 7000 3.1 150 16:39 16.02.2020
2491 Clouds 24 1015 14 7000 3.1 150 16:21 16.02.2020
2492 Clouds 24 1015 14 7000 3.1 150 16:21 16.02.2020
2493 Clouds 24 1015 14 7000 3.1 150 16:21 16.02.2020
2494 Clouds 25 1015 10 7000 6.2 160 15:59 16.02.2020
2495 Clouds 25 1015 10 7000 6.2 160 15:39 16.02.2020
2496 Clouds 25 1015 10 7000 6.2 160 15:21 16.02.2020
2497 Clouds 25 1015 10 7000 6.2 160 15:21 16.02.2020
2498 Clouds 26 1015 11 7000 6.7 160 14:41 16.02.2020
2499 Clouds 26 1015 11 7000 6.7 160 14:23 16.02.2020
2500 Clouds 25 1015 8 8000 6.2 160 13:48 16.02.2020
2501 Clouds 25 1015 8 8000 6.2 160 13:25 16.02.2020
2502 Clear 25 1016 11 7000 6.2 170 12:58 16.02.2020
2503 Clear 25 1016 11 7000 6.2 170 12:39 16.02.2020
2504 Clear 25 1016 11 7000 6.2 170 12:19 16.02.2020
2505 Clear 24 1017 12 8000 5.1 160 11:40 16.02.2020
2506 Clear 24 1017 12 8000 5.1 160 11:19 16.02.2020
2507 Clear 23 1019 12 10000 5.7 160 10:58 16.02.2020
2508 Clear 23 1019 12 10000 5.7 160 10:39 16.02.2020
2509 Clear 23 1019 12 10000 5.7 160 10:21 16.02.2020
2510 Clear 23 1019 12 10000 5.7 160 10:21 16.02.2020
2511 Clear 22 1020 13 10000 6.2 160 09:58 16.02.2020
2512 Clear 22 1020 13 10000 6.2 160 09:37 16.02.2020
2513 Clear 22 1020 13 10000 6.2 160 09:37 16.02.2020
2514 Clear 22 1020 13 10000 6.2 160 09:19 16.02.2020
2515 Clear 20 1021 16 10000 5.1 160 08:49 16.02.2020
2516 Clear 20 1021 16 10000 5.1 160 08:22 16.02.2020
2517 Clear 20 1021 16 10000 5.1 160 08:22 16.02.2020
2518 Clear 17 1021 13 10000 1.5 130 07:56 16.02.2020
2519 Clear 17 1021 13 10000 1.5 130 07:38 16.02.2020
2520 Clear 13 1021 43 10000 5.78 157 06:36 16.02.2020
2521 Clear 10 1020 43 10000 1 140 05:37 16.02.2020
2522 Clear 11 1020 40 10000 1 120 04:30 16.02.2020
2523 Clear 12 1019 37 10000 1.5 140 02:37 16.02.2020
2524 Clear 12 1019 40 10000 1.5 150 01:57 16.02.2020
2525 Clear 12 1019 40 10000 1.5 150 01:37 16.02.2020
2526 Clear 12 1019 40 10000 1.5 150 01:19 16.02.2020
2527 Clear 13 1020 30 10000 2.1 140 00:41 16.02.2020
2528 Clear 13 1020 30 10000 2.1 140 00:21 16.02.2020
2529 Clear 14 1021 35 10000 1.5 130 23:42 15.02.2020
2530 Clear 14 1021 35 10000 1.5 130 23:24 15.02.2020
2531 Clear 15 1021 33 10000 1.5 160 22:56 15.02.2020
2532 Clear 15 1021 33 10000 1.5 160 22:38 15.02.2020
2533 Clear 15 1021 33 10000 1.5 160 22:19 15.02.2020
2534 Clear 15 1021 33 10000 1.5 120 21:43 15.02.2020
2535 Clear 15 1021 33 10000 1.5 120 21:24 15.02.2020
2536 Clear 16 1022 31 10000 1 130 20:56 15.02.2020
2537 Clear 16 1022 31 10000 1 130 20:37 15.02.2020
2538 Clear 16 1022 31 10000 1 130 20:37 15.02.2020
2539 Clear 16 1022 31 10000 1 130 20:19 15.02.2020
2540 Clear 17 1022 14 10000 1.5 140 19:41 15.02.2020
2541 Clear 17 1022 14 10000 1.5 140 19:22 15.02.2020
2542 Clear 19 1022 14 10000 1.5 160 18:41 15.02.2020
2543 Clear 19 1022 14 10000 1.5 160 18:21 15.02.2020
2544 Clear 20 1021 14 10000 2.1 160 17:55 15.02.2020
2545 Clear 20 1021 14 10000 2.1 160 17:37 15.02.2020
2546 Clear 20 1021 12 10000 2.1 160 17:18 15.02.2020
2547 Clear 23 1020 23 10000 2.1 140 16:41 15.02.2020
2548 Clear 23 1020 23 10000 2.1 140 16:21 15.02.2020
2549 Clear 25 1020 17 10000 2.6 140 15:49 15.02.2020
2550 Clear 25 1020 17 10000 2.6 140 15:31 15.02.2020
2551 Clear 25 1019 12 10000 2.1 130 14:57 15.02.2020
2552 Clear 25 1019 12 10000 2.1 130 14:38 15.02.2020
2553 Clear 25 1020 17 10000 2.1 190 14:18 15.02.2020
2554 Clear 25 1020 17 10000 2.1 190 13:41 15.02.2020
2555 Clear 25 1020 17 10000 2.1 190 13:22 15.02.2020
2556 Clear 24 1020 19 10000 2.6 130 12:56 15.02.2020
2557 Clear 24 1020 19 10000 2.6 130 12:38 15.02.2020
2558 Clear 24 1020 19 10000 2.6 130 12:19 15.02.2020
2559 Clear 24 1021 19 8000 2.1 140 11:45 15.02.2020
2560 Clear 24 1021 19 8000 2.1 140 11:25 15.02.2020
2561 Clear 23 1022 20 8000 1.5 140 10:47 15.02.2020
2562 Clear 23 1022 20 8000 1.5 140 10:29 15.02.2020
2563 Clear 22 1023 18 8000 2.1 290 09:55 15.02.2020
2564 Clear 22 1023 18 8000 2.1 290 09:36 15.02.2020
2565 Clear 22 1023 18 8000 2.1 290 09:18 15.02.2020
2566 Clear 21 1024 26 8000 2.1 320 08:41 15.02.2020
2567 Clear 21 1024 26 8000 2.1 320 08:22 15.02.2020
2568 Clear 18 1024 12 8000 1 330 07:44 15.02.2020
2569 Clear 18 1024 12 8000 1 330 07:25 15.02.2020
2570 Clear 18 1024 12 8000 1 330 07:25 15.02.2020
2571 Clear 11 1024 12 8000 0.75 251 06:45 15.02.2020
2572 Clear 11 1024 12 8000 0.75 251 06:26 15.02.2020
2573 Clear 8 1023 52 8000 0.75 251 05:30 15.02.2020
2574 Clear 8 1023 52 10000 0.93 146 04:44 15.02.2020
2575 Clear 9 1022 45 10000 0.93 146 03:21 15.02.2020
2576 Clear 9 1022 45 10000 0.93 146 02:41 15.02.2020
2577 Clear 9 1022 45 10000 2.08 124 02:19 15.02.2020
2578 Clear 10 1022 43 10000 2.08 124 01:38 15.02.2020
2579 Clear 11 1022 43 10000 1.72 122 00:36 15.02.2020
2580 Clear 11 1022 43 10000 1.72 122 00:18 15.02.2020
2581 Clear 11 1023 19 10000 1.72 122 23:39 14.02.2020
2582 Clear 11 1023 18 10000 1.93 110 23:18 14.02.2020
2583 Clear 13 1023 18 10000 1.93 110 22:43 14.02.2020
2584 Clear 13 1023 18 10000 1.93 110 22:22 14.02.2020
2585 Clear 15 1024 33 10000 1.93 110 21:50 14.02.2020
2586 Clear 15 1024 33 10000 1.93 110 21:31 14.02.2020
2587 Clear 16 1024 31 10000 1 140 20:58 14.02.2020
2588 Clear 16 1024 31 10000 1 140 20:38 14.02.2020
2589 Clear 16 1024 31 10000 1 140 20:19 14.02.2020
2590 Clear 17 1024 16 10000 2.21 137 19:42 14.02.2020
2591 Clear 17 1024 16 10000 2.21 137 19:42 14.02.2020
2592 Clear 17 1024 16 10000 2.21 137 19:24 14.02.2020
2593 Clear 19 1024 29 10000 2.1 90 18:58 14.02.2020
2594 Clear 19 1024 29 10000 2.1 90 18:40 14.02.2020
2595 Clear 19 1024 29 10000 2.1 90 18:20 14.02.2020
2596 Clear 20 1023 22 10000 2.1 80 17:44 14.02.2020
2597 Clear 20 1023 22 10000 2.1 80 17:44 14.02.2020
2598 Clear 20 1023 22 10000 2.1 80 17:23 14.02.2020
2599 Clear 22 1023 19 10000 2.1 20 16:59 14.02.2020
2600 Clear 22 1023 19 10000 2.1 20 16:41 14.02.2020
2601 Clear 22 1023 19 10000 2.1 20 16:23 14.02.2020
2602 Clear 24 1022 23 10000 1 70 15:56 14.02.2020
2603 Clear 24 1022 23 10000 1 70 15:38 14.02.2020
2604 Clear 24 1022 23 10000 1 70 15:38 14.02.2020
2605 Clear 24 1022 23 10000 1 70 15:20 14.02.2020
2606 Clear 24 1022 17 10000 3.1 30 14:59 14.02.2020
2607 Clear 24 1022 17 10000 3.1 30 14:40 14.02.2020
2608 Clear 24 1022 17 10000 3.1 30 14:22 14.02.2020
2609 Clear 25 1022 16 10000 2.1 360 13:55 14.02.2020
2610 Clear 25 1022 16 10000 2.1 360 13:55 14.02.2020
2611 Clear 25 1022 16 10000 2.1 360 13:37 14.02.2020
2612 Clear 25 1022 16 10000 2.1 360 13:19 14.02.2020
2613 Clear 25 1023 17 10000 2.1 320 12:56 14.02.2020
2614 Clear 25 1023 17 10000 2.1 320 12:56 14.02.2020
2615 Clear 25 1023 17 10000 2.1 320 12:38 14.02.2020
2616 Clear 25 1023 17 10000 2.1 320 12:38 14.02.2020
2617 Clear 25 1023 17 10000 2.1 320 12:19 14.02.2020
2618 Clear 24 1023 22 10000 2.6 40 11:55 14.02.2020
2619 Clear 24 1023 22 10000 2.6 40 11:36 14.02.2020
2620 Clear 24 1023 22 10000 2.6 40 11:18 14.02.2020
2621 Clear 22 1025 18 10000 2.6 200 10:41 14.02.2020
2622 Clear 22 1025 18 10000 2.6 200 10:22 14.02.2020
2623 Clear 19 1026 25 10000 2.1 240 09:44 14.02.2020
2624 Clear 19 1026 25 10000 2.1 240 09:23 14.02.2020
2625 Clear 17 1026 11 10000 1.5 230 08:57 14.02.2020
2626 Clear 17 1026 11 10000 1.5 230 08:38 14.02.2020
2627 Clear 17 1026 13 10000 1.5 230 08:20 14.02.2020
2628 Clear 13 1026 13 10000 1 90 07:49 14.02.2020
2629 Clear 13 1026 13 10000 1 90 07:49 14.02.2020
2630 Clear 13 1026 13 10000 1 90 07:29 14.02.2020
2631 Clear 10 1026 43 10000 3.13 260 06:38 14.02.2020
2632 Clear 10 1026 43 10000 3.13 260 06:18 14.02.2020
2633 Clear 5 1026 52 10000 3.13 260 05:28 14.02.2020
2634 Clear 5 1025 52 10000 1 170 03:46 14.02.2020
2635 Clear 6 1025 52 10000 1 130 02:53 14.02.2020
2636 Clear 7 1025 48 10000 1.7 134 01:55 14.02.2020
2637 Clear 8 1025 42 10000 1 130 00:44 14.02.2020
2638 Clear 8 1025 42 10000 1 130 00:25 14.02.2020
2639 Clear 11 1026 29 10000 2.1 160 23:52 13.02.2020
2640 Clear 11 1026 29 10000 2.1 160 23:25 13.02.2020
2641 Clear 11 1026 29 10000 2.1 160 23:25 13.02.2020
2642 Clear 11 1026 32 10000 2.6 170 23:00 13.02.2020
2643 Clear 11 1026 32 10000 2.6 170 22:38 13.02.2020
2644 Clear 11 1026 32 10000 2.6 170 22:19 13.02.2020
2645 Clear 11 1027 34 10000 2.1 160 21:43 13.02.2020
2646 Clear 11 1027 34 10000 2.1 160 21:24 13.02.2020
2647 Clear 12 1027 34 10000 2.1 130 20:59 13.02.2020
2648 Clear 12 1027 34 10000 2.1 130 20:40 13.02.2020
2649 Clear 12 1027 34 10000 2.1 130 20:22 13.02.2020
2650 Clear 12 1027 34 10000 1 110 19:57 13.02.2020
2651 Clear 12 1027 34 10000 1 110 19:37 13.02.2020
2652 Clear 12 1027 34 10000 1 110 19:19 13.02.2020
2653 Clear 13 1027 32 10000 1.5 150 18:45 13.02.2020
2654 Clear 13 1027 32 10000 1.5 150 18:25 13.02.2020
2655 Clear 15 1026 30 10000 2.1 70 17:59 13.02.2020
2656 Clear 15 1026 30 10000 2.1 70 17:40 13.02.2020
2657 Clear 15 1026 30 10000 2.1 70 17:22 13.02.2020
2658 Clear 16 1026 29 10000 1 90 16:58 13.02.2020
2659 Clear 16 1026 29 10000 1 90 16:40 13.02.2020
2660 Clear 16 1026 29 10000 1 90 16:20 13.02.2020
2661 Clear 18 1026 25 10000 1.5 90 15:56 13.02.2020
2662 Clear 18 1026 25 10000 1.5 90 15:38 13.02.2020
2663 Clear 19 1026 25 10000 1.5 120 15:19 13.02.2020
2664 Clear 19 1026 25 10000 1.5 120 14:57 13.02.2020
2665 Clear 19 1026 25 10000 1.5 120 14:39 13.02.2020
2666 Clear 19 1026 25 10000 1.5 120 14:20 13.02.2020
2667 Clear 18 1027 20 10000 1 160 13:48 13.02.2020
2668 Clear 18 1027 20 10000 1 160 13:19 13.02.2020
2669 Clear 18 1027 25 10000 1.5 130 12:56 13.02.2020
2670 Clear 18 1027 25 10000 1.5 130 12:56 13.02.2020
2671 Clear 18 1027 25 10000 1.5 130 12:37 13.02.2020
2672 Clear 18 1027 25 10000 1.5 130 12:37 13.02.2020
2673 Clear 18 1027 25 10000 1.5 130 12:19 13.02.2020
2674 Clear 17 1028 29 10000 1.5 240 11:43 13.02.2020
2675 Clear 17 1028 29 10000 1.5 240 11:20 13.02.2020
2676 Clear 16 1030 29 10000 1 170 10:49 13.02.2020
2677 Clear 16 1030 29 10000 1 170 10:28 13.02.2020
2678 Clear 16 1030 26 10000 1 350 09:57 13.02.2020
2679 Clear 16 1030 26 10000 1 350 09:38 13.02.2020
2680 Clear 16 1030 26 10000 1 350 09:20 13.02.2020
2681 Clear 11 1031 27 10000 1.5 270 08:41 13.02.2020
2682 Clear 11 1031 27 10000 1.5 270 08:19 13.02.2020
2683 Clear 9 1031 34 10000 2.52 116 07:40 13.02.2020
2684 Clear 9 1031 34 10000 2.52 116 07:22 13.02.2020
2685 Clear 7 1030 39 10000 2.52 116 06:49 13.02.2020
2686 Clear 7 1030 39 10000 2.52 116 06:30 13.02.2020
2687 Clear 1 1030 47 10000 2.52 116 05:38 13.02.2020
2688 Clear 1 1029 47 10000 1.68 129 04:28 13.02.2020
2689 Clear 1 1029 50 10000 1.68 129 03:57 13.02.2020
2690 Clear 1 1029 50 10000 1.68 129 03:29 13.02.2020
2691 Clear 3 1029 44 10000 1.68 129 02:55 13.02.2020
2692 Clear 3 1029 44 10000 1.9 100 02:19 13.02.2020
2693 Clear 5 1029 22 0 1.9 100 01:36 13.02.2020
2694 Clear 4 1030 41 10000 1 210 00:43 13.02.2020
2695 Clear 4 1030 41 10000 1 210 00:22 13.02.2020
2696 Clear 3 1030 44 10000 1.58 90 23:41 12.02.2020
2697 Clear 3 1030 44 10000 3.38 49 23:22 12.02.2020
2698 Clear 5 1030 32 10000 1 30 22:48 12.02.2020
2699 Clear 5 1030 32 10000 1 30 22:28 12.02.2020
2700 Clear 6 1030 33 10000 1.5 30 21:59 12.02.2020
2701 Clear 6 1030 33 10000 1.5 30 21:40 12.02.2020
2702 Clear 6 1030 33 10000 1.5 30 21:20 12.02.2020
2703 Clear 7 1030 24 10000 2.6 30 20:58 12.02.2020
2704 Clear 7 1030 24 10000 2.6 30 20:39 12.02.2020
2705 Clear 7 1030 24 10000 2.6 30 20:20 12.02.2020
2706 Clear 7 1029 26 10000 2.6 30 19:55 12.02.2020
2707 Clear 7 1029 26 10000 2.6 30 19:55 12.02.2020
2708 Clear 7 1029 26 10000 2.6 30 19:36 12.02.2020
2709 Clear 7 1029 26 10000 2.6 30 19:36 12.02.2020
2710 Clear 7 1029 26 10000 2.6 30 19:18 12.02.2020
2711 Clear 9 1029 24 10000 2.6 40 18:46 12.02.2020
2712 Clear 9 1029 24 10000 2.6 40 18:19 12.02.2020
2713 Clear 10 1029 21 10000 4.1 30 17:43 12.02.2020
2714 Clear 10 1029 21 10000 4.1 30 17:22 12.02.2020
2715 Clear 11 1028 21 10000 5.1 30 16:59 12.02.2020
2716 Clear 11 1028 21 10000 5.1 30 16:40 12.02.2020
2717 Clear 11 1028 21 10000 5.1 30 16:20 12.02.2020
2718 Clear 13 1028 20 10000 5.7 20 15:43 12.02.2020
2719 Clear 13 1028 20 10000 5.7 20 15:43 12.02.2020
2720 Clear 13 1028 20 10000 5.7 20 15:24 12.02.2020
2721 Clear 15 1027 18 10000 4.6 350 14:57 12.02.2020
2722 Clear 15 1027 18 10000 4.6 350 14:39 12.02.2020
2723 Clear 15 1027 18 10000 4.6 350 14:20 12.02.2020
2724 Clear 16 1027 17 10000 4.6 350 13:57 12.02.2020
2725 Clear 16 1027 17 10000 4.6 350 13:39 12.02.2020
2726 Clear 16 1027 17 10000 4.6 350 13:20 12.02.2020
2727 Clear 14 1027 19 10000 6.2 10 12:57 12.02.2020
2728 Clear 14 1027 19 10000 6.2 10 12:38 12.02.2020
2729 Clear 14 1027 19 10000 6.2 10 12:18 12.02.2020
2730 Clear 12 1029 20 10000 5.1 350 11:57 12.02.2020
2731 Clear 12 1029 20 10000 5.1 350 11:38 12.02.2020
2732 Clear 12 1029 20 10000 5.1 350 11:20 12.02.2020
2733 Clear 10 1030 25 10000 4.1 350 10:55 12.02.2020
2734 Clear 10 1030 25 10000 4.1 350 10:36 12.02.2020
2735 Clear 10 1030 25 10000 4.1 350 10:18 12.02.2020
2736 Clear 10 1030 25 10000 4.1 350 10:18 12.02.2020
2737 Clear 8 1031 28 10000 2.1 350 09:42 12.02.2020
2738 Clear 8 1031 28 10000 2.1 350 09:42 12.02.2020
2739 Clear 8 1031 28 10000 2.1 350 09:22 12.02.2020
2740 Clear 6 1031 30 10000 3.6 10 08:58 12.02.2020
2741 Clear 6 1031 30 10000 3.6 10 08:38 12.02.2020
2742 Clear 6 1031 30 10000 3.6 10 08:38 12.02.2020
2743 Clear 6 1031 30 10000 3.6 10 08:19 12.02.2020
2744 Clear 6 1031 30 10000 3.6 10 08:19 12.02.2020
2745 Clear 4 1030 29 10000 3.6 20 07:44 12.02.2020
2746 Clear 4 1030 29 10000 3.6 20 07:23 12.02.2020
2747 Clear 2 1030 37 10000 4.1 20 06:56 12.02.2020
2748 Clear 2 1030 37 10000 4.1 20 06:24 12.02.2020
2749 Clear 2 1029 37 10000 2.1 10 05:38 12.02.2020
2750 Clear 2 1028 37 10000 2.6 10 04:58 12.02.2020
2751 Clear 2 1028 37 10000 2.6 10 04:39 12.02.2020
2752 Clear 2 1028 40 10000 2.6 20 03:33 12.02.2020
2753 Clear 3 1027 44 10000 1.5 30 02:58 12.02.2020
2754 Clear 3 1027 44 10000 1.5 30 02:30 12.02.2020
2755 Clear 3 1027 40 10000 2.1 20 01:58 12.02.2020
2756 Clear 4 1027 38 10000 3.1 10 00:46 12.02.2020
2757 Clear 4 1027 38 10000 3.1 10 00:26 12.02.2020
2758 Clear 5 1027 35 8000 5.1 10 23:57 11.02.2020
2759 Clear 5 1027 35 8000 5.1 10 23:57 11.02.2020
2760 Clear 5 1027 35 8000 5.1 10 23:39 11.02.2020
2761 Clear 5 1027 35 8000 5.1 10 23:21 11.02.2020
2762 Clear 6 1027 38 8000 3.6 20 22:55 11.02.2020
2763 Clear 6 1027 38 8000 3.6 20 22:37 11.02.2020
2764 Clear 6 1027 38 8000 3.6 20 22:19 11.02.2020
2765 Clear 7 1026 33 7000 5.1 20 21:56 11.02.2020
2766 Clear 7 1026 33 7000 5.1 20 21:37 11.02.2020
2767 Clear 7 1026 33 7000 5.1 20 21:18 11.02.2020
2768 Clear 9 1025 31 10000 5.1 10 20:54 11.02.2020
2769 Clear 9 1025 31 10000 5.1 10 20:36 11.02.2020
2770 Clear 9 1025 31 10000 5.1 10 20:18 11.02.2020
2771 Clear 10 1025 31 10000 6.2 10 19:42 11.02.2020
2772 Clear 10 1025 31 10000 6.2 10 19:24 11.02.2020
2773 Clear 11 1024 32 10000 4.1 20 18:56 11.02.2020
2774 Clear 11 1024 32 10000 4.1 20 18:37 11.02.2020
2775 Clear 11 1024 32 10000 4.1 20 18:19 11.02.2020
2776 Clear 12 1023 30 10000 5.7 10 17:55 11.02.2020
2777 Clear 12 1023 30 10000 5.7 10 17:36 11.02.2020
2778 Clear 12 1023 30 10000 5.7 10 17:36 11.02.2020
2779 Clear 12 1023 30 10000 5.7 10 17:18 11.02.2020
2780 Clear 13 1022 28 10000 6.2 350 16:55 11.02.2020
2781 Clear 13 1022 28 10000 6.2 350 16:37 11.02.2020
2782 Clear 13 1022 28 10000 6.2 350 16:19 11.02.2020
2783 Clear 15 1022 26 10000 5.1 340 15:43 11.02.2020
2784 Clear 15 1022 26 10000 5.1 340 15:24 11.02.2020
2785 Clear 16 1021 25 10000 5.1 340 14:54 11.02.2020
2786 Clear 16 1021 25 10000 5.1 340 14:36 11.02.2020
2787 Clear 16 1021 25 10000 5.1 340 14:18 11.02.2020
2788 Clear 16 1021 26 10000 6.2 350 13:41 11.02.2020
2789 Clear 16 1021 26 10000 6.2 350 13:21 11.02.2020
2790 Clear 15 1021 28 10000 4.6 10 12:58 11.02.2020
2791 Clear 15 1021 28 10000 4.6 10 12:39 11.02.2020
2792 Clear 15 1021 28 10000 4.6 10 12:20 11.02.2020
2793 Clear 15 1022 28 10000 4.6 350 11:41 11.02.2020
2794 Clear 15 1022 28 10000 4.6 350 11:20 11.02.2020
2795 Clear 13 1024 30 10000 6.7 10 10:57 11.02.2020
2796 Clear 13 1024 30 10000 6.7 10 10:38 11.02.2020
2797 Clear 13 1024 30 10000 6.7 10 10:20 11.02.2020
2798 Clear 10 1024 37 10000 4.6 20 09:55 11.02.2020
2799 Clear 10 1024 37 10000 4.6 20 09:37 11.02.2020
2800 Clear 8 1024 42 10000 3.6 20 09:19 11.02.2020
2801 Clear 8 1024 42 10000 3.6 20 08:42 11.02.2020
2802 Clear 8 1024 42 10000 3.6 20 08:23 11.02.2020
2803 Clear 6 1024 48 10000 4.6 20 07:48 11.02.2020
2804 Clear 6 1024 48 10000 4.6 20 07:26 11.02.2020
2805 Clear 5 1023 52 10000 4.6 30 06:44 11.02.2020
2806 Clear 5 1022 56 10000 3.6 30 06:22 11.02.2020
2807 Clear 5 1022 56 10000 3.6 30 05:54 11.02.2020
2808 Clear 5 1022 56 10000 3.6 30 05:24 11.02.2020
2809 Clear 6 1022 52 10000 3.1 20 04:39 11.02.2020
2810 Clear 6 1020 56 10000 3.1 20 03:20 11.02.2020
2811 Clear 6 1020 56 10000 3.6 30 02:32 11.02.2020
2812 Clear 7 1020 52 10000 4.1 30 01:38 11.02.2020
2813 Clear 8 1020 49 10000 4.1 30 00:40 11.02.2020
2814 Clear 9 1020 45 10000 5.7 30 23:57 10.02.2020
2815 Clear 9 1020 45 10000 5.7 30 23:38 10.02.2020
2816 Clear 9 1020 45 10000 5.7 30 23:20 10.02.2020
2817 Clear 9 1020 45 10000 5.7 30 23:20 10.02.2020
2818 Clear 10 1020 43 10000 5.1 30 22:40 10.02.2020
2819 Clear 10 1020 43 10000 5.1 30 22:20 10.02.2020
2820 Clear 12 1020 45 10000 2.6 40 21:46 10.02.2020
2821 Clear 12 1020 45 10000 2.6 40 21:27 10.02.2020
2822 Clear 13 1020 45 10000 2.6 40 20:58 10.02.2020
2823 Clear 13 1020 45 10000 2.6 40 20:40 10.02.2020
2824 Clouds 13 1020 41 10000 2.6 40 20:21 10.02.2020
2825 Clouds 13 1020 40 10000 2.6 40 20:21 10.02.2020
2826 Clouds 14 1019 40 10000 2.6 50 19:59 10.02.2020
2827 Clouds 14 1019 40 10000 2.6 50 19:39 10.02.2020
2828 Clouds 14 1019 40 10000 2.6 50 19:19 10.02.2020
2829 Clouds 15 1019 40 8000 2.6 50 18:59 10.02.2020
2830 Clouds 15 1019 40 8000 2.6 50 18:40 10.02.2020
2831 Clouds 15 1019 40 8000 2.6 50 18:21 10.02.2020
2832 Clouds 16 1019 40 7000 3.1 50 17:58 10.02.2020
2833 Clouds 16 1019 40 7000 3.1 50 17:38 10.02.2020
2834 Clouds 16 1019 34 7000 3.1 50 17:20 10.02.2020
2835 Clouds 16 1018 36 7000 3.1 50 16:59 10.02.2020
2836 Clouds 16 1018 36 7000 3.1 50 16:40 10.02.2020
2837 Clouds 16 1018 36 7000 3.1 50 16:20 10.02.2020
2838 Clouds 17 1018 33 7000 2.6 40 15:56 10.02.2020
2839 Clouds 17 1018 33 7000 2.6 40 15:38 10.02.2020
2840 Clouds 17 1018 33 7000 2.6 40 15:20 10.02.2020
2841 Clouds 18 1018 31 7000 3.1 30 14:56 10.02.2020
2842 Clouds 18 1018 31 7000 3.1 30 14:37 10.02.2020
2843 Clouds 18 1018 31 7000 3.1 30 14:18 10.02.2020
2844 Clouds 17 1018 30 7000 3.1 60 13:43 10.02.2020
2845 Clouds 17 1018 29 7000 3.1 60 13:24 10.02.2020
2846 Clouds 17 1018 29 6000 2.6 60 12:54 10.02.2020
2847 Clouds 17 1018 29 6000 2.6 60 12:36 10.02.2020
2848 Clouds 17 1019 33 6000 2.6 70 12:18 10.02.2020
2849 Clouds 17 1019 33 6000 2.6 70 11:43 10.02.2020
2850 Clouds 17 1019 33 6000 2.6 70 11:20 10.02.2020
2851 Clouds 16 1020 32 6000 3.1 50 10:47 10.02.2020
2852 Clouds 16 1020 32 6000 3.1 50 10:28 10.02.2020
2853 Clouds 15 1021 32 6000 3.6 60 09:48 10.02.2020
2854 Clouds 15 1021 32 6000 3.6 60 09:48 10.02.2020
2855 Clouds 15 1021 32 6000 3.6 60 09:27 10.02.2020
2856 Clouds 14 1022 32 6000 3.6 50 08:58 10.02.2020
2857 Clouds 14 1022 34 6000 3.6 50 08:38 10.02.2020
2858 Clouds 14 1022 36 6000 3.6 50 08:19 10.02.2020
2859 Clouds 12 1022 36 6000 3.6 40 07:51 10.02.2020
2860 Clouds 12 1022 36 6000 3.6 40 07:31 10.02.2020
2861 Dust 10 1021 53 5000 1.5 20 06:23 10.02.2020
2862 Clouds 10 1020 53 6000 1.5 350 04:46 10.02.2020
2863 Clouds 10 1019 39 6000 2.1 350 03:45 10.02.2020
2864 Clouds 11 1019 50 6000 1.5 360 02:55 10.02.2020
2865 Clouds 11 1020 43 7000 2.1 20 01:59 10.02.2020
2866 Clouds 12 1020 39 7000 2.1 20 00:52 10.02.2020
2867 Clouds 12 1020 39 7000 2.1 20 00:31 10.02.2020
2868 Clouds 13 1020 39 7000 2.1 30 23:58 09.02.2020
2869 Clouds 13 1020 39 7000 2.1 30 23:39 09.02.2020
2870 Clear 13 1020 40 7000 2.1 30 23:21 09.02.2020
2871 Clear 13 1020 40 7000 2.6 30 22:41 09.02.2020
2872 Clear 13 1020 40 7000 2.6 30 22:21 09.02.2020
2873 Clear 14 1021 40 7000 3.1 30 21:44 09.02.2020
2874 Clear 14 1021 40 7000 3.1 30 21:25 09.02.2020
2875 Clear 15 1021 33 8000 3.1 30 20:58 09.02.2020
2876 Clear 15 1021 33 8000 3.1 30 20:40 09.02.2020
2877 Clear 15 1021 33 8000 3.1 30 20:18 09.02.2020
2878 Clouds 17 1021 36 10000 3.6 40 19:40 09.02.2020
2879 Clouds 17 1021 36 10000 3.6 40 19:21 09.02.2020
2880 Clouds 18 1020 31 10000 3.6 50 18:57 09.02.2020
2881 Clouds 18 1020 31 10000 3.6 50 18:39 09.02.2020
2882 Clouds 18 1020 31 10000 3.6 50 18:21 09.02.2020
2883 Clouds 19 1020 32 10000 3.1 60 17:42 09.02.2020
2884 Clouds 19 1020 32 10000 3.1 60 17:23 09.02.2020
2885 Clouds 20 1019 30 10000 3.1 50 16:56 09.02.2020
2886 Clouds 20 1019 30 10000 3.1 50 16:38 09.02.2020
2887 Clouds 20 1019 30 10000 3.1 50 16:18 09.02.2020
2888 Clouds 21 1019 28 10000 4.1 40 15:56 09.02.2020
2889 Clouds 21 1019 28 10000 4.1 40 15:38 09.02.2020
2890 Clouds 21 1019 28 10000 4.1 40 15:19 09.02.2020
2891 Clouds 21 1018 28 10000 3.1 70 14:42 09.02.2020
2892 Clouds 21 1018 28 10000 3.1 70 14:23 09.02.2020
2893 Clouds 21 1018 26 10000 3.6 70 13:47 09.02.2020
2894 Clouds 21 1018 26 10000 3.6 70 13:29 09.02.2020
2895 Clouds 21 1019 24 10000 4.1 40 12:58 09.02.2020
2896 Clouds 21 1019 24 10000 4.1 40 12:40 09.02.2020
2897 Clouds 21 1019 28 10000 3.6 80 12:19 09.02.2020
2898 Clouds 21 1019 28 10000 3.6 80 11:56 09.02.2020
2899 Clouds 21 1019 28 10000 3.6 80 11:36 09.02.2020
2900 Clouds 21 1019 28 10000 3.6 80 11:18 09.02.2020
2901 Clouds 20 1021 28 10000 4.1 50 10:42 09.02.2020
2902 Clouds 20 1021 28 10000 4.1 50 10:22 09.02.2020
2903 Clouds 19 1021 29 10000 4.1 60 09:48 09.02.2020
2904 Clouds 19 1021 29 10000 4.1 60 09:28 09.02.2020
2905 Clouds 19 1021 29 10000 4.1 60 09:28 09.02.2020
2906 Clouds 18 1022 34 10000 4.1 40 08:55 09.02.2020
2907 Clouds 18 1022 34 10000 4.1 40 08:37 09.02.2020
2908 Clouds 18 1022 34 10000 4.1 40 08:19 09.02.2020
2909 Clouds 18 1021 34 10000 3.1 50 07:49 09.02.2020
2910 Clouds 17 1021 36 10000 2.6 40 06:54 09.02.2020
2911 Clouds 17 1021 36 10000 2.6 40 06:36 09.02.2020
2912 Clouds 16 1020 44 10000 1 60 05:49 09.02.2020
2913 Clouds 16 1020 44 10000 1 60 05:31 09.02.2020
2914 Clear 17 1019 33 10000 3.1 50 03:58 09.02.2020
2915 Clear 17 1019 33 10000 3.1 50 02:47 09.02.2020
2916 Clear 17 1019 33 10000 3.1 50 02:27 09.02.2020
2917 Clouds 18 1019 31 10000 3.1 50 01:35 09.02.2020
2918 Clouds 18 1019 31 10000 2.6 40 00:52 09.02.2020
2919 Clouds 18 1019 31 10000 2.6 40 00:28 09.02.2020
2920 Clouds 18 1019 25 10000 3.1 30 23:45 08.02.2020
2921 Clouds 19 1019 24 10000 3.1 30 23:22 08.02.2020
2922 Clouds 19 1019 24 10000 3.1 30 22:55 08.02.2020
2923 Clouds 19 1019 24 10000 3.1 30 22:37 08.02.2020
2924 Clouds 19 1019 24 10000 3.1 30 22:19 08.02.2020
2925 Clouds 20 1019 22 10000 3.6 10 21:42 08.02.2020
2926 Clouds 20 1019 22 10000 3.6 10 21:24 08.02.2020
2927 Clouds 21 1019 24 10000 2.6 10 20:58 08.02.2020
2928 Clouds 21 1019 24 10000 2.6 10 20:39 08.02.2020
2929 Clouds 21 1019 30 10000 2.6 10 20:19 08.02.2020
2930 Clouds 22 1019 28 10000 2.6 40 19:56 08.02.2020
2931 Clouds 22 1019 28 10000 2.6 40 19:38 08.02.2020
2932 Clouds 22 1019 28 10000 2.6 40 19:19 08.02.2020
2933 Clouds 24 1018 23 10000 3.1 350 18:43 08.02.2020
2934 Clouds 24 1018 23 10000 3.1 350 18:24 08.02.2020
2935 Clouds 24 1018 27 10000 4.1 360 17:56 08.02.2020
2936 Clouds 24 1018 27 10000 4.1 360 17:37 08.02.2020
2937 Clouds 24 1018 27 10000 4.1 360 17:18 08.02.2020
2938 Clouds 26 1017 26 10000 5.1 350 16:40 08.02.2020
2939 Clouds 26 1017 26 10000 5.1 350 16:22 08.02.2020
2940 Clouds 28 1016 32 10000 3.1 240 15:56 08.02.2020
2941 Clouds 28 1016 32 10000 3.1 240 15:38 08.02.2020
2942 Clouds 28 1016 32 10000 3.1 240 15:38 08.02.2020
2943 Clouds 28 1016 32 10000 3.1 240 15:18 08.02.2020
2944 Clouds 28 1016 32 10000 3.1 240 15:18 08.02.2020
2945 Clouds 29 1016 28 10000 3.6 250 14:41 08.02.2020
2946 Clouds 29 1016 28 10000 3.6 250 14:19 08.02.2020
2947 Clouds 29 1016 28 10000 3.6 250 14:19 08.02.2020
2948 Clear 29 1016 21 10000 3.1 250 13:55 08.02.2020
2949 Clear 29 1016 21 10000 3.1 250 13:37 08.02.2020
2950 Clear 29 1016 21 10000 4.1 260 13:18 08.02.2020
2951 Clear 29 1016 21 10000 4.1 260 12:38 08.02.2020
2952 Clear 29 1016 21 10000 4.1 260 12:19 08.02.2020
2953 Clear 28 1017 23 9000 3.6 240 11:43 08.02.2020
2954 Clear 28 1017 23 9000 3.6 240 11:22 08.02.2020
2955 Clear 27 1018 22 9000 5.7 240 10:57 08.02.2020
2956 Clear 27 1018 22 9000 5.7 240 10:39 08.02.2020
2957 Clear 27 1018 22 9000 5.7 240 10:20 08.02.2020
2958 Clear 27 1019 22 10000 3.6 220 09:50 08.02.2020
2959 Clear 27 1019 22 10000 3.6 220 09:24 08.02.2020
2960 Clear 25 1020 23 10000 3.6 180 08:46 08.02.2020
2961 Clear 25 1020 23 10000 3.6 180 08:24 08.02.2020
2962 Clear 22 1020 30 10000 2.6 170 07:53 08.02.2020
2963 Clear 22 1020 30 10000 2.6 170 07:34 08.02.2020
2964 Clear 18 1020 36 10000 2.1 210 06:55 08.02.2020
2965 Clear 18 1020 36 10000 2.1 210 06:22 08.02.2020
2966 Clear 18 1019 42 10000 2.1 240 05:34 08.02.2020
2967 Clear 15 1018 51 10000 1 140 04:55 08.02.2020
2968 Clear 15 1018 51 10000 1 140 04:24 08.02.2020
2969 Clear 16 1017 44 10000 1 140 03:37 08.02.2020
2970 Clear 17 1017 42 10000 1.5 150 02:29 08.02.2020
2971 Clear 18 1017 39 10000 1.5 150 01:33 08.02.2020
2972 Clear 18 1018 34 10000 2.1 160 00:47 08.02.2020
2973 Clear 18 1018 34 10000 2.1 160 00:25 08.02.2020
2974 Clear 18 1018 39 10000 1.5 140 23:58 07.02.2020
2975 Clear 18 1018 39 10000 1.5 140 23:39 07.02.2020
2976 Clear 18 1018 39 10000 1.5 140 23:20 07.02.2020
2977 Clear 19 1018 32 10000 2.1 150 22:42 07.02.2020
2978 Clear 19 1018 32 10000 2.1 150 22:42 07.02.2020
2979 Clear 19 1018 32 10000 2.1 150 22:20 07.02.2020
2980 Clear 20 1018 37 10000 1.5 140 21:59 07.02.2020
2981 Clear 20 1018 37 10000 1.5 140 21:40 07.02.2020
2982 Clear 20 1018 37 10000 1.5 140 21:20 07.02.2020
2983 Clear 21 1019 35 10000 1.5 140 20:39 07.02.2020
2984 Clouds 21 1019 35 10000 1.5 140 20:20 07.02.2020
2985 Clouds 22 1018 33 10000 1.5 150 19:55 07.02.2020
2986 Clouds 22 1018 33 10000 1.5 150 19:37 07.02.2020
2987 Clouds 22 1018 33 10000 1.5 150 19:18 07.02.2020
2988 Clouds 23 1018 27 10000 3.1 160 18:44 07.02.2020
2989 Clouds 23 1018 27 10000 3.1 160 18:44 07.02.2020
2990 Clouds 23 1018 27 10000 3.1 160 18:44 07.02.2020
2991 Clouds 23 1018 27 10000 3.1 160 18:25 07.02.2020
2992 Clouds 25 1018 22 10000 3.6 170 17:55 07.02.2020
2993 Clouds 25 1018 22 10000 3.6 170 17:37 07.02.2020
2994 Clear 25 1018 22 10000 3.6 170 17:19 07.02.2020
2995 Clear 26 1017 27 10000 2.1 160 16:43 07.02.2020
2996 Clear 26 1017 27 10000 2.1 160 16:23 07.02.2020
2997 Clear 28 1017 21 10000 2.6 160 15:54 07.02.2020
2998 Clear 28 1017 21 10000 2.6 160 15:28 07.02.2020
2999 Clear 28 1017 21 10000 3.1 210 14:56 07.02.2020
3000 Clear 28 1017 21 10000 3.1 210 14:37 07.02.2020
3001 Clouds 28 1017 21 10000 3.1 210 14:19 07.02.2020
3002 Clouds 28 1017 20 10000 3.1 220 13:56 07.02.2020
3003 Clouds 28 1017 20 10000 3.1 220 13:38 07.02.2020
3004 Clouds 28 1017 20 10000 3.1 220 13:19 07.02.2020
3005 Clouds 28 1017 20 10000 3.6 180 12:41 07.02.2020
3006 Clouds 28 1017 20 10000 3.6 180 12:23 07.02.2020
3007 Clouds 27 1018 21 10000 3.6 190 11:45 07.02.2020
3008 Clouds 27 1018 21 10000 3.6 190 11:23 07.02.2020
3009 Clouds 26 1019 26 10000 3.6 200 10:58 07.02.2020
3010 Clouds 26 1019 26 10000 3.6 200 10:38 07.02.2020
3011 Clouds 26 1019 26 10000 3.6 200 10:19 07.02.2020
3012 Clouds 24 1020 36 10000 2.6 180 09:41 07.02.2020
3013 Clouds 24 1020 36 10000 2.6 180 09:22 07.02.2020
3014 Clouds 16 1019 44 10000 1.5 130 08:50 07.02.2020
3015 Clear 16 1019 44 10000 1.5 130 08:24 07.02.2020
3016 Clear 16 1019 44 10000 1.5 130 07:55 07.02.2020
3017 Clear 16 1019 44 10000 1.5 130 07:33 07.02.2020
3018 Clear 16 1019 44 10000 1.5 130 06:59 07.02.2020
3019 Clear 16 1019 44 10000 1.5 130 06:40 07.02.2020
3020 Clear 16 1019 44 10000 1.5 130 06:19 07.02.2020
3021 Clear 16 1019 44 10000 1.5 130 05:37 07.02.2020
3022 Clear 17 1019 36 10000 2.6 140 03:51 07.02.2020
3023 Clear 18 1018 36 10000 2.6 160 02:23 07.02.2020
3024 Clear 18 1018 36 10000 2.6 160 02:23 07.02.2020
3025 Clear 19 1019 34 10000 2.1 150 01:21 07.02.2020
3026 Clear 19 1019 34 10000 3.1 150 00:29 07.02.2020
3027 Clear 19 1019 37 10000 2.1 140 23:39 06.02.2020
3028 Clear 19 1019 37 10000 2.1 140 23:39 06.02.2020
3029 Clear 19 1019 37 10000 2.1 140 23:19 06.02.2020
3030 Clear 20 1019 30 10000 2.6 160 22:48 06.02.2020
3031 Clear 20 1019 30 10000 2.6 160 22:27 06.02.2020
3032 Clear 20 1019 30 10000 3.6 170 21:59 06.02.2020
3033 Clear 20 1019 30 10000 3.6 170 21:37 06.02.2020
3034 Clear 20 1019 30 10000 3.6 170 21:18 06.02.2020
3035 Clear 21 1019 28 10000 4.1 170 20:55 06.02.2020
3036 Clear 21 1019 28 10000 4.1 170 20:55 06.02.2020
3037 Clear 21 1019 28 10000 4.1 170 20:36 06.02.2020
3038 Clouds 21 1019 28 10000 4.1 170 20:18 06.02.2020
3039 Clouds 20 1020 37 10000 1.5 140 19:56 06.02.2020
3040 Clouds 20 1020 37 10000 1.5 140 19:37 06.02.2020
3041 Clouds 20 1020 37 10000 1.5 140 19:19 06.02.2020
3042 Clouds 21 1020 32 10000 2.1 130 18:42 06.02.2020
3043 Clouds 21 1020 32 10000 2.1 130 18:24 06.02.2020
3044 Clouds 22 1019 35 10000 1.5 140 17:58 06.02.2020
3045 Clouds 22 1019 35 10000 1.5 140 17:58 06.02.2020
3046 Clouds 22 1019 35 10000 1.5 140 17:40 06.02.2020
3047 Clouds 22 1019 35 10000 1.5 140 17:20 06.02.2020
3048 Clouds 24 1019 27 10000 2.6 140 16:43 06.02.2020
3049 Clouds 24 1019 27 10000 2.6 140 16:25 06.02.2020
3050 Clouds 25 1019 23 10000 3.6 140 15:44 06.02.2020
3051 Clouds 25 1019 23 10000 3.6 140 15:24 06.02.2020
3052 Clouds 26 1019 24 10000 2.6 150 14:58 06.02.2020
3053 Clouds 26 1019 24 10000 2.6 150 14:40 06.02.2020
3054 Clouds 26 1019 24 10000 2.6 150 14:22 06.02.2020
3055 Clouds 26 1019 24 10000 2.6 160 13:43 06.02.2020
3056 Clouds 26 1019 24 10000 2.6 160 13:25 06.02.2020
3057 Clouds 26 1019 22 10000 3.1 160 12:45 06.02.2020
3058 Clouds 26 1019 22 10000 3.1 160 12:20 06.02.2020
3059 Clouds 25 1020 25 10000 3.6 170 11:58 06.02.2020
3060 Clouds 25 1020 25 10000 3.6 170 11:40 06.02.2020
3061 Clouds 25 1020 25 10000 3.6 170 11:21 06.02.2020
3062 Clouds 23 1021 25 10000 4.6 190 10:57 06.02.2020
3063 Clouds 23 1021 25 10000 4.6 190 10:39 06.02.2020
3064 Clouds 23 1021 25 10000 4.6 190 10:21 06.02.2020
3065 Clouds 22 1022 28 10000 4.6 180 09:57 06.02.2020
3066 Clouds 22 1022 28 10000 4.6 180 09:37 06.02.2020
3067 Clouds 22 1022 28 10000 4.6 180 09:19 06.02.2020
3068 Clouds 21 1023 26 10000 6.2 180 08:41 06.02.2020
3069 Clouds 21 1023 26 10000 6.2 180 08:22 06.02.2020
3070 Clouds 19 1022 34 10000 4.1 170 07:51 06.02.2020
3071 Clouds 19 1022 34 10000 4.1 170 07:28 06.02.2020
3072 Clouds 16 1022 41 10000 2.6 160 06:37 06.02.2020
3073 Clouds 16 1022 41 10000 2.6 160 06:37 06.02.2020
3074 Clouds 16 1022 41 10000 2.6 160 06:37 06.02.2020
3075 Clouds 16 1022 41 10000 2.6 160 06:18 06.02.2020
3076 Clear 13 1021 50 10000 2.1 160 04:53 06.02.2020
3077 Clear 13 1020 50 10000 2.1 150 03:21 06.02.2020
3078 Clear 13 1020 50 10000 2.1 150 03:21 06.02.2020
3079 Clear 14 1020 44 10000 1.5 150 02:37 06.02.2020
3080 Clouds 16 1020 36 10000 2.6 170 01:37 06.02.2020
3081 Clouds 17 1020 33 10000 3.6 160 00:58 06.02.2020
3082 Clouds 17 1020 33 10000 3.6 160 00:26 06.02.2020
3083 Clouds 17 1020 41 10000 3.6 170 23:47 05.02.2020
3084 Clouds 17 1020 41 10000 3.6 170 23:29 05.02.2020
3085 Clouds 16 1021 41 10000 2.1 150 22:58 05.02.2020
3086 Clouds 16 1021 41 10000 2.1 150 22:40 05.02.2020
3087 Clouds 16 1021 41 10000 2.1 150 22:22 05.02.2020
3088 Clouds 16 1021 41 10000 2.1 150 22:22 05.02.2020
3089 Clouds 16 1021 41 10000 2.1 150 22:22 05.02.2020
3090 Clouds 17 1021 33 10000 2.1 150 21:54 05.02.2020
3091 Clouds 17 1021 33 10000 2.1 150 21:36 05.02.2020
3092 Clouds 18 1021 36 10000 2.1 150 21:18 05.02.2020
3093 Clouds 18 1021 36 10000 2.1 150 20:39 05.02.2020
3094 Clouds 18 1021 36 10000 2.1 150 20:19 05.02.2020
3095 Clouds 18 1021 36 10000 1.5 150 19:57 05.02.2020
3096 Clouds 18 1021 36 10000 1.5 150 19:38 05.02.2020
3097 Clouds 18 1021 36 10000 1.5 150 19:19 05.02.2020
3098 Clouds 18 1021 36 10000 1.5 150 19:19 05.02.2020
3099 Clouds 19 1020 37 10000 1.5 130 18:46 05.02.2020
3100 Clouds 19 1020 37 10000 1.5 130 18:22 05.02.2020
3101 Clouds 20 1019 30 10000 2.1 130 17:59 05.02.2020
3102 Clouds 20 1019 30 10000 2.1 130 17:38 05.02.2020
3103 Clouds 22 1019 28 10000 2.6 140 17:18 05.02.2020
3104 Clouds 22 1019 28 10000 2.6 140 16:56 05.02.2020
3105 Clouds 22 1019 28 10000 2.6 140 16:37 05.02.2020
3106 Clouds 22 1019 28 10000 2.6 140 16:18 05.02.2020
3107 Clouds 23 1018 28 10000 2.6 150 15:42 05.02.2020
3108 Clouds 23 1018 28 10000 2.6 150 15:19 05.02.2020
3109 Clouds 24 1018 27 10000 2.6 150 14:55 05.02.2020
3110 Clouds 24 1018 27 10000 2.6 150 14:37 05.02.2020
3111 Clouds 24 1018 27 10000 2.6 150 14:19 05.02.2020
3112 Clouds 22 1018 35 10000 1.5 150 13:41 05.02.2020
3113 Clouds 22 1018 35 10000 1.5 150 13:22 05.02.2020
3114 Clouds 21 1019 32 10000 2.6 160 12:44 05.02.2020
3115 Clouds 21 1019 32 10000 2.6 160 12:25 05.02.2020
3116 Clouds 20 1019 30 10000 3.6 160 11:59 05.02.2020
3117 Clouds 20 1019 30 10000 3.6 160 11:40 05.02.2020
3118 Clouds 20 1019 30 10000 3.6 160 11:21 05.02.2020
3119 Clouds 20 1020 30 10000 4.6 160 10:43 05.02.2020
3120 Clouds 20 1020 30 10000 4.6 160 10:25 05.02.2020
3121 Clouds 18 1021 34 10000 4.6 160 09:59 05.02.2020
3122 Clouds 18 1021 34 10000 4.6 160 09:38 05.02.2020
3123 Clouds 18 1021 34 10000 4.6 160 09:20 05.02.2020
3124 Clouds 18 1021 31 10000 5.1 160 08:45 05.02.2020
3125 Clouds 18 1021 31 10000 5.1 160 08:24 05.02.2020
3126 Clouds 16 1021 36 10000 4.1 160 07:55 05.02.2020
3127 Clouds 16 1021 36 10000 4.1 160 07:34 05.02.2020
3128 Clouds 16 1020 36 7000 3.6 160 06:50 05.02.2020
3129 Clouds 16 1020 36 7000 3.6 160 06:23 05.02.2020
3130 Clouds 14 1019 41 8000 2.6 170 05:58 05.02.2020
3131 Clouds 14 1019 41 10000 2.6 160 05:19 05.02.2020
3132 Clouds 14 1019 41 10000 2.6 160 04:52 05.02.2020
3133 Clouds 14 1018 47 10000 1.5 150 03:56 05.02.2020
3134 Clouds 12 1018 50 10000 1.5 150 02:28 05.02.2020
3135 Clouds 13 1018 43 10000 2.6 160 01:53 05.02.2020
3136 Clear 14 1018 44 10000 1.5 150 00:43 05.02.2020
3137 Clear 14 1019 34 10000 3.1 130 23:57 04.02.2020
3138 Clear 14 1019 34 10000 3.1 130 23:38 04.02.2020
3139 Clear 14 1019 31 10000 3.1 130 23:18 04.02.2020
3140 Clear 16 1019 31 10000 3.1 160 22:54 04.02.2020
3141 Clear 16 1019 31 10000 3.1 160 22:36 04.02.2020
3142 Clear 16 1019 31 10000 3.1 160 22:18 04.02.2020
3143 Clear 16 1019 31 10000 2.6 160 21:41 04.02.2020
3144 Clear 16 1019 31 10000 2.6 160 21:19 04.02.2020
3145 Clear 16 1019 31 10000 2.6 140 20:59 04.02.2020
3146 Clear 16 1019 31 10000 2.6 140 20:41 04.02.2020
3147 Clouds 16 1019 28 10000 2.6 140 20:21 04.02.2020
3148 Clouds 17 1019 26 10000 2.1 150 19:57 04.02.2020
3149 Clouds 17 1019 26 10000 2.1 150 19:39 04.02.2020
3150 Clouds 17 1019 26 10000 2.1 150 19:39 04.02.2020
3151 Clouds 17 1019 26 10000 2.1 150 19:21 04.02.2020
3152 Clouds 18 1019 26 10000 2.6 150 18:55 04.02.2020
3153 Clouds 18 1019 26 10000 2.6 150 18:37 04.02.2020
3154 Clouds 18 1019 26 10000 2.6 150 18:18 04.02.2020
3155 Clouds 19 1018 29 10000 2.6 150 17:42 04.02.2020
3156 Clouds 19 1018 29 10000 2.6 150 17:21 04.02.2020
3157 Clouds 20 1018 26 10000 4.1 160 16:55 04.02.2020
3158 Clouds 20 1018 26 10000 4.1 160 16:36 04.02.2020
3159 Clouds 20 1018 24 10000 3.1 140 16:18 04.02.2020
3160 Clouds 20 1018 24 10000 3.1 140 15:55 04.02.2020
3161 Clouds 20 1018 24 10000 3.1 140 15:37 04.02.2020
3162 Clouds 20 1018 24 10000 3.1 140 15:18 04.02.2020
3163 Clouds 21 1017 22 10000 5.1 160 14:42 04.02.2020
3164 Clouds 21 1017 22 10000 5.1 160 14:23 04.02.2020
3165 Clear 21 1017 22 10000 4.6 160 13:57 04.02.2020
3166 Clear 21 1017 22 10000 4.6 160 13:39 04.02.2020
3167 Clouds 21 1017 22 10000 4.6 160 13:19 04.02.2020
3168 Clouds 21 1018 23 10000 4.1 170 12:43 04.02.2020
3169 Clouds 21 1018 23 10000 4.1 170 12:25 04.02.2020
3170 Clouds 20 1019 24 10000 4.1 150 11:57 04.02.2020
3171 Clouds 20 1019 24 10000 4.1 150 11:39 04.02.2020
3172 Clear 20 1019 24 10000 4.1 150 11:19 04.02.2020
3173 Clear 19 1021 25 10000 4.1 160 10:49 04.02.2020
3174 Clear 19 1021 25 10000 4.1 160 10:27 04.02.2020
3175 Clear 18 1022 27 10000 4.1 170 09:58 04.02.2020
3176 Clear 18 1022 27 10000 4.1 170 09:39 04.02.2020
3177 Clear 18 1022 27 10000 4.1 170 09:21 04.02.2020
3178 Clear 16 1022 25 10000 3.6 170 08:47 04.02.2020
3179 Clear 16 1022 25 10000 3.6 170 08:28 04.02.2020
3180 Clear 14 1022 32 10000 2.1 150 07:56 04.02.2020
3181 Clear 14 1022 32 10000 2.1 150 07:37 04.02.2020
3182 Clear 14 1022 32 10000 2.1 150 07:37 04.02.2020
3183 Clear 14 1022 32 10000 2.1 150 07:18 04.02.2020
3184 Clear 14 1022 32 10000 2.1 150 07:18 04.02.2020
3185 Clear 10 1022 53 10000 1.5 140 06:41 04.02.2020
3186 Clear 7 1022 32 10000 4.74 137 05:35 04.02.2020
3187 Clear 7 1021 65 10000 3.15 122 04:41 04.02.2020
3188 Clear 9 1021 39 10000 1 150 03:49 04.02.2020
3189 Clear 9 1021 39 10000 1 150 03:30 04.02.2020
3190 Clear 9 1021 39 10000 1 150 02:48 04.02.2020
3191 Clear 9 1021 39 10000 1 150 02:27 04.02.2020
3192 Clear 10 1021 38 10000 1.5 150 01:46 04.02.2020
3193 Clear 10 1021 37 10000 1.5 150 01:19 04.02.2020
3194 Clear 9 1022 57 10000 3.22 114 00:23 04.02.2020
3195 Clear 10 1022 57 10000 3.22 114 23:49 03.02.2020
3196 Clear 10 1022 57 10000 3.22 114 23:30 03.02.2020
3197 Clear 10 1023 53 10000 2.49 108 22:58 03.02.2020
3198 Clear 10 1023 53 10000 2.49 108 22:38 03.02.2020
3199 Clear 10 1023 53 10000 2.49 108 22:19 03.02.2020
3200 Clear 12 1023 46 10000 1.5 100 21:42 03.02.2020
3201 Clear 13 1024 43 10000 2.1 80 21:20 03.02.2020
3202 Clear 13 1024 43 10000 2.1 80 21:20 03.02.2020
3203 Clear 13 1024 43 10000 2.1 80 20:56 03.02.2020
3204 Clear 13 1024 43 10000 2.1 80 20:38 03.02.2020
3205 Clear 13 1024 43 10000 2.1 80 20:18 03.02.2020
3206 Clear 13 1024 43 10000 2.1 70 19:41 03.02.2020
3207 Clear 13 1024 43 10000 2.1 70 19:22 03.02.2020
3208 Clear 15 1023 33 10000 2.1 70 18:57 03.02.2020
3209 Clear 15 1023 33 10000 2.1 70 18:39 03.02.2020
3210 Clear 15 1023 33 10000 2.1 70 18:21 03.02.2020
3211 Clear 16 1023 31 10000 2.1 70 17:57 03.02.2020
3212 Clear 16 1023 31 10000 2.1 70 17:57 03.02.2020
3213 Clear 16 1023 31 10000 2.1 70 17:38 03.02.2020
3214 Clear 16 1023 31 10000 2.1 70 17:19 03.02.2020
3215 Clear 17 1022 33 10000 1.5 60 16:40 03.02.2020
3216 Clear 17 1022 33 10000 1.5 60 16:21 03.02.2020
3217 Clear 18 1023 31 10000 1.5 80 15:56 03.02.2020
3218 Clear 18 1023 31 10000 1.5 80 15:38 03.02.2020
3219 Clear 18 1023 31 10000 1.5 80 15:19 03.02.2020
3220 Clear 18 1022 27 10000 2.6 60 14:56 03.02.2020
3221 Clear 18 1022 27 10000 2.6 60 14:37 03.02.2020
3222 Clouds 18 1022 27 10000 2.6 60 14:19 03.02.2020
3223 Clouds 19 1023 29 10000 1.5 80 13:41 03.02.2020
3224 Clear 19 1023 29 10000 1.5 80 13:21 03.02.2020
3225 Clear 20 1024 30 10000 1 360 12:57 03.02.2020
3226 Clear 20 1024 30 10000 1 360 12:38 03.02.2020
3227 Clear 20 1024 30 10000 1 360 12:20 03.02.2020
3228 Clear 17 1025 36 10000 2.1 50 11:40 03.02.2020
3229 Clouds 17 1025 36 10000 2.1 50 11:20 03.02.2020
3230 Clouds 17 1026 33 10000 1.5 30 10:58 03.02.2020
3231 Clouds 17 1026 33 10000 1.5 30 10:40 03.02.2020
3232 Clouds 17 1026 33 10000 1.5 30 10:40 03.02.2020
3233 Clouds 17 1026 33 10000 1.5 30 10:21 03.02.2020
3234 Clouds 14 1027 41 10000 2.6 80 09:42 03.02.2020
3235 Clouds 14 1027 41 10000 2.6 80 09:21 03.02.2020
3236 Clouds 13 1028 37 10000 2.1 30 08:42 03.02.2020
3237 Clouds 13 1028 37 10000 2.1 30 08:23 03.02.2020
3238 Clouds 12 1028 26 10000 2.6 360 07:58 03.02.2020
3239 Clouds 12 1028 26 10000 2.6 360 07:39 03.02.2020
3240 Clouds 12 1028 26 10000 2.6 360 07:20 03.02.2020
3241 Clouds 12 1028 26 10000 2.6 360 07:20 03.02.2020
3242 Clouds 9 1027 45 10000 1 280 06:47 03.02.2020
3243 Clouds 9 1027 45 10000 1 280 06:27 03.02.2020
3244 Clouds 8 1026 45 10000 2.1 360 05:36 03.02.2020
3245 Clear 8 1025 42 10000 2.1 360 04:56 03.02.2020
3246 Clear 8 1024 42 10000 1.5 330 02:58 03.02.2020
3247 Clear 8 1024 42 10000 1.5 330 02:34 03.02.2020
3248 Clouds 9 1024 42 10000 2.1 290 01:30 03.02.2020
3249 Clouds 9 1024 34 10000 2.1 310 00:46 03.02.2020
3250 Clouds 9 1024 34 10000 2.1 310 00:22 03.02.2020
3251 Clouds 11 1024 37 10000 1 320 23:38 02.02.2020
3252 Clouds 11 1025 40 10000 2.26 54 23:20 02.02.2020
3253 Clouds 11 1025 40 10000 2.26 54 22:57 02.02.2020
3254 Clouds 11 1025 40 10000 2.26 54 22:37 02.02.2020
3255 Clouds 11 1025 40 10000 2.26 54 22:37 02.02.2020
3256 Clouds 11 1025 40 10000 2.26 54 22:19 02.02.2020
3257 Clouds 10 1025 43 10000 2.26 54 21:42 02.02.2020
3258 Clouds 10 1025 43 10000 2.26 54 21:24 02.02.2020
3259 Clouds 12 1025 37 10000 2.26 54 20:58 02.02.2020
3260 Clouds 12 1025 37 10000 2.26 54 20:39 02.02.2020
3261 Clear 12 1025 37 10000 4.31 51 20:21 02.02.2020
3262 Clear 14 1025 33 10000 1.5 30 19:59 02.02.2020
3263 Clear 14 1025 33 10000 1.5 30 19:41 02.02.2020
3264 Clear 14 1025 33 10000 1.5 30 19:23 02.02.2020
3265 Clear 15 1024 30 10000 1.5 50 18:58 02.02.2020
3266 Clear 15 1024 30 10000 1.5 50 18:38 02.02.2020
3267 Clear 15 1024 30 10000 1.5 50 18:20 02.02.2020
3268 Clear 16 1024 29 10000 2.1 50 17:58 02.02.2020
3269 Clear 16 1024 29 10000 2.1 50 17:38 02.02.2020
3270 Clear 18 1023 25 10000 2.1 60 17:18 02.02.2020
3271 Clear 18 1023 25 10000 2.1 60 16:58 02.02.2020
3272 Clear 18 1023 25 10000 2.1 60 16:38 02.02.2020
3273 Clear 18 1023 25 10000 2.1 60 16:19 02.02.2020
3274 Clear 19 1022 19 10000 2.1 40 15:57 02.02.2020
3275 Clear 19 1022 19 10000 2.1 40 15:38 02.02.2020
3276 Clear 19 1022 20 10000 2.6 20 15:19 02.02.2020
3277 Clear 19 1022 19 10000 2.1 40 15:19 02.02.2020
3278 Clear 19 1022 20 10000 2.6 20 14:45 02.02.2020
3279 Clear 19 1022 20 10000 2.6 20 14:20 02.02.2020
3280 Clear 20 1022 19 10000 2.1 60 13:59 02.02.2020
3281 Clear 20 1022 19 10000 2.1 60 13:41 02.02.2020
3282 Clear 20 1022 19 10000 2.1 60 13:23 02.02.2020
3283 Clear 19 1022 24 10000 2.1 60 12:58 02.02.2020
3284 Clear 19 1022 24 10000 2.1 60 12:40 02.02.2020
3285 Clear 19 1022 24 10000 2.1 60 12:22 02.02.2020
3286 Clear 18 1022 25 10000 2.1 70 11:54 02.02.2020
3287 Clear 18 1022 25 10000 2.1 70 11:54 02.02.2020
3288 Clear 18 1022 25 10000 2.1 70 11:36 02.02.2020
3289 Clear 18 1022 25 10000 2.1 70 11:18 02.02.2020
3290 Clear 16 1023 23 10000 1 100 10:54 02.02.2020
3291 Clear 16 1023 23 10000 1 100 10:36 02.02.2020
3292 Clear 16 1023 23 10000 1 100 10:18 02.02.2020
3293 Clear 16 1024 31 10000 1.5 10 09:40 02.02.2020
3294 Clear 14 1025 35 10000 1 110 09:21 02.02.2020
3295 Clear 14 1025 35 10000 1 110 08:49 02.02.2020
3296 Clear 14 1025 35 10000 1 110 08:30 02.02.2020
3297 Clear 13 1025 35 10000 1 10 07:49 02.02.2020
3298 Clear 13 1025 35 10000 1 10 07:49 02.02.2020
3299 Clear 13 1025 35 10000 1 10 07:31 02.02.2020
3300 Clear 9 1024 45 10000 2.1 310 06:57 02.02.2020
3301 Clear 9 1024 45 10000 2.1 310 06:38 02.02.2020
3302 Clear 9 1024 45 10000 2.1 310 06:18 02.02.2020
3303 Clear 7 1023 52 10000 1.66 42 05:20 02.02.2020
3304 Clear 7 1023 48 10000 1.5 300 04:21 02.02.2020
3305 Clear 9 1021 42 10000 1.5 270 03:23 02.02.2020
3306 Clouds 9 1021 39 10000 3.1 310 02:20 02.02.2020
3307 Clouds 10 1021 37 10000 3.1 310 01:50 02.02.2020
3308 Clouds 10 1021 43 8000 1.5 310 00:51 02.02.2020
3309 Clouds 10 1021 43 8000 1.5 310 00:29 02.02.2020
3310 Clouds 11 1021 34 8000 3.1 350 23:58 01.02.2020
3311 Clouds 11 1021 34 8000 3.1 350 23:39 01.02.2020
3312 Clouds 11 1021 34 8000 3.1 350 23:21 01.02.2020
3313 Clouds 12 1021 34 8000 2.6 10 22:43 01.02.2020
3314 Clouds 12 1021 34 8000 2.6 10 22:19 01.02.2020
3315 Clouds 13 1022 37 8000 3.1 350 21:42 01.02.2020
3316 Clouds 13 1022 37 8000 3.1 350 21:19 01.02.2020
3317 Clouds 14 1021 43 7000 2.1 10 20:56 01.02.2020
3318 Clouds 14 1021 43 7000 2.1 10 20:37 01.02.2020
3319 Clear 14 1021 36 7000 2.1 10 20:18 01.02.2020
3320 Clear 15 1021 36 7000 3.6 360 19:55 01.02.2020
3321 Clear 15 1021 36 7000 3.6 360 19:37 01.02.2020
3322 Clear 15 1021 36 7000 3.6 360 19:18 01.02.2020
3323 Dust 16 1021 31 4000 4.6 10 18:55 01.02.2020
3324 Dust 16 1021 31 4000 4.6 10 18:36 01.02.2020
3325 Dust 16 1021 31 4000 4.6 10 18:18 01.02.2020
3326 Dust 16 1020 31 4000 5.7 20 17:54 01.02.2020
3327 Dust 16 1020 31 4000 5.7 20 17:36 01.02.2020
3328 Dust 16 1020 31 4000 5.7 20 17:18 01.02.2020
3329 Dust 18 1019 29 4000 5.7 20 16:39 01.02.2020
3330 Dust 18 1019 29 4000 5.7 20 16:21 01.02.2020
3331 Dust 19 1018 29 4000 5.7 20 15:47 01.02.2020
3332 Dust 19 1018 29 4000 5.7 20 15:29 01.02.2020
3333 Dust 20 1018 29 4000 6.2 10 14:58 01.02.2020
3334 Dust 20 1018 29 4000 6.2 10 14:39 01.02.2020
3335 Dust 20 1018 20 4000 6.2 10 14:20 01.02.2020
3336 Dust 20 1017 24 5000 7.2 20 13:45 01.02.2020
3337 Dust 20 1017 24 5000 7.2 20 13:22 01.02.2020
3338 Clouds 22 1017 19 6000 5.1 340 12:44 01.02.2020
3339 Clouds 22 1017 19 6000 5.1 340 12:26 01.02.2020
3340 Clouds 22 1018 21 6000 6.2 350 11:58 01.02.2020
3341 Clouds 22 1018 21 6000 6.2 350 11:38 01.02.2020
3342 Clouds 22 1018 21 6000 6.2 350 11:19 01.02.2020
3343 Clouds 22 1018 21 8000 6.2 340 10:56 01.02.2020
3344 Clouds 22 1018 21 8000 6.2 340 10:38 01.02.2020
3345 Clouds 22 1018 21 8000 6.2 340 10:20 01.02.2020
3346 Clouds 22 1019 18 8000 6.2 330 09:42 01.02.2020
3347 Clouds 22 1019 18 8000 6.2 330 09:23 01.02.2020
3348 Clouds 20 1019 18 8000 2.6 260 09:00 01.02.2020
3349 Clouds 20 1019 18 8000 2.6 260 08:38 01.02.2020
3350 Clouds 18 1018 25 7000 4.6 180 07:47 01.02.2020
3351 Clouds 18 1018 25 7000 4.6 180 07:25 01.02.2020
3352 Clouds 18 1018 25 7000 4.6 180 07:25 01.02.2020
3353 Clouds 18 1018 25 7000 4.6 180 07:25 01.02.2020
3354 Clouds 15 1018 38 10000 1.5 160 06:54 01.02.2020
3355 Clouds 15 1018 38 10000 1.5 160 06:31 01.02.2020
3356 Clouds 15 1017 33 10000 2.6 170 05:51 01.02.2020
3357 Clouds 16 1016 29 10000 3.6 170 03:43 01.02.2020
3358 Clouds 16 1016 29 10000 3.6 170 03:20 01.02.2020
3359 Clouds 16 1016 29 10000 3.6 170 02:43 01.02.2020
3360 Clouds 16 1016 29 10000 3.6 170 02:24 01.02.2020
3361 Clouds 15 1015 33 10000 2.6 150 01:49 01.02.2020
3362 Clouds 15 1015 33 10000 2.6 150 01:30 01.02.2020
3363 Clouds 14 1016 41 10000 2.1 150 00:27 01.02.2020
3364 Clouds 14 1017 33 10000 3.1 160 23:43 31.01.2020
3365 Clouds 16 1017 31 10000 2.1 140 23:19 31.01.2020
3366 Clouds 16 1017 31 10000 2.1 140 22:58 31.01.2020
3367 Clouds 16 1017 31 10000 2.1 140 22:40 31.01.2020
3368 Clouds 16 1017 31 10000 2.1 140 22:21 31.01.2020
3369 Clouds 17 1017 29 10000 3.1 160 21:55 31.01.2020
3370 Clouds 17 1017 29 10000 3.1 160 21:37 31.01.2020
3371 Clouds 17 1017 29 10000 3.1 160 21:19 31.01.2020
3372 Clouds 17 1017 28 10000 2.6 140 20:55 31.01.2020
3373 Clouds 17 1017 28 10000 2.6 140 20:37 31.01.2020
3374 Clouds 17 1018 36 10000 1.5 150 20:18 31.01.2020
3375 Clouds 17 1018 36 10000 1.5 150 19:55 31.01.2020
3376 Clouds 17 1018 36 10000 1.5 150 19:36 31.01.2020
3377 Clouds 17 1018 36 10000 1.5 150 19:18 31.01.2020
3378 Clouds 17 1018 36 10000 1.5 140 18:39 31.01.2020
3379 Clouds 17 1018 36 10000 1.5 140 18:20 31.01.2020
3380 Clouds 18 1017 34 10000 1.5 150 17:46 31.01.2020
3381 Clouds 18 1017 34 10000 1.5 150 17:46 31.01.2020
3382 Clouds 18 1017 34 10000 1.5 150 17:28 31.01.2020
3383 Clouds 20 1017 24 10000 2.6 140 16:58 31.01.2020
3384 Clouds 20 1017 24 10000 2.6 140 16:38 31.01.2020
3385 Clouds 20 1017 24 10000 2.6 140 16:19 31.01.2020
3386 Clouds 21 1017 26 10000 2.1 150 15:58 31.01.2020
3387 Clouds 21 1017 26 10000 2.1 150 15:40 31.01.2020
3388 Clouds 21 1017 26 10000 2.1 150 15:20 31.01.2020
3389 Clouds 22 1017 24 10000 2.1 160 14:44 31.01.2020
3390 Clouds 22 1017 24 10000 2.1 160 14:24 31.01.2020
3391 Clear 22 1017 28 10000 2.1 180 13:56 31.01.2020
3392 Clear 22 1017 28 10000 2.1 180 13:37 31.01.2020
3393 Clear 22 1017 28 10000 2.1 180 13:18 31.01.2020
3394 Clear 22 1018 24 10000 2.6 190 12:43 31.01.2020
3395 Clear 22 1018 24 10000 2.6 190 12:23 31.01.2020
3396 Clear 21 1019 26 10000 2.6 160 11:55 31.01.2020
3397 Clear 21 1019 26 10000 2.6 160 11:37 31.01.2020
3398 Clear 21 1019 26 10000 2.6 160 11:18 31.01.2020
3399 Clear 19 1020 34 10000 1.5 150 10:43 31.01.2020
3400 Clear 19 1020 34 10000 1.5 150 10:22 31.01.2020
3401 Clear 18 1022 34 10000 1.5 140 09:57 31.01.2020
3402 Clear 18 1022 34 10000 1.5 140 09:39 31.01.2020
3403 Clear 16 1023 38 10000 1.5 140 09:19 31.01.2020
3404 Clear 16 1023 38 10000 1.5 140 08:52 31.01.2020
3405 Clear 16 1023 38 10000 1.5 140 08:27 31.01.2020
3406 Clear 14 1023 44 10000 2.18 101 07:53 31.01.2020
3407 Clear 14 1023 44 10000 2.18 101 07:25 31.01.2020
3408 Clear 10 1022 53 10000 2.18 101 06:49 31.01.2020
3409 Clear 10 1022 53 10000 2.18 101 06:19 31.01.2020
3410 Clear 6 1021 28 10000 2.18 101 05:48 31.01.2020
3411 Clear 7 1021 65 10000 1.03 91 04:56 31.01.2020
3412 Clear 8 1021 39 10000 1 290 02:58 31.01.2020
3413 Clear 9 1021 36 10000 1.2 56 01:39 31.01.2020
3414 Clear 9 1021 49 10000 1 290 00:46 31.01.2020
3415 Clear 9 1021 49 10000 1 290 00:27 31.01.2020
3416 Clear 10 1022 36 10000 1.5 300 23:57 30.01.2020
3417 Clear 10 1022 36 10000 1.5 300 23:26 30.01.2020
3418 Clear 11 1022 32 10000 1 280 22:57 30.01.2020
3419 Clear 11 1022 32 10000 1 280 22:57 30.01.2020
3420 Clear 11 1022 32 10000 1 280 22:37 30.01.2020
3421 Clear 11 1022 32 10000 1 280 22:37 30.01.2020
3422 Clear 11 1022 32 10000 1 280 22:18 30.01.2020
3423 Clear 12 1022 46 10000 1.63 26 21:55 30.01.2020
3424 Clear 12 1022 46 10000 1.63 26 21:37 30.01.2020
3425 Clear 12 1022 46 10000 1.63 26 21:18 30.01.2020
3426 Clear 12 1022 32 10000 1 350 21:18 30.01.2020
3427 Clear 12 1022 32 10000 1 350 20:40 30.01.2020
3428 Clouds 12 1022 26 10000 1 350 20:22 30.01.2020
3429 Clouds 12 1022 27 10000 1 350 20:22 30.01.2020
3430 Clouds 14 1022 35 10000 2.6 350 19:56 30.01.2020
3431 Clouds 14 1022 35 10000 2.6 350 19:38 30.01.2020
3432 Clouds 14 1022 35 10000 2.6 350 19:18 30.01.2020
3433 Clouds 15 1022 26 10000 2.1 360 18:41 30.01.2020
3434 Clouds 15 1022 26 10000 2.1 360 18:21 30.01.2020
3435 Clouds 16 1022 38 10000 1.5 10 17:57 30.01.2020
3436 Clouds 16 1022 38 10000 1.5 10 17:37 30.01.2020
3437 Clouds 16 1022 38 10000 1.5 10 17:19 30.01.2020
3438 Clouds 18 1021 27 10000 3.1 350 16:56 30.01.2020
3439 Clouds 18 1021 27 10000 3.1 350 16:38 30.01.2020
3440 Clouds 18 1021 27 10000 3.1 350 16:19 30.01.2020
3441 Clouds 20 1021 24 10000 3.6 340 15:43 30.01.2020
3442 Clouds 22 1021 25 10000 3.6 330 15:19 30.01.2020
3443 Clouds 22 1021 25 10000 3.6 330 14:50 30.01.2020
3444 Clouds 22 1021 25 10000 3.6 330 14:27 30.01.2020
3445 Clouds 22 1021 25 10000 3.6 330 14:27 30.01.2020
3446 Clouds 20 1021 24 10000 3.6 290 13:56 30.01.2020
3447 Clouds 20 1021 24 10000 3.6 290 13:36 30.01.2020
3448 Clouds 20 1021 24 10000 3.6 290 13:18 30.01.2020
3449 Clouds 20 1021 24 10000 4.1 320 12:42 30.01.2020
3450 Clouds 20 1021 24 10000 4.1 320 12:24 30.01.2020
3451 Clouds 20 1022 28 10000 3.6 330 11:57 30.01.2020
3452 Clouds 20 1022 28 10000 3.6 330 11:39 30.01.2020
3453 Clouds 20 1022 28 10000 3.6 330 11:21 30.01.2020
3454 Clouds 19 1023 29 10000 4.1 350 10:42 30.01.2020
3455 Clouds 19 1023 29 10000 4.1 350 10:24 30.01.2020
3456 Clouds 17 1024 33 10000 5.7 340 09:49 30.01.2020
3457 Clouds 17 1024 33 10000 5.7 340 09:30 30.01.2020
3458 Clouds 16 1025 23 10000 4.6 340 08:59 30.01.2020
3459 Clouds 16 1025 23 10000 4.6 340 08:41 30.01.2020
3460 Clouds 16 1025 33 10000 4.6 340 08:20 30.01.2020
3461 Clouds 14 1025 35 9000 3.6 320 07:49 30.01.2020
3462 Clouds 14 1025 35 9000 3.6 320 07:28 30.01.2020
3463 Clouds 11 1024 43 6000 3.1 290 06:47 30.01.2020
3464 Clouds 11 1024 43 6000 3.1 290 06:28 30.01.2020
3465 Clouds 9 1023 45 6000 3.1 290 05:44 30.01.2020
3466 Clouds 9 1023 45 6000 3.1 290 05:20 30.01.2020
3467 Clouds 10 1022 35 6000 1.5 290 03:54 30.01.2020
3468 Dust 10 1022 43 3000 2.1 300 03:36 30.01.2020
3469 Dust 10 1021 46 3000 1.5 290 02:22 30.01.2020
3470 Dust 13 1021 32 3000 3.1 310 00:42 30.01.2020
3471 Dust 13 1021 32 3000 3.1 310 00:20 30.01.2020
3472 Dust 14 1021 30 3000 2.6 330 23:46 29.01.2020
3473 Dust 14 1021 30 3000 2.6 330 23:21 29.01.2020
3474 Dust 14 1021 33 3000 2.1 340 22:57 29.01.2020
3475 Dust 14 1021 33 3000 2.1 340 22:38 29.01.2020
3476 Dust 14 1021 33 3000 2.1 340 22:19 29.01.2020
3477 Dust 15 1021 28 3000 3.1 20 21:58 29.01.2020
3478 Dust 15 1021 28 3000 3.1 20 21:38 29.01.2020
3479 Dust 15 1021 28 3000 3.1 20 21:19 29.01.2020
3480 Dust 16 1021 26 3000 3.6 30 20:57 29.01.2020
3481 Dust 16 1020 29 5000 4.1 340 20:38 29.01.2020
3482 Dust 16 1020 29 5000 4.1 340 20:38 29.01.2020
3483 Dust 16 1020 29 5000 4.1 340 20:19 29.01.2020
3484 Clouds 16 1019 41 8000 1.99 267 19:55 29.01.2020
3485 Clouds 16 1019 41 8000 1.99 267 19:37 29.01.2020
3486 Clouds 16 1019 41 8000 1.99 267 19:37 29.01.2020
3487 Clouds 16 1019 44 7000 1.99 267 19:18 29.01.2020
3488 Clouds 16 1019 44 7000 1.99 267 18:43 29.01.2020
3489 Clouds 19 1018 32 7000 1 250 18:19 29.01.2020
3490 Clouds 19 1018 32 7000 1 250 17:56 29.01.2020
3491 Clouds 19 1018 32 7000 1 250 17:37 29.01.2020
3492 Clouds 19 1018 32 7000 1 250 17:19 29.01.2020
3493 Clouds 22 1017 28 6000 1 260 16:41 29.01.2020
3494 Clouds 22 1017 28 6000 1 260 16:22 29.01.2020
3495 Clouds 23 1017 23 6000 2.1 240 15:41 29.01.2020
3496 Clouds 23 1017 23 6000 2.1 240 15:22 29.01.2020
3497 Clouds 24 1016 19 7000 2.6 230 14:59 29.01.2020
3498 Clouds 24 1016 19 7000 2.6 230 14:40 29.01.2020
3499 Clouds 24 1016 15 7000 2.6 230 14:19 29.01.2020
3500 Clouds 22 1016 19 8000 3.1 240 13:41 29.01.2020
3501 Clouds 22 1016 19 8000 3.1 240 13:22 29.01.2020
3502 Clouds 22 1016 18 10000 4.6 220 12:58 29.01.2020
3503 Clouds 22 1016 18 10000 4.6 220 12:39 29.01.2020
3504 Clouds 22 1016 18 10000 4.6 220 12:21 29.01.2020
3505 Clouds 21 1017 16 10000 5.7 200 11:56 29.01.2020
3506 Clouds 21 1017 16 10000 5.7 200 11:38 29.01.2020
3507 Clouds 21 1017 16 10000 5.7 200 11:38 29.01.2020
3508 Clouds 21 1017 16 10000 5.7 200 11:19 29.01.2020
3509 Clouds 19 1019 22 10000 4.1 180 10:46 29.01.2020
3510 Clouds 17 1019 21 10000 4.1 190 10:22 29.01.2020
3511 Clouds 17 1019 21 10000 4.1 190 09:40 29.01.2020
3512 Clouds 17 1019 21 10000 4.1 190 09:40 29.01.2020
3513 Clouds 17 1019 21 10000 4.1 190 09:22 29.01.2020
3514 Clouds 15 1020 26 10000 3.6 170 08:59 29.01.2020
3515 Clouds 15 1020 26 10000 3.6 170 08:40 29.01.2020
3516 Clouds 15 1020 26 10000 3.6 170 08:22 29.01.2020
3517 Clouds 13 1021 18 10000 2.1 160 07:45 29.01.2020
3518 Clouds 13 1021 18 10000 2.1 160 07:25 29.01.2020
3519 Clouds 7 1020 52 10000 1.5 150 06:55 29.01.2020
3520 Clouds 7 1020 52 10000 1.5 150 06:55 29.01.2020
3521 Clouds 7 1020 52 10000 1.5 150 06:37 29.01.2020
3522 Clouds 7 1020 52 10000 1.5 150 06:18 29.01.2020
3523 Clouds 5 1021 60 10000 1.83 213 05:46 29.01.2020
3524 Clouds 5 1021 60 10000 1.94 173 05:27 29.01.2020
3525 Clouds 6 1020 56 10000 1.94 173 04:38 29.01.2020
3526 Clouds 8 1019 49 10000 1.5 150 03:50 29.01.2020
3527 Clouds 8 1020 49 10000 1 130 02:33 29.01.2020
3528 Clear 11 1020 43 10000 1.5 170 00:44 29.01.2020
3529 Clear 11 1020 43 10000 1.5 170 00:25 29.01.2020
3530 Clear 10 1020 43 10000 1 160 23:58 28.01.2020
3531 Clear 10 1020 43 10000 1 160 23:37 28.01.2020
3532 Clear 10 1020 43 10000 1 160 23:18 28.01.2020
3533 Clear 10 1020 43 10000 1.5 160 22:41 28.01.2020
3534 Clear 10 1020 43 10000 1.5 160 22:21 28.01.2020
3535 Clear 10 1021 46 10000 1 150 21:54 28.01.2020
3536 Clear 10 1021 46 10000 1 150 21:36 28.01.2020
3537 Clear 11 1021 40 10000 2.1 150 21:18 28.01.2020
3538 Clear 11 1021 40 10000 2.1 150 20:42 28.01.2020
3539 Clear 11 1021 40 10000 2.1 150 20:23 28.01.2020
3540 Clear 12 1022 40 10000 1.5 150 19:39 28.01.2020
3541 Clear 12 1022 40 10000 1.5 150 19:39 28.01.2020
3542 Clear 12 1022 40 10000 1.5 150 19:21 28.01.2020
3543 Clear 13 1022 37 10000 1.5 130 18:59 28.01.2020
3544 Clear 13 1022 37 10000 1.5 130 18:40 28.01.2020
3545 Clear 13 1022 37 10000 1.5 130 18:22 28.01.2020
3546 Clear 15 1021 22 10000 1.5 150 17:59 28.01.2020
3547 Clear 15 1021 22 10000 1.5 150 17:38 28.01.2020
3548 Clear 15 1021 22 10000 1.5 150 17:38 28.01.2020
3549 Clear 15 1021 20 10000 1.5 150 17:19 28.01.2020
3550 Clear 16 1021 20 10000 2.1 140 16:55 28.01.2020
3551 Clear 16 1021 20 10000 2.1 140 16:37 28.01.2020
3552 Clear 16 1021 20 10000 2.1 140 16:19 28.01.2020
3553 Clear 18 1021 31 10000 3.29 111 15:44 28.01.2020
3554 Clear 19 1021 29 10000 1.5 140 15:19 28.01.2020
3555 Clear 19 1021 29 10000 1.5 140 14:55 28.01.2020
3556 Clear 19 1021 29 10000 1.5 140 14:36 28.01.2020
3557 Clear 19 1021 29 10000 1.5 140 14:18 28.01.2020
3558 Clear 19 1021 29 10000 1.5 160 13:39 28.01.2020
3559 Clear 19 1021 29 10000 1.5 160 13:21 28.01.2020
3560 Clear 19 1022 29 10000 1 30 12:42 28.01.2020
3561 Clear 19 1022 29 10000 1 30 12:23 28.01.2020
3562 Clear 19 1022 29 10000 1 30 12:23 28.01.2020
3563 Clear 17 1023 14 10000 1 230 11:48 28.01.2020
3564 Clear 17 1024 33 10000 1 210 11:23 28.01.2020
3565 Clear 17 1024 33 10000 1 210 10:59 28.01.2020
3566 Clear 17 1024 33 10000 1 210 10:40 28.01.2020
3567 Clear 17 1024 33 10000 1 210 10:21 28.01.2020
3568 Clear 16 1026 38 10000 1 160 09:55 28.01.2020
3569 Clear 16 1026 38 10000 1 160 09:55 28.01.2020
3570 Clear 16 1026 38 10000 1 160 09:36 28.01.2020
3571 Clear 16 1026 38 10000 1 160 09:18 28.01.2020
3572 Clear 14 1026 44 10000 1.22 195 08:39 28.01.2020
3573 Clear 14 1026 44 10000 1.29 93 08:19 28.01.2020
3574 Clear 14 1026 44 10000 1.29 93 08:19 28.01.2020
3575 Clear 11 1026 50 10000 1.29 93 07:37 28.01.2020
3576 Clear 6 1025 60 10000 1.29 93 06:50 28.01.2020
3577 Clear 6 1025 60 10000 1.29 93 06:28 28.01.2020
3578 Clear 3 1024 69 10000 1.29 93 05:55 28.01.2020
3579 Clear 3 1024 69 10000 1.29 93 05:26 28.01.2020
3580 Clear 3 1024 69 10000 1.29 93 05:26 28.01.2020
3581 Clear 4 1024 69 10000 0.49 56 04:30 28.01.2020
3582 Clear 4 1024 69 10000 0.49 56 02:58 28.01.2020
3583 Clear 4 1024 69 10000 0.4 357 02:25 28.01.2020
3584 Clear 5 1024 65 10000 0.4 357 01:57 28.01.2020
3585 Clear 5 1024 65 10000 0.68 334 01:26 28.01.2020
3586 Clear 6 1024 56 10000 1 290 00:51 28.01.2020
3587 Clear 6 1024 56 10000 1 290 00:29 28.01.2020
3588 Clear 7 1025 56 10000 1 290 23:51 27.01.2020
3589 Clear 7 1025 56 10000 1 290 23:30 27.01.2020
3590 Clear 9 1025 49 10000 1.5 280 22:56 27.01.2020
3591 Clear 9 1025 49 10000 1.5 280 22:38 27.01.2020
3592 Clear 9 1025 49 10000 1.5 280 22:19 27.01.2020
3593 Clear 8 1025 37 10000 1.48 23 21:54 27.01.2020
3594 Clear 8 1025 37 10000 1.48 23 21:36 27.01.2020
3595 Clear 8 1025 37 10000 1.48 23 21:18 27.01.2020
3596 Clear 9 1025 37 10000 1.48 23 20:43 27.01.2020
3597 Clear 9 1025 30 10000 2.12 10 20:22 27.01.2020
3598 Clear 11 1025 30 10000 1.5 20 19:59 27.01.2020
3599 Clear 11 1025 30 10000 1.5 20 19:40 27.01.2020
3600 Clear 11 1025 30 10000 1.5 20 19:22 27.01.2020
3601 Clear 12 1025 37 10000 2.1 350 18:56 27.01.2020
3602 Clear 12 1025 37 10000 2.1 350 18:37 27.01.2020
3603 Clear 12 1025 37 10000 2.1 350 18:37 27.01.2020
3604 Clear 12 1025 37 10000 2.1 350 18:19 27.01.2020
3605 Clear 11 1025 30 0 2.12 10 17:39 27.01.2020
3606 Clear 11 1025 30 0 2.12 10 17:39 27.01.2020
3607 Clear 14 1025 33 10000 3.6 360 17:20 27.01.2020
3608 Clear 14 1025 33 10000 3.6 360 16:58 27.01.2020
3609 Clear 14 1025 33 10000 3.6 360 16:58 27.01.2020
3610 Clear 14 1025 33 10000 3.6 360 16:40 27.01.2020
3611 Clear 14 1025 33 10000 3.6 360 16:22 27.01.2020
3612 Clear 16 1025 26 10000 3.1 330 15:55 27.01.2020
3613 Clear 16 1025 26 10000 3.1 330 15:36 27.01.2020
3614 Clear 16 1025 26 10000 3.1 330 15:18 27.01.2020
3615 Clear 17 1024 29 10000 2.6 330 14:41 27.01.2020
3616 Clear 17 1024 29 10000 2.6 330 14:22 27.01.2020
3617 Clear 18 1025 25 10000 3.6 340 13:55 27.01.2020
3618 Clear 18 1025 25 10000 3.6 340 13:37 27.01.2020
3619 Clear 18 1025 25 10000 3.6 340 13:18 27.01.2020
3620 Clear 17 1025 27 10000 3.6 330 12:43 27.01.2020
3621 Clear 17 1025 27 10000 3.6 330 12:23 27.01.2020
3622 Clear 16 1026 31 10000 3.6 340 11:55 27.01.2020
3623 Clear 16 1026 31 10000 3.6 340 11:36 27.01.2020
3624 Clear 16 1026 31 10000 3.6 340 11:18 27.01.2020
3625 Clear 15 1027 33 10000 4.1 330 10:42 27.01.2020
3626 Clear 15 1027 33 10000 4.1 330 10:23 27.01.2020
3627 Clear 14 1028 27 10000 4.6 320 09:40 27.01.2020
3628 Clear 14 1028 27 10000 4.6 320 09:19 27.01.2020
3629 Clear 11 1029 50 10000 3.1 310 08:58 27.01.2020
3630 Clear 11 1029 50 10000 3.1 310 08:40 27.01.2020
3631 Clear 11 1029 50 10000 3.1 310 08:19 27.01.2020
3632 Clear 9 1029 45 10000 4.1 300 07:50 27.01.2020
3633 Clear 9 1029 45 10000 4.1 300 07:32 27.01.2020
3634 Clear 6 1028 45 10000 2.6 280 06:39 27.01.2020
3635 Clear 4 1028 69 10000 3.1 290 05:51 27.01.2020
3636 Clear 4 1028 69 10000 3.1 290 05:18 27.01.2020
3637 Clear 5 1027 65 10000 3.1 290 03:36 27.01.2020
3638 Clear 5 1027 65 10000 2.6 290 01:57 27.01.2020
3639 Clear 5 1027 65 10000 2.6 290 01:28 27.01.2020
3640 Clear 6 1027 58 10000 2.1 300 00:42 27.01.2020
3641 Clear 6 1027 58 10000 2.1 300 00:22 27.01.2020
3642 Clear 6 1027 58 10000 1.5 300 23:46 26.01.2020
3643 Clear 6 1027 58 10000 1.5 300 23:27 26.01.2020
3644 Clear 7 1028 57 10000 2.1 300 22:59 26.01.2020
3645 Clear 7 1028 57 10000 2.1 300 22:39 26.01.2020
3646 Clear 7 1028 57 10000 2.1 300 22:20 26.01.2020
3647 Clear 8 1028 61 10000 2.1 310 21:58 26.01.2020
3648 Clear 8 1028 61 10000 2.1 310 21:39 26.01.2020
3649 Clear 8 1028 61 10000 2.1 310 21:21 26.01.2020
3650 Clear 8 1028 61 10000 2.1 310 21:21 26.01.2020
3651 Clear 9 1028 57 10000 2.6 330 20:58 26.01.2020
3652 Clear 9 1028 57 10000 2.6 330 20:38 26.01.2020
3653 Clear 9 1028 57 10000 2.6 330 20:19 26.01.2020
3654 Clear 10 1028 50 10000 3.6 360 19:58 26.01.2020
3655 Clear 10 1028 50 10000 3.6 360 19:38 26.01.2020
3656 Clear 10 1028 50 10000 3.6 360 19:20 26.01.2020
3657 Clear 11 1027 50 10000 4.1 10 18:56 26.01.2020
3658 Clear 11 1027 50 10000 4.1 10 18:38 26.01.2020
3659 Clear 11 1027 50 10000 3.6 360 18:20 26.01.2020
3660 Clear 11 1027 50 10000 3.6 360 17:55 26.01.2020
3661 Clear 11 1027 50 10000 3.6 360 17:36 26.01.2020
3662 Clear 13 1026 37 10000 5.1 360 17:18 26.01.2020
3663 Clear 13 1026 37 10000 5.1 360 16:56 26.01.2020
3664 Clear 13 1026 37 10000 5.1 360 16:56 26.01.2020
3665 Clear 13 1026 37 10000 5.1 360 16:37 26.01.2020
3666 Clear 13 1026 37 10000 5.1 360 16:18 26.01.2020
3667 Clear 11 1025 41 0 5.39 356 15:43 26.01.2020
3668 Clear 11 1025 41 0 5.39 356 15:21 26.01.2020
3669 Clear 11 1025 41 0 5.39 356 14:56 26.01.2020
3670 Clear 11 1025 41 0 5.39 356 14:38 26.01.2020
3671 Clear 14 1024 23 0 6.62 339 14:18 26.01.2020
3672 Clear 14 1024 23 0 6.62 339 13:39 26.01.2020
3673 Clear 14 1024 23 0 6.59 340 13:18 26.01.2020
3674 Clear 14 1024 23 0 6.59 340 12:54 26.01.2020
3675 Clear 14 1024 23 0 6.59 340 12:36 26.01.2020
3676 Clear 14 1024 23 0 6.59 340 12:18 26.01.2020
3677 Clear 14 1024 23 0 6.59 340 11:56 26.01.2020
3678 Clear 14 1024 23 0 6.59 340 11:36 26.01.2020
3679 Clear 12 1028 37 9000 7.2 340 11:18 26.01.2020
3680 Clear 12 1028 37 9000 7.2 340 10:39 26.01.2020
3681 Clear 12 1028 37 9000 7.2 340 10:21 26.01.2020
3682 Clear 10 1029 46 8000 7.7 330 09:59 26.01.2020
3683 Clear 10 1029 46 8000 7.7 330 09:41 26.01.2020
3684 Clear 10 1029 46 8000 7.7 330 09:22 26.01.2020
3685 Dust 9 1029 49 5000 8.2 330 08:55 26.01.2020
3686 Dust 9 1029 49 5000 8.2 330 08:37 26.01.2020
3687 Dust 9 1029 49 5000 8.2 330 08:18 26.01.2020
3688 Dust 7 1028 56 4000 7.2 320 07:45 26.01.2020
3689 Dust 7 1028 56 4000 7.2 320 07:45 26.01.2020
3690 Dust 7 1028 56 4000 7.2 320 07:22 26.01.2020
3691 Dust 5 1028 65 4000 7.7 320 06:32 26.01.2020
3692 Dust 5 1027 65 4000 8.2 320 05:52 26.01.2020
3693 Dust 5 1027 65 4000 8.2 320 05:22 26.01.2020
3694 Clear 6 1025 60 6000 7.2 320 03:22 26.01.2020
3695 Clear 7 1025 39 7000 5.7 310 01:59 26.01.2020
3696 Clear 7 1025 39 7000 5.7 310 01:39 26.01.2020
3697 Clear 7 1025 39 7000 5.7 310 01:19 26.01.2020
3698 Clear 8 1025 33 7000 4.6 300 00:39 26.01.2020
3699 Clear 8 1025 33 7000 4.6 300 00:20 26.01.2020
3700 Clear 6 1026 33 0 6.44 311 23:38 25.01.2020
3701 Clear 8 1025 26 0 6.24 325 23:20 25.01.2020
3702 Clear 8 1025 26 0 6.24 325 22:43 25.01.2020
3703 Clear 8 1025 26 0 6.24 325 22:20 25.01.2020
3704 Clear 8 1025 26 0 6.24 325 22:20 25.01.2020
3705 Clear 8 1025 26 0 6.24 325 21:59 25.01.2020
3706 Clear 8 1025 26 0 6.24 325 21:41 25.01.2020
3707 Clear 8 1025 26 0 6.24 325 21:22 25.01.2020
3708 Clear 8 1025 26 0 6.24 325 20:54 25.01.2020
3709 Clear 8 1025 26 0 6.24 325 20:36 25.01.2020
3710 Clear 11 1024 32 0 5.74 326 20:18 25.01.2020
3711 Clear 11 1024 35 0 5.67 325 19:41 25.01.2020
3712 Clear 11 1024 35 0 5.67 325 19:19 25.01.2020
3713 Clear 11 1024 32 0 5.74 326 18:56 25.01.2020
3714 Clear 11 1024 32 0 5.74 326 18:37 25.01.2020
3715 Clear 11 1024 32 0 5.74 326 18:19 25.01.2020
3716 Clear 11 1024 35 0 5.67 325 17:39 25.01.2020
3717 Clear 14 1021 31 0 6.09 309 17:19 25.01.2020
3718 Clear 13 1022 34 0 5.74 312 16:56 25.01.2020
3719 Clear 14 1021 31 0 6.09 309 16:38 25.01.2020
3720 Clear 14 1021 31 0 6.09 309 16:19 25.01.2020
3721 Clear 14 1021 31 0 6.09 309 15:42 25.01.2020
3722 Clear 14 1021 31 0 6.09 309 15:24 25.01.2020
3723 Clear 14 1021 31 0 6.09 309 14:47 25.01.2020
3724 Clear 16 1019 26 0 6.53 293 14:20 25.01.2020
3725 Clear 16 1019 26 0 6.53 293 13:58 25.01.2020
3726 Clear 16 1019 26 0 6.53 293 13:39 25.01.2020
3727 Clear 16 1019 26 0 6.93 296 13:20 25.01.2020
3728 Clear 16 1019 26 0 6.93 296 12:43 25.01.2020
3729 Clear 16 1022 29 6000 6.7 320 12:21 25.01.2020
3730 Clear 16 1022 29 6000 6.7 320 11:45 25.01.2020
3731 Clear 16 1022 29 6000 6.7 320 11:21 25.01.2020
3732 Dust 14 1023 33 5000 5.7 350 10:57 25.01.2020
3733 Dust 14 1023 33 5000 5.7 350 10:39 25.01.2020
3734 Dust 14 1023 33 5000 5.7 350 10:20 25.01.2020
3735 Dust 14 1023 33 5000 5.7 350 10:20 25.01.2020
3736 Dust 14 1023 35 5000 5.7 330 09:41 25.01.2020
3737 Dust 14 1023 35 5000 5.7 330 09:22 25.01.2020
3738 Clear 12 1024 40 6000 5.1 330 08:44 25.01.2020
3739 Clear 12 1024 40 6000 5.1 330 08:21 25.01.2020
3740 Clear 11 1023 40 6000 5.1 340 07:43 25.01.2020
3741 Clear 10 1022 39 7000 4.1 320 06:51 25.01.2020
3742 Clear 10 1022 39 7000 4.1 320 06:27 25.01.2020
3743 Clear 8 1021 38 10000 6.73 265 05:45 25.01.2020
3744 Clear 10 1020 43 10000 2.1 210 04:26 25.01.2020
3745 Clear 10 1019 43 10000 2.1 180 03:50 25.01.2020
3746 Clear 10 1019 46 10000 1.5 150 02:53 25.01.2020
3747 Clear 10 1019 43 10000 2.6 160 01:59 25.01.2020
3748 Clear 10 1019 43 10000 2.6 160 01:59 25.01.2020
3749 Clear 10 1019 43 10000 2.6 160 01:37 25.01.2020
3750 Clear 10 1019 43 10000 2.6 160 01:37 25.01.2020
3751 Clear 11 1019 40 10000 2.1 160 00:42 25.01.2020
3752 Clear 11 1019 40 10000 2.1 160 00:23 25.01.2020
3753 Clear 11 1020 40 10000 2.6 170 23:57 24.01.2020
3754 Clear 11 1020 40 10000 2.6 170 23:38 24.01.2020
3755 Clear 11 1020 40 10000 2.6 170 23:38 24.01.2020
3756 Clear 11 1020 40 10000 2.6 170 23:38 24.01.2020
3757 Clear 11 1020 40 10000 2.6 170 23:19 24.01.2020
3758 Clear 12 1020 34 10000 4.1 170 22:42 24.01.2020
3759 Clear 12 1020 34 10000 4.1 170 22:23 24.01.2020
3760 Clear 12 1020 34 10000 2.1 160 21:41 24.01.2020
3761 Clear 12 1020 34 10000 2.1 160 21:20 24.01.2020
3762 Clear 12 1020 34 10000 2.1 160 21:20 24.01.2020
3763 Clear 12 1020 34 10000 1 150 20:55 24.01.2020
3764 Clear 12 1020 34 10000 1 150 20:37 24.01.2020
3765 Clear 12 1020 29 10000 1 150 20:18 24.01.2020
3766 Clear 13 1020 35 10000 2.6 150 19:55 24.01.2020
3767 Clear 13 1020 35 10000 2.6 150 19:37 24.01.2020
3768 Clear 13 1020 35 10000 2.6 150 19:19 24.01.2020
3769 Clear 14 1020 33 10000 2.6 160 19:19 24.01.2020
3770 Clear 14 1020 33 10000 2.6 160 18:42 24.01.2020
3771 Clear 14 1020 33 10000 2.6 160 18:42 24.01.2020
3772 Clear 14 1020 33 10000 2.6 160 18:22 24.01.2020
3773 Clear 14 1019 29 10000 1.5 130 17:45 24.01.2020
3774 Clear 14 1019 26 10000 1.5 130 17:22 24.01.2020
3775 Clear 16 1019 26 10000 1.5 130 16:57 24.01.2020
3776 Clear 16 1019 26 10000 1.5 130 16:38 24.01.2020
3777 Clear 16 1019 26 10000 1.5 130 16:19 24.01.2020
3778 Clear 17 1018 26 10000 1.5 130 15:42 24.01.2020
3779 Clear 17 1018 26 10000 1.5 130 15:21 24.01.2020
3780 Clear 17 1018 33 10000 1.5 190 14:43 24.01.2020
3781 Clear 17 1018 33 10000 1.5 190 14:24 24.01.2020
3782 Clear 17 1019 21 10000 1.5 230 13:59 24.01.2020
3783 Clear 17 1019 21 10000 1.5 230 13:40 24.01.2020
3784 Clear 17 1019 21 10000 1.5 230 13:21 24.01.2020
3785 Clear 17 1020 21 10000 2.1 230 12:42 24.01.2020
3786 Clear 17 1020 21 10000 2.1 230 12:20 24.01.2020
3787 Clear 17 1021 21 10000 1.5 330 11:44 24.01.2020
3788 Clear 17 1021 22 10000 1.5 330 11:19 24.01.2020
3789 Clear 15 1022 22 10000 1.5 110 10:56 24.01.2020
3790 Clear 15 1022 22 10000 1.5 110 10:38 24.01.2020
3791 Clear 15 1022 22 10000 1.5 110 10:18 24.01.2020
3792 Clear 14 1023 44 10000 1 70 09:41 24.01.2020
3793 Clear 14 1023 44 10000 1 70 09:23 24.01.2020
3794 Clear 15 1024 38 10000 1.5 350 08:41 24.01.2020
3795 Clear 11 1024 50 10000 1.38 93 08:21 24.01.2020
3796 Clear 11 1024 50 10000 1.38 93 07:58 24.01.2020
3797 Clear 11 1024 50 10000 1.38 93 07:37 24.01.2020
3798 Clear 7 1023 56 10000 1 290 06:53 24.01.2020
3799 Clear 7 1023 56 10000 1 290 06:33 24.01.2020
3800 Clear 4 1022 69 10000 1.38 93 05:59 24.01.2020
3801 Clear 4 1022 69 10000 1.3 13 05:18 24.01.2020
3802 Clear 6 1021 56 10000 2.6 290 02:54 24.01.2020
3803 Clear 6 1021 56 10000 2.6 290 02:26 24.01.2020
3804 Clear 7 1022 52 10000 3.1 290 01:49 24.01.2020
3805 Clear 7 1022 52 10000 3.1 290 01:31 24.01.2020
3806 Clear 7 1022 52 10000 4.1 300 00:26 24.01.2020
3807 Clear 6 1022 40 10000 3.13 4 23:51 23.01.2020
3808 Clear 6 1022 40 10000 3.13 4 23:31 23.01.2020
3809 Clear 8 1023 40 10000 1 40 22:59 23.01.2020
3810 Clear 8 1023 40 10000 1 40 22:38 23.01.2020
3811 Clear 8 1023 40 10000 1 40 22:19 23.01.2020
3812 Clear 9 1023 45 10000 3.1 350 21:58 23.01.2020
3813 Clear 9 1023 45 10000 3.1 350 21:39 23.01.2020
3814 Clear 9 1023 45 10000 3.1 350 21:20 23.01.2020
3815 Clear 10 1023 43 10000 3.1 350 20:59 23.01.2020
3816 Clear 10 1023 43 10000 3.1 350 20:39 23.01.2020
3817 Clear 10 1023 43 10000 3.1 350 20:20 23.01.2020
3818 Clear 11 1023 40 10000 3.1 350 19:56 23.01.2020
3819 Clear 11 1023 40 10000 3.1 350 19:38 23.01.2020
3820 Clear 11 1023 40 10000 3.1 350 19:19 23.01.2020
3821 Clouds 13 1022 34 10000 4.1 350 18:55 23.01.2020
3822 Clouds 13 1022 34 10000 4.1 350 18:36 23.01.2020
3823 Clouds 13 1022 34 10000 4.1 350 18:18 23.01.2020
3824 Clouds 13 1021 35 10000 4.1 350 17:43 23.01.2020
3825 Clouds 13 1021 35 10000 4.1 350 17:20 23.01.2020
3826 Clouds 14 1020 33 10000 4.6 350 16:57 23.01.2020
3827 Clouds 14 1020 33 10000 4.6 350 16:37 23.01.2020
3828 Clouds 14 1020 33 10000 4.6 350 16:18 23.01.2020
3829 Clouds 15 1020 30 10000 5.7 350 15:56 23.01.2020
3830 Clouds 15 1020 30 10000 5.7 350 15:37 23.01.2020
3831 Clouds 15 1020 30 10000 5.7 350 15:18 23.01.2020
3832 Clouds 16 1019 29 10000 6.2 340 14:55 23.01.2020
3833 Clouds 16 1019 29 10000 6.2 340 14:37 23.01.2020
3834 Clouds 16 1019 29 10000 6.2 340 14:19 23.01.2020
3835 Clouds 16 1019 29 10000 5.7 340 13:40 23.01.2020
3836 Clouds 16 1019 29 10000 5.7 340 13:20 23.01.2020
3837 Clouds 16 1020 31 10000 4.6 350 12:47 23.01.2020
3838 Clouds 16 1020 31 10000 4.6 350 12:25 23.01.2020
3839 Clouds 16 1020 31 10000 4.6 340 11:59 23.01.2020
3840 Clouds 16 1020 31 10000 4.6 340 11:39 23.01.2020
3841 Clouds 15 1021 33 10000 4.1 340 11:19 23.01.2020
3842 Clouds 15 1021 33 10000 4.1 340 10:45 23.01.2020
3843 Clouds 15 1021 33 10000 4.1 340 10:23 23.01.2020
3844 Clouds 13 1022 37 10000 4.1 350 09:59 23.01.2020
3845 Clouds 13 1022 37 10000 4.1 350 09:39 23.01.2020
3846 Clouds 11 1023 40 10000 4.1 350 09:20 23.01.2020
3847 Clouds 11 1023 40 10000 4.1 350 08:42 23.01.2020
3848 Clouds 11 1023 40 10000 4.1 350 08:24 23.01.2020
3849 Clouds 11 1023 40 10000 4.1 350 08:24 23.01.2020
3850 Clouds 10 1023 43 10000 4.1 350 07:48 23.01.2020
3851 Clouds 10 1023 43 10000 4.1 350 07:27 23.01.2020
3852 Clouds 10 1022 39 10000 3.6 340 06:54 23.01.2020
3853 Clouds 10 1022 39 10000 3.6 340 06:23 23.01.2020
3854 Clouds 9 1021 42 10000 4.1 340 05:58 23.01.2020
3855 Clouds 9 1020 42 10000 4.6 340 04:24 23.01.2020
3856 Clouds 10 1020 43 10000 6.2 350 02:45 23.01.2020
3857 Clouds 11 1020 34 10000 6.2 350 01:44 23.01.2020
3858 Clouds 12 1019 32 10000 4.6 350 00:28 23.01.2020
3859 Clouds 12 1019 37 10000 4.6 360 23:54 22.01.2020
3860 Clouds 12 1019 37 10000 4.6 360 23:36 22.01.2020
3861 Clouds 12 1019 37 10000 4.6 360 23:18 22.01.2020
3862 Clouds 13 1019 37 10000 4.6 10 22:41 22.01.2020
3863 Clouds 13 1019 37 10000 4.6 10 22:23 22.01.2020
3864 Clouds 13 1019 37 10000 5.7 10 21:42 22.01.2020
3865 Clouds 13 1019 37 10000 5.7 10 21:22 22.01.2020
3866 Clouds 14 1019 35 10000 4.1 10 20:59 22.01.2020
3867 Clouds 14 1019 35 10000 4.1 10 20:41 22.01.2020
3868 Clouds 14 1019 35 10000 4.1 10 20:23 22.01.2020
3869 Clouds 14 1018 35 10000 5.1 10 19:57 22.01.2020
3870 Clouds 14 1018 35 10000 5.1 10 19:39 22.01.2020
3871 Clouds 14 1018 35 10000 5.1 10 19:19 22.01.2020
3872 Clouds 16 1018 34 10000 7.2 350 18:57 22.01.2020
3873 Clouds 16 1018 34 10000 7.2 350 18:38 22.01.2020
3874 Clouds 16 1018 34 10000 7.2 350 18:20 22.01.2020
3875 Clouds 16 1017 34 10000 5.7 350 17:55 22.01.2020
3876 Clouds 16 1017 34 10000 5.7 350 17:37 22.01.2020
3877 Clouds 16 1017 29 10000 5.7 350 17:19 22.01.2020
3878 Clear 17 1016 29 10000 6.7 360 16:43 22.01.2020
3879 Clear 17 1016 29 10000 6.7 360 16:23 22.01.2020
3880 Clear 18 1015 31 10000 6.2 350 15:59 22.01.2020
3881 Clear 18 1015 31 10000 6.2 350 15:40 22.01.2020
3882 Clear 18 1015 31 10000 6.2 350 15:22 22.01.2020
3883 Clear 20 1014 28 10000 6.2 330 14:57 22.01.2020
3884 Clear 20 1014 28 10000 6.2 330 14:37 22.01.2020
3885 Clear 20 1014 30 10000 4.6 320 14:18 22.01.2020
3886 Clear 20 1014 30 10000 4.6 320 13:54 22.01.2020
3887 Clear 20 1014 30 10000 4.6 320 13:36 22.01.2020
3888 Clear 20 1015 30 10000 5.1 340 13:18 22.01.2020
3889 Clear 20 1015 30 10000 5.1 340 12:54 22.01.2020
3890 Clear 20 1015 30 10000 5.1 340 12:36 22.01.2020
3891 Clear 20 1015 30 10000 5.1 340 12:18 22.01.2020
3892 Clouds 20 1015 30 10000 6.2 330 11:55 22.01.2020
3893 Clouds 20 1015 30 10000 6.2 330 11:36 22.01.2020
3894 Clouds 20 1015 30 10000 6.2 330 11:18 22.01.2020
3895 Clouds 19 1016 32 10000 5.1 290 10:42 22.01.2020
3896 Clouds 19 1016 32 10000 5.1 290 10:19 22.01.2020
3897 Clouds 20 1017 34 10000 2.6 230 09:43 22.01.2020
3898 Clouds 20 1017 34 10000 2.6 230 09:24 22.01.2020
3899 Clouds 18 1017 42 8000 1.5 220 08:57 22.01.2020
3900 Clouds 18 1017 42 8000 1.5 220 08:57 22.01.2020
3901 Clouds 18 1017 42 8000 1.5 220 08:39 22.01.2020
3902 Clouds 18 1017 42 8000 1.5 220 08:20 22.01.2020
3903 Clouds 17 1017 42 8000 1.5 240 07:47 22.01.2020
3904 Clouds 17 1017 42 8000 1.5 240 07:29 22.01.2020
3905 Clear 14 1016 47 8000 1.5 210 06:46 22.01.2020
3906 Clear 14 1016 47 8000 1.5 210 06:26 22.01.2020
3907 Clear 13 1016 50 8000 1.5 170 05:26 22.01.2020
3908 Clear 15 1014 46 8000 6.7 170 03:30 22.01.2020
3909 Clear 15 1014 33 8000 7.2 170 02:57 22.01.2020
3910 Clear 15 1013 33 8000 7.2 170 01:42 22.01.2020
3911 Clear 15 1014 42 8000 6.7 170 00:44 22.01.2020
3912 Clear 15 1014 42 8000 6.7 170 00:26 22.01.2020
3913 Clear 15 1014 33 8000 7.7 170 23:38 21.01.2020
3914 Clear 15 1014 33 8000 7.7 170 23:20 21.01.2020
3915 Clear 16 1015 40 9000 6.2 170 22:55 21.01.2020
3916 Clear 16 1015 40 9000 6.2 170 22:55 21.01.2020
3917 Clear 16 1015 40 9000 6.2 170 22:36 21.01.2020
3918 Clear 16 1015 40 9000 6.2 170 22:18 21.01.2020
3919 Clear 17 1015 40 7000 8.7 170 21:55 21.01.2020
3920 Clear 17 1015 40 7000 8.7 170 21:36 21.01.2020
3921 Clear 17 1015 40 10000 5.7 160 21:18 21.01.2020
3922 Clear 17 1015 40 10000 5.7 160 20:39 21.01.2020
3923 Clear 17 1015 37 10000 5.7 160 20:20 21.01.2020
3924 Clear 17 1016 33 10000 4.1 150 19:59 21.01.2020
3925 Clear 17 1016 33 10000 4.1 150 19:40 21.01.2020
3926 Clear 17 1016 33 10000 4.1 150 19:21 21.01.2020
3927 Clear 18 1016 31 10000 4.6 150 18:57 21.01.2020
3928 Clear 18 1016 31 10000 4.6 150 18:57 21.01.2020
3929 Clear 18 1016 31 10000 4.6 150 18:39 21.01.2020
3930 Clear 18 1016 31 10000 4.6 150 18:21 21.01.2020
3931 Clear 19 1016 32 10000 4.1 150 17:59 21.01.2020
3932 Clear 19 1016 32 10000 4.1 150 17:40 21.01.2020
3933 Clear 19 1016 32 10000 4.1 150 17:18 21.01.2020
3934 Clear 19 1016 32 10000 4.1 150 17:18 21.01.2020
3935 Clear 19 1015 34 10000 3.6 150 16:38 21.01.2020
3936 Clear 20 1015 30 10000 5.7 170 16:20 21.01.2020
3937 Clear 20 1015 30 10000 5.7 170 15:59 21.01.2020
3938 Clear 20 1015 30 10000 5.7 170 15:39 21.01.2020
3939 Clear 20 1015 30 10000 5.7 170 15:19 21.01.2020
3940 Clear 20 1015 30 10000 5.7 170 15:19 21.01.2020
3941 Clear 21 1015 30 10000 4.6 160 14:40 21.01.2020
3942 Clear 21 1015 30 10000 4.6 160 14:22 21.01.2020
3943 Clear 21 1015 30 10000 5.7 170 13:55 21.01.2020
3944 Clear 21 1015 30 10000 5.7 170 13:37 21.01.2020
3945 Clear 21 1015 30 10000 5.7 170 13:18 21.01.2020
3946 Clear 20 1016 32 10000 5.1 170 12:42 21.01.2020
3947 Clear 20 1016 32 10000 5.1 170 12:24 21.01.2020
3948 Clear 19 1017 34 10000 5.7 170 11:56 21.01.2020
3949 Clear 19 1017 34 10000 5.7 170 11:38 21.01.2020
3950 Clear 19 1017 34 10000 5.7 170 11:19 21.01.2020
3951 Clear 19 1019 37 10000 4.1 160 10:43 21.01.2020
3952 Clear 19 1019 37 10000 4.1 160 10:23 21.01.2020
3953 Clouds 18 1020 42 10000 3.6 160 09:56 21.01.2020
3954 Clouds 18 1020 42 10000 3.6 160 09:38 21.01.2020
3955 Clear 17 1020 45 10000 4.1 160 09:19 21.01.2020
3956 Clear 17 1020 45 10000 4.1 160 08:41 21.01.2020
3957 Clear 17 1020 45 10000 4.1 160 08:22 21.01.2020
3958 Clear 15 1020 51 10000 3.1 160 07:43 21.01.2020
3959 Clear 15 1020 51 10000 3.1 160 07:24 21.01.2020
3960 Clear 11 1020 66 8000 1 140 06:57 21.01.2020
3961 Clear 11 1020 66 8000 1 140 06:38 21.01.2020
3962 Clear 9 1020 70 8000 1 130 05:53 21.01.2020
3963 Clear 9 1020 70 8000 1 130 05:32 21.01.2020
3964 Clear 10 1019 66 10000 1.5 150 04:37 21.01.2020
3965 Clear 11 1019 62 10000 1 140 02:27 21.01.2020
3966 Clear 11 1019 62 10000 1.5 140 01:36 21.01.2020
3967 Clear 12 1020 58 10000 2.1 140 00:41 21.01.2020
3968 Clear 12 1020 58 10000 2.1 140 00:22 21.01.2020
3969 Clear 12 1020 58 10000 1.5 170 23:41 20.01.2020
3970 Clear 12 1020 58 10000 1.5 170 23:19 20.01.2020
3971 Clear 12 1021 58 10000 3.5 109 23:00 20.01.2020
3972 Clear 12 1021 58 10000 3.5 109 22:39 20.01.2020
3973 Clear 12 1021 58 10000 3.5 109 22:21 20.01.2020
3974 Clear 13 1021 54 10000 3.5 109 21:58 20.01.2020
3975 Clear 13 1021 54 10000 3.5 109 21:58 20.01.2020
3976 Clear 13 1021 54 10000 3.5 109 21:38 20.01.2020
3977 Clear 13 1021 54 10000 3.5 109 21:20 20.01.2020
3978 Clear 14 1022 50 10000 2.1 80 20:58 20.01.2020
3979 Clear 14 1022 50 10000 2.1 80 20:39 20.01.2020
3980 Clear 14 1022 50 10000 2.1 80 20:19 20.01.2020
3981 Clear 14 1022 50 10000 2.1 80 20:19 20.01.2020
3982 Clear 14 1022 50 10000 1.5 120 19:57 20.01.2020
3983 Clear 14 1022 50 10000 1.5 120 19:38 20.01.2020
3984 Clear 14 1022 50 10000 1.5 120 19:19 20.01.2020
3985 Clear 15 1022 47 10000 1.5 80 18:45 20.01.2020
3986 Clear 15 1022 47 10000 1.5 80 18:24 20.01.2020
3987 Clear 17 1022 36 10000 2.1 70 17:59 20.01.2020
3988 Clear 17 1022 36 10000 2.1 70 17:37 20.01.2020
3989 Clear 17 1022 36 10000 2.1 70 17:18 20.01.2020
3990 Clear 18 1021 31 10000 2.1 50 16:45 20.01.2020
3991 Clear 18 1021 31 10000 2.1 50 16:25 20.01.2020
3992 Clear 20 1021 28 10000 3.1 70 15:58 20.01.2020
3993 Clear 20 1021 28 10000 3.1 70 15:40 20.01.2020
3994 Clear 20 1021 28 10000 3.1 70 15:21 20.01.2020
3995 Clear 21 1020 26 10000 2.6 40 14:55 20.01.2020
3996 Clear 21 1020 26 10000 2.6 40 14:36 20.01.2020
3997 Clear 21 1020 26 10000 2.6 40 14:18 20.01.2020
3998 Clear 21 1021 32 10000 2.1 20 13:41 20.01.2020
3999 Clear 21 1021 32 10000 2.1 20 13:23 20.01.2020
4000 Clear 21 1021 29 10000 3.1 70 12:56 20.01.2020
4001 Clear 21 1021 29 10000 3.1 70 12:38 20.01.2020
4002 Clear 21 1021 29 10000 3.1 70 12:19 20.01.2020
4003 Clear 20 1022 28 10000 2.6 120 11:43 20.01.2020
4004 Clear 20 1022 28 10000 2.6 120 11:24 20.01.2020
4005 Clear 20 1023 28 10000 3.1 90 10:57 20.01.2020
4006 Clear 20 1023 28 10000 3.1 90 10:39 20.01.2020
4007 Clear 20 1023 28 10000 3.1 90 10:19 20.01.2020
4008 Clear 18 1024 36 10000 2.6 70 09:41 20.01.2020
4009 Clear 18 1024 36 10000 2.6 70 09:41 20.01.2020
4010 Clear 18 1024 36 10000 2.6 70 09:21 20.01.2020
4011 Clear 16 1024 44 10000 2.1 60 08:49 20.01.2020
4012 Clear 16 1024 44 10000 2.1 60 08:30 20.01.2020
4013 Clouds 16 1024 48 10000 1 330 07:53 20.01.2020
4014 Clouds 16 1024 48 10000 1 330 07:30 20.01.2020
4015 Clouds 11 1023 62 10000 1 290 06:59 20.01.2020
4016 Clouds 11 1023 62 10000 1 290 06:30 20.01.2020
4017 Clouds 9 1022 70 10000 3.17 63 05:44 20.01.2020
4018 Clouds 9 1022 70 10000 3.17 63 05:25 20.01.2020
4019 Clouds 10 1021 71 10000 2.23 54 04:49 20.01.2020
4020 Clouds 11 1021 66 10000 2.23 54 02:59 20.01.2020
4021 Clouds 11 1020 71 10000 1 10 01:57 20.01.2020
4022 Clouds 11 1020 71 10000 1 10 01:37 20.01.2020
4023 Clouds 12 1020 66 10000 4.94 47 00:45 20.01.2020
4024 Clouds 12 1020 66 10000 4.94 47 00:25 20.01.2020
4025 Clouds 13 1020 62 10000 1 40 23:40 19.01.2020
4026 Clear 13 1020 62 10000 1 40 23:20 19.01.2020
4027 Clear 14 1020 58 10000 1 50 22:58 19.01.2020
4028 Clear 14 1020 58 10000 1 50 22:40 19.01.2020
4029 Clear 14 1020 58 10000 1 50 22:21 19.01.2020
4030 Clear 14 1020 54 10000 2.1 30 21:57 19.01.2020
4031 Clear 14 1020 54 10000 2.1 30 21:57 19.01.2020
4032 Clear 14 1020 54 10000 2.1 30 21:39 19.01.2020
4033 Clear 14 1020 54 10000 2.1 30 21:21 19.01.2020
4034 Clear 15 1020 51 10000 2.6 20 20:58 19.01.2020
4035 Clear 15 1020 51 10000 2.6 20 20:39 19.01.2020
4036 Clear 15 1020 51 10000 2.6 20 20:21 19.01.2020
4037 Clouds 16 1019 51 10000 2.1 30 19:58 19.01.2020
4038 Clouds 16 1019 51 10000 2.1 30 19:39 19.01.2020
4039 Clouds 16 1019 51 10000 2.1 30 19:39 19.01.2020
4040 Clouds 16 1019 51 10000 2.1 30 19:21 19.01.2020
4041 Clouds 17 1019 51 10000 1.5 40 18:59 19.01.2020
4042 Clouds 17 1019 51 10000 1.5 40 18:41 19.01.2020
4043 Clouds 17 1019 51 10000 1.5 40 18:21 19.01.2020
4044 Clouds 18 1018 42 8000 3.1 30 17:59 19.01.2020
4045 Clouds 18 1018 42 8000 3.1 30 17:40 19.01.2020
4046 Clouds 18 1018 42 8000 3.1 30 17:22 19.01.2020
4047 Clouds 19 1017 45 8000 3.1 30 16:59 19.01.2020
4048 Clouds 19 1017 45 8000 3.1 30 16:40 19.01.2020
4049 Clouds 19 1017 45 8000 3.1 30 16:40 19.01.2020
4050 Clouds 19 1017 45 8000 3.1 30 16:21 19.01.2020
4051 Clouds 21 1017 40 8000 3.1 10 15:59 19.01.2020
4052 Clouds 21 1017 40 8000 3.1 10 15:40 19.01.2020
4053 Clouds 21 1017 40 8000 3.1 10 15:21 19.01.2020
4054 Clouds 21 1017 40 10000 2.6 20 14:59 19.01.2020
4055 Clouds 21 1017 40 10000 2.6 20 14:39 19.01.2020
4056 Clear 21 1017 40 10000 2.6 20 14:18 19.01.2020
4057 Clear 22 1017 35 10000 3.1 340 13:58 19.01.2020
4058 Clear 22 1017 35 10000 3.1 340 13:38 19.01.2020
4059 Clear 22 1017 35 10000 3.1 340 13:20 19.01.2020
4060 Clear 21 1016 40 10000 2.6 10 12:55 19.01.2020
4061 Clear 21 1016 40 10000 2.6 10 12:37 19.01.2020
4062 Clear 21 1016 40 10000 2.6 10 12:37 19.01.2020
4063 Clear 21 1016 40 10000 2.6 10 12:19 19.01.2020
4064 Clear 20 1017 42 10000 2.6 20 11:42 19.01.2020
4065 Clear 20 1017 42 10000 2.6 20 11:21 19.01.2020
4066 Clear 19 1018 42 9000 4.1 10 10:57 19.01.2020
4067 Clear 19 1018 42 9000 4.1 10 10:39 19.01.2020
4068 Clouds 17 1019 51 9000 4.1 30 10:19 19.01.2020
4069 Clouds 17 1019 51 9000 4.1 30 09:56 19.01.2020
4070 Clouds 17 1019 51 9000 4.1 30 09:56 19.01.2020
4071 Clouds 17 1019 51 9000 4.1 30 09:56 19.01.2020
4072 Clouds 17 1019 51 9000 4.1 30 09:56 19.01.2020
4073 Clouds 17 1019 51 9000 4.1 30 09:56 19.01.2020
4074 Clouds 17 1019 51 9000 4.1 30 09:37 19.01.2020
4075 Clouds 17 1019 51 9000 4.1 30 09:19 19.01.2020
4076 Clouds 16 1020 59 9000 3.6 30 08:52 19.01.2020
4077 Clouds 16 1020 59 9000 3.6 30 08:30 19.01.2020
4078 Clouds 15 1019 58 9000 4.1 20 07:46 19.01.2020
4079 Clouds 15 1019 58 9000 4.1 20 07:26 19.01.2020
4080 Clouds 14 1018 67 10000 1.5 360 06:54 19.01.2020
4081 Clouds 14 1018 67 10000 1.5 360 06:21 19.01.2020
4082 Clouds 11 1016 62 10000 1.5 350 03:28 19.01.2020
4083 Clouds 12 1015 58 10000 1 290 02:26 19.01.2020
4084 Clouds 12 1016 58 10000 2.44 259 01:29 19.01.2020
4085 Clouds 13 1016 50 10000 1 40 00:54 19.01.2020
4086 Clouds 15 1016 47 10000 1 40 00:31 19.01.2020
4087 Clouds 15 1016 47 10000 1 40 23:59 18.01.2020
4088 Clouds 15 1016 47 10000 1 40 23:41 18.01.2020
4089 Clouds 15 1016 47 10000 1 40 23:23 18.01.2020
4090 Clouds 15 1016 47 10000 1 40 23:23 18.01.2020
4091 Clear 16 1016 38 10000 1.5 150 22:56 18.01.2020
4092 Clear 16 1016 38 10000 1.5 150 22:38 18.01.2020
4093 Clear 16 1016 38 10000 1.5 150 22:20 18.01.2020
4094 Clear 17 1016 36 10000 1.5 150 21:57 18.01.2020
4095 Clear 17 1016 36 10000 1.5 150 21:38 18.01.2020
4096 Clear 17 1016 36 10000 1.5 150 21:20 18.01.2020
4097 Clear 18 1016 31 10000 2.6 160 20:44 18.01.2020
4098 Clouds 18 1016 31 10000 2.6 160 20:21 18.01.2020
4099 Clouds 19 1016 34 10000 2.1 160 19:59 18.01.2020
4100 Clouds 19 1016 34 10000 2.1 160 19:59 18.01.2020
4101 Clouds 19 1016 34 10000 2.1 160 19:41 18.01.2020
4102 Clouds 19 1016 34 10000 2.1 160 19:22 18.01.2020
4103 Clouds 19 1016 37 10000 1 150 18:42 18.01.2020
4104 Clouds 19 1016 37 10000 1 150 18:22 18.01.2020
4105 Clouds 20 1016 37 8000 1.5 140 17:56 18.01.2020
4106 Clouds 20 1016 37 8000 1.5 140 17:37 18.01.2020
4107 Clear 23 1015 31 8000 1.5 160 17:19 18.01.2020
4108 Clear 23 1015 31 8000 1.5 160 16:55 18.01.2020
4109 Clear 23 1015 31 8000 1.5 160 16:36 18.01.2020
4110 Clear 23 1015 31 8000 1.5 160 16:18 18.01.2020
4111 Clear 25 1015 29 8000 1.5 160 15:41 18.01.2020
4112 Clear 25 1015 29 8000 1.5 160 15:23 18.01.2020
4113 Clear 25 1015 29 9000 2.6 220 14:55 18.01.2020
4114 Clear 25 1015 29 9000 2.6 220 14:37 18.01.2020
4115 Clouds 25 1015 23 9000 3.1 200 14:18 18.01.2020
4116 Clouds 25 1015 23 9000 3.1 200 13:43 18.01.2020
4117 Clouds 25 1015 23 9000 3.1 200 13:24 18.01.2020
4118 Clouds 24 1015 25 9000 3.1 190 12:57 18.01.2020
4119 Clouds 24 1015 25 9000 3.1 190 12:38 18.01.2020
4120 Clouds 24 1015 25 9000 3.1 190 12:19 18.01.2020
4121 Clouds 23 1016 23 9000 3.1 170 11:44 18.01.2020
4122 Clouds 23 1016 23 9000 3.1 170 11:21 18.01.2020
4123 Clouds 22 1017 24 9000 3.6 180 10:56 18.01.2020
4124 Clouds 22 1017 24 9000 3.6 180 10:38 18.01.2020
4125 Clouds 20 1018 30 10000 2.6 140 10:19 18.01.2020
4126 Clouds 20 1018 30 10000 2.6 140 09:42 18.01.2020
4127 Clouds 20 1018 30 10000 2.6 140 09:24 18.01.2020
4128 Clouds 18 1019 31 10000 3.6 160 08:55 18.01.2020
4129 Clouds 18 1019 31 10000 3.6 160 08:37 18.01.2020
4130 Clear 18 1019 31 10000 3.6 160 08:18 18.01.2020
4131 Clear 18 1019 31 10000 3.6 160 08:18 18.01.2020
4132 Clear 15 1018 27 10000 4.1 160 07:44 18.01.2020
4133 Clear 15 1018 27 10000 4.1 160 07:25 18.01.2020
4134 Clear 12 1018 46 10000 2.6 140 06:46 18.01.2020
4135 Clear 10 1018 53 10000 2.1 120 05:58 18.01.2020
4136 Clouds 10 1017 57 10000 2.1 140 04:35 18.01.2020
4137 Clouds 12 1016 46 10000 2.6 160 02:50 18.01.2020
4138 Clear 13 1017 43 10000 3.1 170 01:51 18.01.2020
4139 Clear 14 1017 40 10000 4.1 180 00:40 18.01.2020
4140 Clear 14 1017 40 10000 4.1 180 00:21 18.01.2020
4141 Clear 15 1018 40 10000 4.6 180 23:59 17.01.2020
4142 Clear 15 1018 40 10000 4.6 180 23:40 17.01.2020
4143 Clear 15 1018 38 10000 4.6 180 23:19 17.01.2020
4144 Clear 16 1018 36 10000 3.1 180 22:43 17.01.2020
4145 Clear 16 1018 36 10000 3.1 180 22:21 17.01.2020
4146 Clear 16 1019 36 10000 2.1 190 21:57 17.01.2020
4147 Clear 16 1019 36 10000 2.1 190 21:39 17.01.2020
4148 Clear 16 1019 36 10000 2.1 190 21:20 17.01.2020
4149 Clear 17 1018 38 10000 4.6 180 20:55 17.01.2020
4150 Clear 17 1018 38 10000 4.6 180 20:37 17.01.2020
4151 Clear 17 1018 32 10000 4.6 180 20:18 17.01.2020
4152 Clear 17 1019 33 8000 4.6 170 19:54 17.01.2020
4153 Clear 17 1019 33 8000 4.6 170 19:36 17.01.2020
4154 Clear 17 1019 33 8000 4.6 170 19:36 17.01.2020
4155 Clear 17 1019 33 8000 4.6 170 19:18 17.01.2020
4156 Clear 17 1019 33 8000 3.6 160 18:44 17.01.2020
4157 Clear 17 1019 33 8000 3.6 160 18:26 17.01.2020
4158 Clear 18 1018 31 8000 3.6 170 17:56 17.01.2020
4159 Clear 18 1018 31 8000 3.6 170 17:38 17.01.2020
4160 Clear 18 1018 31 8000 3.6 170 17:20 17.01.2020
4161 Clear 19 1018 29 8000 3.6 160 16:42 17.01.2020
4162 Clear 19 1018 29 8000 3.6 160 16:20 17.01.2020
4163 Clear 21 1017 27 8000 5.1 170 15:48 17.01.2020
4164 Clear 21 1017 27 8000 5.1 170 15:28 17.01.2020
4165 Clear 22 1018 24 10000 4.6 160 14:56 17.01.2020
4166 Clear 22 1018 24 10000 4.6 160 14:56 17.01.2020
4167 Clear 22 1018 24 10000 4.6 160 14:38 17.01.2020
4168 Clouds 22 1018 24 10000 4.6 160 14:20 17.01.2020
4169 Clouds 22 1018 24 10000 4.6 160 14:20 17.01.2020
4170 Clouds 22 1018 24 10000 5.1 160 13:41 17.01.2020
4171 Clear 22 1018 24 10000 5.1 160 13:22 17.01.2020
4172 Clear 22 1019 24 10000 6.2 170 12:45 17.01.2020
4173 Clear 22 1019 24 10000 6.2 170 12:23 17.01.2020
4174 Clear 22 1019 24 10000 6.2 170 12:23 17.01.2020
4175 Clear 20 1019 28 10000 6.2 170 11:41 17.01.2020
4176 Clear 20 1019 28 10000 6.2 170 11:20 17.01.2020
4177 Clear 19 1021 32 10000 6.2 170 10:55 17.01.2020
4178 Clear 19 1021 32 10000 6.2 170 10:36 17.01.2020
4179 Clear 19 1021 32 10000 6.2 170 10:18 17.01.2020
4180 Clear 17 1022 42 10000 6.7 170 09:42 17.01.2020
4181 Clear 16 1022 48 10000 7.2 170 09:20 17.01.2020
4182 Clear 16 1022 48 10000 7.2 170 08:55 17.01.2020
4183 Clear 16 1022 48 10000 7.2 170 08:37 17.01.2020
4184 Clouds 15 1022 47 10000 6.7 170 08:18 17.01.2020
4185 Clouds 15 1022 47 10000 6.7 170 07:43 17.01.2020
4186 Clouds 15 1022 47 10000 6.7 170 07:24 17.01.2020
4187 Clouds 12 1022 58 10000 4.1 170 06:43 17.01.2020
4188 Clouds 12 1022 58 10000 4.1 170 06:20 17.01.2020
4189 Clear 10 1022 57 0 4.47 142 04:25 17.01.2020
4190 Clear 10 1022 57 0 4.47 142 02:55 17.01.2020
4191 Clear 11 1022 53 0 4.37 149 02:30 17.01.2020
4192 Clear 11 1022 53 0 4.37 149 01:32 17.01.2020
4193 Clouds 11 1022 53 0 4.29 148 00:59 17.01.2020
4194 Clouds 11 1022 53 0 4.29 148 00:35 17.01.2020
4195 Clouds 11 1023 62 10000 1.5 150 23:56 16.01.2020
4196 Clouds 11 1023 62 10000 1.5 150 23:38 16.01.2020
4197 Clear 11 1023 62 10000 1.5 150 23:19 16.01.2020
4198 Clear 11 1023 57 10000 2.1 160 22:40 16.01.2020
4199 Clear 11 1023 57 10000 2.1 160 22:21 16.01.2020
4200 Clear 11 1023 62 10000 1.5 140 21:57 16.01.2020
4201 Clear 11 1023 62 10000 1.5 140 21:37 16.01.2020
4202 Clear 11 1023 62 10000 1.5 140 21:19 16.01.2020
4203 Clear 12 1024 58 10000 1.5 150 20:56 16.01.2020
4204 Clear 12 1024 58 10000 1.5 150 20:37 16.01.2020
4205 Clouds 12 1024 58 10000 1.5 150 20:18 16.01.2020
4206 Clouds 13 1023 54 10000 1.5 160 19:55 16.01.2020
4207 Clouds 13 1023 54 10000 1.5 160 19:37 16.01.2020
4208 Clouds 13 1023 54 10000 1.5 160 19:18 16.01.2020
4209 Clouds 13 1023 54 10000 1.5 150 18:55 16.01.2020
4210 Clouds 13 1023 54 10000 1.5 150 18:36 16.01.2020
4211 Clouds 13 1023 54 10000 1.5 150 18:18 16.01.2020
4212 Clouds 15 1023 47 10000 2.1 130 17:41 16.01.2020
4213 Clear 15 1023 47 10000 2.1 130 17:23 16.01.2020
4214 Clear 16 1023 38 10000 2.1 130 16:57 16.01.2020
4215 Clear 16 1023 38 10000 2.1 130 16:38 16.01.2020
4216 Clear 16 1023 38 10000 2.1 130 16:19 16.01.2020
4217 Clear 18 1023 34 10000 3.1 150 15:44 16.01.2020
4218 Clear 18 1023 34 10000 3.1 150 15:22 16.01.2020
4219 Clear 19 1022 29 10000 3.6 160 14:57 16.01.2020
4220 Clear 19 1022 29 10000 3.6 160 14:38 16.01.2020
4221 Clear 19 1022 29 10000 3.6 160 14:19 16.01.2020
4222 Clear 19 1022 29 10000 3.6 170 13:44 16.01.2020
4223 Clear 19 1022 29 10000 3.6 170 13:25 16.01.2020
4224 Clear 18 1023 31 10000 4.1 170 12:46 16.01.2020
4225 Clear 18 1023 31 10000 4.1 170 12:28 16.01.2020
4226 Clear 17 1024 21 10000 4.1 180 11:58 16.01.2020
4227 Clear 17 1024 21 10000 4.1 180 11:39 16.01.2020
4228 Clear 16 1025 36 10000 4.6 170 11:21 16.01.2020
4229 Clear 16 1025 36 10000 4.6 170 10:40 16.01.2020
4230 Clear 15 1026 38 10000 4.6 180 10:21 16.01.2020
4231 Clear 15 1026 38 10000 4.6 180 09:58 16.01.2020
4232 Clear 15 1026 38 10000 4.6 180 09:40 16.01.2020
4233 Clear 15 1026 38 10000 4.6 180 09:22 16.01.2020
4234 Clear 14 1027 44 10000 2.6 160 08:53 16.01.2020
4235 Clear 14 1027 44 10000 2.6 160 08:35 16.01.2020
4236 Clear 11 1027 53 10000 1 100 07:59 16.01.2020
4237 Clear 11 1027 53 10000 1 100 07:39 16.01.2020
4238 Clear 11 1027 53 10000 1 100 07:21 16.01.2020
4239 Clear 8 1027 61 10000 1 150 06:43 16.01.2020
4240 Clear 8 1027 61 10000 1 150 06:22 16.01.2020
4241 Clear 6 1026 70 10000 1 170 05:46 16.01.2020
4242 Clear 5 1026 75 10000 2.81 131 04:40 16.01.2020
4243 Clear 5 1026 75 10000 2.81 131 04:40 16.01.2020
4244 Clear 5 1025 75 10000 1 170 03:28 16.01.2020
4245 Clear 6 1025 70 10000 2.81 131 02:43 16.01.2020
4246 Clear 7 1025 65 10000 1 150 01:24 16.01.2020
4247 Clear 7 1025 65 10000 1 140 00:25 16.01.2020
4248 Clear 7 1026 65 10000 1 140 23:56 15.01.2020
4249 Clear 7 1026 65 10000 1 140 23:37 15.01.2020
4250 Clear 7 1026 65 10000 1 140 23:18 15.01.2020
4251 Clear 8 1026 61 10000 2.81 125 22:42 15.01.2020
4252 Clear 8 1026 61 10000 2.81 125 22:20 15.01.2020
4253 Clear 9 1027 61 10000 2.81 125 21:59 15.01.2020
4254 Clear 9 1027 61 10000 2.81 125 21:40 15.01.2020
4255 Clear 9 1027 61 10000 2.81 125 21:22 15.01.2020
4256 Clear 9 1027 57 10000 2.81 125 20:58 15.01.2020
4257 Clear 9 1027 57 10000 2.81 125 20:40 15.01.2020
4258 Clouds 9 1027 57 10000 2.91 95 20:22 15.01.2020
4259 Clouds 10 1027 57 10000 2.91 95 19:57 15.01.2020
4260 Clouds 10 1027 57 10000 2.91 95 19:38 15.01.2020
4261 Clouds 10 1027 57 10000 2.91 95 19:20 15.01.2020
4262 Clouds 10 1027 57 10000 2.91 95 19:20 15.01.2020
4263 Clouds 11 1026 50 10000 1.5 90 18:57 15.01.2020
4264 Clouds 11 1026 50 10000 1.5 90 18:57 15.01.2020
4265 Clouds 11 1026 50 10000 1.5 90 18:38 15.01.2020
4266 Clouds 11 1026 50 10000 1.5 90 18:20 15.01.2020
4267 Clouds 12 1026 46 10000 2.1 90 17:58 15.01.2020
4268 Clouds 12 1026 46 10000 2.1 90 17:40 15.01.2020
4269 Clouds 12 1026 46 10000 2.1 90 17:21 15.01.2020
4270 Clouds 14 1026 35 10000 2.1 90 16:55 15.01.2020
4271 Clouds 14 1026 35 10000 2.1 90 16:55 15.01.2020
4272 Clouds 14 1026 35 10000 2.1 90 16:36 15.01.2020
4273 Clouds 14 1026 35 10000 2.1 90 16:36 15.01.2020
4274 Clouds 14 1026 35 10000 2.1 90 16:18 15.01.2020
4275 Clouds 15 1025 38 10000 2.1 110 15:42 15.01.2020
4276 Clouds 15 1025 38 10000 2.1 110 15:20 15.01.2020
4277 Clouds 15 1025 38 10000 1 70 14:55 15.01.2020
4278 Clouds 15 1025 38 10000 1 70 14:37 15.01.2020
4279 Clear 15 1025 38 10000 1 70 14:18 15.01.2020
4280 Clear 15 1025 33 10000 2.1 60 13:41 15.01.2020
4281 Clear 15 1025 33 10000 2.1 60 13:23 15.01.2020
4282 Clouds 14 1025 41 10000 1.5 80 12:55 15.01.2020
4283 Clouds 14 1025 41 10000 1.5 80 12:55 15.01.2020
4284 Clouds 14 1025 41 10000 1.5 80 12:37 15.01.2020
4285 Clouds 14 1025 41 10000 1.5 80 12:18 15.01.2020
4286 Clear 15 1026 41 10000 2.74 51 11:38 15.01.2020
4287 Clear 15 1026 41 10000 2.79 22 11:20 15.01.2020
4288 Clear 13 1027 37 10000 2.6 340 10:48 15.01.2020
4289 Clear 13 1027 37 10000 2.6 340 10:29 15.01.2020
4290 Clear 12 1028 40 10000 2.6 360 09:59 15.01.2020
4291 Clear 12 1028 40 10000 2.6 360 09:41 15.01.2020
4292 Clear 12 1028 40 10000 2.6 360 09:21 15.01.2020
4293 Clear 10 1028 43 10000 2.6 360 08:44 15.01.2020
4294 Clear 10 1028 43 10000 2.6 360 08:26 15.01.2020
4295 Clear 9 1028 42 10000 3.6 320 07:54 15.01.2020
4296 Clear 9 1028 42 10000 3.6 320 07:33 15.01.2020
4297 Clear 5 1027 56 10000 2.6 300 06:54 15.01.2020
4298 Clear 5 1027 56 10000 2.6 300 06:32 15.01.2020
4299 Clear 4 1026 60 10000 1.5 280 05:32 15.01.2020
4300 Clear 5 1025 52 10000 2.1 300 03:20 15.01.2020
4301 Clouds 6 1025 45 10000 3.6 310 01:49 15.01.2020
4302 Clear 6 1025 45 10000 3.6 310 01:22 15.01.2020
4303 Clear 7 1025 42 10000 3.6 320 00:37 15.01.2020
4304 Clear 7 1025 42 10000 3.6 320 00:19 15.01.2020
4305 Clear 7 1025 45 8000 2.6 290 23:46 14.01.2020
4306 Clear 7 1025 45 8000 2.6 290 23:28 14.01.2020
4307 Clear 8 1025 36 7000 4.1 350 22:57 14.01.2020
4308 Clear 8 1025 36 7000 4.1 350 22:39 14.01.2020
4309 Clear 8 1025 36 7000 4.1 350 22:18 14.01.2020
4310 Dust 9 1025 34 5000 3.6 350 21:57 14.01.2020
4311 Dust 9 1025 34 5000 3.6 350 21:39 14.01.2020
4312 Dust 9 1025 34 5000 3.6 350 21:19 14.01.2020
4313 Dust 10 1025 34 5000 3.6 10 20:54 14.01.2020
4314 Clear 8 1026 35 0 4.29 4 20:36 14.01.2020
4315 Dust 11 1025 29 5000 4.6 10 20:18 14.01.2020
4316 Dust 11 1025 29 5000 4.6 10 19:55 14.01.2020
4317 Dust 11 1025 29 5000 4.6 10 19:36 14.01.2020
4318 Dust 11 1025 29 5000 4.6 10 19:18 14.01.2020
4319 Clear 11 1025 47 0 5.5 359 18:40 14.01.2020
4320 Clear 13 1024 37 8000 6.2 350 18:20 14.01.2020
4321 Clear 13 1024 37 8000 6.2 350 17:55 14.01.2020
4322 Clear 13 1024 37 8000 6.2 350 17:36 14.01.2020
4323 Clear 13 1024 37 8000 6.2 350 17:18 14.01.2020
4324 Clear 14 1023 35 8000 6.7 350 16:42 14.01.2020
4325 Clear 14 1023 35 8000 6.7 350 16:22 14.01.2020
4326 Clear 16 1022 31 8000 7.7 330 15:56 14.01.2020
4327 Clear 16 1022 31 8000 7.7 330 15:38 14.01.2020
4328 Clear 16 1022 31 8000 7.7 330 15:18 14.01.2020
4329 Clear 16 1022 31 8000 7.7 330 15:18 14.01.2020
4330 Clear 17 1022 29 10000 6.7 340 14:43 14.01.2020
4331 Clear 17 1022 29 10000 6.7 340 14:20 14.01.2020
4332 Clear 18 1021 34 10000 7.2 340 13:54 14.01.2020
4333 Clear 18 1021 34 10000 7.2 340 13:36 14.01.2020
4334 Clear 18 1021 33 10000 7.2 340 13:18 14.01.2020
4335 Clear 18 1021 31 10000 7.2 330 12:40 14.01.2020
4336 Clear 18 1021 31 10000 7.2 330 12:20 14.01.2020
4337 Clear 18 1021 31 10000 7.2 330 12:20 14.01.2020
4338 Clear 18 1021 31 10000 6.2 340 12:20 14.01.2020
4339 Clear 18 1021 31 10000 6.2 340 11:43 14.01.2020
4340 Clear 18 1021 31 10000 6.2 340 11:23 14.01.2020
4341 Clear 17 1023 33 10000 6.7 340 10:59 14.01.2020
4342 Clear 17 1023 33 10000 6.7 340 10:39 14.01.2020
4343 Clear 17 1023 33 10000 6.7 340 10:20 14.01.2020
4344 Clear 16 1024 36 10000 5.1 320 09:57 14.01.2020
4345 Clear 16 1024 36 10000 5.1 320 09:39 14.01.2020
4346 Clear 13 1024 35 10000 3.6 310 09:20 14.01.2020
4347 Clear 13 1024 35 10000 3.6 310 08:46 14.01.2020
4348 Clear 13 1024 35 10000 3.6 310 08:24 14.01.2020
4349 Clear 11 1024 34 10000 4.6 300 07:53 14.01.2020
4350 Clear 11 1024 34 10000 4.6 300 07:33 14.01.2020
4351 Clear 7 1023 52 10000 2.6 280 06:54 14.01.2020
4352 Clear 7 1023 52 10000 2.6 280 06:27 14.01.2020
4353 Clear 7 1022 48 10000 3.1 280 05:25 14.01.2020
4354 Clear 7 1021 48 10000 2.6 290 03:51 14.01.2020
4355 Clear 7 1020 48 10000 3.1 290 02:42 14.01.2020
4356 Clear 8 1021 49 10000 3.1 280 01:53 14.01.2020
4357 Clear 8 1021 61 10000 2.1 290 00:51 14.01.2020
4358 Clear 8 1021 61 10000 2.1 290 00:32 14.01.2020
4359 Clear 9 1020 33 10000 1.5 350 23:54 13.01.2020
4360 Clear 9 1020 33 10000 1.5 350 23:54 13.01.2020
4361 Clear 9 1020 33 10000 1.5 350 23:36 13.01.2020
4362 Clear 9 1020 33 10000 1.5 350 23:18 13.01.2020
4363 Clear 12 1021 37 10000 2.1 250 22:41 13.01.2020
4364 Clear 12 1021 37 10000 2.1 250 22:21 13.01.2020
4365 Clear 12 1021 33 10000 2.1 240 21:56 13.01.2020
4366 Clear 12 1021 33 10000 2.1 240 21:38 13.01.2020
4367 Clear 12 1021 33 10000 2.1 240 21:19 13.01.2020
4368 Clear 11 1021 33 10000 1.5 240 20:58 13.01.2020
4369 Clear 11 1021 33 10000 1.5 240 20:40 13.01.2020
4370 Clear 11 1021 33 10000 1.5 240 20:22 13.01.2020
4371 Clear 11 1021 53 10000 1 250 19:58 13.01.2020
4372 Clear 11 1021 53 10000 1 250 19:39 13.01.2020
4373 Clear 11 1021 53 10000 1 250 19:19 13.01.2020
4374 Clear 13 1021 43 10000 1 270 18:56 13.01.2020
4375 Clear 13 1021 43 10000 1 270 18:37 13.01.2020
4376 Clear 13 1021 43 10000 1 270 18:37 13.01.2020
4377 Clear 13 1021 43 10000 1 270 18:18 13.01.2020
4378 Clear 13 1021 43 10000 1 270 18:18 13.01.2020
4379 Clear 15 1021 41 10000 1 260 17:40 13.01.2020
4380 Clear 15 1021 41 10000 1 260 17:22 13.01.2020
4381 Clear 15 1021 41 10000 1 260 17:22 13.01.2020
4382 Clear 16 1020 27 10000 2.1 270 16:56 13.01.2020
4383 Clear 14 1018 27 0 1.98 245 16:38 13.01.2020
4384 Clear 14 1018 27 0 1.98 245 16:19 13.01.2020
4385 Clear 14 1018 27 0 1.98 245 15:44 13.01.2020
4386 Clear 14 1018 27 0 1.98 245 15:23 13.01.2020
4387 Clear 14 1018 27 0 1.98 245 14:58 13.01.2020
4388 Clear 14 1018 27 0 1.98 245 14:38 13.01.2020
4389 Clear 17 1018 20 0 4.88 267 14:19 13.01.2020
4390 Clear 17 1018 20 0 4.88 267 13:42 13.01.2020
4391 Clear 17 1018 20 0 4.88 267 13:24 13.01.2020
4392 Clear 17 1018 21 0 4.88 266 12:59 13.01.2020
4393 Clear 17 1018 21 0 4.88 266 12:41 13.01.2020
4394 Clear 16 1021 31 10000 2.1 240 12:22 13.01.2020
4395 Clear 16 1021 31 10000 2.1 240 11:57 13.01.2020
4396 Clear 16 1021 31 10000 2.1 240 11:37 13.01.2020
4397 Clear 15 1022 33 10000 2.6 260 11:19 13.01.2020
4398 Clear 15 1022 33 10000 2.6 260 10:55 13.01.2020
4399 Clear 15 1022 33 10000 2.6 260 10:37 13.01.2020
4400 Clear 14 1024 35 10000 2.1 200 10:19 13.01.2020
4401 Clear 14 1024 35 10000 2.1 200 09:43 13.01.2020
4402 Clear 14 1024 35 10000 2.1 200 09:23 13.01.2020
4403 Clear 13 1024 43 10000 1.5 180 08:44 13.01.2020
4404 Clear 13 1024 43 10000 1.5 180 08:22 13.01.2020
4405 Clear 10 1025 35 10000 1.5 180 07:59 13.01.2020
4406 Clear 10 1025 35 10000 1.5 180 07:59 13.01.2020
4407 Clear 10 1025 35 10000 1.5 180 07:41 13.01.2020
4408 Clear 10 1025 35 10000 1.5 180 07:19 13.01.2020
4409 Clear 5 1024 35 10000 1.5 280 06:37 13.01.2020
4410 Clear 5 1024 35 10000 1.5 280 06:37 13.01.2020
4411 Clear 4 1024 35 10000 1.21 167 05:37 13.01.2020
4412 Clear 4 1024 49 10000 1.5 360 04:26 13.01.2020
4413 Clear 5 1023 65 10000 1.5 290 03:35 13.01.2020
4414 Clear 4 1022 49 10000 1 320 02:49 13.01.2020
4415 Clear 4 1022 49 10000 1 320 02:29 13.01.2020
4416 Clear 6 1023 49 10000 2.1 300 01:33 13.01.2020
4417 Clear 6 1023 49 10000 1 210 00:43 13.01.2020
4418 Clear 6 1023 49 10000 1 210 00:24 13.01.2020
4419 Clear 7 1023 49 10000 1 260 23:57 12.01.2020
4420 Clear 7 1023 49 10000 1 260 23:37 12.01.2020
4421 Clear 7 1023 44 10000 1 260 23:19 12.01.2020
4422 Clear 7 1024 44 10000 1 290 22:42 12.01.2020
4423 Clear 7 1024 44 10000 1 290 22:24 12.01.2020
4424 Clear 8 1024 61 10000 1 290 21:58 12.01.2020
4425 Clear 8 1024 61 10000 1 290 21:39 12.01.2020
4426 Clear 8 1024 61 10000 1 290 21:39 12.01.2020
4427 Clear 8 1025 61 10000 1.29 24 21:20 12.01.2020
4428 Clear 8 1025 61 10000 1.29 24 20:57 12.01.2020
4429 Clear 8 1025 61 10000 1.29 24 20:39 12.01.2020
4430 Clear 8 1025 61 10000 1.96 353 20:20 12.01.2020
4431 Clear 11 1025 37 10000 1.5 300 19:56 12.01.2020
4432 Clear 11 1025 37 10000 1.5 300 19:38 12.01.2020
4433 Clear 11 1025 37 10000 1.5 300 19:38 12.01.2020
4434 Clear 11 1025 37 10000 1.5 300 19:19 12.01.2020
4435 Clear 11 1025 40 10000 2.1 300 18:57 12.01.2020
4436 Clear 11 1025 40 10000 2.1 300 18:39 12.01.2020
4437 Clear 11 1025 40 10000 2.1 300 18:21 12.01.2020
4438 Clear 12 1024 37 10000 3.1 350 17:56 12.01.2020
4439 Clear 12 1024 37 10000 3.1 350 17:37 12.01.2020
4440 Clear 12 1024 37 10000 3.1 350 17:18 12.01.2020
4441 Clear 13 1024 32 10000 3.6 340 16:55 12.01.2020
4442 Clear 13 1024 32 10000 3.6 340 16:55 12.01.2020
4443 Clear 13 1024 32 10000 3.6 340 16:37 12.01.2020
4444 Clear 13 1024 32 10000 3.6 340 16:18 12.01.2020
4445 Clear 15 1024 26 10000 4.1 350 15:42 12.01.2020
4446 Clear 15 1024 26 10000 4.1 350 15:24 12.01.2020
4447 Clear 15 1024 26 10000 4.1 350 15:24 12.01.2020
4448 Clear 16 1023 26 10000 4.6 320 14:56 12.01.2020
4449 Clear 16 1023 26 10000 4.6 320 14:37 12.01.2020
4450 Clear 16 1023 29 10000 4.1 320 14:18 12.01.2020
4451 Clear 16 1023 29 10000 4.1 320 13:42 12.01.2020
4452 Clear 16 1023 29 10000 4.1 320 13:23 12.01.2020
4453 Clear 16 1023 31 10000 5.1 340 12:58 12.01.2020
4454 Clear 16 1023 31 10000 5.1 340 12:38 12.01.2020
4455 Clear 16 1023 31 10000 5.1 340 12:19 12.01.2020
4456 Clear 14 1024 35 10000 5.7 350 11:55 12.01.2020
4457 Clear 14 1024 35 10000 5.7 350 11:36 12.01.2020
4458 Clear 14 1025 35 10000 6.7 330 11:18 12.01.2020
4459 Clear 14 1025 35 10000 6.7 330 10:41 12.01.2020
4460 Clear 14 1025 35 10000 6.7 330 10:21 12.01.2020
4461 Clear 13 1026 37 10000 7.2 340 09:55 12.01.2020
4462 Clear 13 1026 37 10000 7.2 340 09:37 12.01.2020
4463 Clear 12 1027 46 10000 6.2 340 09:18 12.01.2020
4464 Clear 12 1027 46 10000 6.2 340 08:42 12.01.2020
4465 Clear 12 1027 46 10000 6.2 340 08:19 12.01.2020
4466 Clear 10 1027 53 10000 6.7 320 07:39 12.01.2020
4467 Clear 10 1027 53 10000 6.7 320 07:21 12.01.2020
4468 Clear 8 1026 61 10000 4.6 330 06:42 12.01.2020
4469 Clear 8 1026 52 0 7.79 329 06:18 12.01.2020
4470 Clear 7 1024 57 8000 4.1 310 05:21 12.01.2020
4471 Clear 7 1023 57 8000 4.6 310 03:45 12.01.2020
4472 Clear 8 1023 49 8000 5.1 310 02:59 12.01.2020
4473 Clear 8 1023 49 8000 5.1 310 02:30 12.01.2020
4474 Clear 8 1023 52 8000 4.1 310 01:42 12.01.2020
4475 Clear 8 1023 52 8000 4.1 310 01:21 12.01.2020
4476 Clear 8 1023 52 8000 4.1 310 01:21 12.01.2020
4477 Clear 8 1023 52 8000 4.1 310 00:40 12.01.2020
4478 Clear 9 1023 49 7000 5.1 320 00:19 12.01.2020
4479 Clear 9 1023 49 7000 5.1 320 23:42 11.01.2020
4480 Clear 9 1023 57 7000 4.1 300 23:19 11.01.2020
4481 Clear 9 1023 57 7000 4.1 300 22:57 11.01.2020
4482 Clear 9 1023 57 7000 4.1 300 22:39 11.01.2020
4483 Clear 9 1023 57 7000 4.1 300 22:20 11.01.2020
4484 Clear 10 1022 53 6000 5.7 320 21:55 11.01.2020
4485 Clear 10 1022 53 6000 5.7 320 21:37 11.01.2020
4486 Clear 10 1022 53 6000 5.7 320 21:18 11.01.2020
4487 Clear 11 1022 50 6000 5.7 330 20:40 11.01.2020
4488 Clear 11 1022 50 6000 5.7 330 20:22 11.01.2020
4489 Clear 11 1022 50 6000 6.7 340 19:58 11.01.2020
4490 Clear 11 1022 50 6000 6.7 340 19:38 11.01.2020
4491 Clear 11 1022 50 6000 6.7 340 19:20 11.01.2020
4492 Clouds 12 1020 40 7000 5.1 330 18:57 11.01.2020
4493 Clouds 12 1020 40 7000 5.1 330 18:37 11.01.2020
4494 Clouds 13 1020 37 10000 6.7 330 18:19 11.01.2020
4495 Clouds 12 1020 40 7000 5.1 330 18:19 11.01.2020
4496 Clouds 13 1020 37 10000 6.7 330 17:57 11.01.2020
4497 Clouds 13 1020 37 10000 6.7 330 17:39 11.01.2020
4498 Clouds 13 1020 37 10000 6.7 330 17:19 11.01.2020
4499 Clouds 14 1019 33 10000 7.2 320 16:44 11.01.2020
4500 Clouds 14 1019 33 10000 7.2 320 16:25 11.01.2020
4501 Clouds 14 1018 30 10000 6.7 330 15:57 11.01.2020
4502 Clouds 14 1018 30 10000 6.7 330 15:39 11.01.2020
4503 Clouds 14 1018 30 10000 6.7 330 15:20 11.01.2020
4504 Clouds 15 1017 26 10000 8.7 320 14:47 11.01.2020
4505 Clouds 15 1017 26 10000 8.7 320 14:26 11.01.2020
4506 Clouds 16 1016 26 10000 7.7 320 13:59 11.01.2020
4507 Clouds 16 1016 26 10000 7.7 320 13:38 11.01.2020
4508 Clouds 16 1016 26 10000 7.7 320 13:20 11.01.2020
4509 Clouds 16 1016 29 10000 6.7 320 12:56 11.01.2020
4510 Clouds 16 1016 29 10000 6.7 320 12:37 11.01.2020
4511 Clouds 16 1016 29 10000 6.7 320 12:19 11.01.2020
4512 Clouds 15 1017 30 10000 6.7 320 11:45 11.01.2020
4513 Clouds 15 1017 30 10000 6.7 320 11:24 11.01.2020
4514 Clouds 14 1018 33 10000 5.7 310 10:50 11.01.2020
4515 Clouds 14 1018 33 10000 5.7 310 10:30 11.01.2020
4516 Clear 14 1018 47 10000 4.1 320 09:44 11.01.2020
4517 Clear 14 1018 47 10000 4.1 320 09:21 11.01.2020
4518 Clear 14 1018 47 10000 4.1 320 09:21 11.01.2020
4519 Clear 14 1018 47 10000 4.1 320 09:21 11.01.2020
4520 Clear 12 1019 54 10000 4.1 320 08:59 11.01.2020
4521 Clear 12 1019 54 10000 4.1 320 08:40 11.01.2020
4522 Clear 11 1018 62 10000 3.1 330 08:19 11.01.2020
4523 Clear 11 1018 62 10000 3.1 330 07:43 11.01.2020
4524 Clear 11 1018 62 10000 3.1 330 07:24 11.01.2020
4525 Clear 8 1017 75 10000 2.1 290 06:43 11.01.2020
4526 Clear 8 1016 70 10000 3.6 330 05:30 11.01.2020
4527 Clear 8 1016 70 10000 2.1 360 04:42 11.01.2020
4528 Clear 8 1016 70 10000 2.1 360 04:24 11.01.2020
4529 Clear 10 1014 50 10000 4.1 340 02:48 11.01.2020
4530 Clear 9 1014 57 10000 2.6 290 01:47 11.01.2020
4531 Clear 9 1014 57 10000 2.6 290 01:28 11.01.2020
4532 Clear 10 1013 53 10000 3.1 310 00:54 11.01.2020
4533 Clear 10 1013 53 10000 3.1 310 00:29 11.01.2020
4534 Clear 11 1014 50 10000 2.1 300 23:59 10.01.2020
4535 Clear 11 1014 50 10000 2.1 300 23:39 10.01.2020
4536 Clear 12 1014 50 10000 2.1 260 23:20 10.01.2020
4537 Clear 12 1014 50 10000 2.1 260 22:41 10.01.2020
4538 Clear 12 1014 50 10000 2.1 260 22:22 10.01.2020
4539 Clear 12 1013 46 10000 2.6 280 21:59 10.01.2020
4540 Clear 12 1013 46 10000 2.6 280 21:41 10.01.2020
4541 Clear 12 1013 46 10000 2.6 280 21:20 10.01.2020
4542 Clear 13 1014 43 10000 3.1 310 20:58 10.01.2020
4543 Clear 13 1014 43 10000 3.1 310 20:40 10.01.2020
4544 Clear 13 1014 43 10000 3.1 310 20:40 10.01.2020
4545 Clear 13 1014 43 10000 3.1 310 20:22 10.01.2020
4546 Clear 14 1013 35 10000 4.1 320 19:41 10.01.2020
4547 Clear 14 1013 35 10000 4.1 320 19:21 10.01.2020
4548 Clear 15 1013 30 10000 5.7 330 18:57 10.01.2020
4549 Clear 15 1013 30 10000 5.7 330 18:39 10.01.2020
4550 Clear 15 1013 30 10000 5.7 330 18:18 10.01.2020
4551 Clear 16 1012 36 10000 3.6 320 17:56 10.01.2020
4552 Clear 16 1012 36 10000 3.6 320 17:38 10.01.2020
4553 Clear 16 1012 28 10000 3.6 320 17:19 10.01.2020
4554 Clear 16 1012 28 10000 3.6 320 17:19 10.01.2020
4555 Clear 18 1011 27 10000 4.6 300 16:43 10.01.2020
4556 Clear 18 1011 27 10000 4.6 300 16:22 10.01.2020
4557 Clear 20 1010 24 10000 5.1 290 15:58 10.01.2020
4558 Clear 20 1010 24 10000 5.1 290 15:39 10.01.2020
4559 Clear 20 1010 24 10000 5.1 290 15:20 10.01.2020
4560 Clear 20 1010 24 10000 3.1 270 14:59 10.01.2020
4561 Clear 20 1010 24 10000 3.1 270 14:41 10.01.2020
4562 Clouds 20 1010 21 10000 4.1 270 14:20 10.01.2020
4563 Clouds 20 1010 21 10000 4.1 270 13:58 10.01.2020
4564 Clouds 20 1010 21 10000 4.1 270 13:39 10.01.2020
4565 Clouds 20 1010 24 10000 4.1 270 13:21 10.01.2020
4566 Clouds 21 1010 35 10000 2.6 260 12:57 10.01.2020
4567 Clouds 21 1010 35 10000 2.6 260 12:38 10.01.2020
4568 Clouds 21 1010 35 10000 2.6 260 12:18 10.01.2020
4569 Clouds 19 1011 45 10000 2.1 260 11:42 10.01.2020
4570 Clouds 19 1011 45 10000 2.1 260 11:42 10.01.2020
4571 Clouds 19 1011 45 10000 2.1 260 11:22 10.01.2020
4572 Clouds 18 1012 59 10000 1 240 10:59 10.01.2020
4573 Clouds 18 1012 59 10000 1 240 10:39 10.01.2020
4574 Clouds 18 1012 59 10000 1 240 10:21 10.01.2020
4575 Clouds 17 1013 63 10000 4.38 268 09:55 10.01.2020
4576 Clouds 17 1013 63 10000 4.38 268 09:37 10.01.2020
4577 Clouds 17 1013 63 10000 4.38 268 09:18 10.01.2020
4578 Clouds 15 1014 72 10000 4.38 268 08:40 10.01.2020
4579 Clouds 15 1014 72 10000 0.82 147 08:21 10.01.2020
4580 Clouds 14 1014 71 10000 0.68 127 07:44 10.01.2020
4581 Clouds 14 1014 71 10000 0.68 127 07:23 10.01.2020
4582 Clouds 10 1014 87 10000 1 220 06:45 10.01.2020
4583 Clouds 10 1014 87 10000 1 220 06:25 10.01.2020
4584 Clouds 9 1014 87 10000 0.68 127 05:44 10.01.2020
4585 Clear 9 1013 87 10000 1 80 03:35 10.01.2020
4586 Clear 10 1013 81 10000 1.23 54 02:58 10.01.2020
4587 Clear 10 1013 81 10000 1.23 54 02:37 10.01.2020
4588 Clouds 11 1013 76 10000 1.5 20 01:38 10.01.2020
4589 Clouds 12 1014 71 10000 2.6 20 00:57 10.01.2020
4590 Clouds 12 1014 71 10000 2.6 20 00:38 10.01.2020
4591 Clear 12 1014 76 8000 1.5 360 23:57 09.01.2020
4592 Clear 12 1014 76 8000 1.5 360 23:38 09.01.2020
4593 Clear 12 1014 76 8000 1.5 360 23:38 09.01.2020
4594 Clear 12 1014 76 8000 1.5 360 23:38 09.01.2020
4595 Clear 12 1014 76 8000 1.5 360 23:38 09.01.2020
4596 Clear 12 1014 76 8000 1.5 360 23:19 09.01.2020
4597 Clear 12 1014 76 8000 1.5 350 22:57 09.01.2020
4598 Clear 12 1014 76 8000 1.5 350 22:37 09.01.2020
4599 -273 0 0 0 0 0 22:18 09.01.2020
4600 Clear 13 1013 71 8000 1 20 21:56 09.01.2020
4601 Clear 13 1013 71 8000 1 20 21:37 09.01.2020
4602 Clear 13 1013 71 8000 1 20 21:37 09.01.2020
4603 Clear 13 1013 71 8000 1 20 21:37 09.01.2020
4604 Clear 13 1013 71 8000 1 20 21:18 09.01.2020
4605 Clear 14 1014 62 8000 1 60 20:55 09.01.2020
4606 Clear 14 1014 62 8000 1 60 20:37 09.01.2020
4607 Clear 14 1014 62 8000 1 60 20:19 09.01.2020
4608 Clouds 15 1014 58 8000 1.5 40 19:39 09.01.2020
4609 Clouds 15 1014 58 8000 1.5 40 19:21 09.01.2020
4610 Clouds 16 1014 48 10000 2.6 40 18:59 09.01.2020
4611 Clouds 16 1014 48 10000 2.6 40 18:40 09.01.2020
4612 Clouds 16 1014 48 10000 2.6 40 18:21 09.01.2020
4613 Clear 17 1013 45 10000 3.1 40 17:57 09.01.2020
4614 Clear 17 1013 45 10000 3.1 40 17:39 09.01.2020
4615 Clear 17 1013 45 10000 3.1 40 17:18 09.01.2020
4616 Clouds 18 1013 42 10000 2.1 70 16:42 09.01.2020
4617 Clouds 18 1013 42 10000 2.1 70 16:21 09.01.2020
4618 Clouds 19 1012 39 10000 2.1 40 15:43 09.01.2020
4619 Clouds 19 1012 39 10000 2.1 40 15:23 09.01.2020
4620 Clouds 20 1012 37 10000 2.1 50 14:59 09.01.2020
4621 Clouds 20 1012 37 10000 2.1 50 14:41 09.01.2020
4622 Clouds 20 1012 37 10000 2.1 50 14:19 09.01.2020
4623 Clouds 20 1012 42 10000 1 60 13:55 09.01.2020
4624 Clouds 20 1012 42 10000 1 60 13:37 09.01.2020
4625 Clouds 20 1012 42 10000 1 60 13:19 09.01.2020
4626 Clouds 21 1013 40 10000 1 360 12:56 09.01.2020
4627 Clouds 21 1013 40 10000 1 360 12:56 09.01.2020
4628 Clouds 21 1013 40 10000 1 360 12:38 09.01.2020
4629 Clouds 21 1013 40 10000 1 360 12:18 09.01.2020
4630 Clouds 20 1014 37 10000 1.5 360 11:42 09.01.2020
4631 Clouds 20 1014 37 10000 1.5 360 11:24 09.01.2020
4632 Clouds 20 1014 37 10000 1.5 360 11:24 09.01.2020
4633 Clouds 18 1015 36 10000 2.1 360 10:58 09.01.2020
4634 Clouds 18 1015 36 10000 2.1 360 10:39 09.01.2020
4635 Clouds 18 1015 36 10000 2.1 360 10:21 09.01.2020
4636 Clouds 17 1016 42 10000 2.6 360 09:45 09.01.2020
4637 Clouds 17 1016 42 10000 2.6 360 09:23 09.01.2020
4638 Clouds 14 1017 47 10000 2.6 360 08:57 09.01.2020
4639 Clouds 14 1017 47 10000 2.6 360 08:38 09.01.2020
4640 Clouds 14 1017 47 10000 2.6 360 08:20 09.01.2020
4641 Clouds 13 1017 50 10000 2.6 340 07:47 09.01.2020
4642 Clouds 13 1017 50 10000 2.6 340 07:28 09.01.2020
4643 Clouds 11 1017 62 10000 3.1 310 06:40 09.01.2020
4644 Clouds 11 1017 62 10000 3.1 310 06:22 09.01.2020
4645 Clouds 12 1016 71 10000 2.1 310 05:51 09.01.2020
4646 Clouds 12 1016 71 10000 2.1 310 05:18 09.01.2020
4647 Clouds 13 1015 71 10000 2.09 144 04:38 09.01.2020
4648 Clouds 13 1015 66 10000 2.09 144 03:27 09.01.2020
4649 Clouds 14 1015 58 10000 2.1 160 02:46 09.01.2020
4650 Clouds 14 1015 58 10000 2.6 160 01:41 09.01.2020
4651 Clouds 15 1015 54 10000 2.6 150 00:57 09.01.2020
4652 Clouds 15 1015 54 10000 2.6 150 00:37 09.01.2020
4653 Clouds 15 1015 54 10000 2.6 150 00:19 09.01.2020
4654 Clouds 16 1015 51 10000 2.1 160 23:39 08.01.2020
4655 Clouds 16 1015 51 10000 2.1 160 23:20 08.01.2020
4656 Clouds 16 1015 48 10000 2.6 150 22:40 08.01.2020
4657 Clouds 16 1015 48 10000 2.6 150 22:22 08.01.2020
4658 Clouds 16 1016 48 10000 3.1 160 21:59 08.01.2020
4659 Clouds 16 1016 48 10000 3.1 160 21:40 08.01.2020
4660 Clouds 16 1016 48 10000 3.1 160 21:20 08.01.2020
4661 Clouds 16 1016 51 10000 3.6 160 20:59 08.01.2020
4662 Clouds 16 1016 51 10000 3.6 160 20:41 08.01.2020
4663 Clouds 16 1016 51 10000 3.6 160 20:21 08.01.2020
4664 Clouds 17 1016 48 10000 3.1 160 19:58 08.01.2020
4665 Clouds 17 1016 48 10000 3.1 160 19:38 08.01.2020
4666 Clouds 17 1016 48 10000 3.1 160 19:19 08.01.2020
4667 Clouds 17 1016 48 10000 3.1 160 18:57 08.01.2020
4668 Clouds 17 1016 48 10000 3.1 160 18:38 08.01.2020
4669 Clouds 17 1016 48 10000 3.1 160 18:18 08.01.2020
4670 Clouds 18 1016 48 10000 1.5 140 17:56 08.01.2020
4671 Clouds 18 1016 48 10000 1.5 140 17:37 08.01.2020
4672 Clouds 18 1016 48 10000 1.5 140 17:18 08.01.2020
4673 Clouds 18 1016 48 10000 1.5 140 17:18 08.01.2020
4674 Clouds 18 1016 45 10000 1.5 150 16:55 08.01.2020
4675 Clouds 18 1016 45 10000 1.5 150 16:37 08.01.2020
4676 Clouds 18 1016 45 10000 1.5 150 16:18 08.01.2020
4677 Clouds 20 1015 34 10000 3.1 170 15:42 08.01.2020
4678 Clouds 20 1015 34 10000 3.1 170 15:21 08.01.2020
4679 Clouds 21 1015 30 10000 3.6 170 14:57 08.01.2020
4680 Clouds 21 1015 30 10000 3.6 170 14:39 08.01.2020
4681 Clouds 21 1015 30 10000 3.6 170 14:20 08.01.2020
4682 Clouds 21 1015 30 10000 3.1 160 13:40 08.01.2020
4683 Clouds 21 1015 30 10000 3.1 160 13:19 08.01.2020
4684 Clouds 20 1015 30 10000 3.1 150 12:43 08.01.2020
4685 Clouds 20 1015 30 10000 3.1 150 12:20 08.01.2020
4686 Clouds 19 1016 29 10000 3.6 170 11:59 08.01.2020
4687 Clouds 19 1016 29 10000 3.6 170 11:41 08.01.2020
4688 Clouds 19 1016 29 10000 3.6 170 11:19 08.01.2020
4689 Clouds 18 1017 31 10000 4.6 170 10:56 08.01.2020
4690 Clouds 18 1017 31 10000 4.6 170 10:37 08.01.2020
4691 Clouds 18 1017 31 10000 4.6 170 10:19 08.01.2020
4692 Clouds 18 1018 37 10000 4.6 170 09:42 08.01.2020
4693 Clouds 18 1018 37 10000 4.6 170 09:20 08.01.2020
4694 Clouds 16 1020 37 10000 4.6 160 08:57 08.01.2020
4695 Clouds 16 1020 37 10000 4.6 160 08:37 08.01.2020
4696 Clear 16 1020 34 10000 4.6 160 08:19 08.01.2020
4697 Clear 14 1020 41 10000 3.6 160 07:49 08.01.2020
4698 Clear 14 1020 41 10000 3.6 160 07:30 08.01.2020
4699 Clear 14 1020 41 10000 3.6 160 07:30 08.01.2020
4700 Clear 12 1019 54 10000 2.1 150 06:48 08.01.2020
4701 Clear 12 1019 54 10000 2.1 150 06:25 08.01.2020
4702 Clear 9 1019 66 10000 1.5 150 05:53 08.01.2020
4703 Clear 9 1019 66 10000 1.5 150 05:53 08.01.2020
4704 Clear 10 1019 61 10000 1.5 140 04:59 08.01.2020
4705 Clear 10 1019 61 10000 1.5 140 04:26 08.01.2020
4706 Clear 10 1019 61 10000 2.1 150 02:45 08.01.2020
4707 Clear 10 1019 61 10000 2.1 150 02:23 08.01.2020
4708 Clear 10 1019 66 10000 2.6 160 01:50 08.01.2020
4709 Clear 10 1019 66 10000 2.6 160 01:23 08.01.2020
4710 Clear 10 1020 71 10000 2.1 150 00:38 08.01.2020
4711 Clear 10 1020 71 10000 2.1 150 00:20 08.01.2020
4712 Clear 11 1020 66 10000 2.1 140 23:43 07.01.2020
4713 Clear 11 1020 66 10000 2.1 140 23:20 07.01.2020
4714 Clear 11 1020 66 10000 2.1 140 23:20 07.01.2020
4715 Clear 11 1021 66 10000 1.5 150 22:40 07.01.2020
4716 Clear 11 1021 66 10000 1.5 150 22:20 07.01.2020
4717 Clear 12 1021 62 10000 1.5 150 21:57 07.01.2020
4718 Clear 12 1021 62 10000 1.5 150 21:38 07.01.2020
4719 Clear 12 1021 62 10000 1.5 150 21:20 07.01.2020
4720 Clear 12 1021 66 10000 1.5 140 20:55 07.01.2020
4721 Clear 12 1021 66 10000 1.5 140 20:36 07.01.2020
4722 Clouds 12 1021 66 10000 1.5 140 20:18 07.01.2020
4723 Clouds 13 1022 62 10000 2.1 130 19:38 07.01.2020
4724 Clouds 13 1022 62 10000 2.1 130 19:20 07.01.2020
4725 Clouds 14 1021 58 10000 1.5 120 18:58 07.01.2020
4726 Clouds 14 1021 58 10000 1.5 120 18:40 07.01.2020
4727 Clouds 14 1021 58 10000 1.5 120 18:19 07.01.2020
4728 Clouds 15 1021 54 10000 2.1 120 17:58 07.01.2020
4729 Clouds 15 1021 54 10000 2.1 120 17:39 07.01.2020
4730 Clouds 15 1021 54 10000 2.1 120 17:20 07.01.2020
4731 Clouds 16 1020 44 10000 2.6 110 16:56 07.01.2020
4732 Clouds 16 1020 44 10000 2.6 110 16:37 07.01.2020
4733 Clouds 16 1020 44 10000 2.6 110 16:19 07.01.2020
4734 Clouds 17 1020 42 10000 2.1 130 15:57 07.01.2020
4735 Clouds 17 1020 42 10000 2.1 130 15:37 07.01.2020
4736 Clouds 17 1020 42 10000 2.1 130 15:18 07.01.2020
4737 Clouds 18 1020 36 10000 2.6 120 14:42 07.01.2020
4738 Clouds 18 1020 36 10000 2.6 120 14:23 07.01.2020
4739 Clouds 18 1020 36 10000 2.6 120 14:23 07.01.2020
4740 Clouds 18 1020 36 10000 2.6 120 13:56 07.01.2020
4741 Clouds 18 1020 36 10000 2.6 120 13:38 07.01.2020
4742 Clouds 18 1020 36 10000 2.6 120 13:18 07.01.2020
4743 Clouds 18 1020 39 10000 2.6 120 12:41 07.01.2020
4744 Clouds 18 1020 39 10000 2.6 120 12:19 07.01.2020
4745 Clouds 17 1022 42 10000 2.1 140 11:44 07.01.2020
4746 Clear 17 1022 42 10000 2.1 140 11:23 07.01.2020
4747 Clear 17 1022 42 10000 2.1 140 11:23 07.01.2020
4748 Clear 16 1023 44 10000 1.5 140 10:59 07.01.2020
4749 Clear 16 1023 44 10000 1.5 140 10:40 07.01.2020
4750 Clear 16 1023 44 10000 1.5 140 10:40 07.01.2020
4751 Clear 16 1023 44 10000 1.5 140 10:22 07.01.2020
4752 Clear 15 1024 54 10000 1.5 100 09:56 07.01.2020
4753 Clear 15 1024 54 10000 1.5 100 09:37 07.01.2020
4754 Clear 15 1024 54 10000 1.5 100 09:37 07.01.2020
4755 Clear 15 1024 54 10000 1.5 100 09:19 07.01.2020
4756 Clear 15 1024 54 10000 1.5 100 09:19 07.01.2020
4757 Clear 14 1025 54 10000 1.5 140 08:41 07.01.2020
4758 Clear 14 1025 54 10000 1.5 140 08:41 07.01.2020
4759 Clear 14 1025 54 10000 1.5 140 08:20 07.01.2020
4760 Clear 11 1025 76 8000 3.49 118 07:49 07.01.2020
4761 Clear 11 1025 76 8000 3.49 118 07:25 07.01.2020
4762 Clear 8 1024 93 7000 3.49 118 06:52 07.01.2020
4763 Clear 8 1024 93 7000 3.49 118 06:32 07.01.2020
4764 Clear 7 1024 87 6000 3.49 118 05:46 07.01.2020
4765 Clear 7 1023 87 10000 2.16 106 03:52 07.01.2020
4766 Clear 7 1023 87 10000 2.16 106 03:25 07.01.2020
4767 Clear 7 1022 87 10000 2.57 103 02:20 07.01.2020
4768 Clear 7 1022 93 10000 2.57 103 01:45 07.01.2020
4769 Clear 7 1022 93 10000 2.61 108 01:21 07.01.2020
4770 Clear 8 1023 87 10000 2.61 108 00:21 07.01.2020
4771 Clear 8 1023 87 10000 2.61 108 23:58 06.01.2020
4772 Clear 8 1023 87 10000 2.61 108 23:39 06.01.2020
4773 Clear 8 1023 87 10000 3.17 84 23:21 06.01.2020
4774 Clear 10 1023 76 10000 1 80 22:56 06.01.2020
4775 Clear 10 1023 76 10000 1 80 22:37 06.01.2020
4776 Clear 10 1023 76 10000 1 80 22:18 06.01.2020
4777 Clear 10 1023 76 10000 1 50 21:54 06.01.2020
4778 Clear 10 1023 76 10000 1 50 21:36 06.01.2020
4779 Clear 10 1023 76 10000 1 50 21:18 06.01.2020
4780 Clear 11 1023 76 10000 1.5 90 20:54 06.01.2020
4781 Clear 11 1023 76 10000 1.5 90 20:36 06.01.2020
4782 Clear 11 1023 76 10000 1.5 90 20:18 06.01.2020
4783 Clear 11 1023 76 10000 1.5 90 20:18 06.01.2020
4784 Clear 11 1023 76 10000 1.5 100 19:54 06.01.2020
4785 Clear 11 1023 76 10000 1.5 100 19:36 06.01.2020
4786 Clear 11 1023 76 10000 1.5 100 19:18 06.01.2020
4787 Clear 12 1023 71 10000 2.1 80 18:41 06.01.2020
4788 Clear 12 1023 71 10000 2.1 80 18:19 06.01.2020
4789 Clear 13 1022 66 10000 2.1 70 17:39 06.01.2020
4790 Clear 13 1022 66 10000 2.1 70 17:19 06.01.2020
4791 Clear 14 1022 62 10000 2.1 60 16:55 06.01.2020
4792 Clear 14 1022 62 10000 2.1 60 16:37 06.01.2020
4793 Clear 14 1022 62 10000 2.1 60 16:18 06.01.2020
4794 Clear 15 1021 51 10000 2.6 50 15:43 06.01.2020
4795 Clear 16 1021 48 10000 2.6 30 15:21 06.01.2020
4796 Clear 16 1021 48 10000 2.6 30 14:59 06.01.2020
4797 Clear 16 1021 48 10000 2.6 30 14:41 06.01.2020
4798 Clear 16 1021 48 10000 2.6 30 14:21 06.01.2020
4799 Clear 16 1021 48 10000 2.6 30 14:21 06.01.2020
4800 Clear 16 1021 51 10000 2.1 70 13:58 06.01.2020
4801 Clear 16 1021 51 10000 2.1 70 13:38 06.01.2020
4802 Clear 16 1021 51 10000 2.1 70 13:20 06.01.2020
4803 Clear 16 1021 51 10000 2.6 60 12:44 06.01.2020
4804 Clear 16 1021 51 10000 2.6 60 12:21 06.01.2020
4805 Clouds 15 1022 58 10000 3.6 50 11:59 06.01.2020
4806 Clouds 15 1022 58 10000 3.6 50 11:41 06.01.2020
4807 Clouds 15 1022 58 10000 3.6 50 11:23 06.01.2020
4808 Clouds 15 1022 67 9000 2.1 20 10:57 06.01.2020
4809 Clouds 15 1022 67 9000 2.1 20 10:39 06.01.2020
4810 Clouds 15 1022 67 9000 2.1 20 10:20 06.01.2020
4811 Clouds 15 1022 67 9000 2.1 20 10:20 06.01.2020
4812 Clear 13 1024 82 7000 1.5 350 09:39 06.01.2020
4813 Clear 13 1024 82 7000 1.5 350 09:20 06.01.2020
4814 Clear 13 1024 76 7000 3.75 48 08:48 06.01.2020
4815 Clear 13 1024 76 7000 3.42 48 08:30 06.01.2020
4816 Clear 10 1024 76 10000 2.1 310 07:53 06.01.2020
4817 Clear 10 1024 76 10000 2.1 310 07:32 06.01.2020
4818 Clear 8 1023 81 10000 1 300 06:46 06.01.2020
4819 Clear 8 1023 81 10000 1 300 06:23 06.01.2020
4820 Clear 7 1022 81 10000 1 290 05:45 06.01.2020
4821 Clear 7 1021 87 10000 1.5 290 04:38 06.01.2020
4822 Clear 7 1021 87 10000 1.5 290 04:19 06.01.2020
4823 Clear 8 1020 87 10000 1.5 300 02:46 06.01.2020
4824 Clear 8 1020 87 10000 1.5 300 02:24 06.01.2020
4825 Clear 9 1020 87 10000 1.5 280 01:44 06.01.2020
4826 Clear 9 1020 87 10000 1.5 280 01:26 06.01.2020
4827 Clear 10 1020 87 10000 1 280 00:42 06.01.2020
4828 Clear 10 1020 87 10000 1 280 00:22 06.01.2020
4829 Clear 10 1020 87 10000 2.1 290 23:42 05.01.2020
4830 Clear 10 1020 87 10000 2.1 290 23:42 05.01.2020
4831 Clear 10 1020 87 10000 2.1 290 23:22 05.01.2020
4832 Clear 10 1020 87 10000 2.6 300 22:56 05.01.2020
4833 Clear 10 1020 87 10000 2.6 300 22:38 05.01.2020
4834 Clear 10 1020 87 10000 2.6 300 22:19 05.01.2020
4835 Clear 11 1020 87 10000 1 250 21:54 05.01.2020
4836 Clear 11 1020 87 10000 1 250 21:36 05.01.2020
4837 Clear 11 1020 87 10000 1 250 21:18 05.01.2020
4838 Clear 10 1020 87 10000 2.17 32 20:55 05.01.2020
4839 Clear 10 1020 87 10000 2.17 32 20:55 05.01.2020
4840 Clear 10 1020 87 10000 2.74 67 20:36 05.01.2020
4841 Clouds 10 1020 87 10000 3.31 64 20:18 05.01.2020
4842 Clouds 11 1019 87 10000 3.31 64 19:54 05.01.2020
4843 Clouds 11 1019 87 10000 3.31 64 19:54 05.01.2020
4844 Clouds 11 1019 87 10000 3.31 64 19:36 05.01.2020
4845 Clouds 11 1019 87 10000 3.31 64 19:18 05.01.2020
4846 Clouds 12 1019 81 10000 1 40 18:54 05.01.2020
4847 Clouds 12 1019 81 10000 1 40 18:36 05.01.2020
4848 Clouds 12 1019 81 10000 1 40 18:18 05.01.2020
4849 Clouds 13 1018 71 10000 2.6 30 17:39 05.01.2020
4850 Clouds 13 1018 71 10000 2.6 30 17:20 05.01.2020
4851 Clouds 13 1017 76 10000 3.1 350 16:58 05.01.2020
4852 Clouds 13 1017 76 10000 3.1 350 16:39 05.01.2020
4853 Clouds 13 1017 76 10000 3.1 350 16:20 05.01.2020
4854 Clouds 13 1016 76 10000 2.1 30 15:41 05.01.2020
4855 Clouds 13 1016 76 10000 2.1 30 15:22 05.01.2020
4856 Clouds 13 1016 76 10000 2.1 30 15:22 05.01.2020
4857 Clouds 13 1016 76 10000 2.1 30 15:22 05.01.2020
4858 Clouds 13 1016 76 10000 4.1 360 14:57 05.01.2020
4859 Clouds 13 1016 76 10000 4.1 360 14:39 05.01.2020
4860 Clouds 13 1016 76 10000 4.1 360 14:21 05.01.2020
4861 Clouds 13 1015 87 6000 3.6 10 13:58 05.01.2020
4862 Clouds 13 1015 87 6000 3.6 10 13:38 05.01.2020
4863 Clouds 13 1015 87 6000 3.6 10 13:20 05.01.2020
4864 Clouds 13 1015 87 6000 3.1 350 12:57 05.01.2020
4865 Clouds 13 1015 87 6000 3.1 350 12:38 05.01.2020
4866 Clouds 13 1015 87 6000 3.1 350 12:20 05.01.2020
4867 Clouds 13 1015 87 6000 2.6 30 11:54 05.01.2020
4868 Clouds 13 1015 87 6000 2.6 30 11:36 05.01.2020
4869 Clouds 13 1015 87 6000 2.6 30 11:18 05.01.2020
4870 Mist 13 1015 87 5000 3.1 20 10:41 05.01.2020
4871 Mist 13 1015 87 5000 3.1 20 10:20 05.01.2020
4872 Mist 13 1016 87 4000 1.5 50 09:55 05.01.2020
4873 Mist 13 1016 87 4000 1.5 50 09:36 05.01.2020
4874 Mist 13 1016 87 4000 1.5 50 09:18 05.01.2020
4875 Mist 13 1017 87 3000 2.1 80 08:44 05.01.2020
4876 Mist 13 1017 87 3000 2.1 80 08:21 05.01.2020
4877 Thunderstorm 13 1017 87 3000 3.6 70 07:44 05.01.2020
4878 Thunderstorm 13 1017 87 3000 3.6 70 07:44 05.01.2020
4879 Thunderstorm 13 1017 87 3000 3.6 70 07:26 05.01.2020
4880 Thunderstorm 13 1017 93 3000 3.6 70 06:55 05.01.2020
4881 Thunderstorm 14 1016 87 4000 3.6 50 05:43 05.01.2020
4882 Thunderstorm 15 1015 93 4000 1.5 10 04:56 05.01.2020
4883 Thunderstorm 15 1015 93 4000 1.5 10 04:19 05.01.2020
4884 Thunderstorm 15 1015 93 4000 1.5 10 04:19 05.01.2020
4885 Thunderstorm 15 1015 93 4000 1 80 03:38 05.01.2020
4886 Thunderstorm 15 1014 87 5000 1 80 02:35 05.01.2020
4887 Thunderstorm 15 1015 87 5000 1 160 01:52 05.01.2020
4888 Thunderstorm 15 1014 87 9000 1.5 130 01:20 05.01.2020
4889 Thunderstorm 15 1014 87 10000 1.5 120 00:57 05.01.2020
4890 Thunderstorm 15 1014 87 10000 1.5 120 00:39 05.01.2020
4891 Thunderstorm 15 1014 87 10000 1.5 120 00:20 05.01.2020
4892 Thunderstorm 14 1015 93 6000 1 120 23:42 04.01.2020
4893 Thunderstorm 14 1015 93 6000 1 120 23:21 04.01.2020
4894 Thunderstorm 15 1016 82 3000 2.1 330 22:59 04.01.2020
4895 Thunderstorm 15 1016 82 3000 2.1 330 22:39 04.01.2020
4896 Thunderstorm 19 1015 52 8000 1.5 40 22:20 04.01.2020
4897 Thunderstorm 19 1015 52 8000 1.5 40 21:56 04.01.2020
4898 Thunderstorm 19 1015 52 8000 1.5 40 21:37 04.01.2020
4899 Thunderstorm 19 1015 52 8000 1.5 40 21:19 04.01.2020
4900 Clouds 19 1016 55 10000 2.1 30 20:55 04.01.2020
4901 Clouds 19 1016 55 10000 2.1 30 20:36 04.01.2020
4902 Clouds 19 1016 55 10000 2.1 30 20:36 04.01.2020
4903 Clouds 19 1016 55 10000 2.1 30 20:18 04.01.2020
4904 Clouds 20 1016 52 10000 3.1 40 19:41 04.01.2020
4905 Clouds 20 1016 52 10000 3.1 40 19:23 04.01.2020
4906 Clouds 20 1015 56 10000 4.1 30 18:57 04.01.2020
4907 Clouds 20 1015 56 10000 4.1 30 18:38 04.01.2020
4908 Clouds 20 1015 56 10000 4.1 30 18:19 04.01.2020
4909 Clouds 22 1015 49 10000 3.1 20 17:55 04.01.2020
4910 Clouds 22 1015 49 10000 3.1 20 17:37 04.01.2020
4911 Clouds 22 1015 49 10000 3.1 20 17:18 04.01.2020
4912 Clouds 23 1014 43 10000 5.1 350 16:40 04.01.2020
4913 Clouds 23 1014 43 10000 5.1 350 16:22 04.01.2020
4914 Clouds 23 1014 43 10000 5.1 350 16:22 04.01.2020
4915 Clouds 24 1013 41 10000 6.2 350 15:56 04.01.2020
4916 Clouds 24 1013 41 10000 6.2 350 15:38 04.01.2020
4917 Clouds 24 1013 41 10000 6.2 350 15:19 04.01.2020
4918 Clouds 26 1013 39 10000 4.6 340 14:55 04.01.2020
4919 Clouds 26 1013 39 10000 4.6 340 14:55 04.01.2020
4920 Clouds 26 1013 39 10000 4.6 340 14:36 04.01.2020
4921 Clouds 26 1013 39 10000 4.6 340 14:18 04.01.2020
4922 Clouds 27 1013 39 10000 5.7 290 13:54 04.01.2020
4923 Clouds 27 1013 39 10000 5.7 290 13:36 04.01.2020
4924 Clouds 27 1013 39 10000 5.7 290 13:18 04.01.2020
4925 Clouds 27 1013 39 10000 4.1 260 12:41 04.01.2020
4926 Clouds 27 1013 39 10000 4.1 260 12:19 04.01.2020
4927 Clear 27 1013 36 10000 3.6 240 11:57 04.01.2020
4928 Clear 27 1013 36 10000 3.6 240 11:38 04.01.2020
4929 Clear 27 1013 36 10000 3.6 240 11:19 04.01.2020
4930 Clear 27 1015 39 10000 3.6 240 10:42 04.01.2020
4931 Clear 27 1015 39 10000 3.6 240 10:23 04.01.2020
4932 Clear 26 1016 34 10000 4.6 230 09:57 04.01.2020
4933 Clear 26 1016 34 10000 4.6 230 09:39 04.01.2020
4934 Clear 26 1016 34 10000 4.6 230 09:20 04.01.2020
4935 Clear 25 1016 27 10000 5.7 220 08:40 04.01.2020
4936 Clear 25 1016 27 10000 5.7 220 08:20 04.01.2020
4937 Clear 23 1017 33 10000 2.1 170 07:42 04.01.2020
4938 Clear 23 1017 33 10000 2.1 170 07:19 04.01.2020
4939 Clear 20 1016 42 10000 1.5 150 06:33 04.01.2020
4940 Clear 18 1016 45 10000 1.5 150 05:19 04.01.2020
4941 Clear 18 1015 45 10000 1.5 90 04:34 04.01.2020
4942 Clear 18 1015 48 10000 1 60 03:43 04.01.2020
4943 Clear 18 1015 48 10000 1 60 03:18 04.01.2020
4944 Clear 20 1014 37 10000 2.6 180 02:21 04.01.2020
4945 Clear 20 1014 37 10000 2.6 180 02:21 04.01.2020
4946 Clear 20 1014 42 10000 1.5 150 01:55 04.01.2020
4947 Clear 20 1014 42 10000 1.5 150 01:31 04.01.2020
4948 Clear 19 1015 45 10000 1.5 80 00:43 04.01.2020
4949 Clear 19 1015 45 10000 1.5 80 00:23 04.01.2020
4950 Clear 21 1015 40 10000 1.5 150 23:44 03.01.2020
4951 Clear 21 1015 40 10000 1.5 150 23:25 03.01.2020
4952 Clear 22 1015 33 10000 3.6 170 22:41 03.01.2020
4953 Clear 22 1015 33 10000 3.6 170 22:20 03.01.2020
4954 Clear 22 1015 35 10000 3.1 160 21:59 03.01.2020
4955 Clear 22 1015 35 10000 3.1 160 21:38 03.01.2020
4956 Clear 22 1015 35 10000 3.1 160 21:19 03.01.2020
4957 Clear 22 1016 33 10000 3.1 160 20:58 03.01.2020
4958 Clear 22 1016 33 10000 3.1 160 20:40 03.01.2020
4959 Clear 22 1016 33 10000 3.1 160 20:18 03.01.2020
4960 Clear 22 1016 35 10000 2.1 160 19:56 03.01.2020
4961 Clear 22 1016 35 10000 2.1 160 19:37 03.01.2020
4962 Clear 22 1016 35 10000 2.1 160 19:19 03.01.2020
4963 Clear 23 1016 38 10000 2.1 160 18:43 03.01.2020
4964 Clear 23 1016 38 10000 2.1 160 18:24 03.01.2020
4965 Clear 25 1016 36 10000 2.1 160 17:55 03.01.2020
4966 Clear 25 1016 36 10000 2.1 160 17:37 03.01.2020
4967 Clear 25 1016 36 10000 2.1 160 17:37 03.01.2020
4968 Clear 25 1016 36 10000 2.1 160 17:18 03.01.2020
4969 Clear 25 1016 36 10000 2.1 160 17:18 03.01.2020
4970 Clear 27 1016 32 10000 1.5 230 16:42 03.01.2020
4971 Clear 27 1016 32 10000 1.5 230 16:23 03.01.2020
4972 Clear 28 1015 28 10000 2.6 230 15:44 03.01.2020
4973 Clear 28 1015 28 10000 2.6 230 15:19 03.01.2020
4974 Clear 30 1015 23 10000 4.6 230 14:59 03.01.2020
4975 Clear 30 1015 23 10000 4.6 230 14:38 03.01.2020
4976 Clear 30 1015 23 10000 4.6 230 14:19 03.01.2020
4977 Clear 29 1015 23 10000 4.6 230 13:44 03.01.2020
4978 Clear 29 1015 23 10000 4.6 230 13:44 03.01.2020
4979 Clear 29 1015 23 10000 4.6 230 13:44 03.01.2020
4980 Clear 29 1015 23 10000 4.6 230 13:24 03.01.2020
4981 Clear 29 1015 23 10000 4.6 200 12:59 03.01.2020
4982 Clear 29 1015 23 10000 4.6 200 12:39 03.01.2020
4983 Clear 29 1015 23 10000 4.6 200 12:21 03.01.2020
4984 Clear 28 1016 24 10000 3.6 190 11:45 03.01.2020
4985 Clear 28 1016 24 10000 3.6 190 11:21 03.01.2020
4986 Clear 26 1017 29 10000 4.1 190 10:45 03.01.2020
4987 Clear 26 1017 29 10000 4.1 190 10:26 03.01.2020
4988 Clear 24 1018 33 10000 3.1 180 09:58 03.01.2020
4989 Clear 24 1018 33 10000 3.1 180 09:39 03.01.2020
4990 Clear 24 1018 33 10000 3.1 180 09:21 03.01.2020
4991 Clear 23 1019 38 10000 2.6 190 08:56 03.01.2020
4992 Clear 23 1019 38 10000 2.6 190 08:38 03.01.2020
4993 Clear 23 1019 38 10000 2.6 190 08:19 03.01.2020
4994 Clear 19 1020 52 10000 2.6 160 07:40 03.01.2020
4995 Clear 19 1020 52 10000 2.6 160 07:18 03.01.2020
4996 Clear 17 1019 63 10000 1.5 150 06:49 03.01.2020
4997 Clear 17 1019 63 10000 1.5 150 06:30 03.01.2020
4998 Clear 15 1019 72 10000 1.5 120 05:45 03.01.2020
4999 Clear 16 1018 67 10000 2.1 140 04:22 03.01.2020
5000 Clear 17 1018 59 10000 2.6 160 02:56 03.01.2020
5001 Clear 17 1018 59 10000 2.6 160 02:56 03.01.2020
5002 Clear 17 1018 59 10000 2.6 160 02:33 03.01.2020
5003 Clear 17 1018 55 10000 3.1 150 01:42 03.01.2020
5004 Clear 17 1018 55 10000 3.6 160 00:50 03.01.2020
5005 Clear 17 1018 55 10000 3.6 160 00:30 03.01.2020
5006 Clear 17 1018 55 10000 2.6 160 23:55 02.01.2020
5007 Clear 17 1018 55 10000 2.6 160 23:37 02.01.2020
5008 Clear 17 1018 55 10000 2.6 160 23:18 02.01.2020
5009 Clear 18 1018 52 10000 4.6 170 22:45 02.01.2020
5010 Clear 18 1018 52 10000 4.6 170 22:45 02.01.2020
5011 Clear 18 1018 52 10000 4.6 170 22:21 02.01.2020
5012 Clear 18 1019 52 10000 2.1 150 21:59 02.01.2020
5013 Clear 18 1019 52 10000 2.1 150 21:41 02.01.2020
5014 Clear 18 1019 52 10000 2.1 150 21:23 02.01.2020
5015 Clear 19 1019 45 10000 2.6 160 20:58 02.01.2020
5016 Clear 19 1019 45 10000 2.6 160 20:39 02.01.2020
5017 Clear 19 1019 45 10000 2.6 160 20:39 02.01.2020
5018 Clear 19 1019 45 10000 2.6 160 20:21 02.01.2020
5019 Clear 20 1019 42 10000 3.1 160 19:55 02.01.2020
5020 Clear 20 1019 42 10000 3.1 160 19:55 02.01.2020
5021 Clear 20 1019 42 10000 3.1 160 19:55 02.01.2020
5022 Clear 20 1019 42 10000 3.1 160 19:37 02.01.2020
5023 Clear 20 1019 42 10000 3.1 160 19:19 02.01.2020
5024 Clear 20 1018 42 10000 2.6 150 18:57 02.01.2020
5025 Clear 20 1018 42 10000 2.6 150 18:38 02.01.2020
5026 Clear 20 1018 42 10000 2.6 150 18:20 02.01.2020
5027 Clear 21 1018 40 10000 2.6 140 17:56 02.01.2020
5028 Clear 21 1018 40 10000 2.6 140 17:36 02.01.2020
5029 Clear 21 1018 40 10000 2.6 140 17:18 02.01.2020
5030 Clear 22 1017 40 10000 2.6 150 16:56 02.01.2020
5031 Clear 22 1017 40 10000 2.6 150 16:38 02.01.2020
5032 Clear 22 1017 40 10000 2.6 150 16:19 02.01.2020
5033 Clear 23 1017 38 10000 3.6 160 15:45 02.01.2020
5034 Clear 23 1017 38 10000 3.6 160 15:24 02.01.2020
5035 Clear 24 1016 33 10000 4.6 160 14:58 02.01.2020
5036 Clear 24 1016 33 10000 4.6 160 14:38 02.01.2020
5037 Clouds 24 1016 33 10000 4.6 160 14:20 02.01.2020
5038 Clouds 23 1016 35 10000 4.1 160 13:58 02.01.2020
5039 Clouds 23 1016 35 10000 4.1 160 13:40 02.01.2020
5040 Clouds 23 1016 35 10000 4.1 160 13:19 02.01.2020
5041 Clouds 22 1017 37 10000 4.1 160 12:42 02.01.2020
5042 Clouds 21 1017 40 10000 4.6 180 12:21 02.01.2020
5043 Clouds 21 1017 40 10000 4.6 180 11:42 02.01.2020
5044 Clouds 21 1017 40 10000 4.6 180 11:22 02.01.2020
5045 Clouds 20 1018 37 10000 5.7 170 10:46 02.01.2020
5046 Clouds 20 1018 37 10000 5.7 170 10:28 02.01.2020
5047 Clouds 18 1020 36 10000 4.1 160 09:58 02.01.2020
5048 Clouds 18 1020 36 10000 4.1 160 09:36 02.01.2020
5049 Clouds 17 1021 36 10000 3.6 160 08:59 02.01.2020
5050 Clouds 17 1021 36 10000 3.6 160 08:40 02.01.2020
5051 Clouds 17 1021 36 10000 3.6 160 08:21 02.01.2020
5052 Clouds 16 1021 31 10000 4.6 160 07:47 02.01.2020
5053 Clouds 16 1021 31 10000 4.6 160 07:27 02.01.2020
5054 Clouds 13 1020 43 10000 2.6 140 06:43 02.01.2020
5055 Clouds 12 1019 43 10000 2.1 150 05:42 02.01.2020
5056 Clouds 12 1019 46 10000 1.5 150 04:36 02.01.2020
5057 Clouds 13 1018 45 10000 2.6 150 03:44 02.01.2020
5058 Clouds 12 1017 46 10000 1.5 150 02:21 02.01.2020
5059 Clouds 13 1018 42 10000 2.6 130 01:57 02.01.2020
5060 Clouds 13 1018 43 10000 2.6 130 01:26 02.01.2020
5061 Clouds 13 1018 47 10000 1 160 00:49 02.01.2020
5062 Clouds 13 1018 47 10000 1 160 00:26 02.01.2020
5063 Clouds 13 1018 47 10000 1 160 00:26 02.01.2020
5064 Clouds 14 1018 41 10000 1.5 140 23:43 01.01.2020
5065 Clouds 14 1018 41 10000 1.5 140 23:43 01.01.2020
5066 Clouds 14 1018 41 10000 1.5 140 23:23 01.01.2020
5067 Clouds 13 1018 43 10000 1.5 100 22:39 01.01.2020
5068 Clouds 13 1018 43 10000 1.5 100 22:21 01.01.2020
5069 Clouds 14 1019 41 10000 1.5 90 21:59 01.01.2020
5070 Clouds 14 1019 41 10000 1.5 90 21:40 01.01.2020
5071 Clouds 14 1019 41 10000 1.5 90 21:21 01.01.2020
5072 Clouds 15 1019 41 10000 1.5 90 20:58 01.01.2020
5073 Clouds 15 1019 41 10000 1.5 90 20:38 01.01.2020
5074 Clouds 15 1019 41 10000 1.5 90 20:20 01.01.2020
5075 Clouds 16 1019 34 10000 2.1 100 19:57 01.01.2020
5076 Clouds 16 1019 34 10000 2.1 100 19:38 01.01.2020
5077 Clouds 16 1019 34 10000 2.1 100 19:20 01.01.2020
5078 Clouds 16 1018 36 10000 2.6 100 18:57 01.01.2020
5079 Clouds 16 1018 36 10000 2.6 100 18:38 01.01.2020
5080 Clouds 16 1018 36 10000 2.6 100 18:20 01.01.2020
5081 Clouds 17 1018 33 10000 3.1 100 17:57 01.01.2020
5082 Clouds 17 1018 33 10000 3.1 100 17:39 01.01.2020
5083 Clouds 17 1018 33 10000 3.1 100 17:19 01.01.2020
5084 Clouds 18 1017 31 10000 3.6 110 16:57 01.01.2020
5085 Clouds 18 1017 31 10000 3.6 110 16:37 01.01.2020
5086 Clouds 18 1017 31 10000 3.6 110 16:19 01.01.2020
5087 Clouds 19 1016 29 10000 3.6 100 15:54 01.01.2020
5088 Clouds 19 1016 29 10000 3.6 100 15:36 01.01.2020
5089 Clouds 19 1016 29 10000 3.6 100 15:36 01.01.2020
5090 Clouds 19 1016 29 10000 3.6 100 15:36 01.01.2020
5091 Clouds 19 1016 29 10000 3.6 100 15:18 01.01.2020
5092 Clouds 19 1016 32 10000 2.6 110 14:42 01.01.2020
5093 Clouds 19 1016 32 10000 2.6 110 14:24 01.01.2020
5094 Clear 19 1016 29 10000 3.1 90 13:57 01.01.2020
5095 Clear 19 1016 29 10000 3.1 90 13:38 01.01.2020
5096 Clear 19 1016 29 10000 3.1 90 13:19 01.01.2020
5097 Clear 19 1016 29 10000 3.1 70 12:58 01.01.2020
5098 Clear 19 1016 29 10000 3.1 70 12:40 01.01.2020
5099 Clear 19 1016 29 10000 3.1 70 12:19 01.01.2020
5100 Clear 19 1016 29 10000 3.1 70 12:19 01.01.2020
5101 Clear 18 1017 31 10000 2.6 60 11:56 01.01.2020
5102 Clear 18 1017 31 10000 2.6 60 11:38 01.01.2020
5103 Clear 18 1017 31 10000 2.6 60 11:19 01.01.2020
5104 Clear 18 1018 31 10000 3.1 60 10:54 01.01.2020
5105 Clear 18 1018 31 10000 3.1 60 10:36 01.01.2020
5106 Clear 18 1018 31 10000 3.1 60 10:18 01.01.2020
5107 Clear 17 1020 36 10000 2.6 50 09:39 01.01.2020
5108 Clear 17 1020 36 10000 2.6 50 09:20 01.01.2020
5109 Clouds 16 1020 36 10000 3.6 60 08:56 01.01.2020
5110 Clouds 16 1020 36 10000 3.6 60 08:37 01.01.2020
5111 Clouds 16 1020 36 10000 3.6 60 08:19 01.01.2020
5112 Clouds 14 1020 44 10000 2.1 20 07:56 01.01.2020
5113 Clouds 14 1020 44 10000 2.1 20 07:38 01.01.2020
5114 Clouds 13 1020 47 10000 2.6 10 06:46 01.01.2020
5115 Clouds 13 1020 47 10000 2.6 10 06:22 01.01.2020
5116 Clouds 12 1019 58 10000 1.5 30 05:45 01.01.2020
5117 Clouds 13 1018 54 10000 2.1 30 03:48 01.01.2020
5118 Clouds 13 1018 54 10000 2.1 30 03:28 01.01.2020
5119 Clouds 13 1018 47 10000 2.1 10 02:59 01.01.2020
5120 Clouds 13 1018 47 10000 2.1 10 02:40 01.01.2020
5121 Clouds 13 1018 47 10000 2.1 10 02:21 01.01.2020
5122 Clouds 14 1018 47 10000 3.6 360 01:39 01.01.2020
5123 Clouds 14 1018 47 10000 3.6 360 01:39 01.01.2020
5124 Clouds 14 1018 47 10000 3.6 360 01:21 01.01.2020
5125 Clouds 14 1018 47 10000 3.6 360 00:44 01.01.2020
5126 Clouds 14 1018 47 10000 3.6 360 00:26 01.01.2020
5127 Clouds 16 1018 41 10000 4.6 360 23:42 31.12.2019
5128 Clouds 16 1018 41 10000 4.6 360 23:22 31.12.2019
5129 Clouds 16 1018 44 10000 2.6 350 22:59 31.12.2019
5130 Clouds 16 1018 44 10000 2.6 350 22:39 31.12.2019
5131 Clouds 16 1018 44 10000 2.6 350 22:20 31.12.2019
5132 Clouds 16 1018 44 10000 2.1 350 21:58 31.12.2019
5133 Clouds 16 1018 44 10000 2.1 350 21:40 31.12.2019
5134 Clouds 16 1018 44 10000 2.1 350 21:21 31.12.2019
5135 Clouds 17 1019 39 10000 3.6 350 20:56 31.12.2019
5136 Clouds 17 1019 39 10000 3.6 350 20:37 31.12.2019
5137 Clouds 17 1019 39 10000 3.6 350 20:19 31.12.2019
5138 Clouds 18 1018 36 10000 3.6 350 19:54 31.12.2019
5139 Clouds 18 1018 36 10000 3.6 350 19:36 31.12.2019
5140 Clouds 18 1018 36 10000 3.6 350 19:18 31.12.2019
5141 Clouds 19 1018 37 10000 3.6 10 18:54 31.12.2019
5142 Clouds 19 1018 37 10000 3.6 10 18:36 31.12.2019
5143 Clouds 19 1018 37 10000 3.6 10 18:18 31.12.2019
5144 Clouds 19 1018 37 10000 3.6 10 18:18 31.12.2019
5145 Clouds 21 1017 30 10000 4.6 10 17:54 31.12.2019
5146 Clouds 21 1017 30 10000 4.6 10 17:36 31.12.2019
5147 Clear 21 1017 30 10000 4.6 10 17:18 31.12.2019
5148 Clear 23 1016 35 10000 2.1 350 16:54 31.12.2019
5149 Clear 23 1016 35 10000 2.1 350 16:36 31.12.2019
5150 Clear 23 1016 35 10000 2.1 350 16:18 31.12.2019
5151 Clear 23 1016 35 10000 2.1 350 16:18 31.12.2019
5152 Clear 26 1016 27 10000 2.6 290 15:54 31.12.2019
5153 Clear 26 1016 27 10000 2.6 290 15:36 31.12.2019
5154 Clear 26 1016 27 10000 2.6 290 15:36 31.12.2019
5155 Clear 26 1016 27 10000 2.6 290 15:18 31.12.2019
5156 Clear 27 1015 24 10000 3.1 260 14:54 31.12.2019
5157 Clear 27 1015 24 10000 3.1 260 14:36 31.12.2019
5158 Clear 27 1015 24 10000 3.1 260 14:18 31.12.2019
5159 Clear 27 1015 26 10000 2.6 220 13:54 31.12.2019
5160 Clear 27 1015 26 10000 2.6 220 13:36 31.12.2019
5161 Clear 27 1015 26 10000 2.6 220 13:18 31.12.2019
5162 Clear 27 1016 26 10000 3.6 250 12:40 31.12.2019
5163 Clear 27 1016 26 10000 3.6 250 12:40 31.12.2019
5164 Clear 27 1016 26 10000 3.6 250 12:20 31.12.2019
5165 Clear 26 1016 26 10000 3.6 220 11:57 31.12.2019
5166 Clear 26 1016 26 10000 3.6 220 11:39 31.12.2019
5167 Clear 26 1016 26 10000 3.6 220 11:20 31.12.2019
5168 Clear 25 1018 25 10000 4.1 240 10:58 31.12.2019
5169 Clear 25 1018 25 10000 4.1 240 10:38 31.12.2019
5170 Clear 25 1018 25 10000 4.1 240 10:20 31.12.2019
5171 Clear 24 1019 27 9000 2.6 220 09:59 31.12.2019
5172 Clear 24 1019 27 9000 2.6 220 09:39 31.12.2019
5173 Clear 24 1019 27 9000 2.6 220 09:39 31.12.2019
5174 Clear 24 1019 27 9000 2.6 220 09:39 31.12.2019
5175 Clear 24 1019 27 9000 2.6 220 09:21 31.12.2019
5176 Clear 21 1020 37 9000 2.1 180 08:57 31.12.2019
5177 Clear 21 1020 37 9000 2.1 180 08:39 31.12.2019
5178 Clear 21 1020 37 9000 2.1 180 08:19 31.12.2019
5179 Clear 16 1020 48 10000 2.68 249 07:43 31.12.2019
5180 Clear 16 1020 48 10000 2.68 249 07:21 31.12.2019
5181 Clear 13 1020 58 10000 2.68 249 06:50 31.12.2019
5182 Clear 13 1019 54 10000 2.68 249 05:58 31.12.2019
5183 Clear 12 1019 58 10000 1.06 234 04:30 31.12.2019
5184 Clear 13 1018 50 10000 1.06 234 03:38 31.12.2019
5185 Clear 12 1018 58 10000 1.06 234 02:55 31.12.2019
5186 Clouds 12 1018 58 10000 0.64 206 02:19 31.12.2019
5187 Clouds 14 1018 47 10000 0.64 206 01:48 31.12.2019
5188 Clouds 14 1018 47 10000 0.64 206 01:27 31.12.2019
5189 Clear 14 1018 50 10000 1 160 00:46 31.12.2019
5190 Clear 14 1018 50 10000 1 160 00:22 31.12.2019
5191 Clear 15 1019 44 10000 1.5 140 23:56 30.12.2019
5192 Clear 15 1019 44 10000 1.5 140 23:38 30.12.2019
5193 Clear 15 1019 44 10000 1.5 140 23:20 30.12.2019
5194 Clear 15 1019 44 10000 2.1 130 22:57 30.12.2019
5195 Clear 15 1019 44 10000 2.1 130 22:38 30.12.2019
5196 Clear 15 1019 44 10000 2.1 130 22:20 30.12.2019
5197 Clear 16 1019 38 10000 2.6 160 21:56 30.12.2019
5198 Clear 16 1019 38 10000 2.6 160 21:38 30.12.2019
5199 Clear 16 1019 38 10000 2.6 160 21:38 30.12.2019
5200 Clear 16 1019 38 10000 2.6 160 21:18 30.12.2019
5201 Clear 16 1020 41 10000 1.5 150 20:56 30.12.2019
5202 Clear 16 1020 41 10000 1.5 150 20:56 30.12.2019
5203 Clear 16 1020 41 10000 1.5 150 20:38 30.12.2019
5204 Clouds 16 1020 41 10000 1.5 150 20:20 30.12.2019
5205 Clouds 16 1020 41 10000 1.5 130 19:57 30.12.2019
5206 Clouds 16 1020 41 10000 1.5 130 19:37 30.12.2019
5207 Clouds 16 1020 41 10000 1.5 130 19:19 30.12.2019
5208 Clouds 18 1020 36 10000 1.5 130 18:56 30.12.2019
5209 Clouds 18 1020 36 10000 1.5 130 18:38 30.12.2019
5210 Clouds 18 1020 36 10000 1.5 130 18:20 30.12.2019
5211 Clouds 19 1019 34 10000 1.5 140 17:55 30.12.2019
5212 Clouds 19 1019 34 10000 1.5 140 17:36 30.12.2019
5213 Clouds 19 1019 34 10000 1.5 140 17:36 30.12.2019
5214 Clouds 19 1019 34 10000 1.5 140 17:18 30.12.2019
5215 Clouds 21 1018 28 10000 2.1 130 16:55 30.12.2019
5216 Clouds 21 1018 28 10000 2.1 130 16:55 30.12.2019
5217 Clouds 21 1018 28 10000 2.1 130 16:36 30.12.2019
5218 Clouds 21 1018 28 10000 2.1 130 16:18 30.12.2019
5219 Clouds 23 1018 28 10000 2.1 160 15:54 30.12.2019
5220 Clouds 23 1018 28 10000 2.1 160 15:36 30.12.2019
5221 Clouds 23 1018 28 10000 2.1 160 15:18 30.12.2019
5222 Clouds 24 1018 23 10000 2.6 160 14:42 30.12.2019
5223 Clouds 24 1018 23 10000 2.6 160 14:42 30.12.2019
5224 Clouds 24 1018 23 10000 2.6 160 14:19 30.12.2019
5225 Clouds 25 1018 20 10000 3.1 180 13:55 30.12.2019
5226 Clouds 25 1018 20 10000 3.1 180 13:37 30.12.2019
5227 Clouds 25 1018 20 10000 3.1 180 13:18 30.12.2019
5228 Clouds 24 1018 22 10000 3.6 170 12:42 30.12.2019
5229 Clouds 24 1018 22 10000 3.6 170 12:20 30.12.2019
5230 Clouds 24 1018 22 10000 3.6 190 11:58 30.12.2019
5231 Clouds 24 1018 22 10000 3.6 190 11:40 30.12.2019
5232 Clear 24 1018 22 10000 3.6 190 11:19 30.12.2019
5233 Clear 22 1019 24 10000 4.6 180 10:44 30.12.2019
5234 Clear 22 1019 24 10000 4.6 180 10:21 30.12.2019
5235 Clear 21 1021 26 10000 5.1 170 09:58 30.12.2019
5236 Clear 21 1021 26 10000 5.1 170 09:39 30.12.2019
5237 Clear 21 1021 26 10000 5.1 170 09:19 30.12.2019
5238 Clear 19 1022 29 10000 5.7 170 08:50 30.12.2019
5239 Clear 19 1022 29 10000 5.7 170 08:50 30.12.2019
5240 Clear 19 1022 29 10000 5.7 170 08:23 30.12.2019
5241 Clear 18 1022 34 10000 4.6 170 07:55 30.12.2019
5242 Clear 18 1022 34 10000 4.6 170 07:34 30.12.2019
5243 Clear 14 1021 47 10000 2.1 160 06:52 30.12.2019
5244 Clear 11 1020 53 10000 1.5 140 04:57 30.12.2019
5245 Clear 12 1020 50 10000 1.5 160 03:55 30.12.2019
5246 Clear 14 1019 41 10000 2.1 170 02:56 30.12.2019
5247 Clear 14 1019 41 10000 2.1 170 02:37 30.12.2019
5248 Clear 13 1019 32 10000 2.1 160 01:50 30.12.2019
5249 Clear 13 1019 33 10000 2.1 160 01:21 30.12.2019
5250 Clear 14 1020 41 10000 3.1 170 00:44 30.12.2019
5251 Clear 14 1020 41 10000 3.1 170 00:18 30.12.2019
5252 Clear 15 1020 33 10000 4.1 170 23:39 29.12.2019
5253 Clear 15 1020 33 10000 4.1 170 23:39 29.12.2019
5254 Clear 15 1020 30 10000 4.1 170 23:21 29.12.2019
5255 Clear 15 1020 41 10000 1.5 160 22:43 29.12.2019
5256 Clear 15 1020 41 10000 1.5 160 22:24 29.12.2019
5257 Clear 15 1020 30 10000 2.1 150 21:59 29.12.2019
5258 Clear 15 1020 30 10000 2.1 150 21:41 29.12.2019
5259 Clear 15 1020 30 10000 2.1 150 21:20 29.12.2019
5260 Clear 16 1020 38 10000 1.5 160 20:57 29.12.2019
5261 Clear 16 1020 38 10000 1.5 160 20:39 29.12.2019
5262 Clear 16 1020 38 10000 1.5 160 20:20 29.12.2019
5263 Clear 17 1020 27 10000 2.1 150 19:58 29.12.2019
5264 Clear 17 1020 27 10000 2.1 150 19:39 29.12.2019
5265 Clear 17 1020 27 10000 2.1 150 19:20 29.12.2019
5266 Clear 18 1019 27 10000 2.1 150 18:57 29.12.2019
5267 Clear 18 1019 27 10000 2.1 150 18:38 29.12.2019
5268 Clear 18 1019 27 10000 2.1 150 18:38 29.12.2019
5269 Clear 18 1019 27 10000 2.1 150 18:19 29.12.2019
5270 Clear 19 1019 27 10000 2.1 140 17:57 29.12.2019
5271 Clear 19 1019 27 10000 2.1 140 17:39 29.12.2019
5272 Clear 19 1019 24 10000 2.1 140 17:20 29.12.2019
5273 Clear 20 1019 28 10000 2.1 150 16:56 29.12.2019
5274 Clear 20 1019 28 10000 2.1 150 16:37 29.12.2019
5275 Clear 20 1019 28 10000 2.1 150 16:19 29.12.2019
5276 Clear 22 1018 21 10000 3.1 150 15:57 29.12.2019
5277 Clear 22 1018 21 10000 3.1 150 15:38 29.12.2019
5278 Clear 22 1018 21 10000 3.1 150 15:19 29.12.2019
5279 Clear 23 1018 24 10000 4.1 150 14:56 29.12.2019
5280 Clear 23 1018 24 10000 4.1 150 14:38 29.12.2019
5281 Clear 23 1018 19 10000 4.1 150 14:18 29.12.2019
5282 Clear 24 1018 22 10000 4.1 160 13:57 29.12.2019
5283 Clear 24 1018 22 10000 4.1 160 13:37 29.12.2019
5284 Clear 24 1018 22 10000 4.1 160 13:37 29.12.2019
5285 Clear 24 1018 22 10000 4.1 160 13:19 29.12.2019
5286 Clear 23 1018 19 10000 4.1 170 12:45 29.12.2019
5287 Clear 23 1018 19 10000 4.1 170 12:26 29.12.2019
5288 Clear 23 1018 19 10000 5.1 170 11:57 29.12.2019
5289 Clear 23 1018 19 10000 5.1 170 11:38 29.12.2019
5290 Clear 23 1018 21 10000 5.1 170 11:20 29.12.2019
5291 Clear 22 1020 24 10000 4.6 170 10:43 29.12.2019
5292 Clear 22 1020 24 10000 4.6 170 10:24 29.12.2019
5293 Clear 20 1021 30 10000 4.1 160 09:58 29.12.2019
5294 Clear 20 1021 30 10000 4.1 160 09:39 29.12.2019
5295 Clear 20 1021 30 10000 4.1 160 09:21 29.12.2019
5296 Clear 18 1021 42 10000 3.1 140 08:47 29.12.2019
5297 Clear 18 1021 42 10000 3.1 140 08:27 29.12.2019
5298 Clear 15 1022 54 10000 3.1 120 07:55 29.12.2019
5299 Clear 15 1022 54 10000 3.1 120 07:28 29.12.2019
5300 Clear 13 1021 62 10000 1.5 130 06:56 29.12.2019
5301 Clear 13 1021 62 10000 1.5 130 06:26 29.12.2019
5302 Clear 11 1020 66 10000 2.1 80 05:52 29.12.2019
5303 Clear 11 1020 66 10000 1.5 80 04:36 29.12.2019
5304 Clear 11 1019 66 10000 1.5 120 03:54 29.12.2019
5305 Clear 11 1019 66 10000 1.5 120 03:20 29.12.2019
5306 Clear 12 1019 62 10000 1.5 140 02:20 29.12.2019
5307 Clear 13 1019 54 10000 2.1 140 01:31 29.12.2019
5308 Clear 13 1019 54 10000 2.1 140 01:31 29.12.2019
5309 Clear 12 1019 62 10000 1.5 150 00:58 29.12.2019
5310 Clear 12 1019 62 10000 1.5 150 00:40 29.12.2019
5311 Clear 12 1019 62 10000 1.5 150 00:21 29.12.2019
5312 Clear 12 1019 58 10000 4.64 123 23:43 28.12.2019
5313 Clear 12 1019 58 10000 4.79 135 23:18 28.12.2019
5314 Clear 14 1019 54 10000 4.79 135 22:39 28.12.2019
5315 Clear 14 1019 54 10000 4.79 135 22:20 28.12.2019
5316 Clear 15 1019 44 10000 3.1 110 21:58 28.12.2019
5317 Clear 15 1019 44 10000 3.1 110 21:39 28.12.2019
5318 Clear 15 1019 44 10000 3.1 110 21:21 28.12.2019
5319 Clear 16 1019 41 10000 3.6 110 20:57 28.12.2019
5320 Clear 16 1019 41 10000 3.6 110 20:37 28.12.2019
5321 Clear 16 1019 41 10000 3.6 110 20:19 28.12.2019
5322 Clear 17 1019 39 10000 2.6 100 19:56 28.12.2019
5323 Clear 17 1019 39 10000 2.6 100 19:38 28.12.2019
5324 Clear 17 1019 39 10000 2.6 100 19:19 28.12.2019
5325 Clear 18 1018 36 10000 2.1 90 18:56 28.12.2019
5326 Clear 18 1018 36 10000 2.1 90 18:56 28.12.2019
5327 Clear 18 1018 36 10000 2.1 90 18:38 28.12.2019
5328 Clear 18 1018 36 10000 2.1 90 18:18 28.12.2019
5329 Clear 19 1018 34 10000 1.5 110 17:43 28.12.2019
5330 Clear 19 1018 34 10000 1.5 110 17:22 28.12.2019
5331 Clear 21 1017 30 10000 2.1 140 16:59 28.12.2019
5332 Clear 21 1017 30 10000 2.1 140 16:41 28.12.2019
5333 Clear 21 1017 30 10000 2.1 140 16:23 28.12.2019
5334 Clear 23 1016 33 10000 1 140 15:43 28.12.2019
5335 Clear 23 1016 33 10000 1 140 15:23 28.12.2019
5336 Clear 24 1016 31 10000 1 140 14:56 28.12.2019
5337 Clear 24 1016 31 10000 1 140 14:37 28.12.2019
5338 Clear 24 1016 31 10000 1 140 14:19 28.12.2019
5339 Clear 23 1016 28 10000 2.6 90 13:42 28.12.2019
5340 Clear 23 1016 28 10000 2.6 90 13:21 28.12.2019
5341 Clear 23 1016 28 10000 2.6 90 13:21 28.12.2019
5342 Clear 23 1016 28 10000 3.1 60 12:58 28.12.2019
5343 Clear 23 1016 28 10000 3.1 60 12:40 28.12.2019
5344 Clear 12 1017 66 10000 2.6 30 12:21 28.12.2019
5345 Clear 12 1017 66 10000 2.6 30 11:40 28.12.2019
5346 Clear 12 1017 66 10000 2.6 30 11:22 28.12.2019
5347 Clear 20 1018 24 10000 2.6 60 10:59 28.12.2019
5348 Clear 20 1018 24 10000 2.6 60 10:41 28.12.2019
5349 Clear 20 1018 24 10000 2.6 60 10:20 28.12.2019
5350 Clear 19 1019 34 10000 3.6 60 09:55 28.12.2019
5351 Clear 19 1019 34 10000 3.6 60 09:36 28.12.2019
5352 Clear 19 1019 34 10000 3.6 60 09:18 28.12.2019
5353 Clear 17 1019 36 10000 3.6 60 08:43 28.12.2019
5354 Clear 17 1019 36 10000 3.6 60 08:24 28.12.2019
5355 Clear 15 1020 41 10000 4.1 20 07:48 28.12.2019
5356 Clear 15 1020 41 10000 4.1 20 07:23 28.12.2019
5357 Clear 11 1018 34 10000 3.1 320 05:51 28.12.2019
5358 Clear 11 1016 53 10000 1 310 03:48 28.12.2019
5359 Clear 12 1016 54 10000 2.1 290 02:51 28.12.2019
5360 Clear 12 1016 54 10000 2.1 290 02:20 28.12.2019
5361 Clear 13 1016 54 10000 1.5 280 01:56 28.12.2019
5362 Clear 13 1016 54 10000 1.5 280 01:23 28.12.2019
5363 Clear 14 1016 54 10000 0.9 318 00:48 28.12.2019
5364 Clear 14 1016 54 10000 0.9 318 00:30 28.12.2019
5365 Clear 16 1016 44 10000 1.5 250 23:58 27.12.2019
5366 Clear 16 1016 44 10000 1.5 250 23:58 27.12.2019
5367 Clear 16 1016 44 10000 1.5 250 23:38 27.12.2019
5368 Clear 16 1016 44 10000 1.5 250 23:18 27.12.2019
5369 Clear 17 1016 39 10000 2.6 140 22:55 27.12.2019
5370 Clear 17 1016 39 10000 2.6 140 22:37 27.12.2019
5371 Clear 17 1016 39 10000 2.6 140 22:19 27.12.2019
5372 Clear 17 1016 45 10000 1.5 150 21:43 27.12.2019
5373 Clear 17 1016 45 10000 1.5 150 21:24 27.12.2019
5374 Clear 18 1017 42 10000 1.5 140 20:45 27.12.2019
5375 Clear 18 1017 42 10000 1.5 140 20:26 27.12.2019
5376 Clear 19 1016 39 10000 1.5 150 19:59 27.12.2019
5377 Clear 19 1016 39 10000 1.5 150 19:41 27.12.2019
5378 Clear 19 1016 39 10000 1.5 150 19:20 27.12.2019
5379 Clear 19 1016 39 10000 1.5 150 19:20 27.12.2019
5380 Clear 20 1016 40 10000 1.5 160 18:56 27.12.2019
5381 Clear 20 1016 40 10000 1.5 160 18:37 27.12.2019
5382 Clear 20 1016 40 10000 1.5 160 18:18 27.12.2019
5383 Clear 21 1016 32 10000 2.1 170 17:55 27.12.2019
5384 Clear 21 1016 32 10000 2.1 170 17:37 27.12.2019
5385 Clear 21 1016 32 10000 2.1 170 17:18 27.12.2019
5386 Clear 21 1015 40 10000 3.11 185 16:43 27.12.2019
5387 Clear 21 1015 40 10000 3.11 185 16:23 27.12.2019
5388 Clear 25 1015 29 10000 1 230 15:58 27.12.2019
5389 Clear 25 1015 29 10000 1 230 15:37 27.12.2019
5390 Clear 25 1015 29 10000 1 230 15:19 27.12.2019
5391 Clear 26 1014 24 10000 2.6 250 14:56 27.12.2019
5392 Clear 26 1014 24 10000 2.6 250 14:38 27.12.2019
5393 Clear 26 1014 24 10000 2.6 250 14:19 27.12.2019
5394 Clear 27 1014 24 10000 3.1 180 13:47 27.12.2019
5395 Clear 27 1014 24 10000 3.1 180 13:24 27.12.2019
5396 Clear 26 1014 24 10000 3.1 170 12:56 27.12.2019
5397 Clear 26 1014 24 10000 3.1 170 12:37 27.12.2019
5398 Clear 26 1014 24 10000 3.1 170 12:18 27.12.2019
5399 Clear 26 1015 24 10000 3.6 180 11:42 27.12.2019
5400 Clear 26 1015 24 10000 3.6 180 11:22 27.12.2019
5401 Clear 24 1016 29 10000 3.1 170 10:54 27.12.2019
5402 Clear 24 1016 29 10000 3.1 170 10:36 27.12.2019
5403 Clear 24 1016 29 10000 3.1 170 10:18 27.12.2019
5404 Clear 22 1017 33 10000 2.6 160 09:39 27.12.2019
5405 Clear 22 1017 33 10000 2.6 160 09:21 27.12.2019
5406 Clear 19 1018 39 10000 2.1 140 08:54 27.12.2019
5407 Clear 19 1018 39 10000 2.1 140 08:34 27.12.2019
5408 Clear 17 1018 45 10000 1.5 160 07:49 27.12.2019
5409 Clear 17 1018 45 10000 1.5 160 07:28 27.12.2019
5410 Clear 13 1018 58 10000 1 150 06:36 27.12.2019
5411 Clear 11 1017 62 10000 1.5 140 04:58 27.12.2019
5412 Clear 12 1016 62 10000 1 220 02:49 27.12.2019
5413 Clear 12 1017 62 10000 0.94 151 01:56 27.12.2019
5414 Clear 12 1017 62 10000 0.95 149 01:23 27.12.2019
5415 Clear 13 1017 58 10000 0.95 149 00:53 27.12.2019
5416 Clear 13 1017 58 10000 0.95 149 00:34 27.12.2019
5417 Clear 14 1017 50 10000 1.5 160 23:59 26.12.2019
5418 Clear 14 1017 50 10000 1.5 160 23:40 26.12.2019
5419 Clear 14 1017 50 10000 1.5 160 23:21 26.12.2019
5420 Clear 15 1017 51 10000 1 230 22:43 26.12.2019
5421 Clear 15 1017 51 10000 1 230 22:21 26.12.2019
5422 Clear 14 1018 58 10000 1.61 112 21:56 26.12.2019
5423 Clear 14 1018 58 10000 1.61 112 21:37 26.12.2019
5424 Clear 14 1018 58 10000 1.61 112 21:19 26.12.2019
5425 Clear 16 1018 48 10000 1 150 20:45 26.12.2019
5426 Clear 16 1018 48 10000 1 150 20:22 26.12.2019
5427 Clear 15 1018 54 10000 0.92 82 19:58 26.12.2019
5428 Clear 15 1018 54 10000 0.92 82 19:39 26.12.2019
5429 Clear 15 1018 54 10000 0.92 82 19:20 26.12.2019
5430 Clear 18 1018 45 10000 0.92 82 18:57 26.12.2019
5431 Clear 18 1018 45 10000 0.92 82 18:38 26.12.2019
5432 Clear 18 1018 45 10000 0.92 82 18:19 26.12.2019
5433 Clear 18 1018 45 10000 1 70 17:42 26.12.2019
5434 Clear 18 1018 45 10000 1 70 17:22 26.12.2019
5435 Clear 20 1017 42 10000 2.35 188 16:58 26.12.2019
5436 Clear 20 1017 42 10000 2.35 188 16:39 26.12.2019
5437 Clear 20 1017 42 10000 2.35 188 16:20 26.12.2019
5438 Clear 24 1017 33 10000 1 310 15:41 26.12.2019
5439 Clear 24 1017 33 10000 1 310 15:21 26.12.2019
5440 Clear 25 1017 29 10000 1.5 270 14:58 26.12.2019
5441 Clear 25 1017 29 10000 1.5 270 14:38 26.12.2019
5442 Clear 25 1017 29 10000 1.5 270 14:20 26.12.2019
5443 Clear 25 1016 25 10000 4.1 280 13:43 26.12.2019
5444 Clear 25 1016 25 10000 4.1 280 13:20 26.12.2019
5445 Clear 24 1016 23 10000 4.1 270 12:56 26.12.2019
5446 Clear 24 1016 23 10000 4.1 270 12:56 26.12.2019
5447 Clear 24 1016 23 10000 4.1 270 12:37 26.12.2019
5448 Clear 24 1016 23 10000 4.1 270 12:19 26.12.2019
5449 Clear 24 1017 25 10000 3.6 270 11:56 26.12.2019
5450 Clear 24 1017 25 10000 3.6 270 11:37 26.12.2019
5451 Clear 24 1017 25 10000 3.6 270 11:37 26.12.2019
5452 Clear 24 1017 25 10000 3.6 270 11:19 26.12.2019
5453 Clear 23 1018 23 10000 4.6 240 10:41 26.12.2019
5454 Clear 23 1018 23 10000 4.6 240 10:41 26.12.2019
5455 Clear 23 1018 23 10000 4.6 240 10:18 26.12.2019
5456 Clear 21 1019 32 10000 2.6 180 09:43 26.12.2019
5457 Clear 21 1019 32 10000 2.6 180 09:25 26.12.2019
5458 Clear 19 1020 34 10000 2.1 180 08:42 26.12.2019
5459 Clear 19 1020 34 10000 2.1 180 08:24 26.12.2019
5460 Clear 16 1020 41 10000 3.1 160 07:53 26.12.2019
5461 Clear 16 1020 41 10000 3.1 160 07:26 26.12.2019
5462 Clear 14 1020 50 10000 2.1 160 06:52 26.12.2019
5463 Clear 11 1019 57 10000 1.5 150 06:31 26.12.2019
5464 Clear 11 1019 57 10000 1.5 150 05:45 26.12.2019
5465 Clear 11 1018 57 10000 2.1 150 04:55 26.12.2019
5466 Clear 11 1018 57 10000 2.1 150 04:29 26.12.2019
5467 Clear 12 1017 54 10000 2.1 150 02:54 26.12.2019
5468 Clear 12 1017 54 10000 2.1 150 02:34 26.12.2019
5469 Clear 12 1018 54 10000 2.1 160 01:46 26.12.2019
5470 Clear 12 1018 54 10000 2.1 160 01:27 26.12.2019
5471 Clear 12 1018 54 10000 1.5 150 00:48 26.12.2019
5472 Clear 12 1018 54 10000 1.5 150 00:25 26.12.2019
5473 Clear 14 1018 44 10000 2.1 150 23:58 25.12.2019
5474 Clear 14 1018 44 10000 2.1 150 23:38 25.12.2019
5475 Clear 14 1018 44 10000 2.1 150 23:20 25.12.2019
5476 Clear 14 1018 44 10000 2.1 150 22:58 25.12.2019
5477 Clear 14 1018 44 10000 2.1 150 22:38 25.12.2019
5478 Clear 14 1018 44 10000 2.1 150 22:19 25.12.2019
5479 Clear 14 1019 50 10000 1.5 140 21:57 25.12.2019
5480 Clear 14 1019 50 10000 1.5 140 21:39 25.12.2019
5481 Clear 14 1019 50 10000 1.5 140 21:19 25.12.2019
5482 Clear 15 1019 41 10000 1.5 150 20:41 25.12.2019
5483 Clear 15 1019 41 10000 1.5 150 20:23 25.12.2019
5484 -273 0 0 0 0 0 20:22 25.12.2019
5485 Clear 15 1019 44 10000 1.5 150 19:59 25.12.2019
5486 Clear 15 1019 44 10000 1.5 150 19:41 25.12.2019
5487 Clear 15 1019 44 10000 1.5 150 19:22 25.12.2019
5488 Clear 16 1019 44 10000 1.5 150 18:54 25.12.2019
5489 Clear 16 1019 44 10000 1.5 150 18:36 25.12.2019
5490 Clear 16 1019 44 10000 1.5 150 18:18 25.12.2019
5491 Clear 18 1018 36 10000 2.1 150 17:40 25.12.2019
5492 Clear 18 1018 36 10000 2.1 150 17:40 25.12.2019
5493 Clear 18 1018 36 10000 2.1 150 17:18 25.12.2019
5494 Clear 19 1018 34 10000 2.1 140 16:56 25.12.2019
5495 Clear 19 1018 34 10000 2.1 140 16:37 25.12.2019
5496 Clear 19 1018 34 10000 2.1 140 16:18 25.12.2019
5497 Clear 21 1017 30 10000 2.6 140 15:56 25.12.2019
5498 Clear 21 1017 30 10000 2.6 140 15:37 25.12.2019
5499 Clear 21 1017 30 10000 2.6 140 15:18 25.12.2019
5500 Clear 23 1018 27 10000 3.1 160 14:56 25.12.2019
5501 Clear 23 1018 27 10000 3.1 160 14:37 25.12.2019
5502 Clear 23 1018 27 10000 3.1 160 14:18 25.12.2019
5503 Clear 23 1018 23 10000 3.6 170 13:42 25.12.2019
5504 Clear 23 1018 23 10000 3.6 170 13:21 25.12.2019
5505 Clear 23 1018 25 10000 3.1 170 12:55 25.12.2019
5506 Clear 23 1018 25 10000 3.1 170 12:36 25.12.2019
5507 Clear 23 1018 25 10000 3.1 170 12:18 25.12.2019
5508 Clear 22 1018 26 10000 3.1 160 11:42 25.12.2019
5509 Clear 22 1018 26 10000 3.1 160 11:22 25.12.2019
5510 Clear 21 1020 30 10000 3.1 170 10:41 25.12.2019
5511 Clear 21 1020 30 10000 3.1 170 10:22 25.12.2019
5512 Clear 19 1021 34 10000 2.6 180 09:59 25.12.2019
5513 Clear 19 1021 34 10000 2.6 180 09:41 25.12.2019
5514 Clear 19 1021 34 10000 2.6 180 09:23 25.12.2019
5515 Clear 17 1021 36 10000 2.6 160 08:44 25.12.2019
5516 Clear 17 1021 36 10000 2.6 160 08:25 25.12.2019
5517 Clear 15 1021 41 10000 3.1 160 07:45 25.12.2019
5518 Clear 15 1021 41 10000 3.1 160 07:23 25.12.2019
5519 Clear 13 1021 47 10000 2.1 170 06:41 25.12.2019
5520 Clear 13 1021 47 10000 2.1 170 06:21 25.12.2019
5521 Clear 10 1020 53 10000 2.6 170 04:47 25.12.2019
5522 Clear 10 1020 53 10000 2.6 170 04:25 25.12.2019
5523 Clear 10 1019 57 10000 1.5 160 03:52 25.12.2019
5524 Clear 10 1019 57 10000 1.5 160 03:32 25.12.2019
5525 Clear 10 1019 57 10000 1.5 150 02:32 25.12.2019
5526 Clear 10 1019 57 10000 1.5 150 01:54 25.12.2019
5527 Clear 10 1019 57 10000 1.5 150 01:24 25.12.2019
5528 Clear 11 1020 53 10000 2.1 150 00:45 25.12.2019
5529 Clear 11 1020 53 10000 2.1 150 00:26 25.12.2019
5530 Clear 11 1020 53 10000 2.1 140 23:40 24.12.2019
5531 Clear 11 1020 53 10000 2.1 140 23:21 24.12.2019
5532 Clear 13 1020 47 10000 2.1 140 22:58 24.12.2019
5533 Clear 13 1020 47 10000 2.1 140 22:37 24.12.2019
5534 Clear 13 1020 47 10000 2.1 140 22:19 24.12.2019
5535 Clear 13 1020 47 10000 1.5 140 21:41 24.12.2019
5536 Clear 13 1020 47 10000 1.5 140 21:22 24.12.2019
5537 Clear 13 1020 43 10000 1.5 150 20:43 24.12.2019
5538 Clear 13 1020 43 10000 1.5 150 20:24 24.12.2019
5539 Clear 15 1020 41 10000 1 160 19:57 24.12.2019
5540 Clear 15 1020 41 10000 1 160 19:38 24.12.2019
5541 Clear 15 1020 41 10000 1 160 19:18 24.12.2019
5542 Clear 15 1020 41 10000 1 160 18:42 24.12.2019
5543 Clear 15 1020 41 10000 1 160 18:19 24.12.2019
5544 Clear 17 1020 36 10000 1.5 150 17:45 24.12.2019
5545 Clear 17 1020 36 10000 1.5 150 17:23 24.12.2019
5546 Clear 18 1020 34 8000 1 130 16:58 24.12.2019
5547 Clear 18 1020 34 8000 1 130 16:58 24.12.2019
5548 Clear 18 1020 34 8000 1 130 16:40 24.12.2019
5549 Clear 18 1020 34 8000 1 130 16:22 24.12.2019
5550 Clear 21 1019 30 8000 1.5 110 15:58 24.12.2019
5551 Clear 21 1019 30 8000 1.5 110 15:38 24.12.2019
5552 Clear 21 1019 30 8000 1.5 110 15:19 24.12.2019
5553 Clear 22 1019 28 10000 1.5 90 14:58 24.12.2019
5554 Clear 22 1019 28 10000 1.5 90 14:40 24.12.2019
5555 Clear 22 1019 28 10000 1.5 90 14:22 24.12.2019
5556 Clear 22 1019 28 10000 1.5 90 13:56 24.12.2019
5557 Clear 22 1019 28 10000 1.5 90 13:38 24.12.2019
5558 Clear 22 1019 28 10000 1.5 90 13:20 24.12.2019
5559 Clear 22 1019 26 10000 1.5 140 12:57 24.12.2019
5560 Clear 22 1019 26 10000 1.5 140 12:38 24.12.2019
5561 Clear 22 1019 26 10000 1.5 140 12:19 24.12.2019
5562 Clear 22 1020 28 10000 2.1 180 11:57 24.12.2019
5563 Clear 22 1020 28 10000 2.1 180 11:37 24.12.2019
5564 Clear 22 1020 28 10000 2.1 180 11:19 24.12.2019
5565 Clear 20 1021 30 10000 1 110 10:57 24.12.2019
5566 Clear 20 1021 30 10000 1 110 10:38 24.12.2019
5567 Clear 20 1021 30 10000 1 110 10:20 24.12.2019
5568 Clear 19 1022 32 10000 1.5 130 09:56 24.12.2019
5569 Clear 19 1022 32 10000 1.5 130 09:38 24.12.2019
5570 Clear 19 1022 32 10000 1.5 130 09:20 24.12.2019
5571 Clear 16 1023 38 10000 1 130 08:47 24.12.2019
5572 Clear 16 1023 38 10000 1 130 08:24 24.12.2019
5573 Clear 13 1023 50 10000 1.42 121 07:55 24.12.2019
5574 Clear 13 1023 50 10000 1.42 121 07:37 24.12.2019
5575 Clear 13 1023 50 10000 1.42 121 07:18 24.12.2019
5576 Clear 11 1022 53 10000 1.42 121 06:39 24.12.2019
5577 Clear 11 1022 53 10000 1.42 121 06:19 24.12.2019
5578 Clear 7 1021 65 10000 1.42 121 05:50 24.12.2019
5579 Clear 7 1021 65 10000 2.48 115 05:19 24.12.2019
5580 Clear 7 1021 65 10000 2.48 115 04:21 24.12.2019
5581 Clear 7 1020 70 10000 2.48 115 03:45 24.12.2019
5582 Clear 7 1020 65 10000 2.48 115 02:28 24.12.2019
5583 Clear 8 1020 61 10000 2.74 114 01:54 24.12.2019
5584 Clear 8 1020 61 10000 2.8 115 01:25 24.12.2019
5585 Clear 10 1020 30 10000 1.5 140 00:56 24.12.2019
5586 Clear 10 1020 30 10000 1.5 140 00:37 24.12.2019
5587 Clear 10 1020 30 10000 1.5 140 00:19 24.12.2019
5588 Clear 11 1020 50 10000 1 120 23:42 23.12.2019
5589 Clear 11 1020 50 10000 1 120 23:23 23.12.2019
5590 Clear 11 1020 50 10000 1.5 130 22:57 23.12.2019
5591 Clear 11 1020 50 10000 1.5 130 22:38 23.12.2019
5592 Clear 11 1020 50 10000 1.5 130 22:19 23.12.2019
5593 Clear 11 1021 28 10000 1 120 21:56 23.12.2019
5594 Clear 11 1021 28 10000 1 120 21:36 23.12.2019
5595 Clear 11 1021 28 10000 1 120 21:18 23.12.2019
5596 Clear 11 1021 28 10000 1.5 90 20:57 23.12.2019
5597 Clear 11 1021 28 10000 1.5 90 20:39 23.12.2019
5598 Clouds 11 1021 24 10000 1.5 90 20:18 23.12.2019
5599 Clouds 13 1021 24 10000 1.5 50 19:56 23.12.2019
5600 Clouds 13 1021 24 10000 1.5 50 19:38 23.12.2019
5601 Clouds 13 1021 24 10000 1.5 50 19:19 23.12.2019
5602 Clouds 14 1021 24 10000 1.5 50 18:58 23.12.2019
5603 Clouds 14 1021 24 10000 1.5 50 18:39 23.12.2019
5604 Clouds 14 1021 24 10000 1.5 50 18:20 23.12.2019
5605 Clouds 13 1020 24 10000 1 50 17:57 23.12.2019
5606 Clouds 13 1020 24 10000 1 50 17:39 23.12.2019
5607 Clouds 13 1020 23 10000 1 50 17:19 23.12.2019
5608 Clouds 17 1020 23 10000 1.5 80 16:55 23.12.2019
5609 Clouds 17 1020 23 10000 1.5 80 16:37 23.12.2019
5610 Clouds 17 1020 23 10000 1.5 80 16:18 23.12.2019
5611 Clouds 18 1019 31 10000 1.5 90 15:55 23.12.2019
5612 Clouds 18 1019 31 10000 1.5 90 15:36 23.12.2019
5613 Clouds 18 1019 31 10000 1.5 90 15:18 23.12.2019
5614 Clouds 20 1019 23 10000 1.5 40 14:45 23.12.2019
5615 Clouds 20 1019 15 10000 1.5 40 14:26 23.12.2019
5616 Clouds 20 1019 23 10000 1.5 40 14:26 23.12.2019
5617 Clouds 20 1019 22 10000 2.1 130 13:59 23.12.2019
5618 Clouds 20 1019 22 10000 2.1 130 13:41 23.12.2019
5619 Clouds 20 1019 22 10000 2.1 130 13:22 23.12.2019
5620 Clouds 20 1020 15 10000 1.5 230 12:59 23.12.2019
5621 Clouds 20 1020 15 10000 1.5 230 12:40 23.12.2019
5622 Clouds 20 1020 15 10000 1.5 230 12:21 23.12.2019
5623 Clouds 20 1020 15 10000 1.5 230 12:21 23.12.2019
5624 Clouds 19 1020 24 10000 2.1 230 11:55 23.12.2019
5625 Clouds 19 1020 24 10000 2.1 230 11:37 23.12.2019
5626 Clouds 19 1020 24 10000 2.1 230 11:18 23.12.2019
5627 Clouds 19 1021 25 10000 2.1 160 10:54 23.12.2019
5628 Clouds 19 1021 25 10000 2.1 160 10:36 23.12.2019
5629 Clouds 19 1021 25 10000 2.1 160 10:18 23.12.2019
5630 Clouds 17 1023 36 10000 2.1 160 09:40 23.12.2019
5631 Clouds 17 1023 36 10000 2.1 160 09:22 23.12.2019
5632 Clouds 15 1023 44 10000 1 90 08:59 23.12.2019
5633 Clear 15 1023 44 10000 1 90 08:40 23.12.2019
5634 Clouds 15 1023 44 10000 1 90 08:22 23.12.2019
5635 Clouds 13 1024 47 10000 1.14 110 07:48 23.12.2019
5636 Clouds 13 1024 47 10000 1.14 110 07:21 23.12.2019
5637 Clouds 9 1023 57 10000 1.14 110 06:57 23.12.2019
5638 Clouds 9 1023 57 10000 1.14 110 06:27 23.12.2019
5639 Clouds 4 1022 25 10000 1.14 110 05:56 23.12.2019
5640 Clouds 4 1022 25 10000 1.14 110 05:30 23.12.2019
5641 Clouds 4 1022 69 10000 1.54 122 04:39 23.12.2019
5642 Clouds 5 1022 65 10000 1.54 122 03:28 23.12.2019
5643 Clouds 6 1022 36 10000 1.54 122 02:43 23.12.2019
5644 Clear 6 1022 32 10000 2 107 02:19 23.12.2019
5645 Clear 6 1022 32 10000 2 107 01:44 23.12.2019
5646 Clear 6 1022 32 10000 2 107 01:26 23.12.2019
5647 Clear 6 1022 60 10000 1 280 00:44 23.12.2019
5648 Clear 6 1022 60 10000 1 280 00:24 23.12.2019
5649 Clear 7 1023 33 10000 2 110 23:40 22.12.2019
5650 Clear 7 1023 29 10000 1.98 120 23:22 22.12.2019
5651 Clear 7 1023 65 10000 1.98 120 22:58 22.12.2019
5652 Clear 7 1023 65 10000 1.98 120 22:40 22.12.2019
5653 Clear 7 1023 65 10000 1.98 120 22:22 22.12.2019
5654 Clear 8 1023 29 10000 1.98 120 21:59 22.12.2019
5655 Clear 8 1023 29 10000 1.98 120 21:40 22.12.2019
5656 Clear 8 1023 29 10000 1.98 120 21:21 22.12.2019
5657 Clear 8 1023 29 10000 1.98 120 21:21 22.12.2019
5658 Clear 9 1023 29 10000 1.98 120 20:59 22.12.2019
5659 Clear 9 1023 29 10000 2.09 120 20:39 22.12.2019
5660 Clear 9 1023 28 10000 1.84 110 20:19 22.12.2019
5661 Clear 10 1023 28 10000 1.84 110 19:57 22.12.2019
5662 Clear 10 1023 28 10000 1.84 110 19:39 22.12.2019
5663 Clear 10 1023 28 10000 1.84 110 19:19 22.12.2019
5664 Clear 13 1023 37 10000 1.5 70 18:42 22.12.2019
5665 Clear 13 1023 37 10000 1.5 70 18:24 22.12.2019
5666 Clear 14 1022 28 10000 2.1 40 17:56 22.12.2019
5667 Clear 14 1022 28 10000 2.1 40 17:56 22.12.2019
5668 Clear 14 1022 28 10000 2.1 40 17:38 22.12.2019
5669 Clear 14 1022 24 10000 2.1 40 17:19 22.12.2019
5670 Clear 15 1022 33 10000 2.6 50 16:57 22.12.2019
5671 Clear 15 1022 33 10000 2.6 50 16:38 22.12.2019
5672 Clear 15 1022 33 10000 2.6 50 16:20 22.12.2019
5673 Clear 17 1021 29 10000 2.6 30 15:56 22.12.2019
5674 Clear 17 1021 29 10000 2.6 30 15:56 22.12.2019
5675 Clear 17 1021 29 10000 2.6 30 15:38 22.12.2019
5676 Clear 17 1021 29 10000 2.6 30 15:19 22.12.2019
5677 Clear 18 1021 31 10000 1.5 50 14:55 22.12.2019
5678 Clear 18 1021 31 10000 1.5 50 14:37 22.12.2019
5679 Clear 18 1021 31 10000 1.5 50 14:18 22.12.2019
5680 Clear 19 1021 29 10000 2.1 60 13:55 22.12.2019
5681 Clear 19 1021 29 10000 2.1 60 13:36 22.12.2019
5682 Clear 19 1021 29 10000 2.1 60 13:18 22.12.2019
5683 Clear 18 1021 31 10000 1.5 50 12:55 22.12.2019
5684 Clear 18 1021 31 10000 1.5 50 12:55 22.12.2019
5685 Clear 18 1021 31 10000 1.5 50 12:37 22.12.2019
5686 Clear 18 1021 31 10000 1.5 50 12:18 22.12.2019
5687 Clear 18 1021 31 10000 1.5 50 12:18 22.12.2019
5688 Clear 18 1022 31 10000 1 40 11:55 22.12.2019
5689 Clear 18 1022 31 10000 1 40 11:36 22.12.2019
5690 Clear 18 1022 31 10000 1 40 11:18 22.12.2019
5691 Clear 17 1023 39 10000 1.5 130 10:54 22.12.2019
5692 Clear 17 1023 39 10000 1.5 130 10:36 22.12.2019
5693 Clear 17 1023 39 10000 1.5 130 10:18 22.12.2019
5694 Clear 17 1024 39 10000 0.57 145 09:41 22.12.2019
5695 Clear 17 1024 39 10000 0.57 145 09:22 22.12.2019
5696 Clear 15 1025 38 10000 0.57 145 08:59 22.12.2019
5697 Clear 15 1025 38 10000 0.77 130 08:38 22.12.2019
5698 Clear 15 1025 38 10000 1.32 131 08:20 22.12.2019
5699 Clear 12 1025 40 10000 1.32 131 07:39 22.12.2019
5700 Clear 12 1025 40 10000 1.32 131 07:20 22.12.2019
5701 Clear 7 1025 56 10000 1 290 06:41 22.12.2019
5702 Clear 5 1025 28 10000 1 280 05:54 22.12.2019
5703 Clear 5 1025 41 10000 1 280 05:23 22.12.2019
5704 Clear 4 1024 69 10000 1 330 04:29 22.12.2019
5705 Clear 5 1024 65 10000 1 280 03:53 22.12.2019
5706 Clear 6 1023 60 10000 1.5 310 02:40 22.12.2019
5707 Clear 6 1023 39 10000 0.88 101 01:47 22.12.2019
5708 Clear 6 1023 39 10000 0.88 101 01:28 22.12.2019
5709 Clear 7 1023 39 10000 1 280 00:47 22.12.2019
5710 Clear 7 1023 39 10000 1 280 00:23 22.12.2019
5711 Clear 8 1023 61 10000 1.08 101 23:56 21.12.2019
5712 Clear 8 1023 61 10000 1.08 101 23:38 21.12.2019
5713 Clear 8 1023 61 10000 1.55 61 23:19 21.12.2019
5714 Clear 9 1024 57 10000 1.55 61 22:41 21.12.2019
5715 Clear 9 1024 57 10000 1.55 61 22:19 21.12.2019
5716 Clear 9 1024 57 10000 1.55 61 21:57 21.12.2019
5717 Clear 9 1024 57 10000 1.55 61 21:38 21.12.2019
5718 Clear 9 1024 57 10000 1.55 61 21:19 21.12.2019
5719 Clear 9 1024 57 10000 1.55 61 20:59 21.12.2019
5720 Clear 9 1024 57 10000 1.55 61 20:39 21.12.2019
5721 Clear 9 1024 57 10000 1.8 43 20:21 21.12.2019
5722 Clear 9 1024 57 10000 1.8 43 19:58 21.12.2019
5723 Clear 9 1024 57 10000 1.8 43 19:40 21.12.2019
5724 Clear 9 1024 57 10000 1.8 43 19:19 21.12.2019
5725 Clear 11 1024 50 10000 1.8 43 18:45 21.12.2019
5726 Clear 11 1024 50 10000 1.8 43 18:24 21.12.2019
5727 Clear 14 1024 41 10000 1.5 290 17:57 21.12.2019
5728 Clear 14 1024 41 10000 1.5 290 17:57 21.12.2019
5729 Clear 14 1024 41 10000 1.5 290 17:39 21.12.2019
5730 Clear 14 1024 41 10000 1.5 290 17:21 21.12.2019
5731 Clear 14 1023 41 10000 2.1 310 16:59 21.12.2019
5732 Clear 14 1023 41 10000 2.1 310 16:41 21.12.2019
5733 Clear 14 1023 41 10000 2.1 310 16:19 21.12.2019
5734 Clear 17 1023 33 10000 2.1 350 15:57 21.12.2019
5735 Clear 17 1023 33 10000 2.1 350 15:38 21.12.2019
5736 Clear 17 1023 33 10000 2.1 350 15:19 21.12.2019
5737 Clear 18 1023 31 10000 2.1 350 14:56 21.12.2019
5738 Clear 18 1023 31 10000 2.1 350 14:37 21.12.2019
5739 Clear 18 1023 31 10000 2.1 350 14:18 21.12.2019
5740 Clear 19 1023 20 10000 2.6 340 13:55 21.12.2019
5741 Clear 19 1023 20 10000 2.6 340 13:37 21.12.2019
5742 Clear 19 1023 20 10000 2.6 340 13:18 21.12.2019
5743 Clear 17 1023 29 10000 2.6 30 12:54 21.12.2019
5744 Clear 17 1023 29 10000 2.6 30 12:36 21.12.2019
5745 Clear 17 1023 29 10000 2.6 30 12:18 21.12.2019
5746 Clear 18 1024 20 10000 2.6 350 11:41 21.12.2019
5747 Clear 18 1024 24 10000 2.6 350 11:23 21.12.2019
5748 Clear 17 1025 23 10000 2.6 350 10:54 21.12.2019
5749 Clear 17 1025 23 10000 2.6 350 10:36 21.12.2019
5750 Clear 17 1025 23 10000 2.6 350 10:18 21.12.2019
5751 Clear 17 1026 27 10000 1.5 320 09:42 21.12.2019
5752 Clear 17 1026 27 10000 1.5 320 09:20 21.12.2019
5753 Clear 15 1027 33 10000 2.1 320 08:56 21.12.2019
5754 Clear 15 1027 33 10000 2.1 320 08:37 21.12.2019
5755 Clear 15 1027 33 10000 2.1 320 08:18 21.12.2019
5756 Clear 13 1027 35 10000 2.6 320 07:41 21.12.2019
5757 Clear 13 1027 35 10000 2.6 320 07:21 21.12.2019
5758 Clear 9 1026 57 10000 1.5 310 06:43 21.12.2019
5759 Clear 9 1026 57 10000 1.5 310 06:25 21.12.2019
5760 Clear 5 1026 35 10000 1.23 14 05:47 21.12.2019
5761 Clear 5 1026 35 10000 1.23 14 05:47 21.12.2019
5762 Clear 5 1025 75 10000 1 290 04:58 21.12.2019
5763 Clear 5 1025 49 10000 1 310 03:57 21.12.2019
5764 Clear 6 1024 49 10000 1.5 310 02:51 21.12.2019
5765 Clear 7 1024 49 10000 1.5 310 01:57 21.12.2019
5766 Clear 7 1024 48 10000 1.5 310 01:27 21.12.2019
5767 -273 0 0 0 0 0 00:52 21.12.2019
5768 Clear 8 1025 48 10000 2.1 290 00:32 21.12.2019
5769 Clear 9 1025 57 10000 2.1 280 23:57 20.12.2019
5770 Clear 9 1025 57 10000 2.1 280 23:37 20.12.2019
5771 Clear 9 1025 57 10000 2.1 280 23:18 20.12.2019
5772 Clear 9 1025 57 10000 1.5 300 22:40 20.12.2019
5773 Clear 9 1025 57 10000 1.5 300 22:21 20.12.2019
5774 Clear 10 1025 61 10000 1 320 21:57 20.12.2019
5775 Clear 10 1025 61 10000 1 320 21:39 20.12.2019
5776 Clear 10 1025 61 10000 1 320 21:19 20.12.2019
5777 Clear 10 1026 53 10000 1.5 360 20:39 20.12.2019
5778 Clear 10 1026 53 10000 1.5 360 20:19 20.12.2019
5779 Clear 11 1026 50 10000 1 330 19:58 20.12.2019
5780 Clear 11 1026 50 10000 1 330 19:40 20.12.2019
5781 Clear 11 1026 50 10000 1 330 19:40 20.12.2019
5782 Clear 11 1026 50 10000 1 330 19:19 20.12.2019
5783 Clear 13 1026 43 10000 1.5 360 18:42 20.12.2019
5784 Clear 13 1026 43 10000 1.5 360 18:24 20.12.2019
5785 Clear 14 1025 40 10000 2.6 20 17:59 20.12.2019
5786 Clear 14 1025 40 10000 2.6 20 17:41 20.12.2019
5787 Clear 14 1025 33 10000 2.6 20 17:21 20.12.2019
5788 Clear 15 1025 33 10000 2.1 30 16:59 20.12.2019
5789 Clear 15 1025 33 10000 2.1 30 16:39 20.12.2019
5790 Clear 15 1025 33 10000 2.1 30 16:20 20.12.2019
5791 Clear 17 1024 29 10000 4.1 360 15:56 20.12.2019
5792 Clear 17 1024 29 10000 4.1 360 15:38 20.12.2019
5793 Clear 17 1024 29 10000 4.1 360 15:19 20.12.2019
5794 Clear 17 1024 29 10000 4.1 360 15:19 20.12.2019
5795 Clear 18 1024 25 10000 5.1 10 14:54 20.12.2019
5796 Clear 18 1024 25 10000 5.1 10 14:36 20.12.2019
5797 Clear 18 1024 25 10000 5.1 10 14:18 20.12.2019
5798 Clear 18 1024 27 10000 5.1 10 13:41 20.12.2019
5799 Clear 18 1024 27 10000 5.1 10 13:20 20.12.2019
5800 Clear 18 1024 25 10000 4.1 350 12:57 20.12.2019
5801 Clear 18 1024 25 10000 4.1 350 12:38 20.12.2019
5802 Clear 18 1024 25 10000 4.1 350 12:19 20.12.2019
5803 Clear 18 1025 31 10000 4.6 340 11:58 20.12.2019
5804 Clear 18 1025 31 10000 4.6 340 11:39 20.12.2019
5805 Clear 18 1025 31 10000 4.6 340 11:19 20.12.2019
5806 Clear 17 1026 33 10000 5.1 350 10:57 20.12.2019
5807 Clear 17 1026 33 10000 5.1 350 10:57 20.12.2019
5808 Clear 17 1026 33 10000 5.1 350 10:38 20.12.2019
5809 Clear 17 1026 33 10000 5.1 350 10:20 20.12.2019
5810 Clear 16 1027 38 10000 4.1 350 09:44 20.12.2019
5811 Clear 16 1027 38 10000 4.1 350 09:22 20.12.2019
5812 Clear 15 1028 44 10000 3.6 340 08:59 20.12.2019
5813 Clear 15 1028 44 10000 3.6 340 08:41 20.12.2019
5814 Clear 15 1028 44 10000 3.6 340 08:21 20.12.2019
5815 Clear 13 1028 50 10000 4.6 320 07:58 20.12.2019
5816 Clear 13 1028 50 10000 4.6 320 07:39 20.12.2019
5817 Clear 13 1028 50 10000 4.6 320 07:18 20.12.2019
5818 Clear 10 1027 66 10000 2.6 300 06:48 20.12.2019
5819 Clear 10 1027 66 10000 2.6 300 06:30 20.12.2019
5820 Clear 7 1027 75 10000 3.1 300 05:49 20.12.2019
5821 Clear 7 1027 75 10000 3.1 300 05:21 20.12.2019
5822 Clear 8 1026 75 10000 3.1 280 03:50 20.12.2019
5823 Clear 8 1026 75 10000 3.1 280 03:28 20.12.2019
5824 Clear 8 1025 75 10000 2.6 300 02:33 20.12.2019
5825 Clear 9 1026 70 10000 2.6 290 01:36 20.12.2019
5826 Clear 9 1026 70 10000 2.6 290 00:58 20.12.2019
5827 Clear 9 1026 70 10000 2.6 290 00:39 20.12.2019
5828 Clear 10 1026 66 10000 2.6 290 23:59 19.12.2019
5829 Clear 10 1026 66 10000 2.6 290 23:40 19.12.2019
5830 Clear 10 1026 66 10000 2.6 290 23:21 19.12.2019
5831 Clear 10 1026 66 10000 2.6 300 22:40 19.12.2019
5832 Clear 10 1026 66 10000 2.6 300 22:22 19.12.2019
5833 Clear 11 1026 66 10000 2.6 320 21:59 19.12.2019
5834 Clear 11 1026 66 10000 2.6 320 21:41 19.12.2019
5835 Clear 11 1026 66 10000 2.6 320 21:20 19.12.2019
5836 Clear 11 1027 62 10000 2.6 350 20:58 19.12.2019
5837 Clear 11 1027 62 10000 2.6 350 20:38 19.12.2019
5838 Clear 11 1027 62 10000 2.6 350 20:20 19.12.2019
5839 Clear 12 1027 58 10000 2.6 350 19:58 19.12.2019
5840 Clear 12 1027 58 10000 2.6 350 19:40 19.12.2019
5841 Clear 12 1027 58 10000 2.6 350 19:40 19.12.2019
5842 Clear 13 1027 58 10000 2.1 360 19:20 19.12.2019
5843 Clear 12 1027 58 10000 2.6 350 19:20 19.12.2019
5844 Clear 12 1027 58 10000 2.6 350 19:20 19.12.2019
5845 Clear 13 1027 58 10000 2.1 360 19:20 19.12.2019
5846 Clear 13 1027 58 10000 2.1 360 18:58 19.12.2019
5847 Clear 13 1027 58 10000 2.1 360 18:40 19.12.2019
5848 Clear 13 1027 58 10000 2.1 360 18:20 19.12.2019
5849 Clear 14 1027 50 10000 4.1 350 17:56 19.12.2019
5850 Clear 14 1027 50 10000 4.1 350 17:38 19.12.2019
5851 Clear 14 1027 50 10000 4.1 350 17:18 19.12.2019
5852 Clear 15 1026 44 10000 4.6 350 16:56 19.12.2019
5853 Clear 15 1026 44 10000 4.6 350 16:37 19.12.2019
5854 Clear 15 1026 44 10000 4.6 350 16:19 19.12.2019
5855 Clear 17 1025 36 10000 5.1 340 15:57 19.12.2019
5856 Clear 17 1025 36 10000 5.1 340 15:57 19.12.2019
5857 Clear 17 1025 36 10000 5.1 340 15:37 19.12.2019
5858 Clear 17 1025 36 10000 5.1 340 15:37 19.12.2019
5859 Clear 17 1025 36 10000 5.1 340 15:19 19.12.2019
5860 Clear 17 1025 36 10000 5.1 340 15:19 19.12.2019
5861 Clear 17 1025 36 10000 5.1 340 15:19 19.12.2019
5862 Clear 18 1025 31 10000 5.7 350 14:44 19.12.2019
5863 Clear 18 1025 31 10000 5.7 350 14:20 19.12.2019
5864 Clear 18 1025 34 10000 6.2 350 13:59 19.12.2019
5865 Clear 18 1025 34 10000 6.2 350 13:38 19.12.2019
5866 Clear 18 1025 34 10000 6.2 350 13:20 19.12.2019
5867 Clear 18 1025 34 10000 5.7 340 12:57 19.12.2019
5868 Clear 18 1025 34 10000 5.7 340 12:39 19.12.2019
5869 Clear 18 1025 34 10000 5.7 340 12:19 19.12.2019
5870 Clear 18 1026 34 10000 6.2 350 11:58 19.12.2019
5871 Clear 18 1026 34 10000 6.2 350 11:40 19.12.2019
5872 Clear 18 1026 34 10000 6.2 350 11:18 19.12.2019
5873 Clear 17 1027 39 10000 6.2 340 10:58 19.12.2019
5874 Clear 17 1027 39 10000 6.2 340 10:38 19.12.2019
5875 Clear 17 1027 39 10000 6.2 340 10:20 19.12.2019
5876 Clear 16 1028 44 10000 5.7 350 09:55 19.12.2019
5877 Clear 16 1028 44 10000 5.7 350 09:37 19.12.2019
5878 Clear 16 1028 44 10000 5.7 350 09:18 19.12.2019
5879 Clear 15 1028 47 10000 4.6 320 08:42 19.12.2019
5880 Clouds 15 1028 47 10000 4.6 320 08:20 19.12.2019
5881 Clouds 15 1028 47 10000 4.6 320 08:20 19.12.2019
5882 Clouds 15 1028 47 10000 4.6 320 08:20 19.12.2019
5883 Clouds 13 1028 54 10000 3.6 320 07:59 19.12.2019
5884 Clouds 13 1028 54 10000 3.6 320 07:38 19.12.2019
5885 Clouds 13 1028 54 10000 3.6 320 07:38 19.12.2019
5886 Clouds 13 1028 54 10000 3.6 320 07:20 19.12.2019
5887 Clouds 10 1028 61 10000 3.1 310 06:52 19.12.2019
5888 Clouds 10 1028 61 10000 3.1 310 06:32 19.12.2019
5889 Clouds 8 1027 70 10000 4.6 320 05:57 19.12.2019
5890 Clouds 8 1027 70 10000 4.6 320 05:39 19.12.2019
5891 Clouds 8 1027 70 10000 3.1 310 04:56 19.12.2019
5892 Clouds 8 1026 70 10000 3.6 310 03:45 19.12.2019
5893 Clouds 9 1026 70 10000 2.1 300 02:24 19.12.2019
5894 Clouds 9 1026 70 10000 2.6 290 01:23 19.12.2019
5895 Clouds 10 1026 66 10000 2.6 300 00:44 19.12.2019
5896 Clouds 10 1026 66 10000 2.6 300 00:24 19.12.2019
5897 Clouds 10 1026 71 10000 2.1 280 23:57 18.12.2019
5898 Clouds 10 1026 71 10000 2.1 280 23:38 18.12.2019
5899 Clouds 10 1026 71 10000 2.1 280 23:18 18.12.2019
5900 Clouds 11 1026 66 10000 2.1 300 22:55 18.12.2019
5901 Clouds 11 1026 66 10000 2.1 300 22:37 18.12.2019
5902 Clouds 11 1026 66 10000 2.1 300 22:19 18.12.2019
5903 Clouds 12 1026 58 10000 2.6 360 21:56 18.12.2019
5904 Clouds 12 1026 58 10000 2.6 360 21:56 18.12.2019
5905 Clouds 12 1026 58 10000 2.6 360 21:37 18.12.2019
5906 Clouds 12 1026 58 10000 2.6 360 21:19 18.12.2019
5907 Clouds 13 1026 54 10000 2.6 360 20:55 18.12.2019
5908 Clouds 13 1026 54 10000 2.6 360 20:55 18.12.2019
5909 Clouds 13 1026 54 10000 2.6 360 20:37 18.12.2019
5910 Clouds 13 1026 54 10000 2.6 360 20:19 18.12.2019
5911 Clouds 13 1026 54 10000 3.1 360 19:55 18.12.2019
5912 Clouds 13 1026 54 10000 3.1 360 19:37 18.12.2019
5913 Clouds 13 1026 54 10000 3.1 360 19:18 18.12.2019
5914 Clouds 13 1026 54 10000 3.1 360 19:18 18.12.2019
5915 Clouds 14 1026 50 10000 2.6 10 18:43 18.12.2019
5916 Clouds 14 1026 50 10000 2.6 10 18:25 18.12.2019
5917 Clouds 14 1026 50 10000 2.6 10 18:25 18.12.2019
5918 Clouds 15 1025 47 10000 2.1 10 17:57 18.12.2019
5919 Clouds 15 1025 47 10000 2.1 10 17:38 18.12.2019
5920 Clouds 15 1025 47 10000 2.1 10 17:19 18.12.2019
5921 Clouds 16 1025 38 10000 3.1 330 16:54 18.12.2019
5922 Clouds 16 1025 38 10000 3.1 330 16:36 18.12.2019
5923 Clouds 16 1025 38 10000 3.1 330 16:18 18.12.2019
5924 Clouds 17 1024 33 10000 5.1 330 15:55 18.12.2019
5925 Clouds 17 1024 33 10000 5.1 330 15:36 18.12.2019
5926 Clouds 17 1024 33 10000 5.1 330 15:18 18.12.2019
5927 Clouds 18 1024 34 10000 4.1 340 14:40 18.12.2019
5928 Clouds 18 1024 34 10000 4.1 340 14:20 18.12.2019
5929 Clouds 18 1023 36 10000 4.6 330 13:57 18.12.2019
5930 Clouds 18 1023 36 10000 4.6 330 13:57 18.12.2019
5931 Clouds 18 1023 36 10000 4.6 330 13:37 18.12.2019
5932 Clouds 18 1023 36 10000 4.6 330 13:19 18.12.2019
5933 Clouds 19 1023 34 10000 4.1 340 12:57 18.12.2019
5934 Clouds 19 1023 34 10000 4.1 340 12:38 18.12.2019
5935 Clouds 19 1023 34 10000 4.1 340 12:19 18.12.2019
5936 Clouds 18 1024 36 10000 4.1 360 11:55 18.12.2019
5937 Clouds 18 1024 36 10000 4.1 360 11:37 18.12.2019
5938 Clouds 18 1024 36 10000 4.1 360 11:37 18.12.2019
5939 Clouds 18 1024 36 10000 4.1 360 11:18 18.12.2019
5940 Clouds 17 1025 36 10000 5.7 350 10:55 18.12.2019
5941 Clouds 17 1025 36 10000 5.7 350 10:37 18.12.2019
5942 Clouds 17 1025 36 10000 5.7 350 10:37 18.12.2019
5943 Clouds 17 1025 36 10000 5.7 350 10:18 18.12.2019
5944 Clouds 16 1026 48 10000 3.6 310 09:43 18.12.2019
5945 Clouds 16 1026 48 10000 3.6 310 09:18 18.12.2019
5946 Clouds 16 1026 48 10000 3.6 310 09:18 18.12.2019
5947 Clouds 15 1026 51 10000 3.6 330 08:40 18.12.2019
5948 Clouds 15 1026 51 10000 3.6 330 08:21 18.12.2019
5949 Clouds 14 1027 58 10000 3.6 330 07:43 18.12.2019
5950 Clouds 14 1027 58 10000 3.6 330 07:22 18.12.2019
5951 Clouds 11 1026 71 10000 2.1 310 06:55 18.12.2019
5952 Clouds 11 1026 71 10000 2.1 310 06:27 18.12.2019
5953 Clouds 10 1026 76 10000 1.5 300 05:44 18.12.2019
5954 Clouds 10 1025 76 10000 2.1 270 04:46 18.12.2019
5955 Clouds 10 1024 81 10000 2.6 310 02:51 18.12.2019
5956 Clouds 10 1024 81 10000 2.6 310 02:31 18.12.2019
5957 Clouds 10 1024 81 10000 2.1 300 01:57 18.12.2019
5958 Clouds 10 1024 81 10000 2.1 300 01:37 18.12.2019
5959 Clouds 10 1024 81 10000 2.1 300 01:19 18.12.2019
5960 Clouds 11 1024 76 10000 2.1 310 00:40 18.12.2019
5961 Clouds 11 1024 76 10000 2.1 310 00:21 18.12.2019
5962 Clouds 12 1024 71 10000 3.1 360 23:54 17.12.2019
5963 Clouds 12 1024 71 10000 3.1 360 23:36 17.12.2019
5964 Clouds 12 1024 71 10000 3.1 360 23:18 17.12.2019
5965 Clouds 12 1024 71 10000 2.6 360 22:54 17.12.2019
5966 Clouds 12 1024 71 10000 2.6 360 22:36 17.12.2019
5967 Clouds 12 1024 71 10000 2.6 360 22:18 17.12.2019
5968 Clouds 13 1024 71 10000 2.6 10 21:55 17.12.2019
5969 Clouds 13 1024 71 10000 2.6 10 21:36 17.12.2019
5970 Clouds 13 1024 71 10000 2.6 10 21:18 17.12.2019
5971 Clouds 13 1024 71 10000 2.6 350 20:55 17.12.2019
5972 Clouds 13 1024 71 10000 2.6 350 20:36 17.12.2019
5973 Clouds 13 1024 71 10000 2.6 350 20:18 17.12.2019
5974 Clouds 13 1024 71 10000 2.1 20 19:41 17.12.2019
5975 Clouds 13 1024 71 10000 2.1 20 19:41 17.12.2019
5976 Clouds 13 1024 71 10000 2.1 20 19:20 17.12.2019
5977 Clouds 14 1024 62 10000 2.6 20 18:58 17.12.2019
5978 Clouds 14 1024 62 10000 2.6 20 18:40 17.12.2019
5979 Clouds 14 1024 62 10000 2.6 20 18:21 17.12.2019
5980 Clouds 15 1023 58 10000 3.6 20 17:56 17.12.2019
5981 Clouds 15 1023 58 10000 3.6 20 17:38 17.12.2019
5982 Clouds 15 1023 58 10000 3.6 20 17:18 17.12.2019
5983 Clouds 15 1022 54 10000 5.1 10 16:56 17.12.2019
5984 Clouds 15 1022 54 10000 5.1 10 16:37 17.12.2019
5985 Clouds 15 1022 54 10000 5.1 10 16:37 17.12.2019
5986 Clouds 15 1022 54 10000 5.1 10 16:18 17.12.2019
5987 Clouds 16 1021 55 10000 5.7 360 15:54 17.12.2019
5988 Clouds 16 1021 55 10000 5.7 360 15:36 17.12.2019
5989 Clouds 16 1021 55 10000 5.7 360 15:18 17.12.2019
5990 Clouds 17 1020 51 10000 5.7 360 14:54 17.12.2019
5991 Clouds 17 1020 51 10000 5.7 360 14:36 17.12.2019
5992 Clouds 17 1020 51 10000 5.7 360 14:18 17.12.2019
5993 Clouds 17 1020 51 10000 6.2 350 13:41 17.12.2019
5994 Clouds 17 1020 51 10000 6.2 350 13:19 17.12.2019
5995 Clouds 17 1020 55 10000 6.2 350 12:59 17.12.2019
5996 Clouds 17 1020 55 10000 6.2 350 12:59 17.12.2019
5997 Clouds 17 1020 55 10000 6.2 350 12:39 17.12.2019
5998 Clouds 17 1020 55 10000 6.2 350 12:18 17.12.2019
5999 Clouds 17 1020 55 10000 6.2 350 12:18 17.12.2019
6000 Clouds 16 1020 59 10000 5.7 350 11:58 17.12.2019
6001 Clouds 16 1020 59 10000 5.7 350 11:37 17.12.2019
6002 Clouds 16 1020 59 10000 5.7 350 11:18 17.12.2019
6003 Clouds 15 1021 62 8000 5.7 350 10:57 17.12.2019
6004 Clouds 15 1021 62 8000 5.7 350 10:39 17.12.2019
6005 Clouds 15 1021 62 8000 5.7 350 10:39 17.12.2019
6006 Clouds 15 1021 62 8000 5.7 350 10:19 17.12.2019
6007 Clouds 14 1021 67 7000 6.7 350 09:56 17.12.2019
6008 Clouds 14 1021 67 7000 6.7 350 09:38 17.12.2019
6009 Clouds 14 1021 67 7000 6.7 350 09:38 17.12.2019
6010 Clouds 14 1021 67 7000 6.7 350 09:18 17.12.2019
6011 Clouds 12 1022 76 6000 6.2 350 08:54 17.12.2019
6012 Clouds 12 1022 76 6000 6.2 350 08:36 17.12.2019
6013 Clouds 12 1022 76 6000 6.2 350 08:18 17.12.2019
6014 Clouds 12 1022 76 6000 5.7 340 07:42 17.12.2019
6015 Clouds 12 1022 76 6000 5.7 340 07:22 17.12.2019
6016 Clouds 12 1021 81 6000 5.7 350 06:50 17.12.2019
6017 Clouds 12 1021 81 6000 5.7 350 06:32 17.12.2019
6018 Clouds 12 1020 81 6000 6.2 340 05:50 17.12.2019
6019 Clouds 12 1020 81 6000 6.2 340 05:31 17.12.2019
6020 Clouds 12 1019 87 7000 4.6 340 03:59 17.12.2019
6021 Clouds 12 1018 87 6000 5.1 330 02:26 17.12.2019
6022 Mist 13 1018 82 4000 4.1 340 01:22 17.12.2019
6023 Mist 14 1018 82 3000 4.1 360 00:47 17.12.2019
6024 Mist 14 1018 82 3000 4.1 360 00:22 17.12.2019
6025 Dust 14 1018 82 2500 6.7 360 23:58 16.12.2019
6026 Dust 14 1018 82 2500 6.7 360 23:40 16.12.2019
6027 Dust 14 1018 82 2500 6.7 360 23:18 16.12.2019
6028 Dust 14 1017 87 2500 6.2 20 22:54 16.12.2019
6029 Dust 14 1017 87 2500 6.2 20 22:36 16.12.2019
6030 Dust 14 1017 87 2500 6.2 20 22:18 16.12.2019
6031 Dust 15 1017 77 3000 7.2 10 21:54 16.12.2019
6032 Thunderstorm 17 1016 59 10000 3.6 300 21:36 16.12.2019
6033 Thunderstorm 17 1016 59 10000 3.6 300 21:18 16.12.2019
6034 Clouds 17 1016 59 10000 3.1 310 20:55 16.12.2019
6035 Clouds 18 1016 55 7000 3.6 310 20:37 16.12.2019
6036 Clouds 18 1016 55 7000 3.6 310 20:18 16.12.2019
6037 Clouds 19 1016 68 7000 2.1 350 19:54 16.12.2019
6038 Clouds 19 1016 68 7000 2.1 350 19:36 16.12.2019
6039 Clouds 19 1016 68 7000 2.1 350 19:18 16.12.2019
6040 Clouds 20 1016 82 7000 2.6 30 18:42 16.12.2019
6041 Clouds 20 1016 82 7000 2.6 30 18:20 16.12.2019
6042 Clouds 20 1015 82 7000 5.33 313 17:59 16.12.2019
6043 Clouds 20 1015 82 7000 5.33 313 17:41 16.12.2019
6044 Clouds 20 1015 82 7000 3.95 288 17:22 16.12.2019
6045 Clouds 21 1014 77 6000 1.5 110 16:58 16.12.2019
6046 Clouds 21 1014 77 6000 1.5 110 16:39 16.12.2019
6047 Clouds 21 1014 77 6000 1.5 110 16:20 16.12.2019
6048 Haze 22 1014 73 5000 2.1 150 15:59 16.12.2019
6049 Haze 22 1014 73 5000 2.1 150 15:39 16.12.2019
6050 Haze 22 1014 73 5000 2.1 150 15:39 16.12.2019
6051 Haze 22 1014 73 5000 2.1 150 15:21 16.12.2019
6052 Haze 22 1013 73 5000 3.1 160 14:57 16.12.2019
6053 Haze 22 1013 73 5000 3.1 160 14:38 16.12.2019
6054 Haze 22 1013 73 5000 3.1 160 14:19 16.12.2019
6055 Clouds 23 1013 64 7000 3.1 130 13:57 16.12.2019
6056 Clouds 23 1013 64 7000 3.1 130 13:38 16.12.2019
6057 Clouds 23 1013 64 7000 3.1 130 13:19 16.12.2019
6058 Clouds 23 1013 64 7000 2.6 150 12:58 16.12.2019
6059 Clouds 23 1013 64 7000 2.6 150 12:39 16.12.2019
6060 Clouds 23 1013 64 7000 2.6 150 12:19 16.12.2019
6061 Clouds 23 1014 64 6000 3.1 170 11:58 16.12.2019
6062 Clouds 23 1014 64 6000 3.1 170 11:40 16.12.2019
6063 Clouds 23 1014 64 6000 3.1 170 11:20 16.12.2019
6064 Haze 22 1015 73 5000 2.6 160 10:57 16.12.2019
6065 Haze 22 1015 73 5000 2.6 160 10:39 16.12.2019
6066 Haze 22 1015 73 5000 2.6 160 10:39 16.12.2019
6067 Haze 22 1015 73 5000 2.6 160 10:19 16.12.2019
6068 Mist 19 1016 88 4500 2.1 130 09:45 16.12.2019
6069 Mist 19 1016 88 4500 2.1 130 09:27 16.12.2019
6070 Mist 19 1016 88 4500 2.1 130 09:27 16.12.2019
6071 Rain 19 1018 82 3500 3.1 210 08:56 16.12.2019
6072 Rain 19 1018 82 3500 3.1 210 08:37 16.12.2019
6073 Rain 19 1018 82 3500 3.1 210 08:18 16.12.2019
6074 Rain 19 1018 82 3500 3.1 210 08:18 16.12.2019
6075 Mist 19 1016 82 4500 4.6 170 07:44 16.12.2019
6076 Mist 19 1016 82 4500 4.6 170 07:22 16.12.2019
6077 Mist 18 1015 88 4000 4.6 160 06:45 16.12.2019
6078 Mist 18 1015 88 4000 4.6 160 06:25 16.12.2019
6079 Clouds 18 1015 88 6000 4.6 160 05:50 16.12.2019
6080 Clouds 18 1015 88 6000 4.6 160 05:31 16.12.2019
6081 Clouds 18 1014 88 7000 2.6 140 04:22 16.12.2019
6082 Clouds 18 1014 82 7000 4.1 140 02:19 16.12.2019
6083 Clouds 18 1015 88 7000 3.1 140 01:44 16.12.2019
6084 Clouds 18 1016 88 7000 3.1 140 00:42 16.12.2019
6085 Clouds 18 1016 88 7000 3.1 140 00:24 16.12.2019
6086 Clouds 18 1016 88 7000 2.6 150 23:58 15.12.2019
6087 Clouds 18 1016 88 7000 2.6 150 23:38 15.12.2019
6088 Clouds 18 1016 88 7000 2.6 150 23:20 15.12.2019
6089 Clouds 18 1016 88 7000 4.6 130 22:56 15.12.2019
6090 Clouds 18 1016 88 7000 4.6 130 22:37 15.12.2019
6091 Clouds 18 1016 88 7000 4.6 130 22:18 15.12.2019
6092 Clouds 18 1016 88 7000 4.6 130 22:18 15.12.2019
6093 Mist 18 1016 88 5000 3.1 140 21:55 15.12.2019
6094 Mist 18 1016 88 5000 3.1 140 21:37 15.12.2019
6095 Mist 18 1016 88 5000 3.1 140 21:19 15.12.2019
6096 Thunderstorm 18 1016 88 5000 2.6 130 20:55 15.12.2019
6097 Thunderstorm 18 1016 88 5000 2.6 130 20:55 15.12.2019
6098 Thunderstorm 18 1016 88 5000 2.6 130 20:37 15.12.2019
6099 Thunderstorm 18 1016 88 5000 2.6 130 20:18 15.12.2019
6100 Thunderstorm 18 1016 88 5000 3.6 130 19:56 15.12.2019
6101 Thunderstorm 18 1016 88 5000 3.6 130 19:38 15.12.2019
6102 Thunderstorm 18 1017 88 7000 2.1 130 19:18 15.12.2019
6103 Thunderstorm 18 1016 88 7000 3.6 120 18:55 15.12.2019
6104 Thunderstorm 18 1016 88 7000 3.6 120 18:37 15.12.2019
6105 Thunderstorm 18 1016 88 7000 3.6 120 18:18 15.12.2019
6106 Clouds 19 1016 77 10000 2.6 130 17:56 15.12.2019
6107 Clouds 19 1016 77 10000 2.6 130 17:36 15.12.2019
6108 Clouds 19 1016 77 10000 2.6 130 17:18 15.12.2019
6109 Clouds 19 1016 77 10000 2.6 130 17:18 15.12.2019
6110 Clouds 19 1016 77 10000 2.6 130 17:18 15.12.2019
6111 Clouds 20 1016 72 9000 3.1 120 16:43 15.12.2019
6112 Clouds 20 1016 72 9000 3.1 120 16:23 15.12.2019
6113 Clouds 20 1015 72 9000 4.1 130 15:58 15.12.2019
6114 Clouds 20 1015 72 9000 4.1 130 15:39 15.12.2019
6115 Clouds 20 1015 72 9000 4.1 130 15:20 15.12.2019
6116 Clouds 21 1016 68 9000 3.1 120 14:56 15.12.2019
6117 Clouds 21 1016 68 9000 3.1 120 14:38 15.12.2019
6118 Clouds 21 1016 68 9000 3.1 120 14:19 15.12.2019
6119 Clouds 21 1016 64 8000 3.6 120 13:59 15.12.2019
6120 Clouds 21 1016 64 8000 3.6 120 13:39 15.12.2019
6121 Clouds 21 1016 64 8000 3.6 120 13:20 15.12.2019
6122 Clouds 21 1016 64 8000 2.6 130 12:57 15.12.2019
6123 Clouds 21 1016 64 8000 2.6 130 12:39 15.12.2019
6124 Clouds 21 1016 64 8000 2.6 130 12:21 15.12.2019
6125 Rain 19 1016 77 4000 1.5 120 11:59 15.12.2019
6126 Rain 19 1016 77 4000 1.5 120 11:38 15.12.2019
6127 Rain 19 1016 77 4000 1.5 120 11:19 15.12.2019
6128 Rain 19 1016 77 4000 1.5 120 11:19 15.12.2019
6129 Rain 19 1016 77 4000 1.5 120 11:19 15.12.2019
6130 Rain 20 1017 68 4000 3.6 140 10:55 15.12.2019
6131 Drizzle 21 1018 60 7000 3.1 150 10:37 15.12.2019
6132 Drizzle 21 1018 60 7000 3.1 150 10:19 15.12.2019
6133 Clouds 22 1018 53 9000 5.1 160 09:56 15.12.2019
6134 Clouds 22 1018 53 9000 5.1 160 09:37 15.12.2019
6135 Clouds 22 1018 53 9000 5.1 160 09:18 15.12.2019
6136 Drizzle 20 1018 64 6000 5.1 170 08:41 15.12.2019
6137 Clouds 21 1018 52 9000 5.1 170 08:22 15.12.2019
6138 Clouds 19 1019 59 9000 3.1 160 07:57 15.12.2019
6139 Clouds 19 1019 59 9000 3.1 160 07:37 15.12.2019
6140 Clouds 17 1019 63 8000 2.6 160 06:57 15.12.2019
6141 Clouds 17 1019 63 8000 2.6 160 06:23 15.12.2019
6142 Clouds 16 1018 67 8000 2.1 140 05:39 15.12.2019
6143 Clouds 16 1018 67 8000 2.1 140 05:19 15.12.2019
6144 Clouds 16 1017 59 10000 2.1 140 03:56 15.12.2019
6145 Clouds 16 1017 59 10000 2.6 150 02:35 15.12.2019
6146 Clouds 17 1018 48 10000 3.6 150 01:55 15.12.2019
6147 Clouds 17 1018 48 10000 3.6 150 01:37 15.12.2019
6148 Clouds 17 1018 48 10000 3.6 150 01:18 15.12.2019
6149 Clouds 17 1018 48 10000 3.1 130 00:42 15.12.2019
6150 Clouds 17 1018 48 10000 3.1 130 00:23 15.12.2019
6151 Clouds 17 1019 48 10000 3.1 130 23:40 14.12.2019
6152 Clouds 17 1019 48 10000 3.1 130 23:21 14.12.2019
6153 Thunderstorm 18 1019 39 8000 3.6 110 22:58 14.12.2019
6154 Thunderstorm 18 1019 39 8000 3.6 110 22:40 14.12.2019
6155 Thunderstorm 18 1019 39 8000 3.6 110 22:21 14.12.2019
6156 Thunderstorm 18 1019 39 10000 2.6 140 21:56 14.12.2019
6157 Thunderstorm 18 1019 39 10000 2.6 140 21:38 14.12.2019
6158 Clouds 18 1019 39 10000 3.6 130 21:19 14.12.2019
6159 Clouds 18 1019 39 10000 3.6 130 21:19 14.12.2019
6160 Clouds 18 1019 39 10000 3.6 130 21:19 14.12.2019
6161 Clouds 18 1019 39 10000 3.1 130 20:56 14.12.2019
6162 Clouds 18 1019 39 10000 3.1 130 20:56 14.12.2019
6163 Clouds 18 1019 39 10000 3.1 130 20:38 14.12.2019
6164 Clouds 18 1019 39 10000 3.1 130 20:19 14.12.2019
6165 Clouds 19 1019 39 10000 2.6 130 19:55 14.12.2019
6166 Clouds 19 1019 39 10000 2.6 130 19:36 14.12.2019
6167 Clouds 19 1019 39 10000 2.6 130 19:18 14.12.2019
6168 Clouds 20 1020 32 10000 4.1 120 18:55 14.12.2019
6169 Clouds 20 1020 32 10000 4.1 120 18:36 14.12.2019
6170 Clouds 20 1020 32 10000 4.1 120 18:18 14.12.2019
6171 Clouds 20 1020 34 10000 4.1 110 17:42 14.12.2019
6172 Clouds 20 1020 34 10000 4.1 110 17:22 14.12.2019
6173 Clouds 21 1018 32 10000 3.6 100 16:55 14.12.2019
6174 Clouds 21 1018 32 10000 3.6 100 16:37 14.12.2019
6175 Clouds 21 1018 32 10000 3.6 100 16:18 14.12.2019
6176 Clouds 22 1018 33 10000 2.6 120 15:41 14.12.2019
6177 Clouds 22 1018 33 10000 2.6 120 15:20 14.12.2019
6178 Clouds 22 1018 33 10000 3.6 130 14:57 14.12.2019
6179 Clouds 22 1018 33 10000 3.6 130 14:38 14.12.2019
6180 Clouds 22 1018 33 10000 3.6 130 14:19 14.12.2019
6181 Clouds 23 1018 31 10000 3.6 140 13:45 14.12.2019
6182 Clouds 23 1018 31 10000 3.6 140 13:20 14.12.2019
6183 Clouds 23 1018 27 10000 3.1 130 12:59 14.12.2019
6184 Clouds 23 1018 27 10000 3.1 130 12:40 14.12.2019
6185 Clouds 23 1018 23 10000 3.6 140 12:21 14.12.2019
6186 Clouds 23 1018 23 10000 3.6 140 12:21 14.12.2019
6187 Clouds 23 1018 23 10000 3.6 140 12:21 14.12.2019
6188 Clouds 23 1018 23 10000 3.6 140 11:59 14.12.2019
6189 Clouds 23 1018 23 10000 3.6 140 11:39 14.12.2019
6190 Clear 23 1018 23 10000 3.6 140 11:20 14.12.2019
6191 Clear 23 1020 33 10000 3.1 130 10:57 14.12.2019
6192 Clear 23 1020 34 10000 3.1 130 10:39 14.12.2019
6193 Clear 23 1020 33 10000 3.1 130 10:21 14.12.2019
6194 Clouds 21 1021 30 10000 2.1 110 09:57 14.12.2019
6195 Clouds 21 1021 30 10000 2.1 110 09:38 14.12.2019
6196 Clouds 21 1021 30 10000 2.1 110 09:18 14.12.2019
6197 Clouds 18 1022 39 10000 2.1 80 08:42 14.12.2019
6198 Clouds 18 1022 39 10000 2.1 80 08:19 14.12.2019
6199 Clouds 17 1022 39 10000 1.5 60 07:44 14.12.2019
6200 Clouds 17 1022 39 10000 1.5 60 07:23 14.12.2019
6201 Clouds 16 1021 44 10000 1 60 06:56 14.12.2019
6202 Clouds 16 1021 44 10000 1 60 06:37 14.12.2019
6203 Clouds 15 1021 51 10000 1 50 05:57 14.12.2019
6204 Clear 16 1020 44 10000 1 40 04:47 14.12.2019
6205 Clear 15 1019 51 10000 2.97 81 02:31 14.12.2019
6206 Clear 16 1019 44 10000 1 10 01:49 14.12.2019
6207 Clear 16 1019 44 10000 1 10 01:31 14.12.2019
6208 Clear 16 1019 41 10000 2.6 20 00:45 14.12.2019
6209 Clear 16 1019 41 10000 2.6 20 00:27 14.12.2019
6210 Clear 16 1019 44 10000 2.6 30 23:54 13.12.2019
6211 Clear 16 1019 44 10000 2.6 30 23:36 13.12.2019
6212 Clear 16 1019 44 10000 2.6 30 23:18 13.12.2019
6213 Clear 17 1019 45 10000 2.1 20 22:40 13.12.2019
6214 Clear 17 1019 45 10000 2.1 20 22:19 13.12.2019
6215 Clear 17 1019 45 10000 2.1 20 22:19 13.12.2019
6216 Clear 17 1019 51 10000 1 40 21:56 13.12.2019
6217 Clear 17 1019 51 10000 1 40 21:37 13.12.2019
6218 Clear 17 1019 51 10000 1 40 21:19 13.12.2019
6219 Clear 18 1019 45 7000 1.5 360 20:41 13.12.2019
6220 Dust 19 1018 39 5000 2.1 10 20:21 13.12.2019
6221 Dust 19 1018 39 5000 2.1 10 19:58 13.12.2019
6222 Dust 19 1018 39 5000 2.1 10 19:40 13.12.2019
6223 Dust 19 1018 39 5000 2.1 10 19:21 13.12.2019
6224 Dust 20 1018 37 5000 3.1 30 18:58 13.12.2019
6225 Dust 20 1018 37 5000 3.1 30 18:40 13.12.2019
6226 Dust 20 1018 37 5000 3.1 30 18:19 13.12.2019
6227 Dust 20 1018 37 5000 3.1 30 18:19 13.12.2019
6228 Dust 22 1017 33 5000 3.6 20 17:42 13.12.2019
6229 Dust 22 1017 33 5000 3.6 20 17:20 13.12.2019
6230 Dust 23 1016 31 5000 4.6 350 16:59 13.12.2019
6231 Dust 23 1016 31 5000 4.6 350 16:39 13.12.2019
6232 Dust 23 1016 31 5000 4.6 350 16:20 13.12.2019
6233 Dust 23 1016 31 5000 4.6 350 16:20 13.12.2019
6234 Dust 24 1015 29 5000 5.7 340 15:43 13.12.2019
6235 Dust 24 1015 29 5000 5.7 340 15:23 13.12.2019
6236 Dust 25 1014 38 5000 6.7 340 14:58 13.12.2019
6237 Dust 25 1014 38 5000 6.7 340 14:40 13.12.2019
6238 Dust 25 1014 38 5000 6.7 340 14:20 13.12.2019
6239 Dust 26 1014 39 4000 6.7 340 13:56 13.12.2019
6240 Dust 26 1014 39 4000 6.7 340 13:37 13.12.2019
6241 Dust 26 1014 39 4000 6.7 340 13:19 13.12.2019
6242 Sand 26 1014 41 2000 9.3 340 12:42 13.12.2019
6243 Sand 26 1014 41 2000 9.3 340 12:20 13.12.2019
6244 Clouds 27 1014 39 10000 5.1 260 11:57 13.12.2019
6245 Clouds 27 1014 39 10000 5.1 260 11:57 13.12.2019
6246 Clouds 27 1014 39 10000 5.1 260 11:39 13.12.2019
6247 Clouds 27 1014 39 10000 5.1 260 11:20 13.12.2019
6248 Clouds 26 1014 50 10000 4.1 250 10:42 13.12.2019
6249 Clouds 26 1014 50 10000 4.1 250 10:42 13.12.2019
6250 Clouds 26 1014 50 10000 4.1 250 10:23 13.12.2019
6251 Clouds 25 1015 50 10000 5.7 240 09:55 13.12.2019
6252 Clouds 25 1015 50 10000 5.7 240 09:36 13.12.2019
6253 Clouds 25 1015 50 10000 5.7 240 09:18 13.12.2019
6254 Clouds 23 1016 53 10000 5.1 240 08:41 13.12.2019
6255 Clouds 23 1016 53 10000 5.1 240 08:23 13.12.2019
6256 Clouds 21 1016 52 10000 2.1 170 07:44 13.12.2019
6257 Clouds 21 1016 52 10000 2.1 170 07:21 13.12.2019
6258 Clouds 21 1016 52 10000 2.1 170 07:21 13.12.2019
6259 Clouds 17 1015 59 8000 1.5 150 06:51 13.12.2019
6260 Clouds 17 1015 59 8000 1.5 150 06:28 13.12.2019
6261 Clouds 17 1015 59 8000 1.5 170 05:45 13.12.2019
6262 Clouds 17 1015 59 8000 1.5 170 05:24 13.12.2019
6263 Rain 17 1014 51 10000 4.1 170 04:35 13.12.2019
6264 Rain 16 1014 63 10000 1.5 160 03:31 13.12.2019
6265 Rain 17 1013 51 10000 3.1 180 02:32 13.12.2019
6266 Rain 18 1013 45 10000 4.1 180 01:42 13.12.2019
6267 Rain 18 1014 48 10000 3.6 170 00:53 13.12.2019
6268 Rain 18 1014 48 10000 3.6 170 00:34 13.12.2019
6269 Rain 18 1014 45 10000 4.6 160 23:57 12.12.2019
6270 Rain 18 1014 45 10000 4.6 160 23:37 12.12.2019
6271 Clouds 18 1014 45 10000 4.6 160 23:19 12.12.2019
6272 Clouds 18 1014 45 10000 4.1 160 22:42 12.12.2019
6273 Clouds 18 1014 45 10000 4.1 160 22:23 12.12.2019
6274 Clouds 18 1015 52 10000 1.5 150 21:57 12.12.2019
6275 Clouds 18 1015 52 10000 1.5 150 21:39 12.12.2019
6276 Clouds 18 1015 48 10000 2.6 130 21:20 12.12.2019
6277 Clouds 18 1015 48 10000 2.6 130 20:59 12.12.2019
6278 Clouds 18 1015 48 10000 2.6 130 20:41 12.12.2019
6279 Clear 18 1015 48 10000 2.6 130 20:23 12.12.2019
6280 Clear 19 1015 42 10000 3.6 140 19:59 12.12.2019
6281 Clear 19 1015 42 10000 3.6 140 19:41 12.12.2019
6282 Clear 19 1015 42 10000 3.6 140 19:21 12.12.2019
6283 Clear 20 1015 40 10000 3.1 160 18:58 12.12.2019
6284 Clear 20 1015 40 10000 3.1 160 18:39 12.12.2019
6285 Clear 20 1015 40 10000 3.1 160 18:20 12.12.2019
6286 Clear 20 1016 42 10000 3.6 160 17:57 12.12.2019
6287 Clear 20 1016 42 10000 3.6 160 17:57 12.12.2019
6288 Clear 20 1016 42 10000 3.6 160 17:39 12.12.2019
6289 Clear 20 1016 42 10000 3.6 160 17:20 12.12.2019
6290 Clear 20 1016 42 10000 3.6 160 17:20 12.12.2019
6291 Clear 21 1015 40 10000 3.6 150 16:57 12.12.2019
6292 Clear 21 1015 40 10000 3.6 150 16:38 12.12.2019
6293 Clear 21 1015 40 10000 3.6 150 16:20 12.12.2019
6294 Clear 21 1015 40 10000 3.1 140 15:56 12.12.2019
6295 Clear 21 1015 40 10000 3.1 140 15:37 12.12.2019
6296 Clear 21 1015 40 10000 3.1 140 15:18 12.12.2019
6297 Clear 22 1015 37 10000 3.6 150 14:38 12.12.2019
6298 Clear 22 1015 37 10000 3.6 150 14:20 12.12.2019
6299 Clear 23 1015 35 10000 4.1 150 13:58 12.12.2019
6300 Clear 23 1015 35 10000 4.1 150 13:39 12.12.2019
6301 Clear 23 1015 35 10000 4.1 150 13:21 12.12.2019
6302 Clear 23 1015 35 10000 4.1 150 13:21 12.12.2019
6303 Clear 22 1016 35 10000 4.6 150 12:58 12.12.2019
6304 Clear 22 1016 35 10000 4.6 150 12:40 12.12.2019
6305 Clear 22 1016 35 10000 4.6 150 12:21 12.12.2019
6306 Clear 22 1017 37 10000 4.1 160 11:56 12.12.2019
6307 Clear 22 1017 37 10000 4.1 160 11:38 12.12.2019
6308 Clear 22 1017 37 10000 4.1 160 11:19 12.12.2019
6309 Clear 20 1018 49 10000 4.1 140 10:55 12.12.2019
6310 Clear 20 1018 49 10000 4.1 140 10:37 12.12.2019
6311 Clear 20 1018 49 10000 4.1 140 10:19 12.12.2019
6312 Clear 19 1019 59 10000 3.1 140 09:42 12.12.2019
6313 Clear 19 1019 59 10000 3.1 140 09:24 12.12.2019
6314 Clear 17 1020 67 10000 4.1 150 08:59 12.12.2019
6315 Clear 17 1020 67 10000 4.1 150 08:40 12.12.2019
6316 Clouds 17 1020 67 10000 4.1 150 08:22 12.12.2019
6317 Clouds 16 1020 72 10000 3.1 130 07:47 12.12.2019
6318 Clouds 16 1020 72 10000 3.1 130 07:25 12.12.2019
6319 Clouds 14 1020 82 7000 1.5 140 06:54 12.12.2019
6320 Clouds 14 1020 82 7000 1.5 140 06:34 12.12.2019
6321 Clouds 12 1019 87 7000 1.5 130 05:41 12.12.2019
6322 Clear 12 1018 87 10000 1 130 04:54 12.12.2019
6323 Clear 12 1018 81 10000 3.07 99 03:37 12.12.2019
6324 Clear 12 1018 87 10000 3.07 99 02:39 12.12.2019
6325 Clouds 12 1018 87 10000 2.9 101 02:20 12.12.2019
6326 Clouds 13 1018 82 10000 2.9 101 01:40 12.12.2019
6327 Clouds 13 1018 82 10000 2.9 101 01:22 12.12.2019
6328 Clouds 13 1018 82 10000 2.95 100 00:46 12.12.2019
6329 Clouds 13 1018 82 10000 2.95 100 00:20 12.12.2019
6330 Clouds 14 1019 82 10000 1 60 23:44 11.12.2019
6331 Clouds 14 1019 82 10000 1 60 23:21 11.12.2019
6332 Clouds 15 1019 77 10000 1.5 60 22:58 11.12.2019
6333 Clouds 15 1019 77 10000 1.5 60 22:39 11.12.2019
6334 Clouds 15 1019 77 10000 1.5 60 22:20 11.12.2019
6335 Clouds 15 1019 77 10000 1.5 60 21:57 11.12.2019
6336 Clouds 15 1019 77 10000 1.5 60 21:38 11.12.2019
6337 Clouds 15 1019 77 10000 1.5 60 21:20 11.12.2019
6338 Clouds 16 1019 77 10000 1 70 20:56 11.12.2019
6339 Clouds 16 1019 77 10000 1 70 20:37 11.12.2019
6340 Clouds 16 1019 77 10000 1 70 20:37 11.12.2019
6341 Clear 16 1019 77 10000 1 70 20:19 11.12.2019
6342 Clear 17 1019 72 10000 1.5 70 19:58 11.12.2019
6343 Clear 17 1019 72 10000 1.5 70 19:39 11.12.2019
6344 Clear 17 1019 72 10000 1.5 70 19:19 11.12.2019
6345 Clear 18 1019 68 10000 2.6 50 18:42 11.12.2019
6346 Clear 18 1019 68 10000 2.6 50 18:22 11.12.2019
6347 Clear 19 1018 59 10000 2.1 70 17:57 11.12.2019
6348 Clear 19 1018 59 10000 2.1 70 17:39 11.12.2019
6349 Clear 19 1018 59 10000 2.1 70 17:19 11.12.2019
6350 Clear 20 1018 60 10000 2.1 60 16:58 11.12.2019
6351 Clear 20 1018 60 10000 2.1 60 16:39 11.12.2019
6352 Clear 20 1018 60 10000 2.1 60 16:21 11.12.2019
6353 Clear 21 1017 52 10000 2.1 40 15:59 11.12.2019
6354 Clear 21 1017 52 10000 2.1 40 15:40 11.12.2019
6355 Clear 21 1017 52 10000 2.1 40 15:22 11.12.2019
6356 Clear 21 1017 52 10000 2.1 40 15:22 11.12.2019
6357 Clear 22 1017 46 10000 2.6 40 14:56 11.12.2019
6358 Clear 22 1017 46 10000 2.6 40 14:38 11.12.2019
6359 Clear 22 1017 46 10000 2.6 40 14:19 11.12.2019
6360 Clear 22 1017 46 10000 2.1 20 13:55 11.12.2019
6361 Clear 22 1017 46 10000 2.1 20 13:36 11.12.2019
6362 Clear 22 1017 46 10000 2.1 20 13:18 11.12.2019
6363 Clear 22 1017 49 10000 3.1 10 12:55 11.12.2019
6364 Clear 22 1017 49 10000 3.1 10 12:37 11.12.2019
6365 Clear 22 1017 49 10000 3.1 10 12:18 11.12.2019
6366 Clear 21 1018 52 10000 3.1 40 11:56 11.12.2019
6367 Clear 21 1018 52 10000 3.1 40 11:37 11.12.2019
6368 Clear 21 1018 52 10000 3.1 40 11:37 11.12.2019
6369 Clouds 21 1019 56 10000 2.1 20 11:18 11.12.2019
6370 Clouds 21 1019 56 10000 2.1 20 10:44 11.12.2019
6371 Clouds 21 1019 56 10000 2.1 20 10:25 11.12.2019
6372 Clouds 19 1020 63 10000 3.1 50 09:58 11.12.2019
6373 Clouds 19 1020 63 10000 3.1 50 09:38 11.12.2019
6374 Clouds 19 1020 63 10000 3.1 50 09:38 11.12.2019
6375 Clouds 19 1020 63 10000 3.1 50 09:20 11.12.2019
6376 Clouds 18 1020 68 10000 4.1 40 08:57 11.12.2019
6377 Clouds 18 1020 68 10000 4.1 40 08:37 11.12.2019
6378 Clouds 18 1020 68 10000 4.1 40 08:18 11.12.2019
6379 Clouds 18 1021 72 10000 2.6 50 07:45 11.12.2019
6380 Clouds 18 1021 72 10000 2.6 50 07:25 11.12.2019
6381 Clouds 17 1019 82 6000 1 70 06:47 11.12.2019
6382 Clouds 17 1019 82 6000 1 70 06:25 11.12.2019
6383 Mist 17 1019 82 3000 2.1 50 05:58 11.12.2019
6384 Mist 17 1019 82 3000 2.1 50 05:37 11.12.2019
6385 Mist 17 1018 88 3000 2.1 40 04:57 11.12.2019
6386 Mist 17 1017 93 1500 1.5 30 03:49 11.12.2019
6387 Fog 17 1017 93 50 3.1 30 02:40 11.12.2019
6388 Mist 18 1017 88 1500 1.5 20 01:23 11.12.2019
6389 Mist 17 1017 93 3000 1.64 354 00:46 11.12.2019
6390 Mist 17 1017 93 3000 1.64 354 00:21 11.12.2019
6391 Mist 19 1017 88 4000 1.64 354 23:46 10.12.2019
6392 Mist 19 1017 88 4000 1.64 354 23:28 10.12.2019
6393 Mist 19 1017 88 4000 1 160 22:57 10.12.2019
6394 Mist 19 1017 88 4000 1 160 22:39 10.12.2019
6395 Mist 19 1017 88 4000 1 160 22:21 10.12.2019
6396 Mist 20 1017 82 4000 1.5 180 21:55 10.12.2019
6397 Mist 20 1017 82 4000 1.5 180 21:37 10.12.2019
6398 Mist 20 1017 82 4000 1.5 180 21:18 10.12.2019
6399 Mist 19 1016 88 4000 2.1 160 20:56 10.12.2019
6400 Mist 19 1016 88 4000 2.1 160 20:37 10.12.2019
6401 Mist 19 1016 88 4000 2.1 160 20:37 10.12.2019
6402 Mist 19 1016 88 4000 2.1 160 20:19 10.12.2019
6403 Mist 19 1016 88 4000 2.6 160 19:54 10.12.2019
6404 Mist 19 1016 88 4000 2.6 160 19:36 10.12.2019
6405 Mist 19 1016 88 4000 2.6 160 19:18 10.12.2019
6406 Mist 20 1016 82 4000 3.1 160 18:40 10.12.2019
6407 Haze 20 1016 82 4000 2.6 150 18:20 10.12.2019
6408 Haze 20 1016 82 4000 2.6 150 17:57 10.12.2019
6409 Haze 20 1016 82 4000 2.6 150 17:39 10.12.2019
6410 Haze 20 1016 82 4000 2.6 150 17:20 10.12.2019
6411 Haze 20 1015 82 4000 2.6 140 16:43 10.12.2019
6412 Haze 20 1015 82 4000 2.6 140 16:21 10.12.2019
6413 Haze 20 1014 82 5000 2.6 140 15:59 10.12.2019
6414 Haze 20 1014 82 5000 2.6 140 15:37 10.12.2019
6415 Haze 20 1014 82 5000 2.6 140 15:18 10.12.2019
6416 Haze 20 1014 82 5000 2.6 150 14:55 10.12.2019
6417 Haze 20 1014 82 5000 2.6 150 14:37 10.12.2019
6418 Haze 20 1014 82 5000 2.6 150 14:19 10.12.2019
6419 Clouds 22 1014 73 6000 3.6 160 13:56 10.12.2019
6420 Clouds 22 1014 73 6000 3.6 160 13:38 10.12.2019
6421 Clouds 22 1014 73 6000 3.6 160 13:18 10.12.2019
6422 Clouds 21 1015 73 6000 3.1 170 12:40 10.12.2019
6423 Clouds 21 1015 73 6000 3.1 170 12:22 10.12.2019
6424 Clouds 21 1015 73 7000 3.1 160 11:44 10.12.2019
6425 Clouds 21 1015 73 7000 3.1 160 11:25 10.12.2019
6426 Clouds 20 1017 77 6000 3.1 160 10:57 10.12.2019
6427 Clouds 20 1017 77 6000 3.1 160 10:38 10.12.2019
6428 Clouds 20 1017 77 6000 3.1 160 10:38 10.12.2019
6429 Clouds 20 1017 77 6000 3.1 160 10:20 10.12.2019
6430 Mist 19 1018 82 5000 2.6 150 09:56 10.12.2019
6431 Mist 19 1018 82 5000 2.6 150 09:56 10.12.2019
6432 Mist 19 1018 82 5000 2.6 150 09:56 10.12.2019
6433 Mist 19 1018 82 5000 2.6 150 09:38 10.12.2019
6434 Mist 19 1018 82 5000 2.6 150 09:38 10.12.2019
6435 Mist 19 1018 82 5000 2.6 150 09:38 10.12.2019
6436 Mist 19 1018 82 5000 2.6 150 09:19 10.12.2019
6437 Mist 18 1019 82 4000 2.6 150 08:55 10.12.2019
6438 Mist 18 1019 82 4000 2.6 150 08:37 10.12.2019
6439 Mist 18 1019 82 4000 2.6 150 08:18 10.12.2019
6440 Mist 17 1019 88 2000 3.6 130 07:44 10.12.2019
6441 Mist 17 1019 88 2000 3.6 130 07:25 10.12.2019
6442 Mist 17 1019 88 4000 2.6 130 06:48 10.12.2019
6443 Mist 17 1019 88 4000 2.6 130 06:22 10.12.2019
6444 Mist 17 1018 82 4000 2.6 130 05:55 10.12.2019
6445 Mist 17 1017 82 4000 2.6 120 04:56 10.12.2019
6446 Clouds 17 1017 88 8000 3.6 130 03:40 10.12.2019
6447 Clouds 17 1017 88 8000 3.6 130 02:47 10.12.2019
6448 Clouds 17 1017 88 8000 3.1 130 01:50 10.12.2019
6449 Clouds 17 1017 88 8000 3.1 130 01:25 10.12.2019
6450 Clouds 17 1017 82 8000 2.6 130 00:43 10.12.2019
6451 Clouds 17 1017 82 8000 2.6 130 00:24 10.12.2019
6452 Clouds 17 1017 82 10000 2.6 130 23:43 09.12.2019
6453 Clouds 17 1017 82 10000 2.6 130 23:24 09.12.2019
6454 Clouds 17 1018 82 10000 2.6 120 22:58 09.12.2019
6455 Clouds 17 1018 82 10000 2.6 120 22:40 09.12.2019
6456 Clouds 17 1018 82 10000 2.6 120 22:21 09.12.2019
6457 Clouds 17 1018 77 10000 3.6 130 21:57 09.12.2019
6458 Clouds 17 1018 77 10000 3.6 130 21:39 09.12.2019
6459 Clouds 17 1018 77 10000 3.6 130 21:19 09.12.2019
6460 Clouds 17 1018 72 10000 2.1 110 20:57 09.12.2019
6461 Clouds 17 1018 72 10000 2.1 110 20:57 09.12.2019
6462 Clouds 17 1018 72 10000 2.1 110 20:39 09.12.2019
6463 Clouds 17 1018 72 10000 2.1 110 20:20 09.12.2019
6464 Clouds 18 1018 68 10000 3.1 110 19:56 09.12.2019
6465 Clouds 18 1018 68 10000 3.1 110 19:38 09.12.2019
6466 Clouds 18 1018 68 10000 3.1 110 19:19 09.12.2019
6467 Clouds 18 1018 68 10000 3.1 110 19:19 09.12.2019
6468 Clouds 18 1018 68 10000 3.6 120 18:58 09.12.2019
6469 Clouds 18 1018 68 10000 3.6 120 18:39 09.12.2019
6470 Clouds 18 1018 68 10000 3.6 120 18:20 09.12.2019
6471 Clouds 18 1018 68 10000 3.6 120 17:59 09.12.2019
6472 Clouds 18 1018 68 10000 3.6 120 17:40 09.12.2019
6473 Clouds 18 1018 68 10000 3.6 120 17:21 09.12.2019
6474 Clouds 18 1017 68 10000 4.1 110 16:56 09.12.2019
6475 Clouds 18 1017 68 10000 4.1 110 16:38 09.12.2019
6476 Clouds 18 1017 68 10000 4.1 110 16:20 09.12.2019
6477 Clouds 18 1017 68 10000 4.6 120 15:56 09.12.2019
6478 Clouds 18 1017 68 10000 4.6 120 15:37 09.12.2019
6479 Clouds 18 1017 68 10000 4.6 120 15:19 09.12.2019
6480 Clouds 18 1017 72 10000 4.1 120 14:58 09.12.2019
6481 Clouds 18 1017 72 10000 4.1 120 14:39 09.12.2019
6482 Clouds 18 1017 72 10000 4.1 120 14:18 09.12.2019
6483 Clouds 19 1017 59 10000 3.6 140 13:55 09.12.2019
6484 Clouds 19 1017 59 10000 3.6 140 13:36 09.12.2019
6485 Clouds 19 1017 59 10000 3.6 140 13:18 09.12.2019
6486 Clouds 19 1017 59 10000 4.1 130 12:54 09.12.2019
6487 Clouds 19 1017 59 10000 4.1 130 12:36 09.12.2019
6488 Clouds 19 1017 59 10000 4.1 130 12:18 09.12.2019
6489 Clouds 19 1018 59 10000 4.1 140 11:40 09.12.2019
6490 Clouds 19 1018 59 10000 4.1 140 11:21 09.12.2019
6491 Clouds 19 1019 55 10000 3.1 130 10:57 09.12.2019
6492 Clouds 19 1019 55 10000 3.1 130 10:38 09.12.2019
6493 Clouds 19 1019 55 10000 3.1 130 10:19 09.12.2019
6494 Clouds 19 1019 55 10000 3.1 130 10:19 09.12.2019
6495 Clouds 17 1020 55 10000 2.6 130 09:43 09.12.2019
6496 Clouds 17 1020 55 10000 2.6 130 09:24 09.12.2019
6497 Clouds 16 1020 59 10000 3.1 130 08:57 09.12.2019
6498 Clouds 16 1020 59 10000 3.1 130 08:38 09.12.2019
6499 Clouds 16 1020 59 10000 3.1 130 08:20 09.12.2019
6500 Clear 15 1021 62 10000 1.5 140 07:48 09.12.2019
6501 Clear 15 1021 62 10000 1.5 140 07:30 09.12.2019
6502 Clear 13 1020 71 10000 1 190 06:55 09.12.2019
6503 Clear 13 1020 71 10000 1 190 06:29 09.12.2019
6504 Clear 11 1020 76 10000 5.85 107 05:31 09.12.2019
6505 Clear 10 1020 76 10000 4.12 99 04:58 09.12.2019
6506 Clear 10 1020 76 10000 4.12 99 04:25 09.12.2019
6507 Clear 11 1019 76 10000 4.12 99 02:28 09.12.2019
6508 Clear 12 1019 71 10000 2.1 100 01:46 09.12.2019
6509 Clear 12 1019 71 10000 1 60 00:57 09.12.2019
6510 Clear 12 1019 71 10000 1 60 00:32 09.12.2019
6511 Clear 12 1019 71 10000 1.5 80 23:54 08.12.2019
6512 Clear 12 1019 71 10000 1.5 80 23:36 08.12.2019
6513 Clear 12 1019 71 10000 1.5 80 23:18 08.12.2019
6514 Clear 13 1019 71 10000 1.5 70 22:56 08.12.2019
6515 Clear 13 1019 71 10000 1.5 70 22:37 08.12.2019
6516 Clear 13 1019 71 10000 1.5 70 22:18 08.12.2019
6517 Clear 13 1020 71 10000 1 60 21:55 08.12.2019
6518 Clear 13 1020 71 10000 1 60 21:36 08.12.2019
6519 Clear 13 1020 71 10000 1 60 21:18 08.12.2019
6520 Clear 14 1019 62 10000 2.1 60 20:55 08.12.2019
6521 Clear 14 1019 62 10000 2.1 60 20:36 08.12.2019
6522 Clear 14 1019 62 10000 2.1 60 20:18 08.12.2019
6523 Clear 15 1019 62 10000 2.1 70 19:54 08.12.2019
6524 Clear 15 1019 62 10000 2.1 70 19:36 08.12.2019
6525 Clear 15 1019 62 10000 2.1 70 19:18 08.12.2019
6526 Clear 16 1019 59 10000 2.6 80 18:54 08.12.2019
6527 Clear 16 1019 59 10000 2.6 80 18:36 08.12.2019
6528 Clear 16 1019 59 10000 2.6 80 18:18 08.12.2019
6529 Clear 17 1019 59 10000 3.1 60 17:54 08.12.2019
6530 Clear 17 1019 59 10000 3.1 60 17:36 08.12.2019
6531 Clear 17 1019 59 10000 3.1 60 17:18 08.12.2019
6532 Clear 17 1018 63 10000 3.6 40 16:42 08.12.2019
6533 Clear 17 1018 63 10000 3.6 40 16:23 08.12.2019
6534 Clear 19 1017 55 10000 3.1 50 15:59 08.12.2019
6535 Clear 19 1017 55 10000 3.1 50 15:37 08.12.2019
6536 Clear 19 1017 55 10000 3.1 50 15:18 08.12.2019
6537 Clear 19 1017 55 10000 3.1 80 14:46 08.12.2019
6538 Clear 19 1017 55 10000 3.1 80 14:25 08.12.2019
6539 Clear 19 1017 55 10000 3.1 50 13:59 08.12.2019
6540 Clear 19 1017 55 10000 3.1 50 13:41 08.12.2019
6541 Clear 19 1017 55 10000 3.1 50 13:22 08.12.2019
6542 Clouds 19 1017 59 10000 3.1 350 12:59 08.12.2019
6543 Clouds 19 1017 59 10000 3.1 350 12:40 08.12.2019
6544 Clouds 19 1017 59 10000 3.1 350 12:19 08.12.2019
6545 Clouds 19 1017 59 10000 3.1 350 12:19 08.12.2019
6546 Clouds 18 1017 63 10000 3.35 59 11:58 08.12.2019
6547 Clouds 18 1017 63 10000 3.35 59 11:37 08.12.2019
6548 Clouds 18 1017 63 10000 3.82 56 11:19 08.12.2019
6549 Clouds 18 1018 63 10000 3.6 10 10:55 08.12.2019
6550 Clouds 18 1018 63 10000 3.6 10 10:37 08.12.2019
6551 Clouds 18 1018 63 10000 3.6 10 10:18 08.12.2019
6552 Clouds 18 1019 63 10000 4.1 10 09:55 08.12.2019
6553 Clouds 18 1019 63 10000 4.1 10 09:36 08.12.2019
6554 Clouds 18 1019 63 10000 4.1 10 09:18 08.12.2019
6555 Clear 16 1020 77 10000 4.6 20 08:41 08.12.2019
6556 Clouds 16 1020 77 10000 4.6 20 08:23 08.12.2019
6557 Clouds 16 1020 67 10000 4.1 350 07:49 08.12.2019
6558 Clouds 16 1020 67 10000 4.1 350 07:21 08.12.2019
6559 Clouds 15 1019 72 10000 3.6 320 06:59 08.12.2019
6560 Clouds 15 1019 72 10000 3.6 320 06:39 08.12.2019
6561 Clouds 15 1019 72 10000 3.6 320 06:19 08.12.2019
6562 Clouds 13 1019 87 10000 3.1 310 05:23 08.12.2019
6563 Clouds 14 1018 82 10000 3.6 320 04:23 08.12.2019
6564 Clouds 14 1017 87 10000 3.27 22 03:38 08.12.2019
6565 Clouds 15 1017 87 10000 1 40 02:42 08.12.2019
6566 Clouds 16 1017 82 10000 1.5 360 02:20 08.12.2019
6567 Clouds 16 1017 82 10000 1.5 360 01:35 08.12.2019
6568 Clouds 16 1017 77 10000 2.1 20 00:52 08.12.2019
6569 Clouds 16 1017 77 10000 2.1 20 00:23 08.12.2019
6570 Clouds 17 1017 72 10000 3.1 330 23:57 07.12.2019
6571 Clouds 17 1017 72 10000 3.1 330 23:37 07.12.2019
6572 Clouds 17 1017 72 10000 3.1 330 23:18 07.12.2019
6573 Clouds 16 1017 93 8000 3.38 351 22:55 07.12.2019
6574 Clouds 16 1017 93 8000 3.38 351 22:36 07.12.2019
6575 Clouds 16 1017 93 8000 3.38 351 22:18 07.12.2019
6576 Clouds 17 1016 88 10000 1 140 21:55 07.12.2019
6577 Clouds 17 1016 88 10000 1 140 21:37 07.12.2019
6578 Clouds 17 1016 88 10000 1 140 21:18 07.12.2019
6579 Thunderstorm 17 1016 82 5000 2.1 20 20:38 07.12.2019
6580 Thunderstorm 17 1016 82 5000 2.1 20 20:20 07.12.2019
6581 Thunderstorm 18 1017 77 5000 3.1 270 19:57 07.12.2019
6582 Thunderstorm 18 1017 77 5000 3.1 270 19:39 07.12.2019
6583 Thunderstorm 18 1017 77 5000 3.1 270 19:21 07.12.2019
6584 Thunderstorm 18 1016 82 8000 1 20 18:58 07.12.2019
6585 Thunderstorm 18 1016 82 8000 1 20 18:58 07.12.2019
6586 Thunderstorm 18 1016 82 8000 1 20 18:39 07.12.2019
6587 Thunderstorm 18 1016 82 8000 1 20 18:18 07.12.2019
6588 Thunderstorm 19 1015 68 5000 2.6 70 17:55 07.12.2019
6589 Thunderstorm 19 1015 68 5000 2.6 70 17:37 07.12.2019
6590 Thunderstorm 19 1015 68 5000 2.6 70 17:18 07.12.2019
6591 Clouds 20 1015 56 5000 3.6 340 16:55 07.12.2019
6592 Clouds 20 1015 56 5000 3.6 340 16:36 07.12.2019
6593 Clouds 20 1015 56 5000 3.6 340 16:18 07.12.2019
6594 Thunderstorm 21 1013 64 5000 2.1 340 15:41 07.12.2019
6595 Thunderstorm 21 1013 64 5000 2.1 340 15:22 07.12.2019
6596 Clouds 26 1012 21 10000 3.1 180 14:43 07.12.2019
6597 Clouds 26 1012 21 10000 3.1 180 14:20 07.12.2019
6598 Clouds 27 1012 18 10000 4.1 180 13:59 07.12.2019
6599 Clouds 27 1012 18 10000 4.1 180 13:40 07.12.2019
6600 Clouds 27 1012 18 10000 4.1 180 13:20 07.12.2019
6601 Clouds 26 1013 19 10000 5.1 160 12:55 07.12.2019
6602 Clouds 26 1013 19 10000 5.1 160 12:37 07.12.2019
6603 Clouds 26 1013 19 10000 5.1 160 12:18 07.12.2019
6604 Clouds 26 1014 21 10000 4.6 190 11:42 07.12.2019
6605 Clouds 26 1014 21 10000 4.6 190 11:23 07.12.2019
6606 Clouds 24 1015 23 10000 5.7 180 10:58 07.12.2019
6607 Clouds 24 1015 23 10000 5.7 180 10:37 07.12.2019
6608 Clouds 24 1015 23 10000 5.7 180 10:18 07.12.2019
6609 Clouds 23 1016 27 10000 6.2 170 09:40 07.12.2019
6610 Clouds 23 1016 27 10000 6.2 170 09:21 07.12.2019
6611 Clouds 23 1016 27 10000 6.2 170 09:21 07.12.2019
6612 Clouds 21 1017 28 10000 6.2 170 08:46 07.12.2019
6613 Clouds 21 1017 28 10000 6.2 170 08:25 07.12.2019
6614 Clouds 20 1017 32 10000 6.7 170 07:53 07.12.2019
6615 Clouds 20 1017 32 10000 6.7 170 07:53 07.12.2019
6616 Clouds 20 1017 32 10000 6.7 170 07:29 07.12.2019
6617 Clouds 18 1017 39 10000 5.1 170 06:53 07.12.2019
6618 Clouds 18 1017 39 10000 5.1 170 06:27 07.12.2019
6619 Clouds 17 1017 42 10000 4.6 170 05:49 07.12.2019
6620 Clear 17 1016 39 10000 4.1 170 04:48 07.12.2019
6621 Clear 17 1016 39 10000 4.1 170 04:48 07.12.2019
6622 Clear 16 1016 44 10000 2.6 160 03:51 07.12.2019
6623 Clear 16 1016 41 10000 3.1 160 02:23 07.12.2019
6624 Clear 17 1017 42 10000 3.1 170 01:51 07.12.2019
6625 Clear 17 1017 42 10000 3.1 170 01:25 07.12.2019
6626 Clear 17 1017 39 10000 4.1 170 00:36 07.12.2019
6627 Clear 17 1017 39 10000 4.1 170 00:18 07.12.2019
6628 Clear 17 1017 39 10000 4.1 170 00:18 07.12.2019
6629 Clear 18 1018 39 10000 3.6 170 23:42 06.12.2019
6630 Clear 18 1018 39 10000 3.6 170 23:20 06.12.2019
6631 Clear 18 1018 36 10000 3.6 170 22:39 06.12.2019
6632 Clear 18 1018 36 10000 3.6 170 22:39 06.12.2019
6633 Clear 18 1018 36 10000 3.6 170 22:21 06.12.2019
6634 Clear 19 1019 34 10000 3.6 170 21:59 06.12.2019
6635 Clear 19 1019 34 10000 3.6 170 21:41 06.12.2019
6636 Clear 19 1019 34 10000 3.6 170 21:21 06.12.2019
6637 Clear 19 1019 34 10000 3.1 160 20:59 06.12.2019
6638 Clear 19 1019 34 10000 3.1 160 20:41 06.12.2019
6639 Clear 19 1019 34 10000 3.1 160 20:20 06.12.2019
6640 Clear 20 1019 32 10000 3.6 170 19:43 06.12.2019
6641 Clear 20 1019 32 10000 3.6 170 19:24 06.12.2019
6642 Clear 20 1019 32 10000 3.1 160 18:59 06.12.2019
6643 Clear 20 1019 32 10000 3.1 160 18:40 06.12.2019
6644 Clear 20 1019 32 10000 3.1 160 18:21 06.12.2019
6645 Clear 21 1019 30 10000 4.1 170 17:58 06.12.2019
6646 Clear 21 1019 30 10000 4.1 170 17:40 06.12.2019
6647 Clear 21 1019 30 10000 4.1 170 17:22 06.12.2019
6648 Clear 22 1018 30 10000 3.6 160 16:58 06.12.2019
6649 Clear 22 1018 30 10000 3.6 160 16:38 06.12.2019
6650 Clear 22 1018 30 10000 3.6 160 16:19 06.12.2019
6651 Clear 23 1018 27 10000 4.1 160 15:41 06.12.2019
6652 Clear 23 1018 27 10000 4.1 160 15:22 06.12.2019
6653 Clear 25 1017 23 10000 4.6 180 14:58 06.12.2019
6654 Clear 25 1017 23 10000 4.6 180 14:40 06.12.2019
6655 Clear 25 1017 23 10000 4.6 180 14:20 06.12.2019
6656 Clear 25 1018 22 10000 3.6 180 13:46 06.12.2019
6657 Clear 25 1018 22 10000 3.6 180 13:27 06.12.2019
6658 Clear 25 1018 23 10000 5.1 170 12:58 06.12.2019
6659 Clear 25 1018 23 10000 5.1 170 12:39 06.12.2019
6660 Clear 25 1018 23 10000 5.1 170 12:21 06.12.2019
6661 Clear 25 1019 25 10000 4.6 170 11:42 06.12.2019
6662 Clear 25 1019 25 10000 4.6 170 11:23 06.12.2019
6663 Clear 24 1020 27 10000 6.2 190 10:57 06.12.2019
6664 Clear 24 1020 27 10000 6.2 190 10:38 06.12.2019
6665 Clear 24 1020 27 10000 6.2 190 10:20 06.12.2019
6666 Clear 23 1021 33 10000 6.2 190 09:56 06.12.2019
6667 Clear 23 1021 33 10000 6.2 190 09:37 06.12.2019
6668 Clear 23 1021 33 10000 6.2 190 09:19 06.12.2019
6669 Clear 21 1022 37 10000 5.7 180 08:43 06.12.2019
6670 Clear 21 1022 37 10000 5.7 180 08:25 06.12.2019
6671 Clear 20 1022 45 10000 4.6 180 07:42 06.12.2019
6672 Clear 20 1022 45 10000 4.6 180 07:22 06.12.2019
6673 Clear 17 1022 55 10000 2.6 160 06:48 06.12.2019
6674 Clear 17 1022 55 10000 2.6 160 06:25 06.12.2019
6675 Clear 15 1022 62 10000 2.1 160 05:49 06.12.2019
6676 Clear 17 1021 51 10000 3.6 180 03:50 06.12.2019
6677 Clear 17 1020 51 10000 3.6 170 01:46 06.12.2019
6678 Clear 17 1021 51 10000 3.6 170 00:56 06.12.2019
6679 Clear 17 1021 51 10000 3.6 170 00:24 06.12.2019
6680 Clear 17 1021 51 10000 3.6 160 23:52 05.12.2019
6681 Clear 17 1021 51 10000 3.6 160 23:21 05.12.2019
6682 Clear 17 1021 48 10000 3.1 160 22:59 05.12.2019
6683 Clear 17 1021 48 10000 3.1 160 22:39 05.12.2019
6684 Clear 17 1021 48 10000 3.1 160 22:39 05.12.2019
6685 Clear 17 1021 48 10000 3.1 160 22:20 05.12.2019
6686 Clear 17 1022 48 10000 2.1 150 21:58 05.12.2019
6687 Clear 17 1022 48 10000 2.1 150 21:40 05.12.2019
6688 Clear 17 1022 48 10000 2.1 150 21:22 05.12.2019
6689 Clear 18 1022 45 10000 3.1 150 20:58 05.12.2019
6690 Clear 18 1022 45 10000 3.1 150 20:39 05.12.2019
6691 Clear 18 1022 45 10000 3.1 150 20:19 05.12.2019
6692 Clear 18 1022 48 10000 2.1 140 19:43 05.12.2019
6693 Clear 18 1022 48 10000 2.1 140 19:25 05.